<?xml version="1.0"?>
<gpx xmlns="http://www.topografix.com/GPX/1/1" xmlns:xsi="http://www.w3.org/2001/XMLSchema-instance" xmlns:wptx1="http://www.garmin.com/xmlschemas/WaypointExtension/v1" xmlns:gpxtrx="http://www.garmin.com/xmlschemas/GpxExtensions/v3" xmlns:gpxtpx="http://www.garmin.com/xmlschemas/TrackPointExtension/v1" xmlns:gpxx="http://www.garmin.com/xmlschemas/GpxExtensions/v3" xmlns:trp="http://www.garmin.com/xmlschemas/TripExtensions/v1" xmlns:adv="http://www.garmin.com/xmlschemas/AdventuresExtensions/v1" xmlns:prs="http://www.garmin.com/xmlschemas/PressureExtension/v1" xmlns:tmd="http://www.garmin.com/xmlschemas/TripMetaDataExtensions/v1" xmlns:vptm="http://www.garmin.com/xmlschemas/ViaPointTransportationModeExtensions/v1" xmlns:ctx="http://www.garmin.com/xmlschemas/CreationTimeExtension/v1" xmlns:gpxacc="http://www.garmin.com/xmlschemas/AccelerationExtension/v1" xmlns:gpxpx="http://www.garmin.com/xmlschemas/PowerExtension/v1" xmlns:vidx1="http://www.garmin.com/xmlschemas/VideoExtension/v1" creator="Garmin Desktop App" version="1.1" xsi:schemaLocation="http://www.topografix.com/GPX/1/1 http://www.topografix.com/GPX/1/1/gpx.xsd http://www.garmin.com/xmlschemas/WaypointExtension/v1 http://www8.garmin.com/xmlschemas/WaypointExtensionv1.xsd http://www.garmin.com/xmlschemas/TrackPointExtension/v1 http://www.garmin.com/xmlschemas/TrackPointExtensionv1.xsd http://www.garmin.com/xmlschemas/GpxExtensions/v3 http://www8.garmin.com/xmlschemas/GpxExtensionsv3.xsd http://www.garmin.com/xmlschemas/ActivityExtension/v1 http://www8.garmin.com/xmlschemas/ActivityExtensionv1.xsd http://www.garmin.com/xmlschemas/AdventuresExtensions/v1 http://www8.garmin.com/xmlschemas/AdventuresExtensionv1.xsd http://www.garmin.com/xmlschemas/PressureExtension/v1 http://www.garmin.com/xmlschemas/PressureExtensionv1.xsd http://www.garmin.com/xmlschemas/TripExtensions/v1 http://www.garmin.com/xmlschemas/TripExtensionsv1.xsd http://www.garmin.com/xmlschemas/TripMetaDataExtensions/v1 http://www.garmin.com/xmlschemas/TripMetaDataExtensionsv1.xsd http://www.garmin.com/xmlschemas/ViaPointTransportationModeExtensions/v1 http://www.garmin.com/xmlschemas/ViaPointTransportationModeExtensionsv1.xsd http://www.garmin.com/xmlschemas/CreationTimeExtension/v1 http://www.garmin.com/xmlschemas/CreationTimeExtensionsv1.xsd http://www.garmin.com/xmlschemas/AccelerationExtension/v1 http://www.garmin.com/xmlschemas/AccelerationExtensionv1.xsd http://www.garmin.com/xmlschemas/PowerExtension/v1 http://www.garmin.com/xmlschemas/PowerExtensionv1.xsd http://www.garmin.com/xmlschemas/VideoExtension/v1 http://www.garmin.com/xmlschemas/VideoExtensionv1.xsd">
  <metadata>
    <link href="http://www.garmin.com">
      <text>Garmin International</text>
    </link>
    <time>2020-08-08T16:28:19Z</time>
    <bounds maxlat="46.638717306777835" maxlon="11.686019897460938" minlat="46.401937007904053" minlon="11.39826413244009"/>
  </metadata>
  <trk>
    <name>Karerpassgpx</name>
    <extensions>
      <gpxx:TrackExtension>
        <gpxx:DisplayColor>Red</gpxx:DisplayColor>
      </gpxx:TrackExtension>
    </extensions>
    <trkseg>
      <trkpt lat="46.638027057051659" lon="11.562347933650017">
        <ele>534.0125732421875</ele>
        <time>2016-08-26T07:55:04Z</time>
      </trkpt>
      <trkpt lat="46.638027057051659" lon="11.562347933650017">
        <ele>534.0125732421875</ele>
        <time>2016-08-26T07:55:05Z</time>
      </trkpt>
      <trkpt lat="46.638046922162175" lon="11.562284734100103">
        <ele>534.0023193359375</ele>
        <time>2016-08-26T07:55:46Z</time>
      </trkpt>
      <trkpt lat="46.638070056214929" lon="11.561977621167898">
        <ele>537.2606201171875</ele>
        <time>2016-08-26T07:55:59Z</time>
      </trkpt>
      <trkpt lat="46.63815513253212" lon="11.561854658648372">
        <ele>536.555419921875</ele>
        <time>2016-08-26T07:56:00Z</time>
      </trkpt>
      <trkpt lat="46.63790836930275" lon="11.561841918155551">
        <ele>543.0419921875</ele>
        <time>2016-08-26T07:56:01Z</time>
      </trkpt>
      <trkpt lat="46.638717306777835" lon="11.561844516545534">
        <ele>519.60107421875</ele>
        <time>2016-08-26T07:56:02Z</time>
      </trkpt>
      <trkpt lat="46.638579424470663" lon="11.56177494674921">
        <ele>517.94287109375</ele>
        <time>2016-08-26T07:56:05Z</time>
      </trkpt>
      <trkpt lat="46.63853189907968" lon="11.561744855716825">
        <ele>518.79296875</ele>
        <time>2016-08-26T07:56:06Z</time>
      </trkpt>
      <trkpt lat="46.638602809980512" lon="11.561688613146544">
        <ele>523.154052734375</ele>
        <time>2016-08-26T07:56:09Z</time>
      </trkpt>
      <trkpt lat="46.63853382691741" lon="11.561692636460066">
        <ele>520.35986328125</ele>
        <time>2016-08-26T07:56:13Z</time>
      </trkpt>
      <trkpt lat="46.638474734500051" lon="11.561701269820333">
        <ele>523.357666015625</ele>
        <time>2016-08-26T07:56:15Z</time>
      </trkpt>
      <trkpt lat="46.638414971530437" lon="11.56170554459095">
        <ele>526.855712890625</ele>
        <time>2016-08-26T07:56:19Z</time>
      </trkpt>
      <trkpt lat="46.6383599024266" lon="11.561678973957896">
        <ele>529.4495849609375</ele>
        <time>2016-08-26T07:56:21Z</time>
      </trkpt>
      <trkpt lat="46.63832176476717" lon="11.561640249565244">
        <ele>532.6793212890625</ele>
        <time>2016-08-26T07:56:23Z</time>
      </trkpt>
      <trkpt lat="46.63820743560791" lon="11.561525082215667">
        <ele>530.4287109375</ele>
        <time>2016-08-26T07:56:24Z</time>
      </trkpt>
      <trkpt lat="46.63815513253212" lon="11.56143288128078">
        <ele>533.1680908203125</ele>
        <time>2016-08-26T07:56:25Z</time>
      </trkpt>
      <trkpt lat="46.638089334592223" lon="11.561294831335545">
        <ele>530.039306640625</ele>
        <time>2016-08-26T07:56:27Z</time>
      </trkpt>
      <trkpt lat="46.638017920777202" lon="11.561172790825367">
        <ele>529.729736328125</ele>
        <time>2016-08-26T07:56:28Z</time>
      </trkpt>
      <trkpt lat="46.637953799217939" lon="11.56109525822103">
        <ele>529.834716796875</ele>
        <time>2016-08-26T07:56:29Z</time>
      </trkpt>
      <trkpt lat="46.637868639081717" lon="11.56101755797863">
        <ele>530.501708984375</ele>
        <time>2016-08-26T07:56:30Z</time>
      </trkpt>
      <trkpt lat="46.637789094820619" lon="11.560921920463443">
        <ele>531.14404296875</ele>
        <time>2016-08-26T07:56:31Z</time>
      </trkpt>
      <trkpt lat="46.637691864743829" lon="11.560809267684817">
        <ele>531.556396484375</ele>
        <time>2016-08-26T07:56:32Z</time>
      </trkpt>
      <trkpt lat="46.63765431381762" lon="11.560736848041415">
        <ele>531.0185546875</ele>
        <time>2016-08-26T07:56:33Z</time>
      </trkpt>
      <trkpt lat="46.637591784819961" lon="11.560651017352939">
        <ele>529.59130859375</ele>
        <time>2016-08-26T07:56:34Z</time>
      </trkpt>
      <trkpt lat="46.637512240558863" lon="11.560560911893845">
        <ele>529.850830078125</ele>
        <time>2016-08-26T07:56:35Z</time>
      </trkpt>
      <trkpt lat="46.637411406263709" lon="11.560474243015051">
        <ele>529.2391357421875</ele>
        <time>2016-08-26T07:56:36Z</time>
      </trkpt>
      <trkpt lat="46.637336304411292" lon="11.560382796451449">
        <ele>531.2298583984375</ele>
        <time>2016-08-26T07:56:37Z</time>
      </trkpt>
      <trkpt lat="46.637237062677741" lon="11.560300150886178">
        <ele>531.0811767578125</ele>
        <time>2016-08-26T07:56:38Z</time>
      </trkpt>
      <trkpt lat="46.637146789580584" lon="11.560199819505215">
        <ele>531.6064453125</ele>
        <time>2016-08-26T07:56:39Z</time>
      </trkpt>
      <trkpt lat="46.637058109045029" lon="11.560043497011065">
        <ele>531.5716552734375</ele>
        <time>2016-08-26T07:56:40Z</time>
      </trkpt>
      <trkpt lat="46.636996753513813" lon="11.559903351590037">
        <ele>531.412353515625</ele>
        <time>2016-08-26T07:56:41Z</time>
      </trkpt>
      <trkpt lat="46.636927938088775" lon="11.559819532558322">
        <ele>529.424072265625</ele>
        <time>2016-08-26T07:56:42Z</time>
      </trkpt>
      <trkpt lat="46.636851746588945" lon="11.559699922800064">
        <ele>529.365966796875</ele>
        <time>2016-08-26T07:56:43Z</time>
      </trkpt>
      <trkpt lat="46.636799611151218" lon="11.559581235051155">
        <ele>528.48583984375</ele>
        <time>2016-08-26T07:56:44Z</time>
      </trkpt>
      <trkpt lat="46.636717300862074" lon="11.559485681355">
        <ele>528.1531982421875</ele>
        <time>2016-08-26T07:56:45Z</time>
      </trkpt>
      <trkpt lat="46.636683018878102" lon="11.55936942435801">
        <ele>526.0540771484375</ele>
        <time>2016-08-26T07:56:46Z</time>
      </trkpt>
      <trkpt lat="46.636611940339208" lon="11.559246964752674">
        <ele>525.7431640625</ele>
        <time>2016-08-26T07:56:47Z</time>
      </trkpt>
      <trkpt lat="46.636539855971932" lon="11.559121487662196">
        <ele>524.8104248046875</ele>
        <time>2016-08-26T07:56:48Z</time>
      </trkpt>
      <trkpt lat="46.636423850432038" lon="11.558992909267545">
        <ele>525.6510009765625</ele>
        <time>2016-08-26T07:56:49Z</time>
      </trkpt>
      <trkpt lat="46.636410607025027" lon="11.558863744139671">
        <ele>524.693115234375</ele>
        <time>2016-08-26T07:56:50Z</time>
      </trkpt>
      <trkpt lat="46.636417061090469" lon="11.558727119117975">
        <ele>523.2939453125</ele>
        <time>2016-08-26T07:56:51Z</time>
      </trkpt>
      <trkpt lat="46.636354029178619" lon="11.558565851300955">
        <ele>523.89794921875</ele>
        <time>2016-08-26T07:56:52Z</time>
      </trkpt>
      <trkpt lat="46.636318070814013" lon="11.558385556563735">
        <ele>524.090087890625</ele>
        <time>2016-08-26T07:56:53Z</time>
      </trkpt>
      <trkpt lat="46.636267527937889" lon="11.55822261236608">
        <ele>524.5701904296875</ele>
        <time>2016-08-26T07:56:54Z</time>
      </trkpt>
      <trkpt lat="46.636261492967606" lon="11.558060171082616">
        <ele>522.5723876953125</ele>
        <time>2016-08-26T07:56:55Z</time>
      </trkpt>
      <trkpt lat="46.636137859895825" lon="11.557913906872272">
        <ele>522.9681396484375</ele>
        <time>2016-08-26T07:56:56Z</time>
      </trkpt>
      <trkpt lat="46.636077594012022" lon="11.557716177776456">
        <ele>521.6510009765625</ele>
        <time>2016-08-26T07:56:57Z</time>
      </trkpt>
      <trkpt lat="46.636076001450419" lon="11.55756345950067">
        <ele>521.85693359375</ele>
        <time>2016-08-26T07:56:58Z</time>
      </trkpt>
      <trkpt lat="46.636059656739235" lon="11.557377213612199">
        <ele>523.7867431640625</ele>
        <time>2016-08-26T07:56:59Z</time>
      </trkpt>
      <trkpt lat="46.636008694767952" lon="11.557189710438251">
        <ele>523.2037353515625</ele>
        <time>2016-08-26T07:57:00Z</time>
      </trkpt>
      <trkpt lat="46.635936023667455" lon="11.557036824524403">
        <ele>522.260986328125</ele>
        <time>2016-08-26T07:57:01Z</time>
      </trkpt>
      <trkpt lat="46.63591674529016" lon="11.55687203630805">
        <ele>521.1871337890625</ele>
        <time>2016-08-26T07:57:02Z</time>
      </trkpt>
      <trkpt lat="46.635867124423385" lon="11.556693837046623">
        <ele>521.096923828125</ele>
        <time>2016-08-26T07:57:03Z</time>
      </trkpt>
      <trkpt lat="46.635824292898178" lon="11.55650113709271">
        <ele>521.08740234375</ele>
        <time>2016-08-26T07:57:04Z</time>
      </trkpt>
      <trkpt lat="46.635683476924896" lon="11.556307598948479">
        <ele>520.11328125</ele>
        <time>2016-08-26T07:57:05Z</time>
      </trkpt>
      <trkpt lat="46.635588929057121" lon="11.556149516254663">
        <ele>517.004150390625</ele>
        <time>2016-08-26T07:57:06Z</time>
      </trkpt>
      <trkpt lat="46.635531596839428" lon="11.555996797978878">
        <ele>517.0184326171875</ele>
        <time>2016-08-26T07:57:07Z</time>
      </trkpt>
      <trkpt lat="46.635487591847777" lon="11.555831842124462">
        <ele>516.716796875</ele>
        <time>2016-08-26T07:57:08Z</time>
      </trkpt>
      <trkpt lat="46.635418860241771" lon="11.555674094706774">
        <ele>517.2451171875</ele>
        <time>2016-08-26T07:57:09Z</time>
      </trkpt>
      <trkpt lat="46.635370831936598" lon="11.555484496057034">
        <ele>515.69873046875</ele>
        <time>2016-08-26T07:57:10Z</time>
      </trkpt>
      <trkpt lat="46.635289611294866" lon="11.555319791659713">
        <ele>515.2359619140625</ele>
        <time>2016-08-26T07:57:11Z</time>
      </trkpt>
      <trkpt lat="46.635231943801045" lon="11.555128013715148">
        <ele>515.89306640625</ele>
        <time>2016-08-26T07:57:12Z</time>
      </trkpt>
      <trkpt lat="46.635156758129597" lon="11.554955514147878">
        <ele>514.575927734375</ele>
        <time>2016-08-26T07:57:13Z</time>
      </trkpt>
      <trkpt lat="46.635066820308566" lon="11.5548075735569">
        <ele>515.054443359375</ele>
        <time>2016-08-26T07:57:14Z</time>
      </trkpt>
      <trkpt lat="46.634962214156985" lon="11.554661560803652">
        <ele>516.1561279296875</ele>
        <time>2016-08-26T07:57:15Z</time>
      </trkpt>
      <trkpt lat="46.634869929403067" lon="11.554503478109837">
        <ele>514.49462890625</ele>
        <time>2016-08-26T07:57:16Z</time>
      </trkpt>
      <trkpt lat="46.634765574708581" lon="11.554327122867107">
        <ele>512.072998046875</ele>
        <time>2016-08-26T07:57:17Z</time>
      </trkpt>
      <trkpt lat="46.63464630022645" lon="11.554165352135897">
        <ele>511.782470703125</ele>
        <time>2016-08-26T07:57:18Z</time>
      </trkpt>
      <trkpt lat="46.634531300514936" lon="11.554007017984986">
        <ele>512.4559326171875</ele>
        <time>2016-08-26T07:57:19Z</time>
      </trkpt>
      <trkpt lat="46.634433651342988" lon="11.553828818723559">
        <ele>510.70947265625</ele>
        <time>2016-08-26T07:57:20Z</time>
      </trkpt>
      <trkpt lat="46.634327368810773" lon="11.553676351904869">
        <ele>510.755126953125</ele>
        <time>2016-08-26T07:57:21Z</time>
      </trkpt>
      <trkpt lat="46.634221086278558" lon="11.553514748811722">
        <ele>510.83349609375</ele>
        <time>2016-08-26T07:57:22Z</time>
      </trkpt>
      <trkpt lat="46.634108265861869" lon="11.553367059677839">
        <ele>510.704833984375</ele>
        <time>2016-08-26T07:57:23Z</time>
      </trkpt>
      <trkpt lat="46.63399200886488" lon="11.553220460191369">
        <ele>510.3829345703125</ele>
        <time>2016-08-26T07:57:24Z</time>
      </trkpt>
      <trkpt lat="46.633864771574736" lon="11.553065394982696">
        <ele>511.348876953125</ele>
        <time>2016-08-26T07:57:25Z</time>
      </trkpt>
      <trkpt lat="46.633699145168066" lon="11.552988700568676">
        <ele>511.582275390625</ele>
        <time>2016-08-26T07:57:26Z</time>
      </trkpt>
      <trkpt lat="46.6335488576442" lon="11.552866576239467">
        <ele>512.9661865234375</ele>
        <time>2016-08-26T07:57:27Z</time>
      </trkpt>
      <trkpt lat="46.63339295424521" lon="11.55274311080575">
        <ele>512.6629638671875</ele>
        <time>2016-08-26T07:57:28Z</time>
      </trkpt>
      <trkpt lat="46.633243840187788" lon="11.552625512704253">
        <ele>514.19873046875</ele>
        <time>2016-08-26T07:57:29Z</time>
      </trkpt>
      <trkpt lat="46.633091289550066" lon="11.552503639832139">
        <ele>514.9521484375</ele>
        <time>2016-08-26T07:57:30Z</time>
      </trkpt>
      <trkpt lat="46.632943181321025" lon="11.552383108064532">
        <ele>516.319580078125</ele>
        <time>2016-08-26T07:57:31Z</time>
      </trkpt>
      <trkpt lat="46.632795827463269" lon="11.55226525850594">
        <ele>516.4912109375</ele>
        <time>2016-08-26T07:57:32Z</time>
      </trkpt>
      <trkpt lat="46.632652496919036" lon="11.552144978195429">
        <ele>516.5777587890625</ele>
        <time>2016-08-26T07:57:33Z</time>
      </trkpt>
      <trkpt lat="46.632509501650929" lon="11.552026625722647">
        <ele>517.0482177734375</ele>
        <time>2016-08-26T07:57:34Z</time>
      </trkpt>
      <trkpt lat="46.632370445877314" lon="11.551895616576076">
        <ele>515.487548828125</ele>
        <time>2016-08-26T07:57:35Z</time>
      </trkpt>
      <trkpt lat="46.632220661267638" lon="11.551789836958051">
        <ele>515.91796875</ele>
        <time>2016-08-26T07:57:36Z</time>
      </trkpt>
      <trkpt lat="46.632076576352119" lon="11.551675423979759">
        <ele>516.593505859375</ele>
        <time>2016-08-26T07:57:37Z</time>
      </trkpt>
      <trkpt lat="46.631938777863979" lon="11.551566543057561">
        <ele>516.85986328125</ele>
        <time>2016-08-26T07:57:38Z</time>
      </trkpt>
      <trkpt lat="46.631805337965488" lon="11.55147266574204">
        <ele>517.854248046875</ele>
        <time>2016-08-26T07:57:39Z</time>
      </trkpt>
      <trkpt lat="46.63167885504663" lon="11.551368813961744">
        <ele>518.674072265625</ele>
        <time>2016-08-26T07:57:40Z</time>
      </trkpt>
      <trkpt lat="46.631548851728439" lon="11.551272170618176">
        <ele>520.328857421875</ele>
        <time>2016-08-26T07:57:41Z</time>
      </trkpt>
      <trkpt lat="46.631428655236959" lon="11.551175191998482">
        <ele>520.43408203125</ele>
        <time>2016-08-26T07:57:42Z</time>
      </trkpt>
      <trkpt lat="46.631326479837298" lon="11.551067065447569">
        <ele>519.309326171875</ele>
        <time>2016-08-26T07:57:43Z</time>
      </trkpt>
      <trkpt lat="46.631203265860677" lon="11.550976037979126">
        <ele>520.4149169921875</ele>
        <time>2016-08-26T07:57:44Z</time>
      </trkpt>
      <trkpt lat="46.631108298897743" lon="11.550861541181803">
        <ele>518.1197509765625</ele>
        <time>2016-08-26T07:57:45Z</time>
      </trkpt>
      <trkpt lat="46.630992377176881" lon="11.550751235336065">
        <ele>517.560302734375</ele>
        <time>2016-08-26T07:57:46Z</time>
      </trkpt>
      <trkpt lat="46.630875701084733" lon="11.550634643062949">
        <ele>517.968017578125</ele>
        <time>2016-08-26T07:57:47Z</time>
      </trkpt>
      <trkpt lat="46.630748128518462" lon="11.55054671689868">
        <ele>517.70458984375</ele>
        <time>2016-08-26T07:57:48Z</time>
      </trkpt>
      <trkpt lat="46.630623992532492" lon="11.550462814047933">
        <ele>517.0533447265625</ele>
        <time>2016-08-26T07:57:49Z</time>
      </trkpt>
      <trkpt lat="46.630494575947523" lon="11.550386622548103">
        <ele>516.824462890625</ele>
        <time>2016-08-26T07:57:50Z</time>
      </trkpt>
      <trkpt lat="46.630358789116144" lon="11.550332391634583">
        <ele>517.0482177734375</ele>
        <time>2016-08-26T07:57:51Z</time>
      </trkpt>
      <trkpt lat="46.630216967314482" lon="11.550288805738091">
        <ele>516.42333984375</ele>
        <time>2016-08-26T07:57:52Z</time>
      </trkpt>
      <trkpt lat="46.630086963996291" lon="11.550250835716724">
        <ele>515.3927001953125</ele>
        <time>2016-08-26T07:57:53Z</time>
      </trkpt>
      <trkpt lat="46.629957379773259" lon="11.55022812075913">
        <ele>513.44189453125</ele>
        <time>2016-08-26T07:57:54Z</time>
      </trkpt>
      <trkpt lat="46.629796028137207" lon="11.550191408023238">
        <ele>512.918701171875</ele>
        <time>2016-08-26T07:57:55Z</time>
      </trkpt>
      <trkpt lat="46.629639118909836" lon="11.550153773277998">
        <ele>513.801025390625</ele>
        <time>2016-08-26T07:57:56Z</time>
      </trkpt>
      <trkpt lat="46.629547085613012" lon="11.550051597878337">
        <ele>510.953857421875</ele>
        <time>2016-08-26T07:57:57Z</time>
      </trkpt>
      <trkpt lat="46.629425464197993" lon="11.549943219870329">
        <ele>509.616455078125</ele>
        <time>2016-08-26T07:57:58Z</time>
      </trkpt>
      <trkpt lat="46.629300070926547" lon="11.54982453212142">
        <ele>509.48681640625</ele>
        <time>2016-08-26T07:57:59Z</time>
      </trkpt>
      <trkpt lat="46.629206528887153" lon="11.549665778875351">
        <ele>509.8154296875</ele>
        <time>2016-08-26T07:58:00Z</time>
      </trkpt>
      <trkpt lat="46.629111981019378" lon="11.549508702009916">
        <ele>511.504150390625</ele>
        <time>2016-08-26T07:58:01Z</time>
      </trkpt>
      <trkpt lat="46.629014918580651" lon="11.549351289868355">
        <ele>511.4521484375</ele>
        <time>2016-08-26T07:58:02Z</time>
      </trkpt>
      <trkpt lat="46.628916515037417" lon="11.549203852191567">
        <ele>511.8875732421875</ele>
        <time>2016-08-26T07:58:03Z</time>
      </trkpt>
      <trkpt lat="46.628785170614719" lon="11.549087008461356">
        <ele>510.7711181640625</ele>
        <time>2016-08-26T07:58:04Z</time>
      </trkpt>
      <trkpt lat="46.628662962466478" lon="11.548976115882397">
        <ele>510.18359375</ele>
        <time>2016-08-26T07:58:05Z</time>
      </trkpt>
      <trkpt lat="46.628531953319907" lon="11.548906546086073">
        <ele>510.1136474609375</ele>
        <time>2016-08-26T07:58:06Z</time>
      </trkpt>
      <trkpt lat="46.628380743786693" lon="11.548872767016292">
        <ele>511.923583984375</ele>
        <time>2016-08-26T07:58:07Z</time>
      </trkpt>
      <trkpt lat="46.628245292231441" lon="11.548849884420633">
        <ele>512.0030517578125</ele>
        <time>2016-08-26T07:58:08Z</time>
      </trkpt>
      <trkpt lat="46.62811285816133" lon="11.548852985724807">
        <ele>511.583984375</ele>
        <time>2016-08-26T07:58:09Z</time>
      </trkpt>
      <trkpt lat="46.627974724397063" lon="11.548862289637327">
        <ele>510.3662109375</ele>
        <time>2016-08-26T07:58:10Z</time>
      </trkpt>
      <trkpt lat="46.627844972535968" lon="11.548882573843002">
        <ele>510.0030517578125</ele>
        <time>2016-08-26T07:58:11Z</time>
      </trkpt>
      <trkpt lat="46.627721339464188" lon="11.548889363184571">
        <ele>510.3526611328125</ele>
        <time>2016-08-26T07:58:12Z</time>
      </trkpt>
      <trkpt lat="46.627596700564027" lon="11.548876622691751">
        <ele>510.7325439453125</ele>
        <time>2016-08-26T07:58:13Z</time>
      </trkpt>
      <trkpt lat="46.627473318949342" lon="11.548848794773221">
        <ele>510.075927734375</ele>
        <time>2016-08-26T07:58:14Z</time>
      </trkpt>
      <trkpt lat="46.62733887322247" lon="11.548809735104442">
        <ele>510.745361328125</ele>
        <time>2016-08-26T07:58:15Z</time>
      </trkpt>
      <trkpt lat="46.627214569598436" lon="11.548726838082075">
        <ele>510.4593505859375</ele>
        <time>2016-08-26T07:58:16Z</time>
      </trkpt>
      <trkpt lat="46.627095714211464" lon="11.54864645563066">
        <ele>510.739013671875</ele>
        <time>2016-08-26T07:58:17Z</time>
      </trkpt>
      <trkpt lat="46.626991191878915" lon="11.548565905541182">
        <ele>509.650390625</ele>
        <time>2016-08-26T07:58:18Z</time>
      </trkpt>
      <trkpt lat="46.626880131661892" lon="11.54847445897758">
        <ele>508.440673828125</ele>
        <time>2016-08-26T07:58:19Z</time>
      </trkpt>
      <trkpt lat="46.626767730340362" lon="11.548387035727501">
        <ele>508.6470947265625</ele>
        <time>2016-08-26T07:58:20Z</time>
      </trkpt>
      <trkpt lat="46.626647114753723" lon="11.54830296523869">
        <ele>508.15771484375</ele>
        <time>2016-08-26T07:58:21Z</time>
      </trkpt>
      <trkpt lat="46.62653555162251" lon="11.548214955255389">
        <ele>507.8701171875</ele>
        <time>2016-08-26T07:58:22Z</time>
      </trkpt>
      <trkpt lat="46.626413175836205" lon="11.548115713521838">
        <ele>507.20068359375</ele>
        <time>2016-08-26T07:58:23Z</time>
      </trkpt>
      <trkpt lat="46.626304714009166" lon="11.548015549778938">
        <ele>505.38818359375</ele>
        <time>2016-08-26T07:58:24Z</time>
      </trkpt>
      <trkpt lat="46.626188205555081" lon="11.547933658584952">
        <ele>505.4532470703125</ele>
        <time>2016-08-26T07:58:25Z</time>
      </trkpt>
      <trkpt lat="46.626081420108676" lon="11.547843385487795">
        <ele>505.5050048828125</ele>
        <time>2016-08-26T07:58:26Z</time>
      </trkpt>
      <trkpt lat="46.62597413174808" lon="11.547759734094143">
        <ele>505.75830078125</ele>
        <time>2016-08-26T07:58:27Z</time>
      </trkpt>
      <trkpt lat="46.625869693234563" lon="11.547681950032711">
        <ele>506.193115234375</ele>
        <time>2016-08-26T07:58:28Z</time>
      </trkpt>
      <trkpt lat="46.625774642452598" lon="11.547598298639059">
        <ele>506.60498046875</ele>
        <time>2016-08-26T07:58:29Z</time>
      </trkpt>
      <trkpt lat="46.62568042986095" lon="11.547489669173956">
        <ele>506.69970703125</ele>
        <time>2016-08-26T07:58:30Z</time>
      </trkpt>
      <trkpt lat="46.625602897256613" lon="11.547342902049422">
        <ele>507.11376953125</ele>
        <time>2016-08-26T07:58:31Z</time>
      </trkpt>
      <trkpt lat="46.625525364652276" lon="11.547188339754939">
        <ele>506.610107421875</ele>
        <time>2016-08-26T07:58:32Z</time>
      </trkpt>
      <trkpt lat="46.625441294163465" lon="11.547032352536917">
        <ele>507.41845703125</ele>
        <time>2016-08-26T07:58:33Z</time>
      </trkpt>
      <trkpt lat="46.625359570607543" lon="11.54685658402741">
        <ele>507.487548828125</ele>
        <time>2016-08-26T07:58:34Z</time>
      </trkpt>
      <trkpt lat="46.625277092680335" lon="11.546671679243445">
        <ele>507.2607421875</ele>
        <time>2016-08-26T07:58:35Z</time>
      </trkpt>
      <trkpt lat="46.625187657773495" lon="11.546499179676175">
        <ele>507.746826171875</ele>
        <time>2016-08-26T07:58:36Z</time>
      </trkpt>
      <trkpt lat="46.625103838741779" lon="11.546308910474181">
        <ele>509.00390625</ele>
        <time>2016-08-26T07:58:37Z</time>
      </trkpt>
      <trkpt lat="46.62502471357584" lon="11.546126520261168">
        <ele>509.66650390625</ele>
        <time>2016-08-26T07:58:38Z</time>
      </trkpt>
      <trkpt lat="46.624932093545794" lon="11.545944297686219">
        <ele>510.44384765625</ele>
        <time>2016-08-26T07:58:39Z</time>
      </trkpt>
      <trkpt lat="46.624823128804564" lon="11.545784035697579">
        <ele>510.93115234375</ele>
        <time>2016-08-26T07:58:40Z</time>
      </trkpt>
      <trkpt lat="46.624731598421931" lon="11.545617654919624">
        <ele>509.683837890625</ele>
        <time>2016-08-26T07:58:41Z</time>
      </trkpt>
      <trkpt lat="46.624631602317095" lon="11.545443562790751">
        <ele>510.185791015625</ele>
        <time>2016-08-26T07:58:42Z</time>
      </trkpt>
      <trkpt lat="46.624521883204579" lon="11.545278104022145">
        <ele>511.7149658203125</ele>
        <time>2016-08-26T07:58:43Z</time>
      </trkpt>
      <trkpt lat="46.624411912634969" lon="11.545117842033505">
        <ele>512.23583984375</ele>
        <time>2016-08-26T07:58:44Z</time>
      </trkpt>
      <trkpt lat="46.624278221279383" lon="11.544971829280257">
        <ele>511.8218994140625</ele>
        <time>2016-08-26T07:58:45Z</time>
      </trkpt>
      <trkpt lat="46.624146373942494" lon="11.544828414916992">
        <ele>511.585205078125</ele>
        <time>2016-08-26T07:58:46Z</time>
      </trkpt>
      <trkpt lat="46.624016622081399" lon="11.544693382456899">
        <ele>511.17578125</ele>
        <time>2016-08-26T07:58:47Z</time>
      </trkpt>
      <trkpt lat="46.623892653733492" lon="11.544563379138708">
        <ele>512.14453125</ele>
        <time>2016-08-26T07:58:48Z</time>
      </trkpt>
      <trkpt lat="46.623774049803615" lon="11.54442667029798">
        <ele>512.4775390625</ele>
        <time>2016-08-26T07:58:49Z</time>
      </trkpt>
      <trkpt lat="46.623645052313805" lon="11.544299265369773">
        <ele>512.518310546875</ele>
        <time>2016-08-26T07:58:50Z</time>
      </trkpt>
      <trkpt lat="46.62352217361331" lon="11.544173117727041">
        <ele>512.763671875</ele>
        <time>2016-08-26T07:58:51Z</time>
      </trkpt>
      <trkpt lat="46.623387644067407" lon="11.544072367250919">
        <ele>513.2421875</ele>
        <time>2016-08-26T07:58:52Z</time>
      </trkpt>
      <trkpt lat="46.623260239139199" lon="11.543940352275968">
        <ele>513.6285400390625</ele>
        <time>2016-08-26T07:58:53Z</time>
      </trkpt>
      <trkpt lat="46.623125122860074" lon="11.543847732245922">
        <ele>513.9765625</ele>
        <time>2016-08-26T07:58:54Z</time>
      </trkpt>
      <trkpt lat="46.622992185875773" lon="11.543769361451268">
        <ele>514.305908203125</ele>
        <time>2016-08-26T07:58:55Z</time>
      </trkpt>
      <trkpt lat="46.622852794826031" lon="11.54371521435678">
        <ele>515.5870361328125</ele>
        <time>2016-08-26T07:58:56Z</time>
      </trkpt>
      <trkpt lat="46.622726898640394" lon="11.543641034513712">
        <ele>515.0341796875</ele>
        <time>2016-08-26T07:58:57Z</time>
      </trkpt>
      <trkpt lat="46.62259622476995" lon="11.543595688417554">
        <ele>514.9642333984375</ele>
        <time>2016-08-26T07:58:58Z</time>
      </trkpt>
      <trkpt lat="46.622472926974297" lon="11.543550342321396">
        <ele>514.7802734375</ele>
        <time>2016-08-26T07:58:59Z</time>
      </trkpt>
      <trkpt lat="46.622363878414035" lon="11.543485885486007">
        <ele>514.149658203125</ele>
        <time>2016-08-26T07:59:00Z</time>
      </trkpt>
      <trkpt lat="46.622259607538581" lon="11.543406844139099">
        <ele>514.733642578125</ele>
        <time>2016-08-26T07:59:01Z</time>
      </trkpt>
      <trkpt lat="46.62216430529952" lon="11.543324282392859">
        <ele>514.8084716796875</ele>
        <time>2016-08-26T07:59:02Z</time>
      </trkpt>
      <trkpt lat="46.622071517631412" lon="11.543235350400209">
        <ele>515.28271484375</ele>
        <time>2016-08-26T07:59:03Z</time>
      </trkpt>
      <trkpt lat="46.621981412172318" lon="11.543141975998878">
        <ele>515.518798828125</ele>
        <time>2016-08-26T07:59:04Z</time>
      </trkpt>
      <trkpt lat="46.621895832940936" lon="11.543026054278016">
        <ele>515.944580078125</ele>
        <time>2016-08-26T07:59:05Z</time>
      </trkpt>
      <trkpt lat="46.621807822957635" lon="11.542896637693048">
        <ele>516.0946044921875</ele>
        <time>2016-08-26T07:59:06Z</time>
      </trkpt>
      <trkpt lat="46.6217250097543" lon="11.542758503928781">
        <ele>515.733642578125</ele>
        <time>2016-08-26T07:59:07Z</time>
      </trkpt>
      <trkpt lat="46.621639430522919" lon="11.542632691562176">
        <ele>515.4052734375</ele>
        <time>2016-08-26T07:59:08Z</time>
      </trkpt>
      <trkpt lat="46.621557204052806" lon="11.542501095682383">
        <ele>515.85205078125</ele>
        <time>2016-08-26T07:59:09Z</time>
      </trkpt>
      <trkpt lat="46.621491322293878" lon="11.542356424033642">
        <ele>514.8519287109375</ele>
        <time>2016-08-26T07:59:10Z</time>
      </trkpt>
      <trkpt lat="46.621428458020091" lon="11.542209405452013">
        <ele>515.978271484375</ele>
        <time>2016-08-26T07:59:11Z</time>
      </trkpt>
      <trkpt lat="46.621357714757323" lon="11.542044198140502">
        <ele>514.882568359375</ele>
        <time>2016-08-26T07:59:12Z</time>
      </trkpt>
      <trkpt lat="46.62130918353796" lon="11.541875386610627">
        <ele>514.614990234375</ele>
        <time>2016-08-26T07:59:13Z</time>
      </trkpt>
      <trkpt lat="46.621278421953321" lon="11.541680339723825">
        <ele>514.656494140625</ele>
        <time>2016-08-26T07:59:14Z</time>
      </trkpt>
      <trkpt lat="46.621240619570017" lon="11.54147875495255">
        <ele>514.1171875</ele>
        <time>2016-08-26T07:59:15Z</time>
      </trkpt>
      <trkpt lat="46.62121245637536" lon="11.541283708065748">
        <ele>513.474609375</ele>
        <time>2016-08-26T07:59:16Z</time>
      </trkpt>
      <trkpt lat="46.621161159127951" lon="11.541091008111835">
        <ele>512.2781982421875</ele>
        <time>2016-08-26T07:59:17Z</time>
      </trkpt>
      <trkpt lat="46.621110448613763" lon="11.540906606242061">
        <ele>511.954345703125</ele>
        <time>2016-08-26T07:59:18Z</time>
      </trkpt>
      <trkpt lat="46.621015397831798" lon="11.540746176615357">
        <ele>510.9287109375</ele>
        <time>2016-08-26T07:59:19Z</time>
      </trkpt>
      <trkpt lat="46.620924286544323" lon="11.540581891313195">
        <ele>510.785888671875</ele>
        <time>2016-08-26T07:59:20Z</time>
      </trkpt>
      <trkpt lat="46.62083376199007" lon="11.540416348725557">
        <ele>510.593017578125</ele>
        <time>2016-08-26T07:59:21Z</time>
      </trkpt>
      <trkpt lat="46.620744578540325" lon="11.540257344022393">
        <ele>510.1199951171875</ele>
        <time>2016-08-26T07:59:22Z</time>
      </trkpt>
      <trkpt lat="46.620639134198427" lon="11.540096579119563">
        <ele>509.3095703125</ele>
        <time>2016-08-26T07:59:23Z</time>
      </trkpt>
      <trkpt lat="46.620462192222476" lon="11.540009072050452">
        <ele>509.02978515625</ele>
        <time>2016-08-26T07:59:24Z</time>
      </trkpt>
      <trkpt lat="46.620338894426823" lon="11.539901616051793">
        <ele>509.6580810546875</ele>
        <time>2016-08-26T07:59:25Z</time>
      </trkpt>
      <trkpt lat="46.62022590637207" lon="11.539795501157641">
        <ele>510.453125</ele>
        <time>2016-08-26T07:59:26Z</time>
      </trkpt>
      <trkpt lat="46.620132112875581" lon="11.539700115099549">
        <ele>508.910400390625</ele>
        <time>2016-08-26T07:59:27Z</time>
      </trkpt>
      <trkpt lat="46.6200050432235" lon="11.539635574445128">
        <ele>508.986572265625</ele>
        <time>2016-08-26T07:59:28Z</time>
      </trkpt>
      <trkpt lat="46.619873950257897" lon="11.539588300511241">
        <ele>509.3563232421875</ele>
        <time>2016-08-26T07:59:29Z</time>
      </trkpt>
      <trkpt lat="46.619757860898972" lon="11.539544463157654">
        <ele>509.3291015625</ele>
        <time>2016-08-26T07:59:30Z</time>
      </trkpt>
      <trkpt lat="46.619646046310663" lon="11.53953842818737">
        <ele>509.949462890625</ele>
        <time>2016-08-26T07:59:31Z</time>
      </trkpt>
      <trkpt lat="46.619523419067264" lon="11.539541110396385">
        <ele>509.025146484375</ele>
        <time>2016-08-26T07:59:32Z</time>
      </trkpt>
      <trkpt lat="46.619405234232545" lon="11.539513953030109">
        <ele>509.36962890625</ele>
        <time>2016-08-26T07:59:33Z</time>
      </trkpt>
      <trkpt lat="46.619297862052917" lon="11.539467517286539">
        <ele>507.6009521484375</ele>
        <time>2016-08-26T07:59:34Z</time>
      </trkpt>
      <trkpt lat="46.619162410497665" lon="11.539411526173353">
        <ele>509.0224609375</ele>
        <time>2016-08-26T07:59:35Z</time>
      </trkpt>
      <trkpt lat="46.619034670293331" lon="11.53932292945683">
        <ele>510.23193359375</ele>
        <time>2016-08-26T07:59:36Z</time>
      </trkpt>
      <trkpt lat="46.61891489289701" lon="11.539221256971359">
        <ele>510.712646484375</ele>
        <time>2016-08-26T07:59:37Z</time>
      </trkpt>
      <trkpt lat="46.618814896792173" lon="11.539103491231799">
        <ele>510.18310546875</ele>
        <time>2016-08-26T07:59:38Z</time>
      </trkpt>
      <trkpt lat="46.618717666715384" lon="11.538972482085228">
        <ele>509.9722900390625</ele>
        <time>2016-08-26T07:59:39Z</time>
      </trkpt>
      <trkpt lat="46.618618173524737" lon="11.538842394948006">
        <ele>510.524169921875</ele>
        <time>2016-08-26T07:59:40Z</time>
      </trkpt>
      <trkpt lat="46.618498563766479" lon="11.53872286900878">
        <ele>510.38916015625</ele>
        <time>2016-08-26T07:59:41Z</time>
      </trkpt>
      <trkpt lat="46.618380714207888" lon="11.538604013621807">
        <ele>508.826416015625</ele>
        <time>2016-08-26T07:59:42Z</time>
      </trkpt>
      <trkpt lat="46.618240317329764" lon="11.538482308387756">
        <ele>508.4349365234375</ele>
        <time>2016-08-26T07:59:43Z</time>
      </trkpt>
      <trkpt lat="46.618093885481358" lon="11.538358256220818">
        <ele>508.66259765625</ele>
        <time>2016-08-26T07:59:44Z</time>
      </trkpt>
      <trkpt lat="46.61795424297452" lon="11.53823328204453">
        <ele>509.040771484375</ele>
        <time>2016-08-26T07:59:45Z</time>
      </trkpt>
      <trkpt lat="46.617805045098066" lon="11.538106631487608">
        <ele>507.94921875</ele>
        <time>2016-08-26T07:59:46Z</time>
      </trkpt>
      <trkpt lat="46.617676299065351" lon="11.538005378097296">
        <ele>506.5450439453125</ele>
        <time>2016-08-26T07:59:47Z</time>
      </trkpt>
      <trkpt lat="46.617532633244991" lon="11.537961708381772">
        <ele>506.603759765625</ele>
        <time>2016-08-26T07:59:48Z</time>
      </trkpt>
      <trkpt lat="46.61740941926837" lon="11.537912171334028">
        <ele>506.699462890625</ele>
        <time>2016-08-26T07:59:49Z</time>
      </trkpt>
      <trkpt lat="46.617291988804936" lon="11.537879901006818">
        <ele>507.228515625</ele>
        <time>2016-08-26T07:59:50Z</time>
      </trkpt>
      <trkpt lat="46.617171121761203" lon="11.537862382829189">
        <ele>506.4725341796875</ele>
        <time>2016-08-26T07:59:51Z</time>
      </trkpt>
      <trkpt lat="46.617047237232327" lon="11.537824915722013">
        <ele>506.52490234375</ele>
        <time>2016-08-26T07:59:52Z</time>
      </trkpt>
      <trkpt lat="46.616925112903118" lon="11.537809325382113">
        <ele>507.53564453125</ele>
        <time>2016-08-26T07:59:53Z</time>
      </trkpt>
      <trkpt lat="46.616804162040353" lon="11.537776635959744">
        <ele>508.132568359375</ele>
        <time>2016-08-26T07:59:54Z</time>
      </trkpt>
      <trkpt lat="46.616674577817321" lon="11.53774905949831">
        <ele>509.352783203125</ele>
        <time>2016-08-26T07:59:55Z</time>
      </trkpt>
      <trkpt lat="46.616547172889113" lon="11.537727182731032">
        <ele>509.8818359375</ele>
        <time>2016-08-26T07:59:56Z</time>
      </trkpt>
      <trkpt lat="46.616421779617667" lon="11.537679154425859">
        <ele>509.4351806640625</ele>
        <time>2016-08-26T07:59:57Z</time>
      </trkpt>
      <trkpt lat="46.616285825148225" lon="11.537633556872606">
        <ele>511.5223388671875</ele>
        <time>2016-08-26T07:59:58Z</time>
      </trkpt>
      <trkpt lat="46.616148529574275" lon="11.537595586851239">
        <ele>512.6319580078125</ele>
        <time>2016-08-26T07:59:59Z</time>
      </trkpt>
      <trkpt lat="46.61601978354156" lon="11.537534901872277">
        <ele>511.483642578125</ele>
        <time>2016-08-26T08:00:00Z</time>
      </trkpt>
      <trkpt lat="46.61588248796761" lon="11.5374974347651">
        <ele>511.977783203125</ele>
        <time>2016-08-26T08:00:01Z</time>
      </trkpt>
      <trkpt lat="46.615747706964612" lon="11.53745929710567">
        <ele>512.638427734375</ele>
        <time>2016-08-26T08:00:02Z</time>
      </trkpt>
      <trkpt lat="46.615614099428058" lon="11.53740992769599">
        <ele>512.316162109375</ele>
        <time>2016-08-26T08:00:03Z</time>
      </trkpt>
      <trkpt lat="46.615494573488832" lon="11.537351422011852">
        <ele>512.32177734375</ele>
        <time>2016-08-26T08:00:04Z</time>
      </trkpt>
      <trkpt lat="46.615376137197018" lon="11.537296017631888">
        <ele>512.1492919921875</ele>
        <time>2016-08-26T08:00:05Z</time>
      </trkpt>
      <trkpt lat="46.615260215476155" lon="11.537225693464279">
        <ele>513.703857421875</ele>
        <time>2016-08-26T08:00:06Z</time>
      </trkpt>
      <trkpt lat="46.615149239078164" lon="11.537135252729058">
        <ele>514.7562255859375</ele>
        <time>2016-08-26T08:00:07Z</time>
      </trkpt>
      <trkpt lat="46.615037508308887" lon="11.5370381064713">
        <ele>514.901123046875</ele>
        <time>2016-08-26T08:00:08Z</time>
      </trkpt>
      <trkpt lat="46.614931309595704" lon="11.536941630765796">
        <ele>515.4000244140625</ele>
        <time>2016-08-26T08:00:09Z</time>
      </trkpt>
      <trkpt lat="46.614827373996377" lon="11.536843394860625">
        <ele>515.0595703125</ele>
        <time>2016-08-26T08:00:10Z</time>
      </trkpt>
      <trkpt lat="46.614723773673177" lon="11.53674884699285">
        <ele>514.842041015625</ele>
        <time>2016-08-26T08:00:11Z</time>
      </trkpt>
      <trkpt lat="46.614620676264167" lon="11.536649940535426">
        <ele>515.244873046875</ele>
        <time>2016-08-26T08:00:12Z</time>
      </trkpt>
      <trkpt lat="46.614524535834789" lon="11.536561511456966">
        <ele>516.19140625</ele>
        <time>2016-08-26T08:00:13Z</time>
      </trkpt>
      <trkpt lat="46.614432670176029" lon="11.536469645798206">
        <ele>516.00439453125</ele>
        <time>2016-08-26T08:00:14Z</time>
      </trkpt>
      <trkpt lat="46.614339044317603" lon="11.536372248083353">
        <ele>516.421875</ele>
        <time>2016-08-26T08:00:15Z</time>
      </trkpt>
      <trkpt lat="46.614251453429461" lon="11.536263450980186">
        <ele>515.19970703125</ele>
        <time>2016-08-26T08:00:16Z</time>
      </trkpt>
      <trkpt lat="46.614161431789398" lon="11.536139650270343">
        <ele>514.85009765625</ele>
        <time>2016-08-26T08:00:17Z</time>
      </trkpt>
      <trkpt lat="46.614074511453509" lon="11.53599439188838">
        <ele>514.09619140625</ele>
        <time>2016-08-26T08:00:18Z</time>
      </trkpt>
      <trkpt lat="46.613984741270542" lon="11.535856509581208">
        <ele>512.544189453125</ele>
        <time>2016-08-26T08:00:19Z</time>
      </trkpt>
      <trkpt lat="46.613896479830146" lon="11.535708317533135">
        <ele>511.6982421875</ele>
        <time>2016-08-26T08:00:20Z</time>
      </trkpt>
      <trkpt lat="46.613805619999766" lon="11.535565322265029">
        <ele>510.84423828125</ele>
        <time>2016-08-26T08:00:21Z</time>
      </trkpt>
      <trkpt lat="46.613720962777734" lon="11.535428110510111">
        <ele>510.5849609375</ele>
        <time>2016-08-26T08:00:22Z</time>
      </trkpt>
      <trkpt lat="46.613623481243849" lon="11.535284360870719">
        <ele>510.119140625</ele>
        <time>2016-08-26T08:00:23Z</time>
      </trkpt>
      <trkpt lat="46.613533459603786" lon="11.535142622888088">
        <ele>510.658447265625</ele>
        <time>2016-08-26T08:00:24Z</time>
      </trkpt>
      <trkpt lat="46.613444862887263" lon="11.534990156069398">
        <ele>510.490966796875</ele>
        <time>2016-08-26T08:00:25Z</time>
      </trkpt>
      <trkpt lat="46.613356852903962" lon="11.534850345924497">
        <ele>509.448974609375</ele>
        <time>2016-08-26T08:00:26Z</time>
      </trkpt>
      <trkpt lat="46.613269513472915" lon="11.534701734781265">
        <ele>508.8824462890625</ele>
        <time>2016-08-26T08:00:27Z</time>
      </trkpt>
      <trkpt lat="46.613179156556726" lon="11.534557901322842">
        <ele>509.86767578125</ele>
        <time>2016-08-26T08:00:28Z</time>
      </trkpt>
      <trkpt lat="46.613091314211488" lon="11.534412559121847">
        <ele>510.0802001953125</ele>
        <time>2016-08-26T08:00:29Z</time>
      </trkpt>
      <trkpt lat="46.613001711666584" lon="11.53427098877728">
        <ele>509.8543701171875</ele>
        <time>2016-08-26T08:00:30Z</time>
      </trkpt>
      <trkpt lat="46.612919066101313" lon="11.534159928560257">
        <ele>509.6431884765625</ele>
        <time>2016-08-26T08:00:31Z</time>
      </trkpt>
      <trkpt lat="46.612844131886959" lon="11.53407066129148">
        <ele>510.1240234375</ele>
        <time>2016-08-26T08:00:32Z</time>
      </trkpt>
      <trkpt lat="46.612782692536712" lon="11.534003941342235">
        <ele>509.98486328125</ele>
        <time>2016-08-26T08:00:33Z</time>
      </trkpt>
      <trkpt lat="46.612721085548401" lon="11.533943675458431">
        <ele>510.3955078125</ele>
        <time>2016-08-26T08:00:34Z</time>
      </trkpt>
      <trkpt lat="46.61266878247261" lon="11.53387863188982">
        <ele>510.742919921875</ele>
        <time>2016-08-26T08:00:35Z</time>
      </trkpt>
      <trkpt lat="46.612597452476621" lon="11.533803530037403">
        <ele>510.516357421875</ele>
        <time>2016-08-26T08:00:36Z</time>
      </trkpt>
      <trkpt lat="46.612516902387142" lon="11.533723399043083">
        <ele>509.6103515625</ele>
        <time>2016-08-26T08:00:37Z</time>
      </trkpt>
      <trkpt lat="46.612426964566112" lon="11.53365433216095">
        <ele>510.7294921875</ele>
        <time>2016-08-26T08:00:38Z</time>
      </trkpt>
      <trkpt lat="46.612307773903012" lon="11.533596245571971">
        <ele>511.3677978515625</ele>
        <time>2016-08-26T08:00:39Z</time>
      </trkpt>
      <trkpt lat="46.612188247963786" lon="11.533551402390003">
        <ele>512.314208984375</ele>
        <time>2016-08-26T08:00:40Z</time>
      </trkpt>
      <trkpt lat="46.612068638205528" lon="11.533516785129905">
        <ele>513.458984375</ele>
        <time>2016-08-26T08:00:41Z</time>
      </trkpt>
      <trkpt lat="46.611949698999524" lon="11.533491723239422">
        <ele>514.946044921875</ele>
        <time>2016-08-26T08:00:42Z</time>
      </trkpt>
      <trkpt lat="46.611843248829246" lon="11.533453166484833">
        <ele>514.9747314453125</ele>
        <time>2016-08-26T08:00:43Z</time>
      </trkpt>
      <trkpt lat="46.611738055944443" lon="11.533432211726904">
        <ele>515.99169921875</ele>
        <time>2016-08-26T08:00:44Z</time>
      </trkpt>
      <trkpt lat="46.611631270498037" lon="11.533402120694518">
        <ele>516.651123046875</ele>
        <time>2016-08-26T08:00:45Z</time>
      </trkpt>
      <trkpt lat="46.611526496708393" lon="11.533355098217726">
        <ele>516.8507080078125</ele>
        <time>2016-08-26T08:00:46Z</time>
      </trkpt>
      <trkpt lat="46.611422225832939" lon="11.533307656645775">
        <ele>515.797607421875</ele>
        <time>2016-08-26T08:00:47Z</time>
      </trkpt>
      <trkpt lat="46.611315188929439" lon="11.533249234780669">
        <ele>515.4871826171875</ele>
        <time>2016-08-26T08:00:48Z</time>
      </trkpt>
      <trkpt lat="46.611209157854319" lon="11.533194668591022">
        <ele>514.7681884765625</ele>
        <time>2016-08-26T08:00:49Z</time>
      </trkpt>
      <trkpt lat="46.610996928066015" lon="11.533091403543949">
        <ele>513.35302734375</ele>
        <time>2016-08-26T08:00:51Z</time>
      </trkpt>
      <trkpt lat="46.61089014261961" lon="11.533054942265153">
        <ele>513.52978515625</ele>
        <time>2016-08-26T08:00:52Z</time>
      </trkpt>
      <trkpt lat="46.610785033553839" lon="11.533006830140948">
        <ele>513.098876953125</ele>
        <time>2016-08-26T08:00:53Z</time>
      </trkpt>
      <trkpt lat="46.610681181773543" lon="11.53295461088419">
        <ele>512.694580078125</ele>
        <time>2016-08-26T08:00:54Z</time>
      </trkpt>
      <trkpt lat="46.610577329993248" lon="11.532907001674175">
        <ele>512.415771484375</ele>
        <time>2016-08-26T08:00:55Z</time>
      </trkpt>
      <trkpt lat="46.610472975298762" lon="11.532879509031773">
        <ele>511.2724609375</ele>
        <time>2016-08-26T08:00:56Z</time>
      </trkpt>
      <trkpt lat="46.610367950052023" lon="11.532872971147299">
        <ele>511.998291015625</ele>
        <time>2016-08-26T08:00:57Z</time>
      </trkpt>
      <trkpt lat="46.610262924805284" lon="11.53292871080339">
        <ele>509.6572265625</ele>
        <time>2016-08-26T08:00:58Z</time>
      </trkpt>
      <trkpt lat="46.610143650323153" lon="11.532907336950302">
        <ele>509.757568359375</ele>
        <time>2016-08-26T08:00:59Z</time>
      </trkpt>
      <trkpt lat="46.610031835734844" lon="11.532894177362323">
        <ele>507.5931396484375</ele>
        <time>2016-08-26T08:01:00Z</time>
      </trkpt>
      <trkpt lat="46.609927648678422" lon="11.532881269231439">
        <ele>506.054931640625</ele>
        <time>2016-08-26T08:01:01Z</time>
      </trkpt>
      <trkpt lat="46.609824802726507" lon="11.532861655578017">
        <ele>505.090576171875</ele>
        <time>2016-08-26T08:01:02Z</time>
      </trkpt>
      <trkpt lat="46.609722962602973" lon="11.532842125743628">
        <ele>504.1494140625</ele>
        <time>2016-08-26T08:01:03Z</time>
      </trkpt>
      <trkpt lat="46.609621793031693" lon="11.532833157107234">
        <ele>503.4508056640625</ele>
        <time>2016-08-26T08:01:04Z</time>
      </trkpt>
      <trkpt lat="46.609522216022015" lon="11.532815722748637">
        <ele>502.698486328125</ele>
        <time>2016-08-26T08:01:05Z</time>
      </trkpt>
      <trkpt lat="46.609428087249398" lon="11.532741291448474">
        <ele>502.46337890625</ele>
        <time>2016-08-26T08:01:06Z</time>
      </trkpt>
      <trkpt lat="46.572387032210827" lon="11.52117820456624">
        <ele>439.130867004394474</ele>
        <time>2016-08-26T08:05:34Z</time>
      </trkpt>
      <trkpt lat="46.572170360013843" lon="11.52126026339829">
        <ele>445.155830383300781</ele>
        <time>2016-08-26T08:05:35Z</time>
      </trkpt>
      <trkpt lat="46.571910437196493" lon="11.521276105195284">
        <ele>445.476814270019474</ele>
        <time>2016-08-26T08:05:36Z</time>
      </trkpt>
      <trkpt lat="46.571732070297003" lon="11.521248361095786">
        <ele>443.845344543456974</ele>
        <time>2016-08-26T08:05:37Z</time>
      </trkpt>
      <trkpt lat="46.571569293737411" lon="11.521218856796622">
        <ele>442.148994445800781</ele>
        <time>2016-08-26T08:05:38Z</time>
      </trkpt>
      <trkpt lat="46.571403415873647" lon="11.521203350275755">
        <ele>440.436470031738281</ele>
        <time>2016-08-26T08:05:39Z</time>
      </trkpt>
      <trkpt lat="46.571201076731086" lon="11.521214665845037">
        <ele>439.797554016113281</ele>
        <time>2016-08-26T08:05:40Z</time>
      </trkpt>
      <trkpt lat="46.571025559678674" lon="11.521181976422668">
        <ele>439.911445617675781</ele>
        <time>2016-08-26T08:05:41Z</time>
      </trkpt>
      <trkpt lat="46.570875523611903" lon="11.521148784086108">
        <ele>440.400703430175781</ele>
        <time>2016-08-26T08:05:42Z</time>
      </trkpt>
      <trkpt lat="46.570730851963162" lon="11.521119866520166">
        <ele>440.391242980956974</ele>
        <time>2016-08-26T08:05:43Z</time>
      </trkpt>
      <trkpt lat="46.570593724027276" lon="11.521087093278766">
        <ele>440.421577453613281</ele>
        <time>2016-08-26T08:05:44Z</time>
      </trkpt>
      <trkpt lat="46.570493225008249" lon="11.521035460755229">
        <ele>436.814155578613281</ele>
        <time>2016-08-26T08:05:45Z</time>
      </trkpt>
      <trkpt lat="46.570355845615268" lon="11.521010063588619">
        <ele>437.590522766113281</ele>
        <time>2016-08-26T08:05:46Z</time>
      </trkpt>
      <trkpt lat="46.570212850347161" lon="11.52098030783236">
        <ele>438.147285461425781</ele>
        <time>2016-08-26T08:05:47Z</time>
      </trkpt>
      <trkpt lat="46.570076309144497" lon="11.520954994484782">
        <ele>438.293159484863281</ele>
        <time>2016-08-26T08:05:48Z</time>
      </trkpt>
      <trkpt lat="46.569947227835655" lon="11.520918030291796">
        <ele>437.681343078613281</ele>
        <time>2016-08-26T08:05:49Z</time>
      </trkpt>
      <trkpt lat="46.569795683026314" lon="11.520884418860078">
        <ele>437.625434875488281</ele>
        <time>2016-08-26T08:05:50Z</time>
      </trkpt>
      <trkpt lat="46.569657381623983" lon="11.520843431353569">
        <ele>436.674263000488281</ele>
        <time>2016-08-26T08:05:51Z</time>
      </trkpt>
      <trkpt lat="46.569510446861386" lon="11.520789200440049">
        <ele>435.936958312988281</ele>
        <time>2016-08-26T08:05:52Z</time>
      </trkpt>
      <trkpt lat="46.569370133802295" lon="11.520730024203658">
        <ele>434.710395812988281</ele>
        <time>2016-08-26T08:05:53Z</time>
      </trkpt>
      <trkpt lat="46.56922236084938" lon="11.520686438307166">
        <ele>434.002754211425781</ele>
        <time>2016-08-26T08:05:54Z</time>
      </trkpt>
      <trkpt lat="46.569084310904145" lon="11.520620221272111">
        <ele>432.734687805175781</ele>
        <time>2016-08-26T08:05:55Z</time>
      </trkpt>
      <trkpt lat="46.568915164098144" lon="11.52060111053288">
        <ele>432.602729797363281</ele>
        <time>2016-08-26T08:05:56Z</time>
      </trkpt>
      <trkpt lat="46.568768648430705" lon="11.520544532686472">
        <ele>431.799812316894474</ele>
        <time>2016-08-26T08:05:57Z</time>
      </trkpt>
      <trkpt lat="46.568623390048742" lon="11.520480159670115">
        <ele>431.544013977050781</ele>
        <time>2016-08-26T08:05:58Z</time>
      </trkpt>
      <trkpt lat="46.568504786118865" lon="11.520384019240737">
        <ele>431.526924133300781</ele>
        <time>2016-08-26T08:05:59Z</time>
      </trkpt>
      <trkpt lat="46.568384673446417" lon="11.520274467766285">
        <ele>431.133491516113281</ele>
        <time>2016-08-26T08:06:00Z</time>
      </trkpt>
      <trkpt lat="46.568274702876806" lon="11.52014622464776">
        <ele>430.406623840331974</ele>
        <time>2016-08-26T08:06:01Z</time>
      </trkpt>
      <trkpt lat="46.568149225786328" lon="11.52006215415895">
        <ele>430.021369934081974</ele>
        <time>2016-08-26T08:06:02Z</time>
      </trkpt>
      <trkpt lat="46.568025592714548" lon="11.519972467795014">
        <ele>429.673774719238281</ele>
        <time>2016-08-26T08:06:03Z</time>
      </trkpt>
      <trkpt lat="46.567878574132919" lon="11.519910944625735">
        <ele>428.641059875488281</ele>
        <time>2016-08-26T08:06:04Z</time>
      </trkpt>
      <trkpt lat="46.567747481167316" lon="11.519798375666142">
        <ele>428.220283508300781</ele>
        <time>2016-08-26T08:06:05Z</time>
      </trkpt>
      <trkpt lat="46.567619405686855" lon="11.519686225801706">
        <ele>427.526679992675781</ele>
        <time>2016-08-26T08:06:06Z</time>
      </trkpt>
      <trkpt lat="46.567481439560652" lon="11.519582122564316">
        <ele>427.184822082519474</ele>
        <time>2016-08-26T08:06:07Z</time>
      </trkpt>
      <trkpt lat="46.56734892167151" lon="11.51947676204145">
        <ele>427.194221496581974</ele>
        <time>2016-08-26T08:06:08Z</time>
      </trkpt>
      <trkpt lat="46.567227132618427" lon="11.519364612177014">
        <ele>426.507270812988281</ele>
        <time>2016-08-26T08:06:09Z</time>
      </trkpt>
      <trkpt lat="46.567100314423442" lon="11.519244080409408">
        <ele>425.804512023925781</ele>
        <time>2016-08-26T08:06:10Z</time>
      </trkpt>
      <trkpt lat="46.56698296777904" lon="11.519112065434456">
        <ele>424.429756164550781</ele>
        <time>2016-08-26T08:06:11Z</time>
      </trkpt>
      <trkpt lat="46.566854473203421" lon="11.518979296088219">
        <ele>424.378547668456974</ele>
        <time>2016-08-26T08:06:12Z</time>
      </trkpt>
      <trkpt lat="46.56673084013164" lon="11.518833786249161">
        <ele>424.716926574706974</ele>
        <time>2016-08-26T08:06:13Z</time>
      </trkpt>
      <trkpt lat="46.56661793589592" lon="11.518655754625797">
        <ele>423.469490051269474</ele>
        <time>2016-08-26T08:06:14Z</time>
      </trkpt>
      <trkpt lat="46.566499918699265" lon="11.518468419089913">
        <ele>422.959541320800781</ele>
        <time>2016-08-26T08:06:15Z</time>
      </trkpt>
      <trkpt lat="46.566392295062542" lon="11.518285358324647">
        <ele>423.961982727050781</ele>
        <time>2016-08-26T08:06:16Z</time>
      </trkpt>
      <trkpt lat="46.566262459382415" lon="11.518067177385092">
        <ele>422.608283996581974</ele>
        <time>2016-08-26T08:06:17Z</time>
      </trkpt>
      <trkpt lat="46.566151399165392" lon="11.517873303964734">
        <ele>421.054756164550781</ele>
        <time>2016-08-26T08:06:18Z</time>
      </trkpt>
      <trkpt lat="46.566056348383427" lon="11.517681023105979">
        <ele>422.090034484863281</ele>
        <time>2016-08-26T08:06:19Z</time>
      </trkpt>
      <trkpt lat="46.565974121913314" lon="11.517478600144386">
        <ele>421.149116516113281</ele>
        <time>2016-08-26T08:06:20Z</time>
      </trkpt>
      <trkpt lat="46.565877730026841" lon="11.517285648733377">
        <ele>421.265449523925781</ele>
        <time>2016-08-26T08:06:21Z</time>
      </trkpt>
      <trkpt lat="46.565788127481937" lon="11.5170859079808">
        <ele>420.992866516113281</ele>
        <time>2016-08-26T08:06:22Z</time>
      </trkpt>
      <trkpt lat="46.565709672868252" lon="11.516872672364116">
        <ele>420.616157531738281</ele>
        <time>2016-08-26T08:06:23Z</time>
      </trkpt>
      <trkpt lat="46.565614873543382" lon="11.516666561365128">
        <ele>420.310615539550781</ele>
        <time>2016-08-26T08:06:24Z</time>
      </trkpt>
      <trkpt lat="46.565524432808161" lon="11.51646925136447">
        <ele>420.634712219238281</ele>
        <time>2016-08-26T08:06:25Z</time>
      </trkpt>
      <trkpt lat="46.565415384247899" lon="11.516264565289021">
        <ele>419.317085266113281</ele>
        <time>2016-08-26T08:06:26Z</time>
      </trkpt>
      <trkpt lat="46.565317064523697" lon="11.516070021316409">
        <ele>419.830024719238281</ele>
        <time>2016-08-26T08:06:27Z</time>
      </trkpt>
      <trkpt lat="46.565225115045905" lon="11.51587069965899">
        <ele>420.012580871581974</ele>
        <time>2016-08-26T08:06:28Z</time>
      </trkpt>
      <trkpt lat="46.565117491409183" lon="11.515694512054324">
        <ele>420.517707824706974</ele>
        <time>2016-08-26T08:06:29Z</time>
      </trkpt>
      <trkpt lat="46.565013471990824" lon="11.515529891476035">
        <ele>419.575874328613281</ele>
        <time>2016-08-26T08:06:30Z</time>
      </trkpt>
      <trkpt lat="46.564902579411864" lon="11.515374323353171">
        <ele>420.970344543456974</ele>
        <time>2016-08-26T08:06:31Z</time>
      </trkpt>
      <trkpt lat="46.564793363213539" lon="11.515202075242996">
        <ele>421.904609680175781</ele>
        <time>2016-08-26T08:06:32Z</time>
      </trkpt>
      <trkpt lat="46.564658582210541" lon="11.515073161572218">
        <ele>420.972358703613281</ele>
        <time>2016-08-26T08:06:33Z</time>
      </trkpt>
      <trkpt lat="46.564524974673986" lon="11.514927819371223">
        <ele>420.597724914550781</ele>
        <time>2016-08-26T08:06:34Z</time>
      </trkpt>
      <trkpt lat="46.564389104023576" lon="11.514789434149861">
        <ele>420.839363098144474</ele>
        <time>2016-08-26T08:06:35Z</time>
      </trkpt>
      <trkpt lat="46.564257759600878" lon="11.514657754451036">
        <ele>421.271553039550781</ele>
        <time>2016-08-26T08:06:36Z</time>
      </trkpt>
      <trkpt lat="46.56412155367434" lon="11.514527583494782">
        <ele>421.323066711425781</ele>
        <time>2016-08-26T08:06:37Z</time>
      </trkpt>
      <trkpt lat="46.563974115997553" lon="11.514416942372918">
        <ele>422.931953430175781</ele>
        <time>2016-08-26T08:06:38Z</time>
      </trkpt>
      <trkpt lat="46.563833886757493" lon="11.51430319994688">
        <ele>422.591621398925781</ele>
        <time>2016-08-26T08:06:39Z</time>
      </trkpt>
      <trkpt lat="46.563683347776532" lon="11.514192558825016">
        <ele>422.140693664550781</ele>
        <time>2016-08-26T08:06:40Z</time>
      </trkpt>
      <trkpt lat="46.563550075516105" lon="11.514086276292801">
        <ele>422.737190246581974</ele>
        <time>2016-08-26T08:06:41Z</time>
      </trkpt>
      <trkpt lat="46.563410349190235" lon="11.513977646827698">
        <ele>422.909736633300781</ele>
        <time>2016-08-26T08:06:42Z</time>
      </trkpt>
      <trkpt lat="46.563269617035985" lon="11.513879662379622">
        <ele>422.357246398925781</ele>
        <time>2016-08-26T08:06:43Z</time>
      </trkpt>
      <trkpt lat="46.563105918467045" lon="11.513764746487141">
        <ele>422.614204406738281</ele>
        <time>2016-08-26T08:06:44Z</time>
      </trkpt>
      <trkpt lat="46.562944985926151" lon="11.5136494114995">
        <ele>423.308601379394474</ele>
        <time>2016-08-26T08:06:45Z</time>
      </trkpt>
      <trkpt lat="46.562803499400616" lon="11.513540195301175">
        <ele>423.960029602050781</ele>
        <time>2016-08-26T08:06:46Z</time>
      </trkpt>
      <trkpt lat="46.562647176906466" lon="11.513429805636406">
        <ele>422.277412414550781</ele>
        <time>2016-08-26T08:06:47Z</time>
      </trkpt>
      <trkpt lat="46.562487166374922" lon="11.513315308839083">
        <ele>422.881843566894474</ele>
        <time>2016-08-26T08:06:48Z</time>
      </trkpt>
      <trkpt lat="46.56234685331583" lon="11.513199554756284">
        <ele>425.125190734863281</ele>
        <time>2016-08-26T08:06:49Z</time>
      </trkpt>
      <trkpt lat="46.562207462266088" lon="11.513077430427074">
        <ele>424.965034484863281</ele>
        <time>2016-08-26T08:06:50Z</time>
      </trkpt>
      <trkpt lat="46.56205759383738" lon="11.512972405180335">
        <ele>426.908393859863281</ele>
        <time>2016-08-26T08:06:51Z</time>
      </trkpt>
      <trkpt lat="46.561915772035718" lon="11.512839216738939">
        <ele>427.040351867675781</ele>
        <time>2016-08-26T08:06:52Z</time>
      </trkpt>
      <trkpt lat="46.561780320480466" lon="11.512708542868495">
        <ele>426.647590637206974</ele>
        <time>2016-08-26T08:06:53Z</time>
      </trkpt>
      <trkpt lat="46.561640510335565" lon="11.512599410489202">
        <ele>426.507575988769474</ele>
        <time>2016-08-26T08:06:54Z</time>
      </trkpt>
      <trkpt lat="46.561498856171966" lon="11.512475609779358">
        <ele>426.435493469238281</ele>
        <time>2016-08-26T08:06:55Z</time>
      </trkpt>
      <trkpt lat="46.561358878389001" lon="11.512349881231785">
        <ele>426.122383117675781</ele>
        <time>2016-08-26T08:06:56Z</time>
      </trkpt>
      <trkpt lat="46.561212027445436" lon="11.512233121320605">
        <ele>425.831367492675781</ele>
        <time>2016-08-26T08:06:57Z</time>
      </trkpt>
      <trkpt lat="46.561057800427079" lon="11.512136897072196">
        <ele>424.958198547363281</ele>
        <time>2016-08-26T08:06:58Z</time>
      </trkpt>
      <trkpt lat="46.560902735218406" lon="11.51206430979073">
        <ele>425.805976867675781</ele>
        <time>2016-08-26T08:06:59Z</time>
      </trkpt>
      <trkpt lat="46.560767618939281" lon="11.512019047513604">
        <ele>426.101997375488281</ele>
        <time>2016-08-26T08:07:00Z</time>
      </trkpt>
      <trkpt lat="46.560645494610071" lon="11.511956853792071">
        <ele>425.803047180175781</ele>
        <time>2016-08-26T08:07:01Z</time>
      </trkpt>
      <trkpt lat="46.560505600646138" lon="11.511906813830137">
        <ele>425.907173156738281</ele>
        <time>2016-08-26T08:07:02Z</time>
      </trkpt>
      <trkpt lat="46.5603659581393" lon="11.511843949556351">
        <ele>425.264778137206974</ele>
        <time>2016-08-26T08:07:03Z</time>
      </trkpt>
      <trkpt lat="46.560233356431127" lon="11.511776559054852">
        <ele>425.886421203613281</ele>
        <time>2016-08-26T08:07:04Z</time>
      </trkpt>
      <trkpt lat="46.560085080564022" lon="11.511696428060532">
        <ele>425.695991516113281</ele>
        <time>2016-08-26T08:07:05Z</time>
      </trkpt>
      <trkpt lat="46.55995306558907" lon="11.511620655655861">
        <ele>425.428230285644474</ele>
        <time>2016-08-26T08:07:06Z</time>
      </trkpt>
      <trkpt lat="46.559791127219796" lon="11.511582937091589">
        <ele>426.214851379394474</ele>
        <time>2016-08-26T08:07:07Z</time>
      </trkpt>
      <trkpt lat="46.559638828039169" lon="11.511511690914631">
        <ele>425.882148742675781</ele>
        <time>2016-08-26T08:07:08Z</time>
      </trkpt>
      <trkpt lat="46.559447469189763" lon="11.511507164686918">
        <ele>424.951118469238281</ele>
        <time>2016-08-26T08:07:09Z</time>
      </trkpt>
      <trkpt lat="46.559278406202793" lon="11.511496352031827">
        <ele>425.215034484863281</ele>
        <time>2016-08-26T08:07:10Z</time>
      </trkpt>
      <trkpt lat="46.559090903028846" lon="11.511505907401443">
        <ele>424.033638000488281</ele>
        <time>2016-08-26T08:07:11Z</time>
      </trkpt>
      <trkpt lat="46.558898705989122" lon="11.511519905179739">
        <ele>423.596015930175781</ele>
        <time>2016-08-26T08:07:12Z</time>
      </trkpt>
      <trkpt lat="46.558710196986794" lon="11.511538596823812">
        <ele>423.283760070800781</ele>
        <time>2016-08-26T08:07:13Z</time>
      </trkpt>
      <trkpt lat="46.558526130393147" lon="11.511554606258869">
        <ele>422.651679992675781</ele>
        <time>2016-08-26T08:07:14Z</time>
      </trkpt>
      <trkpt lat="46.558345835655928" lon="11.51156441308558">
        <ele>422.107368469238281</ele>
        <time>2016-08-26T08:07:15Z</time>
      </trkpt>
      <trkpt lat="46.558154057711363" lon="11.511568184942007">
        <ele>421.915596008300781</ele>
        <time>2016-08-26T08:07:16Z</time>
      </trkpt>
      <trkpt lat="46.557968650013208" lon="11.511576566845179">
        <ele>421.814888000488281</ele>
        <time>2016-08-26T08:07:17Z</time>
      </trkpt>
      <trkpt lat="46.557794054970145" lon="11.511564245447516">
        <ele>421.492866516113281</ele>
        <time>2016-08-26T08:07:18Z</time>
      </trkpt>
      <trkpt lat="46.55761543661356" lon="11.51157564483583">
        <ele>421.337959289550781</ele>
        <time>2016-08-26T08:07:19Z</time>
      </trkpt>
      <trkpt lat="46.557436734437943" lon="11.511615877971053">
        <ele>421.552619934081974</ele>
        <time>2016-08-26T08:07:20Z</time>
      </trkpt>
      <trkpt lat="46.557268928736448" lon="11.511602802202106">
        <ele>421.150947570800781</ele>
        <time>2016-08-26T08:07:21Z</time>
      </trkpt>
      <trkpt lat="46.557093495503068" lon="11.511588301509619">
        <ele>421.800727844238281</ele>
        <time>2016-08-26T08:07:22Z</time>
      </trkpt>
      <trkpt lat="46.556935077533126" lon="11.511622248217463">
        <ele>421.511909484863281</ele>
        <time>2016-08-26T08:07:23Z</time>
      </trkpt>
      <trkpt lat="46.55679015442729" lon="11.511630043387413">
        <ele>419.719551086425781</ele>
        <time>2016-08-26T08:07:24Z</time>
      </trkpt>
      <trkpt lat="46.556643135845661" lon="11.511655105277896">
        <ele>418.896919250488281</ele>
        <time>2016-08-26T08:07:25Z</time>
      </trkpt>
      <trkpt lat="46.556492680683732" lon="11.51167874224484">
        <ele>418.348091125488281</ele>
        <time>2016-08-26T08:07:26Z</time>
      </trkpt>
      <trkpt lat="46.556335603818297" lon="11.51172467507422">
        <ele>417.528877258300781</ele>
        <time>2016-08-26T08:07:27Z</time>
      </trkpt>
      <trkpt lat="46.556182131171227" lon="11.511775553226471">
        <ele>414.666450500488281</ele>
        <time>2016-08-26T08:07:28Z</time>
      </trkpt>
      <trkpt lat="46.556023042649031" lon="11.511819306761026">
        <ele>414.469306945800781</ele>
        <time>2016-08-26T08:07:29Z</time>
      </trkpt>
      <trkpt lat="46.555866887792945" lon="11.511866915971041">
        <ele>414.525703430175781</ele>
        <time>2016-08-26T08:07:30Z</time>
      </trkpt>
      <trkpt lat="46.555711319670081" lon="11.511911507695913">
        <ele>414.204170227050781</ele>
        <time>2016-08-26T08:07:31Z</time>
      </trkpt>
      <trkpt lat="46.555551895871758" lon="11.511977640911937">
        <ele>414.242012023925781</ele>
        <time>2016-08-26T08:07:32Z</time>
      </trkpt>
      <trkpt lat="46.555390041321516" lon="11.512075457721949">
        <ele>414.823310852050781</ele>
        <time>2016-08-26T08:07:33Z</time>
      </trkpt>
      <trkpt lat="46.555232629179955" lon="11.51216589845717">
        <ele>415.365913391113281</ele>
        <time>2016-08-26T08:07:34Z</time>
      </trkpt>
      <trkpt lat="46.555088544264436" lon="11.512252986431122">
        <ele>415.067085266113281</ele>
        <time>2016-08-26T08:07:35Z</time>
      </trkpt>
      <trkpt lat="46.554917385801673" lon="11.512351389974356">
        <ele>414.607856750488281</ele>
        <time>2016-08-26T08:07:36Z</time>
      </trkpt>
      <trkpt lat="46.554736001417041" lon="11.512462114915252">
        <ele>414.411750793456974</ele>
        <time>2016-08-26T08:07:37Z</time>
      </trkpt>
      <trkpt lat="46.554572470486164" lon="11.512564122676849">
        <ele>414.497444152831974</ele>
        <time>2016-08-26T08:07:38Z</time>
      </trkpt>
      <trkpt lat="46.554440958425403" lon="11.512672500684857">
        <ele>414.319770812988281</ele>
        <time>2016-08-26T08:07:39Z</time>
      </trkpt>
      <trkpt lat="46.554291425272822" lon="11.512769814580679">
        <ele>414.124946594238281</ele>
        <time>2016-08-26T08:07:40Z</time>
      </trkpt>
      <trkpt lat="46.554093947634101" lon="11.51288665831089">
        <ele>414.167549133300781</ele>
        <time>2016-08-26T08:07:41Z</time>
      </trkpt>
      <trkpt lat="46.553966710343957" lon="11.512996293604374">
        <ele>413.565986633300781</ele>
        <time>2016-08-26T08:07:42Z</time>
      </trkpt>
      <trkpt lat="46.553783649578691" lon="11.513130152598023">
        <ele>414.196540832519474</ele>
        <time>2016-08-26T08:07:43Z</time>
      </trkpt>
      <trkpt lat="46.55360477976501" lon="11.513226293027401">
        <ele>413.774971008300781</ele>
        <time>2016-08-26T08:07:44Z</time>
      </trkpt>
      <trkpt lat="46.553468992933631" lon="11.513315476477146">
        <ele>413.088691711425781</ele>
        <time>2016-08-26T08:07:45Z</time>
      </trkpt>
      <trkpt lat="46.553341168910265" lon="11.513414969667792">
        <ele>413.064216613769474</ele>
        <time>2016-08-26T08:07:46Z</time>
      </trkpt>
      <trkpt lat="46.553250309079885" lon="11.513494094833732">
        <ele>414.031806945800781</ele>
        <time>2016-08-26T08:07:47Z</time>
      </trkpt>
      <trkpt lat="46.553087448701262" lon="11.51358587667346">
        <ele>413.499641418456974</ele>
        <time>2016-08-26T08:07:48Z</time>
      </trkpt>
      <trkpt lat="46.552892820909619" lon="11.51359953917563">
        <ele>413.502388000488281</ele>
        <time>2016-08-26T08:07:49Z</time>
      </trkpt>
      <trkpt lat="46.552728367969394" lon="11.513647735118866">
        <ele>411.894721984863281</ele>
        <time>2016-08-26T08:07:50Z</time>
      </trkpt>
      <trkpt lat="46.552567854523659" lon="11.513683358207345">
        <ele>409.764839172363281</ele>
        <time>2016-08-26T08:07:51Z</time>
      </trkpt>
      <trkpt lat="46.552398456260562" lon="11.513698026537895">
        <ele>409.194282531738281</ele>
        <time>2016-08-26T08:07:52Z</time>
      </trkpt>
      <trkpt lat="46.552223777398467" lon="11.513698529452085">
        <ele>409.138679504394474</ele>
        <time>2016-08-26T08:07:53Z</time>
      </trkpt>
      <trkpt lat="46.552055552601814" lon="11.513656536117196">
        <ele>408.657356262206974</ele>
        <time>2016-08-26T08:07:54Z</time>
      </trkpt>
      <trkpt lat="46.551882633939385" lon="11.513612195849419">
        <ele>408.636299133300781</ele>
        <time>2016-08-26T08:07:55Z</time>
      </trkpt>
      <trkpt lat="46.551701920107007" lon="11.513551846146584">
        <ele>408.974739074706974</ele>
        <time>2016-08-26T08:07:56Z</time>
      </trkpt>
      <trkpt lat="46.551517685875297" lon="11.513500716537237">
        <ele>408.801277160644474</ele>
        <time>2016-08-26T08:07:57Z</time>
      </trkpt>
      <trkpt lat="46.551367565989494" lon="11.513391500338912">
        <ele>408.537422180175781</ele>
        <time>2016-08-26T08:07:58Z</time>
      </trkpt>
      <trkpt lat="46.551221469417214" lon="11.513282619416714">
        <ele>408.543403625488281</ele>
        <time>2016-08-26T08:07:59Z</time>
      </trkpt>
      <trkpt lat="46.55105953104794" lon="11.513191843405366">
        <ele>408.923652648925781</ele>
        <time>2016-08-26T08:08:00Z</time>
      </trkpt>
      <trkpt lat="46.546979304403067" lon="11.509607909247279">
        <ele>407.632575988769474</ele>
        <time>2016-08-26T08:08:24Z</time>
      </trkpt>
      <trkpt lat="46.546996990218759" lon="11.509362570941448">
        <ele>404.466743469238281</ele>
        <time>2016-08-26T08:08:25Z</time>
      </trkpt>
      <trkpt lat="46.546775372698903" lon="11.50926198810339">
        <ele>401.170845031738281</ele>
        <time>2016-08-26T08:08:26Z</time>
      </trkpt>
      <trkpt lat="46.546624833717942" lon="11.509154532104731">
        <ele>398.122871398925781</ele>
        <time>2016-08-26T08:08:27Z</time>
      </trkpt>
      <trkpt lat="46.546518048271537" lon="11.509024612605572">
        <ele>395.924873352050781</ele>
        <time>2016-08-26T08:08:28Z</time>
      </trkpt>
      <trkpt lat="46.546402629464865" lon="11.508898548781872">
        <ele>395.027656555175781</ele>
        <time>2016-08-26T08:08:29Z</time>
      </trkpt>
      <trkpt lat="46.54630221426487" lon="11.508776089176536">
        <ele>392.888008117675781</ele>
        <time>2016-08-26T08:08:30Z</time>
      </trkpt>
      <trkpt lat="46.546229459345341" lon="11.508688079193234">
        <ele>390.668525695800781</ele>
        <time>2016-08-26T08:08:31Z</time>
      </trkpt>
      <trkpt lat="46.546124182641506" lon="11.508586574345827">
        <ele>388.141670227050781</ele>
        <time>2016-08-26T08:08:32Z</time>
      </trkpt>
      <trkpt lat="46.546047069132328" lon="11.508494121953845">
        <ele>388.326057434081974</ele>
        <time>2016-08-26T08:08:33Z</time>
      </trkpt>
      <trkpt lat="46.545959562063217" lon="11.508408961817622">
        <ele>386.961189270019474</ele>
        <time>2016-08-26T08:08:34Z</time>
      </trkpt>
      <trkpt lat="46.545883370563388" lon="11.508321957662702">
        <ele>386.182685852050781</ele>
        <time>2016-08-26T08:08:35Z</time>
      </trkpt>
      <trkpt lat="46.545791253447533" lon="11.508229253813624">
        <ele>384.928718566894474</ele>
        <time>2016-08-26T08:08:36Z</time>
      </trkpt>
      <trkpt lat="46.545715900138021" lon="11.50812397710979">
        <ele>384.338325500488281</ele>
        <time>2016-08-26T08:08:37Z</time>
      </trkpt>
      <trkpt lat="46.545630823820829" lon="11.508016940206289">
        <ele>383.689643859863281</ele>
        <time>2016-08-26T08:08:38Z</time>
      </trkpt>
      <trkpt lat="46.545542059466243" lon="11.507905796170235">
        <ele>382.863777160644474</ele>
        <time>2016-08-26T08:08:39Z</time>
      </trkpt>
      <trkpt lat="46.545455977320671" lon="11.507787276059389">
        <ele>381.847114562988281</ele>
        <time>2016-08-26T08:08:40Z</time>
      </trkpt>
      <trkpt lat="46.545362770557404" lon="11.50766029022634">
        <ele>381.256721496581974</ele>
        <time>2016-08-26T08:08:41Z</time>
      </trkpt>
      <trkpt lat="46.545259170234203" lon="11.507548224180937">
        <ele>381.693611145019474</ele>
        <time>2016-08-26T08:08:42Z</time>
      </trkpt>
      <trkpt lat="46.54515297152102" lon="11.507439929991961">
        <ele>380.853279113769474</ele>
        <time>2016-08-26T08:08:43Z</time>
      </trkpt>
      <trkpt lat="46.545049538835883" lon="11.507332557812333">
        <ele>381.476631164550781</ele>
        <time>2016-08-26T08:08:44Z</time>
      </trkpt>
      <trkpt lat="46.544943507760763" lon="11.50721906684339">
        <ele>381.514961242675781</ele>
        <time>2016-08-26T08:08:45Z</time>
      </trkpt>
      <trkpt lat="46.544830100610852" lon="11.507111275568604">
        <ele>380.761421203613281</ele>
        <time>2016-08-26T08:08:46Z</time>
      </trkpt>
      <trkpt lat="46.544719375669956" lon="11.507009100168943">
        <ele>381.372261047363281</ele>
        <time>2016-08-26T08:08:47Z</time>
      </trkpt>
      <trkpt lat="46.544610494747758" lon="11.506910026073456">
        <ele>381.320991516113281</ele>
        <time>2016-08-26T08:08:48Z</time>
      </trkpt>
      <trkpt lat="46.544503625482321" lon="11.50680860504508">
        <ele>381.101203918456974</ele>
        <time>2016-08-26T08:08:49Z</time>
      </trkpt>
      <trkpt lat="46.544398097321391" lon="11.506714140996337">
        <ele>381.550849914550781</ele>
        <time>2016-08-26T08:08:50Z</time>
      </trkpt>
      <trkpt lat="46.544289970770478" lon="11.50661657564342">
        <ele>381.250068664550781</ele>
        <time>2016-08-26T08:08:51Z</time>
      </trkpt>
      <trkpt lat="46.544183939695358" lon="11.506515238434076">
        <ele>381.023506164550781</ele>
        <time>2016-08-26T08:08:52Z</time>
      </trkpt>
      <trkpt lat="46.544082686305046" lon="11.50641574524343">
        <ele>381.324409484863281</ele>
        <time>2016-08-26T08:08:53Z</time>
      </trkpt>
      <trkpt lat="46.543984282761812" lon="11.506304517388344">
        <ele>381.530403137206974</ele>
        <time>2016-08-26T08:08:54Z</time>
      </trkpt>
      <trkpt lat="46.543879760429263" lon="11.506194798275828">
        <ele>380.916877746581974</ele>
        <time>2016-08-26T08:08:55Z</time>
      </trkpt>
      <trkpt lat="46.543779345229268" lon="11.50608298368752">
        <ele>381.058296203613281</ele>
        <time>2016-08-26T08:08:56Z</time>
      </trkpt>
      <trkpt lat="46.543686306104064" lon="11.505964882671833">
        <ele>381.159736633300781</ele>
        <time>2016-08-26T08:08:57Z</time>
      </trkpt>
      <trkpt lat="46.543581783771515" lon="11.505840746685863">
        <ele>380.978584289550781</ele>
        <time>2016-08-26T08:08:58Z</time>
      </trkpt>
      <trkpt lat="46.543478518724442" lon="11.505709569901228">
        <ele>380.736152648925781</ele>
        <time>2016-08-26T08:08:59Z</time>
      </trkpt>
      <trkpt lat="46.543387742713094" lon="11.505573699250817">
        <ele>381.021369934081974</ele>
        <time>2016-08-26T08:09:00Z</time>
      </trkpt>
      <trkpt lat="46.543301912024617" lon="11.505436487495899">
        <ele>381.319892883300781</ele>
        <time>2016-08-26T08:09:01Z</time>
      </trkpt>
      <trkpt lat="46.54321214184165" lon="11.505300449207425">
        <ele>381.443794250488281</ele>
        <time>2016-08-26T08:09:02Z</time>
      </trkpt>
      <trkpt lat="46.543121449649334" lon="11.505160387605429">
        <ele>381.817024230956974</ele>
        <time>2016-08-26T08:09:03Z</time>
      </trkpt>
      <trkpt lat="46.543034026399255" lon="11.505014458671212">
        <ele>381.882759094238281</ele>
        <time>2016-08-26T08:09:04Z</time>
      </trkpt>
      <trkpt lat="46.542944675311446" lon="11.504870289936662">
        <ele>381.787605285644474</ele>
        <time>2016-08-26T08:09:05Z</time>
      </trkpt>
      <trkpt lat="46.542835291475058" lon="11.504734419286251">
        <ele>381.333686828613281</ele>
        <time>2016-08-26T08:09:06Z</time>
      </trkpt>
      <trkpt lat="46.54274107888341" lon="11.504606930539012">
        <ele>381.495552062988281</ele>
        <time>2016-08-26T08:09:07Z</time>
      </trkpt>
      <trkpt lat="46.542634293437004" lon="11.504478352144361">
        <ele>381.203071594238281</ele>
        <time>2016-08-26T08:09:08Z</time>
      </trkpt>
      <trkpt lat="46.542522395029664" lon="11.504365867003798">
        <ele>380.526435852050781</ele>
        <time>2016-08-26T08:09:09Z</time>
      </trkpt>
      <trkpt lat="46.542410496622324" lon="11.504252208396792">
        <ele>380.428535461425781</ele>
        <time>2016-08-26T08:09:10Z</time>
      </trkpt>
      <trkpt lat="46.542296418920159" lon="11.504152715206146">
        <ele>380.489326477050781</ele>
        <time>2016-08-26T08:09:11Z</time>
      </trkpt>
      <trkpt lat="46.542179826647043" lon="11.5040532220155">
        <ele>380.466926574706974</ele>
        <time>2016-08-26T08:09:12Z</time>
      </trkpt>
      <trkpt lat="46.542064575478435" lon="11.50395548902452">
        <ele>380.471382141113281</ele>
        <time>2016-08-26T08:09:13Z</time>
      </trkpt>
      <trkpt lat="46.541946809738874" lon="11.503862282261252">
        <ele>380.561714172363281</ele>
        <time>2016-08-26T08:09:14Z</time>
      </trkpt>
      <trkpt lat="46.541821584105492" lon="11.503770416602492">
        <ele>380.549079895019474</ele>
        <time>2016-08-26T08:09:15Z</time>
      </trkpt>
      <trkpt lat="46.541704908013344" lon="11.503678550943732">
        <ele>380.998725891113281</ele>
        <time>2016-08-26T08:09:16Z</time>
      </trkpt>
      <trkpt lat="46.541590243577957" lon="11.503590373322368">
        <ele>379.812446594238281</ele>
        <time>2016-08-26T08:09:17Z</time>
      </trkpt>
      <trkpt lat="46.541468622162938" lon="11.503498926758766">
        <ele>379.215888977050781</ele>
        <time>2016-08-26T08:09:18Z</time>
      </trkpt>
      <trkpt lat="46.541351107880473" lon="11.503400858491659">
        <ele>378.985298156738281</ele>
        <time>2016-08-26T08:09:19Z</time>
      </trkpt>
      <trkpt lat="46.541232503950596" lon="11.503294073045254">
        <ele>378.484626770019474</ele>
        <time>2016-08-26T08:09:20Z</time>
      </trkpt>
      <trkpt lat="46.541126389056444" lon="11.503172954544425">
        <ele>379.288520812988281</ele>
        <time>2016-08-26T08:09:21Z</time>
      </trkpt>
      <trkpt lat="46.541019603610039" lon="11.503038257360458">
        <ele>378.372200012206974</ele>
        <time>2016-08-26T08:09:22Z</time>
      </trkpt>
      <trkpt lat="46.540917260572314" lon="11.502902638167143">
        <ele>378.559150695800781</ele>
        <time>2016-08-26T08:09:23Z</time>
      </trkpt>
      <trkpt lat="46.540823299437761" lon="11.502765091136098">
        <ele>378.964179992675781</ele>
        <time>2016-08-26T08:09:24Z</time>
      </trkpt>
      <trkpt lat="46.540723973885179" lon="11.502627963200212">
        <ele>379.276924133300781</ele>
        <time>2016-08-26T08:09:25Z</time>
      </trkpt>
      <trkpt lat="46.540628001093864" lon="11.502492511644959">
        <ele>379.750984191894474</ele>
        <time>2016-08-26T08:09:26Z</time>
      </trkpt>
      <trkpt lat="46.540528424084187" lon="11.502361670136452">
        <ele>379.433784484863281</ele>
        <time>2016-08-26T08:09:27Z</time>
      </trkpt>
      <trkpt lat="46.540424404665828" lon="11.502232169732451">
        <ele>379.146797180175781</ele>
        <time>2016-08-26T08:09:28Z</time>
      </trkpt>
      <trkpt lat="46.540320217609406" lon="11.502110296860337">
        <ele>379.332527160644474</ele>
        <time>2016-08-26T08:09:29Z</time>
      </trkpt>
      <trkpt lat="46.540210079401731" lon="11.50197803042829">
        <ele>378.510444641113281</ele>
        <time>2016-08-26T08:09:30Z</time>
      </trkpt>
      <trkpt lat="46.540104048326612" lon="11.501847272738814">
        <ele>377.590278625488281</ele>
        <time>2016-08-26T08:09:31Z</time>
      </trkpt>
      <trkpt lat="46.539987875148654" lon="11.501695057377219">
        <ele>375.834785461425781</ele>
        <time>2016-08-26T08:09:32Z</time>
      </trkpt>
      <trkpt lat="46.539889303967357" lon="11.501564467325807">
        <ele>376.110298156738281</ele>
        <time>2016-08-26T08:09:33Z</time>
      </trkpt>
      <trkpt lat="46.539785116910934" lon="11.501430943608284">
        <ele>376.102729797363281</ele>
        <time>2016-08-26T08:09:34Z</time>
      </trkpt>
      <trkpt lat="46.539686378091574" lon="11.501298677176237">
        <ele>376.929878234863281</ele>
        <time>2016-08-26T08:09:35Z</time>
      </trkpt>
      <trkpt lat="46.539581520482898" lon="11.501170769333839">
        <ele>376.804084777831974</ele>
        <time>2016-08-26T08:09:36Z</time>
      </trkpt>
      <trkpt lat="46.539460569620132" lon="11.501042023301125">
        <ele>375.490303039550781</ele>
        <time>2016-08-26T08:09:37Z</time>
      </trkpt>
      <trkpt lat="46.539348168298602" lon="11.50091084651649">
        <ele>374.799690246581974</ele>
        <time>2016-08-26T08:09:38Z</time>
      </trkpt>
      <trkpt lat="46.539233922958374" lon="11.500787381082773">
        <ele>375.012519836425781</ele>
        <time>2016-08-26T08:09:39Z</time>
      </trkpt>
      <trkpt lat="46.539104674011469" lon="11.500661317259073">
        <ele>374.307929992675781</ele>
        <time>2016-08-26T08:09:40Z</time>
      </trkpt>
      <trkpt lat="46.53898648917675" lon="11.500544976443052">
        <ele>373.807197570800781</ele>
        <time>2016-08-26T08:09:41Z</time>
      </trkpt>
      <trkpt lat="46.53885799460113" lon="11.500433245673776">
        <ele>372.984809875488281</ele>
        <time>2016-08-26T08:09:42Z</time>
      </trkpt>
      <trkpt lat="46.538735199719667" lon="11.500332830473781">
        <ele>373.005744934081974</ele>
        <time>2016-08-26T08:09:43Z</time>
      </trkpt>
      <trkpt lat="46.538609219714999" lon="11.500234175473452">
        <ele>372.636909484863281</ele>
        <time>2016-08-26T08:09:44Z</time>
      </trkpt>
      <trkpt lat="46.538490783423185" lon="11.500145243480802">
        <ele>372.814399719238281</ele>
        <time>2016-08-26T08:09:45Z</time>
      </trkpt>
      <trkpt lat="46.538376957178116" lon="11.500059580430388">
        <ele>372.946113586425781</ele>
        <time>2016-08-26T08:09:46Z</time>
      </trkpt>
      <trkpt lat="46.538271680474281" lon="11.499964194372296">
        <ele>372.597541809081974</ele>
        <time>2016-08-26T08:09:47Z</time>
      </trkpt>
      <trkpt lat="46.538149723783135" lon="11.499874508008361">
        <ele>372.400093078613281</ele>
        <time>2016-08-26T08:09:48Z</time>
      </trkpt>
      <trkpt lat="46.5380341373384" lon="11.499777445569634">
        <ele>372.239082336425781</ele>
        <time>2016-08-26T08:09:49Z</time>
      </trkpt>
      <trkpt lat="46.537912683561444" lon="11.499672587960958">
        <ele>371.727180480956974</ele>
        <time>2016-08-26T08:09:50Z</time>
      </trkpt>
      <trkpt lat="46.537808999419212" lon="11.499570412561297">
        <ele>370.295722961425781</ele>
        <time>2016-08-26T08:09:51Z</time>
      </trkpt>
      <trkpt lat="46.537706488743424" lon="11.499439738690853">
        <ele>370.807319641113281</ele>
        <time>2016-08-26T08:09:52Z</time>
      </trkpt>
      <trkpt lat="46.537614874541759" lon="11.499302443116903">
        <ele>371.455268859863281</ele>
        <time>2016-08-26T08:09:53Z</time>
      </trkpt>
      <trkpt lat="46.537524182349443" lon="11.499165566638112">
        <ele>371.926948547363281</ele>
        <time>2016-08-26T08:09:54Z</time>
      </trkpt>
      <trkpt lat="46.537435166537762" lon="11.49903547950089">
        <ele>371.916450500488281</ele>
        <time>2016-08-26T08:09:55Z</time>
      </trkpt>
      <trkpt lat="46.537358639761806" lon="11.498900866135955">
        <ele>371.577095031738281</ele>
        <time>2016-08-26T08:09:56Z</time>
      </trkpt>
      <trkpt lat="46.537272976711392" lon="11.498774718493223">
        <ele>371.055671691894474</ele>
        <time>2016-08-26T08:09:57Z</time>
      </trkpt>
      <trkpt lat="46.537208519876003" lon="11.498636165633798">
        <ele>370.764411926269474</ele>
        <time>2016-08-26T08:09:58Z</time>
      </trkpt>
      <trkpt lat="46.537156803533435" lon="11.498499037697911">
        <ele>370.867744445800781</ele>
        <time>2016-08-26T08:09:59Z</time>
      </trkpt>
      <trkpt lat="46.537100728601217" lon="11.498348331078887">
        <ele>370.884895324706974</ele>
        <time>2016-08-26T08:10:00Z</time>
      </trkpt>
      <trkpt lat="46.53703736141324" lon="11.498199719935656">
        <ele>370.956733703613281</ele>
        <time>2016-08-26T08:10:01Z</time>
      </trkpt>
      <trkpt lat="46.536954715847969" lon="11.498039960861206">
        <ele>371.522254943847713</ele>
        <time>2016-08-26T08:10:02Z</time>
      </trkpt>
      <trkpt lat="46.536850612610579" lon="11.497867796570063">
        <ele>371.673744201660213</ele>
        <time>2016-08-26T08:10:03Z</time>
      </trkpt>
      <trkpt lat="46.536739636212587" lon="11.497680963948369">
        <ele>371.103797912597713</ele>
        <time>2016-08-26T08:10:04Z</time>
      </trkpt>
      <trkpt lat="46.536623379215598" lon="11.49748994037509">
        <ele>371.143836975097713</ele>
        <time>2016-08-26T08:10:05Z</time>
      </trkpt>
      <trkpt lat="46.536513660103083" lon="11.497297156602144">
        <ele>370.637733459472713</ele>
        <time>2016-08-26T08:10:06Z</time>
      </trkpt>
      <trkpt lat="46.536409640684724" lon="11.497099092230201">
        <ele>370.151893615722713</ele>
        <time>2016-08-26T08:10:07Z</time>
      </trkpt>
      <trkpt lat="46.536307297646999" lon="11.496894657611847">
        <ele>370.314491271972713</ele>
        <time>2016-08-26T08:10:08Z</time>
      </trkpt>
      <trkpt lat="46.536211911588907" lon="11.496690390631557">
        <ele>370.523841857910213</ele>
        <time>2016-08-26T08:10:09Z</time>
      </trkpt>
      <trkpt lat="46.536102527752519" lon="11.496468354016542">
        <ele>370.276893615722713</ele>
        <time>2016-08-26T08:10:10Z</time>
      </trkpt>
      <trkpt lat="46.53599607758224" lon="11.496243635192513">
        <ele>371.576942443847713</ele>
        <time>2016-08-26T08:10:11Z</time>
      </trkpt>
      <trkpt lat="46.535887783393264" lon="11.496021850034595">
        <ele>371.538368225097713</ele>
        <time>2016-08-26T08:10:12Z</time>
      </trkpt>
      <trkpt lat="46.53578988276422" lon="11.495801405981183">
        <ele>372.578529357910213</ele>
        <time>2016-08-26T08:10:13Z</time>
      </trkpt>
      <trkpt lat="46.535685276612639" lon="11.49558481760323">
        <ele>372.362037658691406</ele>
        <time>2016-08-26T08:10:14Z</time>
      </trkpt>
      <trkpt lat="46.535581089556217" lon="11.495367391034961">
        <ele>371.863014221191406</ele>
        <time>2016-08-26T08:10:15Z</time>
      </trkpt>
      <trkpt lat="46.535480841994286" lon="11.49515088647604">
        <ele>371.210487365722713</ele>
        <time>2016-08-26T08:10:16Z</time>
      </trkpt>
      <trkpt lat="46.535383025184274" lon="11.494935555383563">
        <ele>371.024085998535213</ele>
        <time>2016-08-26T08:10:17Z</time>
      </trkpt>
      <trkpt lat="46.535279173403978" lon="11.494716871529818">
        <ele>370.404518127441406</ele>
        <time>2016-08-26T08:10:18Z</time>
      </trkpt>
      <trkpt lat="46.535174734890461" lon="11.49449760094285">
        <ele>370.732215881347713</ele>
        <time>2016-08-26T08:10:19Z</time>
      </trkpt>
      <trkpt lat="46.535074403509498" lon="11.494288221001625">
        <ele>370.890541076660213</ele>
        <time>2016-08-26T08:10:20Z</time>
      </trkpt>
      <trkpt lat="46.534971473738551" lon="11.494077835232019">
        <ele>370.826515197753906</ele>
        <time>2016-08-26T08:10:21Z</time>
      </trkpt>
      <trkpt lat="46.534876087680459" lon="11.493864431977272">
        <ele>371.019813537597713</ele>
        <time>2016-08-26T08:10:22Z</time>
      </trkpt>
      <trkpt lat="46.534773912280798" lon="11.493649184703827">
        <ele>371.044837951660213</ele>
        <time>2016-08-26T08:10:23Z</time>
      </trkpt>
      <trkpt lat="46.534666204825044" lon="11.493440894410014">
        <ele>370.893959045410213</ele>
        <time>2016-08-26T08:10:24Z</time>
      </trkpt>
      <trkpt lat="46.534563861787319" lon="11.49324182420969">
        <ele>371.375892639160213</ele>
        <time>2016-08-26T08:10:25Z</time>
      </trkpt>
      <trkpt lat="46.534451376646757" lon="11.493050213903189">
        <ele>371.347206115722713</ele>
        <time>2016-08-26T08:10:26Z</time>
      </trkpt>
      <trkpt lat="46.534321708604693" lon="11.49285483174026">
        <ele>372.165809631347713</ele>
        <time>2016-08-26T08:10:27Z</time>
      </trkpt>
      <trkpt lat="46.53419790789485" lon="11.492670932784677">
        <ele>372.032875061035213</ele>
        <time>2016-08-26T08:10:28Z</time>
      </trkpt>
      <trkpt lat="46.534071005880833" lon="11.492482423782349">
        <ele>372.121986389160213</ele>
        <time>2016-08-26T08:10:29Z</time>
      </trkpt>
      <trkpt lat="46.533947288990021" lon="11.492294417694211">
        <ele>372.260292053222713</ele>
        <time>2016-08-26T08:10:30Z</time>
      </trkpt>
      <trkpt lat="46.533826338127255" lon="11.492114709690213">
        <ele>372.085243225097713</ele>
        <time>2016-08-26T08:10:31Z</time>
      </trkpt>
      <trkpt lat="46.533698095008731" lon="11.491928212344646">
        <ele>372.008705139160213</ele>
        <time>2016-08-26T08:10:32Z</time>
      </trkpt>
      <trkpt lat="46.533573791384697" lon="11.491755796596408">
        <ele>372.100624084472713</ele>
        <time>2016-08-26T08:10:33Z</time>
      </trkpt>
      <trkpt lat="46.533459210768342" lon="11.491578184068203">
        <ele>372.557655334472713</ele>
        <time>2016-08-26T08:10:34Z</time>
      </trkpt>
      <trkpt lat="46.533338092267513" lon="11.491398392245173">
        <ele>372.343788146972713</ele>
        <time>2016-08-26T08:10:35Z</time>
      </trkpt>
      <trkpt lat="46.533210435882211" lon="11.491224551573396">
        <ele>372.027870178222713</ele>
        <time>2016-08-26T08:10:36Z</time>
      </trkpt>
      <trkpt lat="46.533095855265856" lon="11.4910429995507">
        <ele>372.662879943847713</ele>
        <time>2016-08-26T08:10:37Z</time>
      </trkpt>
      <trkpt lat="46.532980185002089" lon="11.490845270454884">
        <ele>372.448036193847713</ele>
        <time>2016-08-26T08:10:38Z</time>
      </trkpt>
      <trkpt lat="46.532867448404431" lon="11.490640165284276">
        <ele>371.801551818847713</ele>
        <time>2016-08-26T08:10:39Z</time>
      </trkpt>
      <trkpt lat="46.532766362652183" lon="11.490426594391465">
        <ele>371.028114318847713</ele>
        <time>2016-08-26T08:10:40Z</time>
      </trkpt>
      <trkpt lat="46.532644741237164" lon="11.490207575261593">
        <ele>369.156532287597713</ele>
        <time>2016-08-26T08:10:41Z</time>
      </trkpt>
      <trkpt lat="46.532542398199439" lon="11.489997273311019">
        <ele>369.217567443847713</ele>
        <time>2016-08-26T08:10:42Z</time>
      </trkpt>
      <trkpt lat="46.532448520883918" lon="11.489793173968792">
        <ele>369.188514709472713</ele>
        <time>2016-08-26T08:10:43Z</time>
      </trkpt>
      <trkpt lat="46.53236017562449" lon="11.489612208679318">
        <ele>369.298255920410213</ele>
        <time>2016-08-26T08:10:44Z</time>
      </trkpt>
      <trkpt lat="46.532281721010804" lon="11.489449599757791">
        <ele>369.175697326660213</ele>
        <time>2016-08-26T08:10:45Z</time>
      </trkpt>
      <trkpt lat="46.532190274447203" lon="11.489298725500703">
        <ele>368.501869201660213</ele>
        <time>2016-08-26T08:10:46Z</time>
      </trkpt>
      <trkpt lat="46.532109891995788" lon="11.489165453240275">
        <ele>368.813575744628906</ele>
        <time>2016-08-26T08:10:47Z</time>
      </trkpt>
      <trkpt lat="46.532009476795793" lon="11.489041149616241">
        <ele>368.642005920410213</ele>
        <time>2016-08-26T08:10:48Z</time>
      </trkpt>
      <trkpt lat="46.531898668035865" lon="11.488928748294711">
        <ele>368.260780334472713</ele>
        <time>2016-08-26T08:10:49Z</time>
      </trkpt>
      <trkpt lat="46.531783752143383" lon="11.488823471590877">
        <ele>368.322914123535213</ele>
        <time>2016-08-26T08:10:50Z</time>
      </trkpt>
      <trkpt lat="46.531658358871937" lon="11.488734791055322">
        <ele>368.101478576660213</ele>
        <time>2016-08-26T08:10:51Z</time>
      </trkpt>
      <trkpt lat="46.531516369432211" lon="11.488664802163839">
        <ele>368.034278869628906</ele>
        <time>2016-08-26T08:10:52Z</time>
      </trkpt>
      <trkpt lat="46.531382175162435" lon="11.488607805222273">
        <ele>368.384376525878906</ele>
        <time>2016-08-26T08:10:53Z</time>
      </trkpt>
      <trkpt lat="46.53124320320785" lon="11.488574277609587">
        <ele>368.386878967285213</ele>
        <time>2016-08-26T08:10:54Z</time>
      </trkpt>
      <trkpt lat="46.531086293980479" lon="11.488550640642643">
        <ele>367.940101623535213</ele>
        <time>2016-08-26T08:10:55Z</time>
      </trkpt>
      <trkpt lat="46.530948914587498" lon="11.488543767482042">
        <ele>367.903724670410213</ele>
        <time>2016-08-26T08:10:56Z</time>
      </trkpt>
      <trkpt lat="46.530805332586169" lon="11.488534966483712">
        <ele>367.678504943847713</ele>
        <time>2016-08-26T08:10:57Z</time>
      </trkpt>
      <trkpt lat="46.530661080032587" lon="11.488532116636634">
        <ele>367.154518127441406</ele>
        <time>2016-08-26T08:10:58Z</time>
      </trkpt>
      <trkpt lat="46.530527137219906" lon="11.488534715026617">
        <ele>366.676368713378906</ele>
        <time>2016-08-26T08:10:59Z</time>
      </trkpt>
      <trkpt lat="46.530394200235605" lon="11.488536978140473">
        <ele>366.430946350097713</ele>
        <time>2016-08-26T08:11:00Z</time>
      </trkpt>
      <trkpt lat="46.530257742851973" lon="11.488532703369856">
        <ele>365.893836975097713</ele>
        <time>2016-08-26T08:11:01Z</time>
      </trkpt>
      <trkpt lat="46.530106868594885" lon="11.488525327295065">
        <ele>365.600624084472713</ele>
        <time>2016-08-26T08:11:02Z</time>
      </trkpt>
      <trkpt lat="46.529965968802571" lon="11.488513592630625">
        <ele>364.857643127441406</ele>
        <time>2016-08-26T08:11:03Z</time>
      </trkpt>
      <trkpt lat="46.52983546257019" lon="11.488507557660341">
        <ele>364.529701232910213</ele>
        <time>2016-08-26T08:11:04Z</time>
      </trkpt>
      <trkpt lat="46.52970596216619" lon="11.488512167707086">
        <ele>364.088172912597713</ele>
        <time>2016-08-26T08:11:05Z</time>
      </trkpt>
      <trkpt lat="46.529589369893074" lon="11.488512083888054">
        <ele>363.851844787597713</ele>
        <time>2016-08-26T08:11:06Z</time>
      </trkpt>
      <trkpt lat="46.529473280534148" lon="11.48851040750742">
        <ele>363.250892639160213</ele>
        <time>2016-08-26T08:11:07Z</time>
      </trkpt>
      <trkpt lat="46.52935903519392" lon="11.488514682278037">
        <ele>363.681068420410213</ele>
        <time>2016-08-26T08:11:08Z</time>
      </trkpt>
      <trkpt lat="46.529243448749185" lon="11.488515185192227">
        <ele>363.685462951660213</ele>
        <time>2016-08-26T08:11:09Z</time>
      </trkpt>
      <trkpt lat="46.529122330248356" lon="11.488519962877035">
        <ele>363.692359924316406</ele>
        <time>2016-08-26T08:11:10Z</time>
      </trkpt>
      <trkpt lat="46.529012694954872" lon="11.488524572923779">
        <ele>363.365150451660213</ele>
        <time>2016-08-26T08:11:11Z</time>
      </trkpt>
      <trkpt lat="46.528895348310471" lon="11.488528596237302">
        <ele>363.311073303222713</ele>
        <time>2016-08-26T08:11:12Z</time>
      </trkpt>
      <trkpt lat="46.528779594227672" lon="11.488527674227953">
        <ele>363.237098693847713</ele>
        <time>2016-08-26T08:11:13Z</time>
      </trkpt>
      <trkpt lat="46.528665348887444" lon="11.48852314800024">
        <ele>362.946266174316406</ele>
        <time>2016-08-26T08:11:14Z</time>
      </trkpt>
      <trkpt lat="46.528559569269419" lon="11.488524405285716">
        <ele>362.079505920410213</ele>
        <time>2016-08-26T08:11:15Z</time>
      </trkpt>
      <trkpt lat="46.528448006138206" lon="11.488521303981543">
        <ele>361.702064514160213</ele>
        <time>2016-08-26T08:11:16Z</time>
      </trkpt>
      <trkpt lat="46.528328647837043" lon="11.488516191020608">
        <ele>361.544715881347713</ele>
        <time>2016-08-26T08:11:17Z</time>
      </trkpt>
      <trkpt lat="46.5282117202878" lon="11.488513089716434">
        <ele>360.852943420410213</ele>
        <time>2016-08-26T08:11:18Z</time>
      </trkpt>
      <trkpt lat="46.528107114136219" lon="11.488507892936468">
        <ele>360.242591857910213</ele>
        <time>2016-08-26T08:11:19Z</time>
      </trkpt>
      <trkpt lat="46.528001921251416" lon="11.488503701984882">
        <ele>358.147010803222713</ele>
        <time>2016-08-26T08:11:20Z</time>
      </trkpt>
      <trkpt lat="46.527889771386981" lon="11.488495571538806">
        <ele>357.680580139160213</ele>
        <time>2016-08-26T08:11:21Z</time>
      </trkpt>
      <trkpt lat="46.527791451662779" lon="11.488494230434299">
        <ele>356.467689514160213</ele>
        <time>2016-08-26T08:11:22Z</time>
      </trkpt>
      <trkpt lat="46.527694221585989" lon="11.488494900986552">
        <ele>355.646888732910213</ele>
        <time>2016-08-26T08:11:23Z</time>
      </trkpt>
      <trkpt lat="46.527589112520218" lon="11.488492051139474">
        <ele>355.201820373535213</ele>
        <time>2016-08-26T08:11:24Z</time>
      </trkpt>
      <trkpt lat="46.527484841644764" lon="11.488494733348489">
        <ele>356.076881408691406</ele>
        <time>2016-08-26T08:11:25Z</time>
      </trkpt>
      <trkpt lat="46.527382163330913" lon="11.488501606509089">
        <ele>356.340858459472713</ele>
        <time>2016-08-26T08:11:26Z</time>
      </trkpt>
      <trkpt lat="46.527282083407044" lon="11.488511329516768">
        <ele>356.492225646972713</ele>
        <time>2016-08-26T08:11:27Z</time>
      </trkpt>
      <trkpt lat="46.527176890522242" lon="11.488523650914431">
        <ele>355.779335021972713</ele>
        <time>2016-08-26T08:11:28Z</time>
      </trkpt>
      <trkpt lat="46.527070440351963" lon="11.488529266789556">
        <ele>356.101966857910213</ele>
        <time>2016-08-26T08:11:29Z</time>
      </trkpt>
      <trkpt lat="46.5269510820508" lon="11.488532535731792">
        <ele>356.365882873535213</ele>
        <time>2016-08-26T08:11:30Z</time>
      </trkpt>
      <trkpt lat="46.52681864798069" lon="11.488536139950156">
        <ele>356.256996154785213</ele>
        <time>2016-08-26T08:11:31Z</time>
      </trkpt>
      <trkpt lat="46.526688644662499" lon="11.488538486883044">
        <ele>355.976905822753906</ele>
        <time>2016-08-26T08:11:32Z</time>
      </trkpt>
      <trkpt lat="46.52655185200274" lon="11.488556675612926">
        <ele>356.321632385253906</ele>
        <time>2016-08-26T08:11:33Z</time>
      </trkpt>
      <trkpt lat="46.526446575298905" lon="11.48855684325099">
        <ele>356.375282287597713</ele>
        <time>2016-08-26T08:11:34Z</time>
      </trkpt>
      <trkpt lat="46.52632805518806" lon="11.488563464954495">
        <ele>356.355751037597713</ele>
        <time>2016-08-26T08:11:35Z</time>
      </trkpt>
      <trkpt lat="46.523092053830624" lon="11.487095206975937">
        <ele>348.706214904785213</ele>
        <time>2016-08-26T08:11:59Z</time>
      </trkpt>
      <trkpt lat="46.522900275886059" lon="11.48697417229414">
        <ele>350.856544494628906</ele>
        <time>2016-08-26T08:12:00Z</time>
      </trkpt>
      <trkpt lat="46.522896755486727" lon="11.486746687442064">
        <ele>350.095375061035213</ele>
        <time>2016-08-26T08:12:01Z</time>
      </trkpt>
      <trkpt lat="46.52283095754683" lon="11.486554574221373">
        <ele>350.500404357910213</ele>
        <time>2016-08-26T08:12:02Z</time>
      </trkpt>
      <trkpt lat="46.52276792563498" lon="11.486376710236073">
        <ele>350.656715393066406</ele>
        <time>2016-08-26T08:12:03Z</time>
      </trkpt>
      <trkpt lat="46.522705145180225" lon="11.486203540116549">
        <ele>350.677833557128906</ele>
        <time>2016-08-26T08:12:04Z</time>
      </trkpt>
      <trkpt lat="46.522631216794252" lon="11.48602282628417">
        <ele>350.415809631347713</ele>
        <time>2016-08-26T08:12:05Z</time>
      </trkpt>
      <trkpt lat="46.522566676139832" lon="11.485848734155297">
        <ele>350.819923400878906</ele>
        <time>2016-08-26T08:12:06Z</time>
      </trkpt>
      <trkpt lat="46.522498279809952" lon="11.485671373084188">
        <ele>349.413490295410213</ele>
        <time>2016-08-26T08:12:07Z</time>
      </trkpt>
      <trkpt lat="46.522427285090089" lon="11.485501891002059">
        <ele>349.578163146972713</ele>
        <time>2016-08-26T08:12:08Z</time>
      </trkpt>
      <trkpt lat="46.522355619817972" lon="11.485326122492552">
        <ele>350.037269592285213</ele>
        <time>2016-08-26T08:12:09Z</time>
      </trkpt>
      <trkpt lat="46.522285714745522" lon="11.485152281820774">
        <ele>350.024940490722713</ele>
        <time>2016-08-26T08:12:10Z</time>
      </trkpt>
      <trkpt lat="46.522203152999282" lon="11.484973579645157">
        <ele>349.969154357910213</ele>
        <time>2016-08-26T08:12:11Z</time>
      </trkpt>
      <trkpt lat="46.522119166329503" lon="11.484802756458521">
        <ele>348.847023010253906</ele>
        <time>2016-08-26T08:12:12Z</time>
      </trkpt>
      <trkpt lat="46.522046746686101" lon="11.484630005434155">
        <ele>348.922523498535213</ele>
        <time>2016-08-26T08:12:13Z</time>
      </trkpt>
      <trkpt lat="46.52197340503335" lon="11.484453566372395">
        <ele>348.762306213378906</ele>
        <time>2016-08-26T08:12:14Z</time>
      </trkpt>
      <trkpt lat="46.521891010925174" lon="11.484279222786427">
        <ele>348.579444885253906</ele>
        <time>2016-08-26T08:12:15Z</time>
      </trkpt>
      <trkpt lat="46.521799061447382" lon="11.484102196991444">
        <ele>349.309547424316406</ele>
        <time>2016-08-26T08:12:16Z</time>
      </trkpt>
      <trkpt lat="46.521722869947553" lon="11.483933050185442">
        <ele>348.427833557128906</ele>
        <time>2016-08-26T08:12:17Z</time>
      </trkpt>
      <trkpt lat="46.521642990410328" lon="11.483772033825517">
        <ele>343.132240295410213</ele>
        <time>2016-08-26T08:12:18Z</time>
      </trkpt>
      <trkpt lat="46.521554812788963" lon="11.483596349135041">
        <ele>343.974159240722713</ele>
        <time>2016-08-26T08:12:19Z</time>
      </trkpt>
      <trkpt lat="46.521476022899151" lon="11.483426615595818">
        <ele>347.306312561035213</ele>
        <time>2016-08-26T08:12:20Z</time>
      </trkpt>
      <trkpt lat="46.521377954632044" lon="11.483272137120366">
        <ele>343.913612365722713</ele>
        <time>2016-08-26T08:12:21Z</time>
      </trkpt>
      <trkpt lat="46.521289777010679" lon="11.483116149902344">
        <ele>344.338966369628906</ele>
        <time>2016-08-26T08:12:22Z</time>
      </trkpt>
      <trkpt lat="46.521193888038397" lon="11.482970723882318">
        <ele>343.902565002441406</ele>
        <time>2016-08-26T08:12:23Z</time>
      </trkpt>
      <trkpt lat="46.521089784801006" lon="11.482840385288">
        <ele>343.210731506347713</ele>
        <time>2016-08-26T08:12:24Z</time>
      </trkpt>
      <trkpt lat="46.520972438156605" lon="11.482752878218889">
        <ele>342.616554260253906</ele>
        <time>2016-08-26T08:12:25Z</time>
      </trkpt>
      <trkpt lat="46.520823324099183" lon="11.482677944004536">
        <ele>343.107215881347713</ele>
        <time>2016-08-26T08:12:26Z</time>
      </trkpt>
      <trkpt lat="46.520678652450442" lon="11.482605105265975">
        <ele>342.424659729003906</ele>
        <time>2016-08-26T08:12:27Z</time>
      </trkpt>
      <trkpt lat="46.520556611940265" lon="11.482530841603875">
        <ele>342.854591369628906</ele>
        <time>2016-08-26T08:12:28Z</time>
      </trkpt>
      <trkpt lat="46.520420573651791" lon="11.482469905167818">
        <ele>342.989173889160213</ele>
        <time>2016-08-26T08:12:29Z</time>
      </trkpt>
      <trkpt lat="46.520308926701546" lon="11.48240745998919">
        <ele>342.008399963378906</ele>
        <time>2016-08-26T08:12:30Z</time>
      </trkpt>
      <trkpt lat="46.520180348306894" lon="11.482344511896372">
        <ele>342.068275451660213</ele>
        <time>2016-08-26T08:12:31Z</time>
      </trkpt>
      <trkpt lat="46.520053194835782" lon="11.482283491641283">
        <ele>343.007484436035213</ele>
        <time>2016-08-26T08:12:32Z</time>
      </trkpt>
      <trkpt lat="46.519931824877858" lon="11.482215514406562">
        <ele>345.528236389160213</ele>
        <time>2016-08-26T08:12:33Z</time>
      </trkpt>
      <trkpt lat="46.519821602851152" lon="11.482113925740123">
        <ele>344.517372131347713</ele>
        <time>2016-08-26T08:12:34Z</time>
      </trkpt>
      <trkpt lat="46.519689168781042" lon="11.482020216062665">
        <ele>344.197486877441406</ele>
        <time>2016-08-26T08:12:35Z</time>
      </trkpt>
      <trkpt lat="46.519542736932635" lon="11.481947377324104">
        <ele>343.603919982910213</ele>
        <time>2016-08-26T08:12:36Z</time>
      </trkpt>
      <trkpt lat="46.519407536834478" lon="11.481851320713758">
        <ele>344.037818908691406</ele>
        <time>2016-08-26T08:12:37Z</time>
      </trkpt>
      <trkpt lat="46.519287088885903" lon="11.481760460883379">
        <ele>343.589759826660213</ele>
        <time>2016-08-26T08:12:38Z</time>
      </trkpt>
      <trkpt lat="46.519162449985743" lon="11.481680413708091">
        <ele>344.173011779785213</ele>
        <time>2016-08-26T08:12:39Z</time>
      </trkpt>
      <trkpt lat="46.519083324819803" lon="11.481565916910768">
        <ele>343.830726623535213</ele>
        <time>2016-08-26T08:12:40Z</time>
      </trkpt>
      <trkpt lat="46.518951812759042" lon="11.481444546952844">
        <ele>343.841590881347713</ele>
        <time>2016-08-26T08:12:41Z</time>
      </trkpt>
      <trkpt lat="46.518856510519981" lon="11.481271795928478">
        <ele>343.679481506347713</ele>
        <time>2016-08-26T08:12:42Z</time>
      </trkpt>
      <trkpt lat="46.51876313611865" lon="11.481107929721475">
        <ele>343.295753479003906</ele>
        <time>2016-08-26T08:12:43Z</time>
      </trkpt>
      <trkpt lat="46.518652997910976" lon="11.480917325243354">
        <ele>342.841468811035213</ele>
        <time>2016-08-26T08:12:44Z</time>
      </trkpt>
      <trkpt lat="46.518565909937024" lon="11.480730408802629">
        <ele>342.361610412597713</ele>
        <time>2016-08-26T08:12:45Z</time>
      </trkpt>
      <trkpt lat="46.518478905782104" lon="11.480547096580267">
        <ele>341.899330139160213</ele>
        <time>2016-08-26T08:12:46Z</time>
      </trkpt>
      <trkpt lat="46.518390141427517" lon="11.480366298928857">
        <ele>342.021217346191406</ele>
        <time>2016-08-26T08:12:47Z</time>
      </trkpt>
      <trkpt lat="46.518289558589458" lon="11.480175191536546">
        <ele>344.318031311035213</ele>
        <time>2016-08-26T08:12:48Z</time>
      </trkpt>
      <trkpt lat="46.518214121460915" lon="11.480018282309175">
        <ele>341.586158752441406</ele>
        <time>2016-08-26T08:12:49Z</time>
      </trkpt>
      <trkpt lat="46.51809467934072" lon="11.479832120239735">
        <ele>341.512001037597713</ele>
        <time>2016-08-26T08:12:50Z</time>
      </trkpt>
      <trkpt lat="46.517989234998822" lon="11.479663224890828">
        <ele>343.200355529785213</ele>
        <time>2016-08-26T08:12:51Z</time>
      </trkpt>
      <trkpt lat="46.517911115661263" lon="11.479506986215711">
        <ele>343.547645568847713</ele>
        <time>2016-08-26T08:12:52Z</time>
      </trkpt>
      <trkpt lat="46.51776728220284" lon="11.47935695014894">
        <ele>343.713172912597713</ele>
        <time>2016-08-26T08:12:53Z</time>
      </trkpt>
      <trkpt lat="46.517640212550759" lon="11.479243962094188">
        <ele>343.231971740722713</ele>
        <time>2016-08-26T08:12:54Z</time>
      </trkpt>
      <trkpt lat="46.517529152333736" lon="11.479123095050454">
        <ele>341.974647521972713</ele>
        <time>2016-08-26T08:12:55Z</time>
      </trkpt>
      <trkpt lat="46.51741448789835" lon="11.479022009298205">
        <ele>342.994789123535213</ele>
        <time>2016-08-26T08:12:56Z</time>
      </trkpt>
      <trkpt lat="46.517283981665969" lon="11.478947075083852">
        <ele>344.278846740722713</ele>
        <time>2016-08-26T08:12:57Z</time>
      </trkpt>
      <trkpt lat="46.517146769911051" lon="11.478877672925591">
        <ele>344.075721740722713</ele>
        <time>2016-08-26T08:12:58Z</time>
      </trkpt>
      <trkpt lat="46.517001008614898" lon="11.478776084259152">
        <ele>342.437049865722713</ele>
        <time>2016-08-26T08:12:59Z</time>
      </trkpt>
      <trkpt lat="46.516839908435941" lon="11.478676088154316">
        <ele>342.820655822753906</ele>
        <time>2016-08-26T08:13:00Z</time>
      </trkpt>
      <trkpt lat="46.516693476587534" lon="11.478571482002735">
        <ele>340.502235412597713</ele>
        <time>2016-08-26T08:13:01Z</time>
      </trkpt>
      <trkpt lat="46.516538243740797" lon="11.478478107601404">
        <ele>340.982337951660213</ele>
        <time>2016-08-26T08:13:02Z</time>
      </trkpt>
      <trkpt lat="46.516398349776864" lon="11.478363778442144">
        <ele>340.474647521972713</ele>
        <time>2016-08-26T08:13:03Z</time>
      </trkpt>
      <trkpt lat="46.51625401340425" lon="11.478269482031465">
        <ele>340.590126037597713</ele>
        <time>2016-08-26T08:13:04Z</time>
      </trkpt>
      <trkpt lat="46.516093919053674" lon="11.478176694363356">
        <ele>340.020423889160213</ele>
        <time>2016-08-26T08:13:05Z</time>
      </trkpt>
      <trkpt lat="46.515949917957187" lon="11.478067394345999">
        <ele>338.064369201660213</ele>
        <time>2016-08-26T08:13:06Z</time>
      </trkpt>
      <trkpt lat="46.515792505815625" lon="11.477951556444168">
        <ele>336.758216857910213</ele>
        <time>2016-08-26T08:13:07Z</time>
      </trkpt>
      <trkpt lat="46.515635177493095" lon="11.477861702442169">
        <ele>336.539833068847713</ele>
        <time>2016-08-26T08:13:08Z</time>
      </trkpt>
      <trkpt lat="46.515477849170566" lon="11.477780984714627">
        <ele>337.121376037597713</ele>
        <time>2016-08-26T08:13:09Z</time>
      </trkpt>
      <trkpt lat="46.515342565253377" lon="11.477683084085584">
        <ele>336.940650939941406</ele>
        <time>2016-08-26T08:13:10Z</time>
      </trkpt>
      <trkpt lat="46.51519663631916" lon="11.477617537602782">
        <ele>337.731727600097713</ele>
        <time>2016-08-26T08:13:11Z</time>
      </trkpt>
      <trkpt lat="46.515070572495461" lon="11.477559199556708">
        <ele>337.911659240722713</ele>
        <time>2016-08-26T08:13:12Z</time>
      </trkpt>
      <trkpt lat="46.514932857826352" lon="11.477496083825827">
        <ele>337.376930236816406</ele>
        <time>2016-08-26T08:13:13Z</time>
      </trkpt>
      <trkpt lat="46.514794640243053" lon="11.477449564263225">
        <ele>337.212928771972713</ele>
        <time>2016-08-26T08:13:14Z</time>
      </trkpt>
      <trkpt lat="46.514666229486465" lon="11.47743221372366">
        <ele>336.767616271972713</ele>
        <time>2016-08-26T08:13:15Z</time>
      </trkpt>
      <trkpt lat="46.514527928084135" lon="11.477434476837516">
        <ele>336.482215881347713</ele>
        <time>2016-08-26T08:13:16Z</time>
      </trkpt>
      <trkpt lat="46.514392141252756" lon="11.477443026378751">
        <ele>336.040565490722713</ele>
        <time>2016-08-26T08:13:17Z</time>
      </trkpt>
      <trkpt lat="46.514239674434066" lon="11.477457191795111">
        <ele>337.387672424316406</ele>
        <time>2016-08-26T08:13:18Z</time>
      </trkpt>
      <trkpt lat="46.51410598307848" lon="11.477473368868232">
        <ele>338.499916076660213</ele>
        <time>2016-08-26T08:13:19Z</time>
      </trkpt>
      <trkpt lat="46.513962568715215" lon="11.477489043027163">
        <ele>339.499305725097713</ele>
        <time>2016-08-26T08:13:20Z</time>
      </trkpt>
      <trkpt lat="46.513828122988343" lon="11.477514104917645">
        <ele>340.114295959472713</ele>
        <time>2016-08-26T08:13:21Z</time>
      </trkpt>
      <trkpt lat="46.51369895786047" lon="11.477515948936343">
        <ele>340.846168518066406</ele>
        <time>2016-08-26T08:13:22Z</time>
      </trkpt>
      <trkpt lat="46.513537690043449" lon="11.477545704692602">
        <ele>342.623329162597713</ele>
        <time>2016-08-26T08:13:23Z</time>
      </trkpt>
      <trkpt lat="46.513398047536612" lon="11.477542100474238">
        <ele>342.584144592285213</ele>
        <time>2016-08-26T08:13:24Z</time>
      </trkpt>
      <trkpt lat="46.513253459706903" lon="11.477538663893938">
        <ele>342.539772033691406</ele>
        <time>2016-08-26T08:13:25Z</time>
      </trkpt>
      <trkpt lat="46.513114403933287" lon="11.47751284763217">
        <ele>342.561195373535213</ele>
        <time>2016-08-26T08:13:26Z</time>
      </trkpt>
      <trkpt lat="46.512964786961675" lon="11.477441098541021">
        <ele>342.301185607910213</ele>
        <time>2016-08-26T08:13:27Z</time>
      </trkpt>
      <trkpt lat="46.51283117942512" lon="11.477339677512646">
        <ele>342.116371154785213</ele>
        <time>2016-08-26T08:13:28Z</time>
      </trkpt>
      <trkpt lat="46.512685334309936" lon="11.477239932864904">
        <ele>341.350502014160213</ele>
        <time>2016-08-26T08:13:29Z</time>
      </trkpt>
      <trkpt lat="46.512621380388737" lon="11.477037342265248">
        <ele>340.797645568847713</ele>
        <time>2016-08-26T08:13:30Z</time>
      </trkpt>
      <trkpt lat="46.512580811977386" lon="11.476805498823524">
        <ele>340.448402404785213</ele>
        <time>2016-08-26T08:13:31Z</time>
      </trkpt>
      <trkpt lat="46.512500094249845" lon="11.476609949022532">
        <ele>339.887977600097713</ele>
        <time>2016-08-26T08:13:32Z</time>
      </trkpt>
      <trkpt lat="46.512445108965039" lon="11.476410795003176">
        <ele>340.498451232910213</ele>
        <time>2016-08-26T08:13:33Z</time>
      </trkpt>
      <trkpt lat="46.5124471206218" lon="11.476181466132402">
        <ele>340.318153381347713</ele>
        <time>2016-08-26T08:13:34Z</time>
      </trkpt>
      <trkpt lat="46.512461453676224" lon="11.475970493629575">
        <ele>340.161048889160213</ele>
        <time>2016-08-26T08:13:35Z</time>
      </trkpt>
      <trkpt lat="46.512475954368711" lon="11.475751390680671">
        <ele>341.551185607910213</ele>
        <time>2016-08-26T08:13:36Z</time>
      </trkpt>
      <trkpt lat="46.512489784508944" lon="11.475530695170164">
        <ele>341.987098693847713</ele>
        <time>2016-08-26T08:13:37Z</time>
      </trkpt>
      <trkpt lat="46.512486515566707" lon="11.475322237238288">
        <ele>341.611366271972713</ele>
        <time>2016-08-26T08:13:38Z</time>
      </trkpt>
      <trkpt lat="46.512470338493586" lon="11.475107911974192">
        <ele>340.916297912597713</ele>
        <time>2016-08-26T08:13:39Z</time>
      </trkpt>
      <trkpt lat="46.512429602444172" lon="11.474892245605588">
        <ele>340.319923400878906</ele>
        <time>2016-08-26T08:13:40Z</time>
      </trkpt>
      <trkpt lat="46.512388279661536" lon="11.474686469882727">
        <ele>339.196571350097713</ele>
        <time>2016-08-26T08:13:41Z</time>
      </trkpt>
      <trkpt lat="46.512348297983408" lon="11.474492428824306">
        <ele>339.381385803222713</ele>
        <time>2016-08-26T08:13:42Z</time>
      </trkpt>
      <trkpt lat="46.512296246364713" lon="11.474302830174565">
        <ele>338.287391662597713</ele>
        <time>2016-08-26T08:13:43Z</time>
      </trkpt>
      <trkpt lat="46.512235393747687" lon="11.474110633134842">
        <ele>338.187904357910213</ele>
        <time>2016-08-26T08:13:44Z</time>
      </trkpt>
      <trkpt lat="46.512182336300611" lon="11.473894212394953">
        <ele>338.512001037597713</ele>
        <time>2016-08-26T08:13:45Z</time>
      </trkpt>
      <trkpt lat="46.512160543352365" lon="11.473672008141875">
        <ele>339.289955139160213</ele>
        <time>2016-08-26T08:13:46Z</time>
      </trkpt>
      <trkpt lat="46.51216758415103" lon="11.47343622520566">
        <ele>340.392311096191406</ele>
        <time>2016-08-26T08:13:47Z</time>
      </trkpt>
      <trkpt lat="46.512242183089256" lon="11.473228018730879">
        <ele>338.913612365722713</ele>
        <time>2016-08-26T08:13:48Z</time>
      </trkpt>
      <trkpt lat="46.512273363769054" lon="11.472995923832059">
        <ele>338.473548889160213</ele>
        <time>2016-08-26T08:13:49Z</time>
      </trkpt>
      <trkpt lat="46.512335976585746" lon="11.472761817276478">
        <ele>337.800453186035213</ele>
        <time>2016-08-26T08:13:50Z</time>
      </trkpt>
      <trkpt lat="46.512396074831486" lon="11.472532823681831">
        <ele>337.135169982910213</ele>
        <time>2016-08-26T08:13:51Z</time>
      </trkpt>
      <trkpt lat="46.512440415099263" lon="11.472306428477168">
        <ele>337.034339904785213</ele>
        <time>2016-08-26T08:13:52Z</time>
      </trkpt>
      <trkpt lat="46.512476289644837" lon="11.47208564914763">
        <ele>336.208961486816406</ele>
        <time>2016-08-26T08:13:53Z</time>
      </trkpt>
      <trkpt lat="46.512460531666875" lon="11.471844082698226">
        <ele>338.190040588378906</ele>
        <time>2016-08-26T08:13:54Z</time>
      </trkpt>
      <trkpt lat="46.512446952983737" lon="11.471615005284548">
        <ele>338.108680725097713</ele>
        <time>2016-08-26T08:13:55Z</time>
      </trkpt>
      <trkpt lat="46.512409318238497" lon="11.471388107165694">
        <ele>338.366920471191406</ele>
        <time>2016-08-26T08:13:56Z</time>
      </trkpt>
      <trkpt lat="46.512355674058199" lon="11.471169339492917">
        <ele>337.546913146972713</ele>
        <time>2016-08-26T08:13:57Z</time>
      </trkpt>
      <trkpt lat="46.512308735400438" lon="11.470952164381742">
        <ele>337.803627014160213</ele>
        <time>2016-08-26T08:13:58Z</time>
      </trkpt>
      <trkpt lat="46.512244949117303" lon="11.47074781358242">
        <ele>337.983253479003906</ele>
        <time>2016-08-26T08:13:59Z</time>
      </trkpt>
      <trkpt lat="46.512190885841846" lon="11.470570201054215">
        <ele>339.064002990722713</ele>
        <time>2016-08-26T08:14:00Z</time>
      </trkpt>
      <trkpt lat="46.512170433998108" lon="11.470372220501304">
        <ele>338.455970764160213</ele>
        <time>2016-08-26T08:14:01Z</time>
      </trkpt>
      <trkpt lat="46.512108324095607" lon="11.470173988491297">
        <ele>338.255287170410213</ele>
        <time>2016-08-26T08:14:02Z</time>
      </trkpt>
      <trkpt lat="46.511967172846198" lon="11.470036106184125">
        <ele>338.449806213378906</ele>
        <time>2016-08-26T08:14:03Z</time>
      </trkpt>
      <trkpt lat="46.511854520067573" lon="11.469877101480961">
        <ele>339.141212463378906</ele>
        <time>2016-08-26T08:14:04Z</time>
      </trkpt>
      <trkpt lat="46.511734994128346" lon="11.4697299990803">
        <ele>338.372474670410213</ele>
        <time>2016-08-26T08:14:05Z</time>
      </trkpt>
      <trkpt lat="46.51161739602685" lon="11.469596810638905">
        <ele>338.356361389160213</ele>
        <time>2016-08-26T08:14:06Z</time>
      </trkpt>
      <trkpt lat="46.511502061039209" lon="11.469452222809196">
        <ele>336.463783264160213</ele>
        <time>2016-08-26T08:14:07Z</time>
      </trkpt>
      <trkpt lat="46.511381277814507" lon="11.469318279996514">
        <ele>336.947731018066406</ele>
        <time>2016-08-26T08:14:08Z</time>
      </trkpt>
      <trkpt lat="46.511251106858253" lon="11.469180397689342">
        <ele>337.453651428222713</ele>
        <time>2016-08-26T08:14:09Z</time>
      </trkpt>
      <trkpt lat="46.511128814890981" lon="11.469058021903038">
        <ele>338.079200744628906</ele>
        <time>2016-08-26T08:14:10Z</time>
      </trkpt>
      <trkpt lat="46.51099931448698" lon="11.468938663601875">
        <ele>338.117103576660213</ele>
        <time>2016-08-26T08:14:11Z</time>
      </trkpt>
      <trkpt lat="46.510866209864616" lon="11.468817880377173">
        <ele>337.376075744628906</ele>
        <time>2016-08-26T08:14:12Z</time>
      </trkpt>
      <trkpt lat="46.510721119120717" lon="11.468714196234941">
        <ele>337.143226623535213</ele>
        <time>2016-08-26T08:14:13Z</time>
      </trkpt>
      <trkpt lat="46.510569825768471" lon="11.468604393303394">
        <ele>337.212318420410213</ele>
        <time>2016-08-26T08:14:14Z</time>
      </trkpt>
      <trkpt lat="46.510426914319396" lon="11.468490986153483">
        <ele>336.909889221191406</ele>
        <time>2016-08-26T08:14:15Z</time>
      </trkpt>
      <trkpt lat="46.510274698957801" lon="11.468376908451319">
        <ele>336.081642150878906</ele>
        <time>2016-08-26T08:14:16Z</time>
      </trkpt>
      <trkpt lat="46.510137319564819" lon="11.468257801607251">
        <ele>335.838172912597713</ele>
        <time>2016-08-26T08:14:17Z</time>
      </trkpt>
      <trkpt lat="46.509999437257648" lon="11.468138778582215">
        <ele>335.533302307128906</ele>
        <time>2016-08-26T08:14:18Z</time>
      </trkpt>
      <trkpt lat="46.50983733125031" lon="11.468024114146829">
        <ele>335.302772521972713</ele>
        <time>2016-08-26T08:14:19Z</time>
      </trkpt>
      <trkpt lat="46.509695257991552" lon="11.467905174940825">
        <ele>334.953651428222713</ele>
        <time>2016-08-26T08:14:20Z</time>
      </trkpt>
      <trkpt lat="46.509556369856" lon="11.467776512727141">
        <ele>334.542396545410213</ele>
        <time>2016-08-26T08:14:21Z</time>
      </trkpt>
      <trkpt lat="46.509413290768862" lon="11.46765380166471">
        <ele>334.420204162597713</ele>
        <time>2016-08-26T08:14:22Z</time>
      </trkpt>
      <trkpt lat="46.50926903821528" lon="11.467520026490092">
        <ele>334.218605041503906</ele>
        <time>2016-08-26T08:14:23Z</time>
      </trkpt>
      <trkpt lat="46.509135346859694" lon="11.467385999858379">
        <ele>334.419532775878906</ele>
        <time>2016-08-26T08:14:24Z</time>
      </trkpt>
      <trkpt lat="46.509006014093757" lon="11.467232862487435">
        <ele>335.641151428222713</ele>
        <time>2016-08-26T08:14:25Z</time>
      </trkpt>
      <trkpt lat="46.508872490376234" lon="11.467085005715489">
        <ele>334.541175842285213</ele>
        <time>2016-08-26T08:14:26Z</time>
      </trkpt>
      <trkpt lat="46.508754137903452" lon="11.466926420107484">
        <ele>334.245033264160213</ele>
        <time>2016-08-26T08:14:27Z</time>
      </trkpt>
      <trkpt lat="46.508608208969235" lon="11.466747969388962">
        <ele>333.622718811035213</ele>
        <time>2016-08-26T08:14:28Z</time>
      </trkpt>
      <trkpt lat="46.508474601432681" lon="11.466572033241391">
        <ele>333.740150451660213</ele>
        <time>2016-08-26T08:14:29Z</time>
      </trkpt>
      <trkpt lat="46.508330600336194" lon="11.466394001618028">
        <ele>332.483619689941406</ele>
        <time>2016-08-26T08:14:30Z</time>
      </trkpt>
      <trkpt lat="46.508192969486117" lon="11.466215634718537">
        <ele>331.578407287597713</ele>
        <time>2016-08-26T08:14:31Z</time>
      </trkpt>
      <trkpt lat="46.508065480738878" lon="11.466033160686493">
        <ele>331.289527893066406</ele>
        <time>2016-08-26T08:14:32Z</time>
      </trkpt>
      <trkpt lat="46.507938243448734" lon="11.46583660505712">
        <ele>330.656593322753906</ele>
        <time>2016-08-26T08:14:33Z</time>
      </trkpt>
      <trkpt lat="46.507812095806003" lon="11.465627811849117">
        <ele>330.222633361816406</ele>
        <time>2016-08-26T08:14:34Z</time>
      </trkpt>
      <trkpt lat="46.507703550159931" lon="11.465412983670831">
        <ele>330.305335998535213</ele>
        <time>2016-08-26T08:14:35Z</time>
      </trkpt>
      <trkpt lat="46.507580252364278" lon="11.465191952884197">
        <ele>330.069435119628906</ele>
        <time>2016-08-26T08:14:36Z</time>
      </trkpt>
      <trkpt lat="46.507491990923882" lon="11.464961534366012">
        <ele>329.401283264160213</ele>
        <time>2016-08-26T08:14:37Z</time>
      </trkpt>
      <trkpt lat="46.507400209084153" lon="11.464723655954003">
        <ele>329.919837951660213</ele>
        <time>2016-08-26T08:14:38Z</time>
      </trkpt>
      <trkpt lat="46.507304068654776" lon="11.464476557448506">
        <ele>329.996253967285213</ele>
        <time>2016-08-26T08:14:39Z</time>
      </trkpt>
      <trkpt lat="46.507215555757284" lon="11.46422510035336">
        <ele>328.631202697753906</ele>
        <time>2016-08-26T08:14:40Z</time>
      </trkpt>
      <trkpt lat="46.507130730897188" lon="11.463975319638848">
        <ele>329.023658752441406</ele>
        <time>2016-08-26T08:14:41Z</time>
      </trkpt>
      <trkpt lat="46.507041966542602" lon="11.463723191991448">
        <ele>328.614295959472713</ele>
        <time>2016-08-26T08:14:42Z</time>
      </trkpt>
      <trkpt lat="46.506946915760636" lon="11.46347307600081">
        <ele>328.253089904785213</ele>
        <time>2016-08-26T08:14:43Z</time>
      </trkpt>
      <trkpt lat="46.506861001253128" lon="11.463227067142725">
        <ele>329.057655334472713</ele>
        <time>2016-08-26T08:14:44Z</time>
      </trkpt>
      <trkpt lat="46.506775002926588" lon="11.462979381904006">
        <ele>329.035072326660213</ele>
        <time>2016-08-26T08:14:45Z</time>
      </trkpt>
      <trkpt lat="46.506687579676509" lon="11.462745275348425">
        <ele>329.679420471191406</ele>
        <time>2016-08-26T08:14:46Z</time>
      </trkpt>
      <trkpt lat="46.506610047072172" lon="11.462514521554112">
        <ele>330.410804748535213</ele>
        <time>2016-08-26T08:14:47Z</time>
      </trkpt>
      <trkpt lat="46.506497142836452" lon="11.462279073894024">
        <ele>330.269569396972713</ele>
        <time>2016-08-26T08:14:48Z</time>
      </trkpt>
      <trkpt lat="46.506393793970346" lon="11.462051002308726">
        <ele>330.324623107910213</ele>
        <time>2016-08-26T08:14:49Z</time>
      </trkpt>
      <trkpt lat="46.506294552236795" lon="11.461828043684363">
        <ele>330.825416564941406</ele>
        <time>2016-08-26T08:14:50Z</time>
      </trkpt>
      <trkpt lat="46.506207715719938" lon="11.461635427549481">
        <ele>330.412025451660213</ele>
        <time>2016-08-26T08:14:51Z</time>
      </trkpt>
      <trkpt lat="46.506104869768023" lon="11.461446834728122">
        <ele>331.359291076660213</ele>
        <time>2016-08-26T08:14:52Z</time>
      </trkpt>
      <trkpt lat="46.505990624427795" lon="11.461257738992572">
        <ele>331.423866271972713</ele>
        <time>2016-08-26T08:14:53Z</time>
      </trkpt>
      <trkpt lat="46.505886185914278" lon="11.461082641035318">
        <ele>330.791297912597713</ele>
        <time>2016-08-26T08:14:54Z</time>
      </trkpt>
      <trkpt lat="46.505782334133983" lon="11.460914248600602">
        <ele>329.932960510253906</ele>
        <time>2016-08-26T08:14:55Z</time>
      </trkpt>
      <trkpt lat="46.505659287795424" lon="11.460739653557539">
        <ele>329.434242248535213</ele>
        <time>2016-08-26T08:14:56Z</time>
      </trkpt>
      <trkpt lat="46.505546383559704" lon="11.46057503297925">
        <ele>327.470375061035213</ele>
        <time>2016-08-26T08:14:57Z</time>
      </trkpt>
      <trkpt lat="46.505419984459877" lon="11.460407730191946">
        <ele>327.389747619628906</ele>
        <time>2016-08-26T08:14:58Z</time>
      </trkpt>
      <trkpt lat="46.505296099931002" lon="11.460237661376595">
        <ele>326.648719787597713</ele>
        <time>2016-08-26T08:14:59Z</time>
      </trkpt>
      <trkpt lat="46.505178082734346" lon="11.460064323619008">
        <ele>326.742103576660213</ele>
        <time>2016-08-26T08:15:00Z</time>
      </trkpt>
      <trkpt lat="46.505047911778092" lon="11.459904816001654">
        <ele>325.832069396972713</ele>
        <time>2016-08-26T08:15:01Z</time>
      </trkpt>
      <trkpt lat="46.504912627860904" lon="11.459750588983297">
        <ele>325.503578186035213</ele>
        <time>2016-08-26T08:15:02Z</time>
      </trkpt>
      <trkpt lat="46.50479469448328" lon="11.45959828980267">
        <ele>324.981605529785213</ele>
        <time>2016-08-26T08:15:03Z</time>
      </trkpt>
      <trkpt lat="46.504678269848228" lon="11.459432076662779">
        <ele>324.960731506347713</ele>
        <time>2016-08-26T08:15:04Z</time>
      </trkpt>
      <trkpt lat="46.504563018679619" lon="11.459284136071801">
        <ele>324.386878967285213</ele>
        <time>2016-08-26T08:15:05Z</time>
      </trkpt>
      <trkpt lat="46.504442989826202" lon="11.459154635667801">
        <ele>323.837867736816406</ele>
        <time>2016-08-26T08:15:06Z</time>
      </trkpt>
      <trkpt lat="46.504322290420532" lon="11.459047263488173">
        <ele>323.902381896972713</ele>
        <time>2016-08-26T08:15:07Z</time>
      </trkpt>
      <trkpt lat="46.504190526902676" lon="11.458949614316225">
        <ele>323.864540100097713</ele>
        <time>2016-08-26T08:15:08Z</time>
      </trkpt>
      <trkpt lat="46.504047615453601" lon="11.458848863840103">
        <ele>323.065467834472713</ele>
        <time>2016-08-26T08:15:09Z</time>
      </trkpt>
      <trkpt lat="46.503921635448933" lon="11.458754148334265">
        <ele>323.679298400878906</ele>
        <time>2016-08-26T08:15:10Z</time>
      </trkpt>
      <trkpt lat="46.503773527219892" lon="11.458640657365322">
        <ele>323.745887756347713</ele>
        <time>2016-08-26T08:15:11Z</time>
      </trkpt>
      <trkpt lat="46.503617372363806" lon="11.45855750888586">
        <ele>323.239418029785213</ele>
        <time>2016-08-26T08:15:12Z</time>
      </trkpt>
      <trkpt lat="46.503486279398203" lon="11.458460362628102">
        <ele>323.452919006347713</ele>
        <time>2016-08-26T08:15:13Z</time>
      </trkpt>
      <trkpt lat="46.503353007137775" lon="11.458346284925938">
        <ele>322.979530334472713</ele>
        <time>2016-08-26T08:15:14Z</time>
      </trkpt>
      <trkpt lat="46.50320908986032" lon="11.45825207233429">
        <ele>323.439247131347713</ele>
        <time>2016-08-26T08:15:15Z</time>
      </trkpt>
      <trkpt lat="46.503068692982197" lon="11.45814897492528">
        <ele>323.918617248535213</ele>
        <time>2016-08-26T08:15:16Z</time>
      </trkpt>
      <trkpt lat="46.502926452085376" lon="11.458036741241813">
        <ele>323.076454162597713</ele>
        <time>2016-08-26T08:15:17Z</time>
      </trkpt>
      <trkpt lat="46.502803573384881" lon="11.457924842834473">
        <ele>322.904579162597713</ele>
        <time>2016-08-26T08:15:18Z</time>
      </trkpt>
      <trkpt lat="46.502690836787224" lon="11.45779425278306">
        <ele>323.735877990722713</ele>
        <time>2016-08-26T08:15:19Z</time>
      </trkpt>
      <trkpt lat="46.502574747428298" lon="11.457647318020463">
        <ele>323.461341857910213</ele>
        <time>2016-08-26T08:15:20Z</time>
      </trkpt>
      <trkpt lat="46.502490174025297" lon="11.457481607794762">
        <ele>324.691505432128906</ele>
        <time>2016-08-26T08:15:21Z</time>
      </trkpt>
      <trkpt lat="46.502424962818623" lon="11.4573241956532">
        <ele>326.049720764160213</ele>
        <time>2016-08-26T08:15:22Z</time>
      </trkpt>
      <trkpt lat="46.502473242580891" lon="11.457056310027838">
        <ele>327.092445373535213</ele>
        <time>2016-08-26T08:15:23Z</time>
      </trkpt>
      <trkpt lat="46.502439044415951" lon="11.456830250099301">
        <ele>326.994789123535213</ele>
        <time>2016-08-26T08:15:24Z</time>
      </trkpt>
      <trkpt lat="46.502424208447337" lon="11.456610644236207">
        <ele>327.387123107910213</ele>
        <time>2016-08-26T08:15:25Z</time>
      </trkpt>
      <trkpt lat="46.502410126850009" lon="11.456395396962762">
        <ele>327.555946350097713</ele>
        <time>2016-08-26T08:15:26Z</time>
      </trkpt>
      <trkpt lat="46.502386406064034" lon="11.45618325099349">
        <ele>327.521644592285213</ele>
        <time>2016-08-26T08:15:27Z</time>
      </trkpt>
      <trkpt lat="46.502375677227974" lon="11.455997172743082">
        <ele>327.304603576660213</ele>
        <time>2016-08-26T08:15:28Z</time>
      </trkpt>
      <trkpt lat="46.502366038039327" lon="11.455825343728065">
        <ele>327.038185119628906</ele>
        <time>2016-08-26T08:15:29Z</time>
      </trkpt>
      <trkpt lat="46.502335695549846" lon="11.455655107274652">
        <ele>327.196571350097713</ele>
        <time>2016-08-26T08:15:30Z</time>
      </trkpt>
      <trkpt lat="46.502284565940499" lon="11.455495348200202">
        <ele>326.771278381347713</ele>
        <time>2016-08-26T08:15:31Z</time>
      </trkpt>
      <trkpt lat="46.502223210409284" lon="11.455345060676336">
        <ele>327.770423889160213</ele>
        <time>2016-08-26T08:15:32Z</time>
      </trkpt>
      <trkpt lat="46.502139391377568" lon="11.455226875841618">
        <ele>328.039588928222713</ele>
        <time>2016-08-26T08:15:33Z</time>
      </trkpt>
      <trkpt lat="46.502029420807958" lon="11.455120760947466">
        <ele>329.278297424316406</ele>
        <time>2016-08-26T08:15:34Z</time>
      </trkpt>
      <trkpt lat="46.501932358369231" lon="11.455035181716084">
        <ele>328.910926818847713</ele>
        <time>2016-08-26T08:15:35Z</time>
      </trkpt>
      <trkpt lat="46.501800427213311" lon="11.454998888075352">
        <ele>329.568214416503906</ele>
        <time>2016-08-26T08:15:36Z</time>
      </trkpt>
      <trkpt lat="46.501670172438025" lon="11.45497533492744">
        <ele>326.227699279785213</ele>
        <time>2016-08-26T08:15:37Z</time>
      </trkpt>
      <trkpt lat="46.501525165513158" lon="11.454932587221265">
        <ele>326.214942932128906</ele>
        <time>2016-08-26T08:15:38Z</time>
      </trkpt>
      <trkpt lat="46.501384349539876" lon="11.454894533380866">
        <ele>326.081947326660213</ele>
        <time>2016-08-26T08:15:39Z</time>
      </trkpt>
      <trkpt lat="46.501251664012671" lon="11.454854300245643">
        <ele>325.924110412597713</ele>
        <time>2016-08-26T08:15:40Z</time>
      </trkpt>
      <trkpt lat="46.501123253256083" lon="11.454808367416263">
        <ele>325.833290100097713</ele>
        <time>2016-08-26T08:15:41Z</time>
      </trkpt>
      <trkpt lat="46.500997524708509" lon="11.454764530062675">
        <ele>325.614234924316406</ele>
        <time>2016-08-26T08:15:42Z</time>
      </trkpt>
      <trkpt lat="46.500902138650417" lon="11.454732762649655">
        <ele>325.791969299316406</ele>
        <time>2016-08-26T08:15:43Z</time>
      </trkpt>
      <trkpt lat="46.500780349597335" lon="11.454695546999574">
        <ele>325.568885803222713</ele>
        <time>2016-08-26T08:15:44Z</time>
      </trkpt>
      <trkpt lat="46.500681610777974" lon="11.454659169539809">
        <ele>325.644630432128906</ele>
        <time>2016-08-26T08:15:45Z</time>
      </trkpt>
      <trkpt lat="46.500596618279815" lon="11.454610303044319">
        <ele>325.820350646972713</ele>
        <time>2016-08-26T08:15:46Z</time>
      </trkpt>
      <trkpt lat="46.500495364889503" lon="11.454538889229298">
        <ele>325.580604553222713</ele>
        <time>2016-08-26T08:15:47Z</time>
      </trkpt>
      <trkpt lat="46.500386064872146" lon="11.454459093511105">
        <ele>325.351417541503906</ele>
        <time>2016-08-26T08:15:48Z</time>
      </trkpt>
      <trkpt lat="46.500296797603369" lon="11.454367227852345">
        <ele>325.282020568847713</ele>
        <time>2016-08-26T08:15:49Z</time>
      </trkpt>
      <trkpt lat="46.500218594446778" lon="11.454257676377892">
        <ele>324.896522521972713</ele>
        <time>2016-08-26T08:15:50Z</time>
      </trkpt>
      <trkpt lat="46.500126058235765" lon="11.454143598675728">
        <ele>325.113563537597713</ele>
        <time>2016-08-26T08:15:51Z</time>
      </trkpt>
      <trkpt lat="46.500043831765652" lon="11.454024827107787">
        <ele>325.094337463378906</ele>
        <time>2016-08-26T08:15:52Z</time>
      </trkpt>
      <trkpt lat="46.499964455142617" lon="11.453904379159212">
        <ele>323.528358459472713</ele>
        <time>2016-08-26T08:15:53Z</time>
      </trkpt>
      <trkpt lat="46.49989178404212" lon="11.453775381669402">
        <ele>323.079750061035213</ele>
        <time>2016-08-26T08:15:54Z</time>
      </trkpt>
      <trkpt lat="46.499802097678185" lon="11.45364923402667">
        <ele>322.674781799316406</ele>
        <time>2016-08-26T08:15:55Z</time>
      </trkpt>
      <trkpt lat="46.499723391607404" lon="11.453530211001635">
        <ele>322.474952697753906</ele>
        <time>2016-08-26T08:15:56Z</time>
      </trkpt>
      <trkpt lat="46.499649966135621" lon="11.453409260138869">
        <ele>322.435951232910213</ele>
        <time>2016-08-26T08:15:57Z</time>
      </trkpt>
      <trkpt lat="46.499576540663838" lon="11.453288644552231">
        <ele>322.021949768066406</ele>
        <time>2016-08-26T08:15:58Z</time>
      </trkpt>
      <trkpt lat="46.499502193182707" lon="11.453171633183956">
        <ele>321.938880920410213</ele>
        <time>2016-08-26T08:15:59Z</time>
      </trkpt>
      <trkpt lat="46.49943832308054" lon="11.453060572966933">
        <ele>322.096351623535213</ele>
        <time>2016-08-26T08:16:00Z</time>
      </trkpt>
      <trkpt lat="46.49936649017036" lon="11.452946243807673">
        <ele>321.823146820068416</ele>
        <time>2016-08-26T08:16:01Z</time>
      </trkpt>
      <trkpt lat="46.499293064698577" lon="11.452829986810684">
        <ele>321.588527679443416</ele>
        <time>2016-08-26T08:16:02Z</time>
      </trkpt>
      <trkpt lat="46.499218968674541" lon="11.45270174369216">
        <ele>320.891384124755916</ele>
        <time>2016-08-26T08:16:03Z</time>
      </trkpt>
      <trkpt lat="46.499133221805096" lon="11.45257911644876">
        <ele>320.869777679443416</ele>
        <time>2016-08-26T08:16:04Z</time>
      </trkpt>
      <trkpt lat="46.49903230369091" lon="11.452456153929234">
        <ele>320.635646820068416</ele>
        <time>2016-08-26T08:16:05Z</time>
      </trkpt>
      <trkpt lat="46.49894529953599" lon="11.452337298542261">
        <ele>318.895046234130916</ele>
        <time>2016-08-26T08:16:06Z</time>
      </trkpt>
      <trkpt lat="46.498843962326646" lon="11.452219197526574">
        <ele>317.515041351318416</ele>
        <time>2016-08-26T08:16:07Z</time>
      </trkpt>
      <trkpt lat="46.498741200193763" lon="11.452089697122574">
        <ele>316.111476898193416</ele>
        <time>2016-08-26T08:16:08Z</time>
      </trkpt>
      <trkpt lat="46.498652100563049" lon="11.451958687976003">
        <ele>316.943325042724609</ele>
        <time>2016-08-26T08:16:09Z</time>
      </trkpt>
      <trkpt lat="46.498559899628162" lon="11.451835138723254">
        <ele>315.890285491943416</ele>
        <time>2016-08-26T08:16:10Z</time>
      </trkpt>
      <trkpt lat="46.498460238799453" lon="11.45172106102109">
        <ele>315.952480316162109</ele>
        <time>2016-08-26T08:16:11Z</time>
      </trkpt>
      <trkpt lat="46.498355800285935" lon="11.451614778488874">
        <ele>315.471462249755916</ele>
        <time>2016-08-26T08:16:12Z</time>
      </trkpt>
      <trkpt lat="46.49823484942317" lon="11.451514028012753">
        <ele>315.599147796630916</ele>
        <time>2016-08-26T08:16:13Z</time>
      </trkpt>
      <trkpt lat="46.498111635446548" lon="11.451424425467849">
        <ele>315.478176116943416</ele>
        <time>2016-08-26T08:16:14Z</time>
      </trkpt>
      <trkpt lat="46.498002335429192" lon="11.451336583122611">
        <ele>316.094753265380916</ele>
        <time>2016-08-26T08:16:15Z</time>
      </trkpt>
      <trkpt lat="46.497890269383788" lon="11.451251590624452">
        <ele>316.345302581787109</ele>
        <time>2016-08-26T08:16:16Z</time>
      </trkpt>
      <trkpt lat="46.49776378646493" lon="11.45116500556469">
        <ele>315.997829437255916</ele>
        <time>2016-08-26T08:16:17Z</time>
      </trkpt>
      <trkpt lat="46.497662365436554" lon="11.451073475182056">
        <ele>316.077724456787109</ele>
        <time>2016-08-26T08:16:18Z</time>
      </trkpt>
      <trkpt lat="46.497554909437895" lon="11.450970377773046">
        <ele>315.769069671630916</ele>
        <time>2016-08-26T08:16:19Z</time>
      </trkpt>
      <trkpt lat="46.497467653825879" lon="11.450876500457525">
        <ele>315.651515960693416</ele>
        <time>2016-08-26T08:16:20Z</time>
      </trkpt>
      <trkpt lat="46.497368076816201" lon="11.450763680040836">
        <ele>315.907375335693416</ele>
        <time>2016-08-26T08:16:21Z</time>
      </trkpt>
      <trkpt lat="46.497293980792165" lon="11.450640298426151">
        <ele>316.040370941162109</ele>
        <time>2016-08-26T08:16:22Z</time>
      </trkpt>
      <trkpt lat="46.497216448187828" lon="11.450508115813136">
        <ele>315.960353851318416</ele>
        <time>2016-08-26T08:16:23Z</time>
      </trkpt>
      <trkpt lat="46.49715693667531" lon="11.450372831895947">
        <ele>315.988430023193416</ele>
        <time>2016-08-26T08:16:24Z</time>
      </trkpt>
      <trkpt lat="46.497097592800856" lon="11.450232351198792">
        <ele>316.227321624755916</ele>
        <time>2016-08-26T08:16:25Z</time>
      </trkpt>
      <trkpt lat="46.497032968327403" lon="11.450080890208483">
        <ele>315.281032562255916</ele>
        <time>2016-08-26T08:16:26Z</time>
      </trkpt>
      <trkpt lat="46.496979827061296" lon="11.449929680675268">
        <ele>316.019557952880916</ele>
        <time>2016-08-26T08:16:27Z</time>
      </trkpt>
      <trkpt lat="46.496918639168143" lon="11.449777549132705">
        <ele>315.484401702880916</ele>
        <time>2016-08-26T08:16:28Z</time>
      </trkpt>
      <trkpt lat="46.49685937911272" lon="11.449635643512011">
        <ele>315.662502288818416</ele>
        <time>2016-08-26T08:16:29Z</time>
      </trkpt>
      <trkpt lat="46.496798694133759" lon="11.4494997728616">
        <ele>315.450710296630916</ele>
        <time>2016-08-26T08:16:30Z</time>
      </trkpt>
      <trkpt lat="46.496746474877" lon="11.449367674067616">
        <ele>315.642360687255916</ele>
        <time>2016-08-26T08:16:31Z</time>
      </trkpt>
      <trkpt lat="46.496688136830926" lon="11.449239933863282">
        <ele>315.180385589599609</ele>
        <time>2016-08-26T08:16:32Z</time>
      </trkpt>
      <trkpt lat="46.496627032756805" lon="11.44912107847631">
        <ele>315.478115081787109</ele>
        <time>2016-08-26T08:16:33Z</time>
      </trkpt>
      <trkpt lat="46.496558887884021" lon="11.449017897248268">
        <ele>316.504238128662109</ele>
        <time>2016-08-26T08:16:34Z</time>
      </trkpt>
      <trkpt lat="46.496470207348466" lon="11.448921337723732">
        <ele>316.580165863037109</ele>
        <time>2016-08-26T08:16:35Z</time>
      </trkpt>
      <trkpt lat="46.496389070525765" lon="11.448847325518727">
        <ele>317.829860687255916</ele>
        <time>2016-08-26T08:16:36Z</time>
      </trkpt>
      <trkpt lat="46.496314890682697" lon="11.448789406567812">
        <ele>319.092311859130916</ele>
        <time>2016-08-26T08:16:37Z</time>
      </trkpt>
      <trkpt lat="46.496246661990881" lon="11.448746072128415">
        <ele>319.995265960693416</ele>
        <time>2016-08-26T08:16:38Z</time>
      </trkpt>
      <trkpt lat="46.496165441349149" lon="11.448698630556464">
        <ele>319.703517913818416</ele>
        <time>2016-08-26T08:16:39Z</time>
      </trkpt>
      <trkpt lat="46.496096542105079" lon="11.448649344965816">
        <ele>320.192531585693416</ele>
        <time>2016-08-26T08:16:40Z</time>
      </trkpt>
      <trkpt lat="46.496021188795567" lon="11.448600646108389">
        <ele>320.536098480224609</ele>
        <time>2016-08-26T08:16:41Z</time>
      </trkpt>
      <trkpt lat="46.495932843536139" lon="11.44855328835547">
        <ele>320.396022796630916</ele>
        <time>2016-08-26T08:16:42Z</time>
      </trkpt>
      <trkpt lat="46.495850449427962" lon="11.44850442185998">
        <ele>320.385646820068416</ele>
        <time>2016-08-26T08:16:43Z</time>
      </trkpt>
      <trkpt lat="46.495761768892407" lon="11.448455303907394">
        <ele>320.346584320068416</ele>
        <time>2016-08-26T08:16:44Z</time>
      </trkpt>
      <trkpt lat="46.495677279308438" lon="11.448399648070335">
        <ele>320.626491546630916</ele>
        <time>2016-08-26T08:16:45Z</time>
      </trkpt>
      <trkpt lat="46.495590778067708" lon="11.448354553431273">
        <ele>321.020046234130916</ele>
        <time>2016-08-26T08:16:46Z</time>
      </trkpt>
      <trkpt lat="46.495507713407278" lon="11.44829286262393">
        <ele>322.228298187255916</ele>
        <time>2016-08-26T08:16:47Z</time>
      </trkpt>
      <trkpt lat="46.495431521907449" lon="11.448232932016253">
        <ele>322.604701995849609</ele>
        <time>2016-08-26T08:16:48Z</time>
      </trkpt>
      <trkpt lat="46.495391456410289" lon="11.448193537071347">
        <ele>321.156154632568416</ele>
        <time>2016-08-26T08:16:49Z</time>
      </trkpt>
      <trkpt lat="46.495334208011627" lon="11.448135115206242">
        <ele>321.719081878662109</ele>
        <time>2016-08-26T08:16:50Z</time>
      </trkpt>
      <trkpt lat="46.495278887450695" lon="11.448093121871352">
        <ele>322.109889984130916</ele>
        <time>2016-08-26T08:16:51Z</time>
      </trkpt>
      <trkpt lat="46.495234463363886" lon="11.448038388043642">
        <ele>322.251491546630916</ele>
        <time>2016-08-26T08:16:52Z</time>
      </trkpt>
      <trkpt lat="46.495190542191267" lon="11.447970997542143">
        <ele>323.192531585693416</ele>
        <time>2016-08-26T08:16:53Z</time>
      </trkpt>
      <trkpt lat="46.495159026235342" lon="11.447905702516437">
        <ele>323.789821624755916</ele>
        <time>2016-08-26T08:16:54Z</time>
      </trkpt>
      <trkpt lat="46.495112339034677" lon="11.447827499359846">
        <ele>323.170803070068416</ele>
        <time>2016-08-26T08:16:55Z</time>
      </trkpt>
      <trkpt lat="46.495070597156882" lon="11.447743345052004">
        <ele>322.536403656005916</ele>
        <time>2016-08-26T08:16:56Z</time>
      </trkpt>
      <trkpt lat="46.495036398991942" lon="11.447658184915781">
        <ele>322.196437835693416</ele>
        <time>2016-08-26T08:16:57Z</time>
      </trkpt>
      <trkpt lat="46.49500890634954" lon="11.447565900161862">
        <ele>321.109279632568416</ele>
        <time>2016-08-26T08:16:58Z</time>
      </trkpt>
      <trkpt lat="46.494999937713146" lon="11.447462886571884">
        <ele>320.849208831787109</ele>
        <time>2016-08-26T08:16:59Z</time>
      </trkpt>
      <trkpt lat="46.4949971716851" lon="11.447348557412624">
        <ele>320.803127288818416</ele>
        <time>2016-08-26T08:17:00Z</time>
      </trkpt>
      <trkpt lat="46.494999267160892" lon="11.447221571579576">
        <ele>321.291652679443416</ele>
        <time>2016-08-26T08:17:01Z</time>
      </trkpt>
      <trkpt lat="46.495024245232344" lon="11.447093328461051">
        <ele>321.798244476318416</ele>
        <time>2016-08-26T08:17:02Z</time>
      </trkpt>
      <trkpt lat="46.495047798380256" lon="11.446958296000957">
        <ele>321.948879241943416</ele>
        <time>2016-08-26T08:17:03Z</time>
      </trkpt>
      <trkpt lat="46.495064562186599" lon="11.446811696514487">
        <ele>320.924221038818416</ele>
        <time>2016-08-26T08:17:04Z</time>
      </trkpt>
      <trkpt lat="46.495086438953876" lon="11.446666773408651">
        <ele>320.608303070068416</ele>
        <time>2016-08-26T08:17:05Z</time>
      </trkpt>
      <trkpt lat="46.495104795321822" lon="11.446511708199978">
        <ele>319.641139984130916</ele>
        <time>2016-08-26T08:17:06Z</time>
      </trkpt>
      <trkpt lat="46.495121223852038" lon="11.446358570829034">
        <ele>319.344997406005916</ele>
        <time>2016-08-26T08:17:07Z</time>
      </trkpt>
      <trkpt lat="46.495133964344859" lon="11.446198392659426">
        <ele>318.744289398193416</ele>
        <time>2016-08-26T08:17:08Z</time>
      </trkpt>
      <trkpt lat="46.495140418410301" lon="11.44603586755693">
        <ele>317.906032562255916</ele>
        <time>2016-08-26T08:17:09Z</time>
      </trkpt>
      <trkpt lat="46.495159445330501" lon="11.44586973823607">
        <ele>317.801540374755916</ele>
        <time>2016-08-26T08:17:10Z</time>
      </trkpt>
      <trkpt lat="46.495161121711135" lon="11.445698495954275">
        <ele>317.505031585693416</ele>
        <time>2016-08-26T08:17:11Z</time>
      </trkpt>
      <trkpt lat="46.4951784722507" lon="11.445534797385335">
        <ele>316.720790863037109</ele>
        <time>2016-08-26T08:17:12Z</time>
      </trkpt>
      <trkpt lat="46.495202276855707" lon="11.445380318909883">
        <ele>316.492336273193416</ele>
        <time>2016-08-26T08:17:13Z</time>
      </trkpt>
      <trkpt lat="46.495239827781916" lon="11.445223828777671">
        <ele>315.975673675537109</ele>
        <time>2016-08-26T08:17:14Z</time>
      </trkpt>
      <trkpt lat="46.495253322646022" lon="11.445063063874841">
        <ele>315.916408538818416</ele>
        <time>2016-08-26T08:17:15Z</time>
      </trkpt>
      <trkpt lat="46.495294980704784" lon="11.444911016151309">
        <ele>315.047023773193416</ele>
        <time>2016-08-26T08:17:16Z</time>
      </trkpt>
      <trkpt lat="46.495317360386252" lon="11.444751173257828">
        <ele>315.251979827880916</ele>
        <time>2016-08-26T08:17:17Z</time>
      </trkpt>
      <trkpt lat="46.49533630348742" lon="11.444601975381374">
        <ele>314.705104827880916</ele>
        <time>2016-08-26T08:17:18Z</time>
      </trkpt>
      <trkpt lat="46.495354743674397" lon="11.444479767233133">
        <ele>314.628078460693416</ele>
        <time>2016-08-26T08:17:19Z</time>
      </trkpt>
      <trkpt lat="46.495371591299772" lon="11.444393014535308">
        <ele>314.458644866943416</ele>
        <time>2016-08-26T08:17:20Z</time>
      </trkpt>
      <trkpt lat="46.49539983831346" lon="11.444323277100921">
        <ele>313.919582366943416</ele>
        <time>2016-08-26T08:17:21Z</time>
      </trkpt>
      <trkpt lat="46.495453398674726" lon="11.444273740053177">
        <ele>313.670986175537109</ele>
        <time>2016-08-26T08:17:22Z</time>
      </trkpt>
      <trkpt lat="46.495489776134491" lon="11.444193106144667">
        <ele>313.795070648193416</ele>
        <time>2016-08-26T08:17:24Z</time>
      </trkpt>
      <trkpt lat="46.495476700365543" lon="11.44413074478507">
        <ele>315.874965667724609</ele>
        <time>2016-08-26T08:18:25Z</time>
      </trkpt>
      <trkpt lat="46.495434204116464" lon="11.444108029827476">
        <ele>316.914455413818416</ele>
        <time>2016-08-26T08:18:36Z</time>
      </trkpt>
      <trkpt lat="46.495417105033994" lon="11.444046255201101">
        <ele>316.199367523193416</ele>
        <time>2016-08-26T08:18:40Z</time>
      </trkpt>
      <trkpt lat="46.495436048135161" lon="11.443786500021815">
        <ele>316.781887054443416</ele>
        <time>2016-08-26T08:18:42Z</time>
      </trkpt>
      <trkpt lat="46.495459182187915" lon="11.443627243861556">
        <ele>316.552639007568416</ele>
        <time>2016-08-26T08:18:43Z</time>
      </trkpt>
      <trkpt lat="46.49545163847506" lon="11.443340666592121">
        <ele>315.805690765380916</ele>
        <time>2016-08-26T08:18:44Z</time>
      </trkpt>
      <trkpt lat="46.495427498593926" lon="11.44313832744956">
        <ele>315.533107757568416</ele>
        <time>2016-08-26T08:18:45Z</time>
      </trkpt>
      <trkpt lat="46.495374105870724" lon="11.442948142066598">
        <ele>315.390285491943416</ele>
        <time>2016-08-26T08:18:46Z</time>
      </trkpt>
      <trkpt lat="46.495290705934167" lon="11.442760722711682">
        <ele>315.683010101318416</ele>
        <time>2016-08-26T08:18:47Z</time>
      </trkpt>
      <trkpt lat="46.495202444493771" lon="11.442571459338069">
        <ele>315.454982757568416</ele>
        <time>2016-08-26T08:18:48Z</time>
      </trkpt>
      <trkpt lat="46.495114183053374" lon="11.442389655858278">
        <ele>315.513576507568416</ele>
        <time>2016-08-26T08:18:49Z</time>
      </trkpt>
      <trkpt lat="46.495027514174581" lon="11.442212043330073">
        <ele>315.565944671630916</ele>
        <time>2016-08-26T08:18:50Z</time>
      </trkpt>
      <trkpt lat="46.494937743991613" lon="11.44205505028367">
        <ele>314.935390472412109</ele>
        <time>2016-08-26T08:18:51Z</time>
      </trkpt>
      <trkpt lat="46.494854763150215" lon="11.441909708082676">
        <ele>314.422145843505916</ele>
        <time>2016-08-26T08:18:52Z</time>
      </trkpt>
      <trkpt lat="46.494738925248384" lon="11.441771490499377">
        <ele>313.147243499755916</ele>
        <time>2016-08-26T08:18:53Z</time>
      </trkpt>
      <trkpt lat="46.494611101225019" lon="11.441628495231271">
        <ele>312.526393890380916</ele>
        <time>2016-08-26T08:18:54Z</time>
      </trkpt>
      <trkpt lat="46.494479505345225" lon="11.441490780562162">
        <ele>311.826320648193416</ele>
        <time>2016-08-26T08:18:55Z</time>
      </trkpt>
      <trkpt lat="46.494343969970942" lon="11.441347450017929">
        <ele>311.499355316162109</ele>
        <time>2016-08-26T08:18:56Z</time>
      </trkpt>
      <trkpt lat="46.494206506758928" lon="11.4412004314363">
        <ele>312.101589202880916</ele>
        <time>2016-08-26T08:18:57Z</time>
      </trkpt>
      <trkpt lat="46.49406585842371" lon="11.44106313586235">
        <ele>311.464626312255916</ele>
        <time>2016-08-26T08:18:58Z</time>
      </trkpt>
      <trkpt lat="46.493925377726555" lon="11.440925421193242">
        <ele>311.466884613037109</ele>
        <time>2016-08-26T08:18:59Z</time>
      </trkpt>
      <trkpt lat="46.493767965584993" lon="11.440786952152848">
        <ele>311.611110687255916</ele>
        <time>2016-08-26T08:19:00Z</time>
      </trkpt>
      <trkpt lat="46.493635280057788" lon="11.440648231655359">
        <ele>311.538906097412109</ele>
        <time>2016-08-26T08:19:01Z</time>
      </trkpt>
      <trkpt lat="46.493494464084506" lon="11.440500626340508">
        <ele>311.530361175537109</ele>
        <time>2016-08-26T08:19:02Z</time>
      </trkpt>
      <trkpt lat="46.493360856547952" lon="11.440342962741852">
        <ele>311.532863616943416</ele>
        <time>2016-08-26T08:19:03Z</time>
      </trkpt>
      <trkpt lat="46.493221381679177" lon="11.440204326063395">
        <ele>311.077480316162109</ele>
        <time>2016-08-26T08:19:04Z</time>
      </trkpt>
      <trkpt lat="46.493082912638783" lon="11.440075496211648">
        <ele>311.407497406005916</ele>
        <time>2016-08-26T08:19:05Z</time>
      </trkpt>
      <trkpt lat="46.492933295667171" lon="11.439951360225677">
        <ele>311.332057952880916</ele>
        <time>2016-08-26T08:19:06Z</time>
      </trkpt>
      <trkpt lat="46.492800023406744" lon="11.439822614192963">
        <ele>311.169704437255916</ele>
        <time>2016-08-26T08:19:07Z</time>
      </trkpt>
      <trkpt lat="46.49263615719974" lon="11.439714320003986">
        <ele>310.596218109130916</ele>
        <time>2016-08-26T08:19:08Z</time>
      </trkpt>
      <trkpt lat="46.492482852190733" lon="11.439605606719851">
        <ele>311.180324554443416</ele>
        <time>2016-08-26T08:19:09Z</time>
      </trkpt>
      <trkpt lat="46.492357207462192" lon="11.439472837373614">
        <ele>311.836086273193416</ele>
        <time>2016-08-26T08:19:10Z</time>
      </trkpt>
      <trkpt lat="46.492209015414119" lon="11.439362531527877">
        <ele>311.470363616943416</ele>
        <time>2016-08-26T08:19:11Z</time>
      </trkpt>
      <trkpt lat="46.492080939933658" lon="11.439248872920871">
        <ele>311.950222015380916</ele>
        <time>2016-08-26T08:19:12Z</time>
      </trkpt>
      <trkpt lat="46.491980608552694" lon="11.439145859330893">
        <ele>312.929347991943416</ele>
        <time>2016-08-26T08:19:13Z</time>
      </trkpt>
      <trkpt lat="46.491886479780078" lon="11.438999511301517">
        <ele>313.135585784912109</ele>
        <time>2016-08-26T08:19:14Z</time>
      </trkpt>
      <trkpt lat="46.491980608552694" lon="11.439145859330893">
        <ele>312.929347991943416</ele>
        <time>2016-08-26T08:19:14Z</time>
      </trkpt>
      <trkpt lat="46.491797966882586" lon="11.438844613730907">
        <ele>313.389919281005916</ele>
        <time>2016-08-26T08:19:15Z</time>
      </trkpt>
      <trkpt lat="46.49174734018743" lon="11.438684603199363">
        <ele>314.606472015380916</ele>
        <time>2016-08-26T08:19:16Z</time>
      </trkpt>
      <trkpt lat="46.491677518934011" lon="11.438523083925247">
        <ele>315.421840667724609</ele>
        <time>2016-08-26T08:19:17Z</time>
      </trkpt>
      <trkpt lat="46.491631334647536" lon="11.438341364264488">
        <ele>315.221340179443416</ele>
        <time>2016-08-26T08:19:18Z</time>
      </trkpt>
      <trkpt lat="46.491587329655886" lon="11.438154866918921">
        <ele>314.687404632568416</ele>
        <time>2016-08-26T08:19:19Z</time>
      </trkpt>
      <trkpt lat="46.491569392383099" lon="11.437961412593722">
        <ele>314.417263031005916</ele>
        <time>2016-08-26T08:19:20Z</time>
      </trkpt>
      <trkpt lat="46.491568638011813" lon="11.437759744003415">
        <ele>312.732570648193416</ele>
        <time>2016-08-26T08:19:21Z</time>
      </trkpt>
      <trkpt lat="46.491578025743365" lon="11.437557488679886">
        <ele>311.938503265380916</ele>
        <time>2016-08-26T08:19:22Z</time>
      </trkpt>
      <trkpt lat="46.491584228351712" lon="11.437365710735321">
        <ele>311.574977874755916</ele>
        <time>2016-08-26T08:19:23Z</time>
      </trkpt>
      <trkpt lat="46.491595460101962" lon="11.437173765152693">
        <ele>311.364162445068416</ele>
        <time>2016-08-26T08:19:24Z</time>
      </trkpt>
      <trkpt lat="46.491606524214149" lon="11.436981903389096">
        <ele>311.509181976318416</ele>
        <time>2016-08-26T08:19:25Z</time>
      </trkpt>
      <trkpt lat="46.491625132039189" lon="11.436746707186103">
        <ele>312.195278167724609</ele>
        <time>2016-08-26T08:19:26Z</time>
      </trkpt>
      <trkpt lat="46.491699982434511" lon="11.436442276462913">
        <ele>311.146938323974609</ele>
        <time>2016-08-26T08:19:27Z</time>
      </trkpt>
      <trkpt lat="46.491805929690599" lon="11.436189645901322">
        <ele>313.276882171630916</ele>
        <time>2016-08-26T08:19:28Z</time>
      </trkpt>
      <trkpt lat="46.491877175867558" lon="11.435958137735724">
        <ele>313.885524749755916</ele>
        <time>2016-08-26T08:19:29Z</time>
      </trkpt>
      <trkpt lat="46.49194766767323" lon="11.435742303729057">
        <ele>314.457912445068416</ele>
        <time>2016-08-26T08:19:30Z</time>
      </trkpt>
      <trkpt lat="46.49200483225286" lon="11.435541724786162">
        <ele>313.306911468505916</ele>
        <time>2016-08-26T08:19:31Z</time>
      </trkpt>
      <trkpt lat="46.492071216925979" lon="11.435351874679327">
        <ele>312.612087249755916</ele>
        <time>2016-08-26T08:19:32Z</time>
      </trkpt>
      <trkpt lat="46.49215972982347" lon="11.435228241607547">
        <ele>313.920192718505916</ele>
        <time>2016-08-26T08:19:33Z</time>
      </trkpt>
      <trkpt lat="46.492242207750678" lon="11.435083569958806">
        <ele>313.334743499755916</ele>
        <time>2016-08-26T08:19:34Z</time>
      </trkpt>
      <trkpt lat="46.492373300716281" lon="11.434948621317744">
        <ele>313.959682464599609</ele>
        <time>2016-08-26T08:19:35Z</time>
      </trkpt>
      <trkpt lat="46.492456449195743" lon="11.43478961661458">
        <ele>313.176662445068416</ele>
        <time>2016-08-26T08:19:36Z</time>
      </trkpt>
      <trkpt lat="46.492567174136639" lon="11.434650560840964">
        <ele>313.306789398193416</ele>
        <time>2016-08-26T08:19:37Z</time>
      </trkpt>
      <trkpt lat="46.492665242403746" lon="11.434491388499737">
        <ele>313.420192718505916</ele>
        <time>2016-08-26T08:19:38Z</time>
      </trkpt>
      <trkpt lat="46.492766076698899" lon="11.434336239472032">
        <ele>313.556728363037109</ele>
        <time>2016-08-26T08:19:39Z</time>
      </trkpt>
      <trkpt lat="46.492916531860828" lon="11.434269016608596">
        <ele>313.406154632568416</ele>
        <time>2016-08-26T08:19:40Z</time>
      </trkpt>
      <trkpt lat="46.493092803284526" lon="11.434181425720453">
        <ele>312.880764007568416</ele>
        <time>2016-08-26T08:19:41Z</time>
      </trkpt>
      <trkpt lat="46.493118116632104" lon="11.434031892567873">
        <ele>313.804958343505916</ele>
        <time>2016-08-26T08:19:42Z</time>
      </trkpt>
      <trkpt lat="46.493249712511897" lon="11.433958718553185">
        <ele>314.063503265380916</ele>
        <time>2016-08-26T08:19:43Z</time>
      </trkpt>
      <trkpt lat="46.493332693353295" lon="11.433857716619968">
        <ele>314.784755706787109</ele>
        <time>2016-08-26T08:19:44Z</time>
      </trkpt>
      <trkpt lat="46.493441574275494" lon="11.433754786849022">
        <ele>315.435451507568416</ele>
        <time>2016-08-26T08:19:45Z</time>
      </trkpt>
      <trkpt lat="46.493555819615722" lon="11.433588238433003">
        <ele>313.468044281005916</ele>
        <time>2016-08-26T08:19:46Z</time>
      </trkpt>
      <trkpt lat="46.493639387190342" lon="11.433451026678085">
        <ele>313.503322601318416</ele>
        <time>2016-08-26T08:19:47Z</time>
      </trkpt>
      <trkpt lat="46.493717757984996" lon="11.433318676427007">
        <ele>313.933803558349609</ele>
        <time>2016-08-26T08:19:48Z</time>
      </trkpt>
      <trkpt lat="46.49377852678299" lon="11.433176854625344">
        <ele>313.201076507568416</ele>
        <time>2016-08-26T08:19:49Z</time>
      </trkpt>
      <trkpt lat="46.493814904242754" lon="11.433034110814333">
        <ele>312.388332366943416</ele>
        <time>2016-08-26T08:19:50Z</time>
      </trkpt>
      <trkpt lat="46.493845665827394" lon="11.432900419458747">
        <ele>311.637722015380916</ele>
        <time>2016-08-26T08:19:51Z</time>
      </trkpt>
      <trkpt lat="46.493915235623717" lon="11.43277351744473">
        <ele>308.113918304443416</ele>
        <time>2016-08-26T08:19:52Z</time>
      </trkpt>
      <trkpt lat="46.493700742721558" lon="11.43258492462337">
        <ele>303.148464202880916</ele>
        <time>2016-08-26T08:19:53Z</time>
      </trkpt>
      <trkpt lat="46.493648020550609" lon="11.432454334571958">
        <ele>304.380275726318416</ele>
        <time>2016-08-26T08:19:54Z</time>
      </trkpt>
      <trkpt lat="46.493613570928574" lon="11.432333383709192">
        <ele>305.335964202880916</ele>
        <time>2016-08-26T08:19:55Z</time>
      </trkpt>
      <trkpt lat="46.493439227342606" lon="11.432190975174308">
        <ele>306.316799163818416</ele>
        <time>2016-08-26T08:19:56Z</time>
      </trkpt>
      <trkpt lat="46.49340134114027" lon="11.432078825309873">
        <ele>306.738857269287109</ele>
        <time>2016-08-26T08:19:57Z</time>
      </trkpt>
      <trkpt lat="46.493280809372663" lon="11.431973548606038">
        <ele>307.041591644287109</ele>
        <time>2016-08-26T08:19:58Z</time>
      </trkpt>
      <trkpt lat="46.493194559589028" lon="11.431886209174991">
        <ele>307.320583343505916</ele>
        <time>2016-08-26T08:19:59Z</time>
      </trkpt>
      <trkpt lat="46.493092132732272" lon="11.431787889450788">
        <ele>307.518276214599609</ele>
        <time>2016-08-26T08:20:00Z</time>
      </trkpt>
      <trkpt lat="46.492825588211417" lon="11.431623687967658">
        <ele>307.813503265380916</ele>
        <time>2016-08-26T08:20:01Z</time>
      </trkpt>
      <trkpt lat="46.492722993716598" lon="11.431567445397377">
        <ele>308.063808441162109</ele>
        <time>2016-08-26T08:20:02Z</time>
      </trkpt>
      <trkpt lat="46.492543704807758" lon="11.431454289704561">
        <ele>308.327541351318416</ele>
        <time>2016-08-26T08:20:03Z</time>
      </trkpt>
      <trkpt lat="46.492454018443823" lon="11.431262847036123">
        <ele>308.440517425537109</ele>
        <time>2016-08-26T08:20:04Z</time>
      </trkpt>
      <trkpt lat="46.492301467806101" lon="11.431159917265177">
        <ele>307.892238616943416</ele>
        <time>2016-08-26T08:20:05Z</time>
      </trkpt>
      <trkpt lat="46.492161322385073" lon="11.431049946695566">
        <ele>306.660427093505916</ele>
        <time>2016-08-26T08:20:06Z</time>
      </trkpt>
      <trkpt lat="46.492005921900272" lon="11.430880632251501">
        <ele>306.298976898193416</ele>
        <time>2016-08-26T08:20:07Z</time>
      </trkpt>
      <trkpt lat="46.491909865289927" lon="11.430745264515281">
        <ele>305.594142913818416</ele>
        <time>2016-08-26T08:20:08Z</time>
      </trkpt>
      <trkpt lat="46.491798721253872" lon="11.4305888582021">
        <ele>305.588222503662109</ele>
        <time>2016-08-26T08:20:09Z</time>
      </trkpt>
      <trkpt lat="46.491670645773411" lon="11.430438486859202">
        <ele>304.604396820068416</ele>
        <time>2016-08-26T08:20:10Z</time>
      </trkpt>
      <trkpt lat="46.491544665768743" lon="11.430301861837506">
        <ele>302.803554534912109</ele>
        <time>2016-08-26T08:20:11Z</time>
      </trkpt>
      <trkpt lat="46.491420194506645" lon="11.430160626769066">
        <ele>302.514247894287109</ele>
        <time>2016-08-26T08:20:12Z</time>
      </trkpt>
      <trkpt lat="46.491257334128022" lon="11.429985361173749">
        <ele>298.261989593505916</ele>
        <time>2016-08-26T08:20:13Z</time>
      </trkpt>
      <trkpt lat="46.490963799878955" lon="11.429854687303305">
        <ele>299.318996429443416</ele>
        <time>2016-08-26T08:20:14Z</time>
      </trkpt>
      <trkpt lat="46.490891296416521" lon="11.429764833301306">
        <ele>298.573818206787109</ele>
        <time>2016-08-26T08:20:15Z</time>
      </trkpt>
      <trkpt lat="46.490782834589481" lon="11.429583113640547">
        <ele>298.898403167724609</ele>
        <time>2016-08-26T08:20:16Z</time>
      </trkpt>
      <trkpt lat="46.490658195689321" lon="11.429484458640218">
        <ele>297.558132171630916</ele>
        <time>2016-08-26T08:20:17Z</time>
      </trkpt>
      <trkpt lat="46.49062005802989" lon="11.429335847496986">
        <ele>297.805568695068416</ele>
        <time>2016-08-26T08:20:18Z</time>
      </trkpt>
      <trkpt lat="46.490532215684652" lon="11.429205341264606">
        <ele>298.167079925537109</ele>
        <time>2016-08-26T08:20:19Z</time>
      </trkpt>
      <trkpt lat="46.490324847400188" lon="11.429040553048253">
        <ele>298.122463226318416</ele>
        <time>2016-08-26T08:20:20Z</time>
      </trkpt>
      <trkpt lat="46.490200124680996" lon="11.42887962050736">
        <ele>299.240261077880916</ele>
        <time>2016-08-26T08:20:21Z</time>
      </trkpt>
      <trkpt lat="46.490043550729752" lon="11.428675269708037">
        <ele>299.793972015380916</ele>
        <time>2016-08-26T08:20:22Z</time>
      </trkpt>
      <trkpt lat="46.489990325644612" lon="11.428464716300368">
        <ele>299.523464202880916</ele>
        <time>2016-08-26T08:20:23Z</time>
      </trkpt>
      <trkpt lat="46.489891838282347" lon="11.428270423784852">
        <ele>300.232631683349609</ele>
        <time>2016-08-26T08:20:24Z</time>
      </trkpt>
      <trkpt lat="46.489776503294706" lon="11.428071772679687">
        <ele>302.340969085693416</ele>
        <time>2016-08-26T08:20:25Z</time>
      </trkpt>
      <trkpt lat="46.489687571302056" lon="11.427862392738461">
        <ele>301.662990570068416</ele>
        <time>2016-08-26T08:20:26Z</time>
      </trkpt>
      <trkpt lat="46.489598555490375" lon="11.427654437720776">
        <ele>301.700832366943416</ele>
        <time>2016-08-26T08:20:27Z</time>
      </trkpt>
      <trkpt lat="46.48949621245265" lon="11.42743474803865">
        <ele>299.800746917724609</ele>
        <time>2016-08-26T08:20:28Z</time>
      </trkpt>
      <trkpt lat="46.489406274631619" lon="11.427233247086406">
        <ele>299.773586273193416</ele>
        <time>2016-08-26T08:20:29Z</time>
      </trkpt>
      <trkpt lat="46.489330502226949" lon="11.427017915993929">
        <ele>300.981594085693416</ele>
        <time>2016-08-26T08:20:30Z</time>
      </trkpt>
      <trkpt lat="46.489263782277703" lon="11.426810547709465">
        <ele>301.569850921630916</ele>
        <time>2016-08-26T08:20:31Z</time>
      </trkpt>
      <trkpt lat="46.489193039014935" lon="11.426610304042697">
        <ele>301.336513519287109</ele>
        <time>2016-08-26T08:20:32Z</time>
      </trkpt>
      <trkpt lat="46.489118272438645" lon="11.426393799483776">
        <ele>301.382228851318416</ele>
        <time>2016-08-26T08:20:33Z</time>
      </trkpt>
      <trkpt lat="46.489049540832639" lon="11.426180060952902">
        <ele>301.377712249755916</ele>
        <time>2016-08-26T08:20:34Z</time>
      </trkpt>
      <trkpt lat="46.488983239978552" lon="11.425966322422028">
        <ele>301.368251800537109</ele>
        <time>2016-08-26T08:20:35Z</time>
      </trkpt>
      <trkpt lat="46.488909060135484" lon="11.425759624689817">
        <ele>300.253688812255916</ele>
        <time>2016-08-26T08:20:36Z</time>
      </trkpt>
      <trkpt lat="46.48885658942163" lon="11.425551418215036">
        <ele>299.853664398193416</ele>
        <time>2016-08-26T08:20:37Z</time>
      </trkpt>
      <trkpt lat="46.488793976604939" lon="11.42533315345645">
        <ele>299.933620452880916</ele>
        <time>2016-08-26T08:20:38Z</time>
      </trkpt>
      <trkpt lat="46.488725412636995" lon="11.425123186782002">
        <ele>299.701564788818416</ele>
        <time>2016-08-26T08:20:39Z</time>
      </trkpt>
      <trkpt lat="46.488695656880736" lon="11.424908526241779">
        <ele>299.226222991943416</ele>
        <time>2016-08-26T08:20:40Z</time>
      </trkpt>
      <trkpt lat="46.488637905567884" lon="11.424689926207066">
        <ele>298.542934417724609</ele>
        <time>2016-08-26T08:20:41Z</time>
      </trkpt>
      <trkpt lat="46.488594654947519" lon="11.424472834914923">
        <ele>298.442287445068416</ele>
        <time>2016-08-26T08:20:42Z</time>
      </trkpt>
      <trkpt lat="46.488583674654365" lon="11.424254151061177">
        <ele>298.339199066162109</ele>
        <time>2016-08-26T08:20:43Z</time>
      </trkpt>
      <trkpt lat="46.488562971353531" lon="11.424037730321288">
        <ele>298.085048675537109</ele>
        <time>2016-08-26T08:20:44Z</time>
      </trkpt>
      <trkpt lat="46.488583004102111" lon="11.423827931284904">
        <ele>297.533168792724609</ele>
        <time>2016-08-26T08:20:45Z</time>
      </trkpt>
      <trkpt lat="46.488589374348521" lon="11.423597764223814">
        <ele>296.570156097412109</ele>
        <time>2016-08-26T08:20:46Z</time>
      </trkpt>
      <trkpt lat="46.488595074042678" lon="11.42337086610496">
        <ele>295.144924163818416</ele>
        <time>2016-08-26T08:20:47Z</time>
      </trkpt>
      <trkpt lat="46.488596582785249" lon="11.42314069904387">
        <ele>295.212062835693416</ele>
        <time>2016-08-26T08:20:48Z</time>
      </trkpt>
      <trkpt lat="46.48860982619226" lon="11.422907346859574">
        <ele>295.305202484130916</ele>
        <time>2016-08-26T08:20:49Z</time>
      </trkpt>
      <trkpt lat="46.48862742818892" lon="11.422680364921689">
        <ele>294.115810394287109</ele>
        <time>2016-08-26T08:20:50Z</time>
      </trkpt>
      <trkpt lat="46.488635055720806" lon="11.422457909211516">
        <ele>294.172389984130916</ele>
        <time>2016-08-26T08:20:51Z</time>
      </trkpt>
      <trkpt lat="46.488657435402274" lon="11.422230508178473">
        <ele>294.044155120849609</ele>
        <time>2016-08-26T08:20:52Z</time>
      </trkpt>
      <trkpt lat="46.488680066540837" lon="11.422007381916046">
        <ele>293.687892913818416</ele>
        <time>2016-08-26T08:20:53Z</time>
      </trkpt>
      <trkpt lat="46.488726502284408" lon="11.421802109107375">
        <ele>292.320461273193416</ele>
        <time>2016-08-26T08:20:54Z</time>
      </trkpt>
      <trkpt lat="46.488761622458696" lon="11.421578899025917">
        <ele>291.194362640380916</ele>
        <time>2016-08-26T08:20:55Z</time>
      </trkpt>
      <trkpt lat="46.488834712654352" lon="11.421360298991203">
        <ele>291.728542327880916</ele>
        <time>2016-08-26T08:20:56Z</time>
      </trkpt>
      <trkpt lat="46.488893469795585" lon="11.421147063374519">
        <ele>292.316860198974609</ele>
        <time>2016-08-26T08:20:57Z</time>
      </trkpt>
      <trkpt lat="46.488953232765198" lon="11.420939778909087">
        <ele>293.923183441162109</ele>
        <time>2016-08-26T08:20:58Z</time>
      </trkpt>
      <trkpt lat="46.489014253020287" lon="11.420740373432636">
        <ele>293.884243011474609</ele>
        <time>2016-08-26T08:20:59Z</time>
      </trkpt>
      <trkpt lat="46.489054569974542" lon="11.42053971067071">
        <ele>293.363430023193416</ele>
        <time>2016-08-26T08:21:00Z</time>
      </trkpt>
      <trkpt lat="46.489112405106425" lon="11.420345669612288">
        <ele>293.629055023193416</ele>
        <time>2016-08-26T08:21:01Z</time>
      </trkpt>
      <trkpt lat="46.489168396219611" lon="11.42015271820128">
        <ele>294.857753753662109</ele>
        <time>2016-08-26T08:21:02Z</time>
      </trkpt>
      <trkpt lat="46.489512138068676" lon="11.419455092400312">
        <ele>294.210231781005916</ele>
        <time>2016-08-26T08:21:06Z</time>
      </trkpt>
      <trkpt lat="46.489614313468337" lon="11.419297680258751">
        <ele>295.903041839599609</ele>
        <time>2016-08-26T08:21:07Z</time>
      </trkpt>
      <trkpt lat="46.489703413099051" lon="11.419125180691481">
        <ele>297.153713226318416</ele>
        <time>2016-08-26T08:21:08Z</time>
      </trkpt>
      <trkpt lat="46.489821849390864" lon="11.418945305049419">
        <ele>297.362758636474609</ele>
        <time>2016-08-26T08:21:09Z</time>
      </trkpt>
      <trkpt lat="46.489993846043944" lon="11.418785378336906">
        <ele>297.545803070068416</ele>
        <time>2016-08-26T08:21:10Z</time>
      </trkpt>
      <trkpt lat="46.490064673125744" lon="11.418581195175648">
        <ele>295.802516937255916</ele>
        <time>2016-08-26T08:21:11Z</time>
      </trkpt>
      <trkpt lat="46.490179840475321" lon="11.41839905641973">
        <ele>296.171413421630916</ele>
        <time>2016-08-26T08:21:12Z</time>
      </trkpt>
      <trkpt lat="46.490279333665967" lon="11.418213229626417">
        <ele>294.590785980224609</ele>
        <time>2016-08-26T08:21:13Z</time>
      </trkpt>
      <trkpt lat="46.490325937047601" lon="11.418027319014072">
        <ele>294.618801116943416</ele>
        <time>2016-08-26T08:21:14Z</time>
      </trkpt>
      <trkpt lat="46.490422412753105" lon="11.417878372594714">
        <ele>295.089138031005916</ele>
        <time>2016-08-26T08:21:15Z</time>
      </trkpt>
      <trkpt lat="46.490489719435573" lon="11.41771987080574">
        <ele>296.659572601318416</ele>
        <time>2016-08-26T08:21:16Z</time>
      </trkpt>
      <trkpt lat="46.490609496831894" lon="11.417560279369354">
        <ele>294.871730804443416</ele>
        <time>2016-08-26T08:21:17Z</time>
      </trkpt>
      <trkpt lat="46.490699015557766" lon="11.417400855571032">
        <ele>296.534450531005916</ele>
        <time>2016-08-26T08:21:18Z</time>
      </trkpt>
      <trkpt lat="46.490771267563105" lon="11.41723221167922">
        <ele>297.432765960693416</ele>
        <time>2016-08-26T08:21:19Z</time>
      </trkpt>
      <trkpt lat="46.490856260061264" lon="11.417052838951349">
        <ele>295.376857757568416</ele>
        <time>2016-08-26T08:21:20Z</time>
      </trkpt>
      <trkpt lat="46.49096354842186" lon="11.416887464001775">
        <ele>296.328029632568416</ele>
        <time>2016-08-26T08:21:21Z</time>
      </trkpt>
      <trkpt lat="46.491076536476612" lon="11.416715551167727">
        <ele>295.388515472412109</ele>
        <time>2016-08-26T08:21:22Z</time>
      </trkpt>
      <trkpt lat="46.491161109879613" lon="11.416520839557052">
        <ele>294.763698577880916</ele>
        <time>2016-08-26T08:21:23Z</time>
      </trkpt>
      <trkpt lat="46.491266973316669" lon="11.416348591446877">
        <ele>295.484401702880916</ele>
        <time>2016-08-26T08:21:24Z</time>
      </trkpt>
      <trkpt lat="46.491352720186114" lon="11.416153209283948">
        <ele>296.158962249755916</ele>
        <time>2016-08-26T08:21:25Z</time>
      </trkpt>
      <trkpt lat="46.491470988839865" lon="11.415973836556077">
        <ele>295.824611663818416</ele>
        <time>2016-08-26T08:21:26Z</time>
      </trkpt>
      <trkpt lat="46.491575259715319" lon="11.415784154087305">
        <ele>294.816555023193416</ele>
        <time>2016-08-26T08:21:27Z</time>
      </trkpt>
      <trkpt lat="46.49168137460947" lon="11.415600925683975">
        <ele>293.302639007568416</ele>
        <time>2016-08-26T08:21:28Z</time>
      </trkpt>
      <trkpt lat="46.491781119257212" lon="11.415411829948425">
        <ele>293.646999359130916</ele>
        <time>2016-08-26T08:21:29Z</time>
      </trkpt>
      <trkpt lat="46.491843648254871" lon="11.415201527997851">
        <ele>295.204372406005916</ele>
        <time>2016-08-26T08:21:30Z</time>
      </trkpt>
      <trkpt lat="46.491945907473564" lon="11.415013689547777">
        <ele>296.059230804443416</ele>
        <time>2016-08-26T08:21:31Z</time>
      </trkpt>
      <trkpt lat="46.492051100358367" lon="11.414827695116401">
        <ele>295.483058929443416</ele>
        <time>2016-08-26T08:21:32Z</time>
      </trkpt>
      <trkpt lat="46.492106001824141" lon="11.414626026526093">
        <ele>296.096706390380916</ele>
        <time>2016-08-26T08:21:33Z</time>
      </trkpt>
      <trkpt lat="46.492202309891582" lon="11.414442798122764">
        <ele>296.077968597412109</ele>
        <time>2016-08-26T08:21:34Z</time>
      </trkpt>
      <trkpt lat="46.492275232449174" lon="11.414254372939467">
        <ele>295.787746429443416</ele>
        <time>2016-08-26T08:21:35Z</time>
      </trkpt>
      <trkpt lat="46.492402302101254" lon="11.414063014090061">
        <ele>294.802028656005916</ele>
        <time>2016-08-26T08:21:36Z</time>
      </trkpt>
      <trkpt lat="46.49248712696135" lon="11.413873583078384">
        <ele>295.281826019287109</ele>
        <time>2016-08-26T08:21:37Z</time>
      </trkpt>
      <trkpt lat="46.492567174136639" lon="11.41369647346437">
        <ele>295.481594085693416</ele>
        <time>2016-08-26T08:21:38Z</time>
      </trkpt>
      <trkpt lat="46.49265618994832" lon="11.413525315001607">
        <ele>295.451930999755916</ele>
        <time>2016-08-26T08:21:39Z</time>
      </trkpt>
      <trkpt lat="46.492728274315596" lon="11.413349295035005">
        <ele>295.171718597412109</ele>
        <time>2016-08-26T08:21:40Z</time>
      </trkpt>
      <trkpt lat="46.492789881303906" lon="11.413188613951206">
        <ele>294.323574066162109</ele>
        <time>2016-08-26T08:21:41Z</time>
      </trkpt>
      <trkpt lat="46.492870012298226" lon="11.413024831563234">
        <ele>294.930568695068416</ele>
        <time>2016-08-26T08:21:42Z</time>
      </trkpt>
      <trkpt lat="46.492950478568673" lon="11.412862306460738">
        <ele>294.473232269287109</ele>
        <time>2016-08-26T08:21:43Z</time>
      </trkpt>
      <trkpt lat="46.492951568216085" lon="11.412677653133869">
        <ele>294.573635101318416</ele>
        <time>2016-08-26T08:21:44Z</time>
      </trkpt>
      <trkpt lat="46.492987275123596" lon="11.412513954564929">
        <ele>294.346401214599609</ele>
        <time>2016-08-26T08:21:45Z</time>
      </trkpt>
      <trkpt lat="46.492975121363997" lon="11.412328882142901">
        <ele>296.364162445068416</ele>
        <time>2016-08-26T08:21:46Z</time>
      </trkpt>
      <trkpt lat="46.492987107485533" lon="11.412154203280807">
        <ele>296.440822601318416</ele>
        <time>2016-08-26T08:21:47Z</time>
      </trkpt>
      <trkpt lat="46.493038488551974" lon="11.411989750340581">
        <ele>296.401515960693416</ele>
        <time>2016-08-26T08:21:48Z</time>
      </trkpt>
      <trkpt lat="46.493032453581691" lon="11.411790596321225">
        <ele>294.719264984130916</ele>
        <time>2016-08-26T08:21:49Z</time>
      </trkpt>
      <trkpt lat="46.493043350055814" lon="11.411600075662136">
        <ele>294.783962249755916</ele>
        <time>2016-08-26T08:21:50Z</time>
      </trkpt>
      <trkpt lat="46.493075452744961" lon="11.411393294110894">
        <ele>294.754421234130916</ele>
        <time>2016-08-26T08:21:51Z</time>
      </trkpt>
      <trkpt lat="46.493090875446796" lon="11.411174945533276">
        <ele>295.316188812255916</ele>
        <time>2016-08-26T08:21:52Z</time>
      </trkpt>
      <trkpt lat="46.493176706135273" lon="11.410972019657493">
        <ele>294.809841156005916</ele>
        <time>2016-08-26T08:21:53Z</time>
      </trkpt>
      <trkpt lat="46.493187518790364" lon="11.410747468471527">
        <ele>295.020046234130916</ele>
        <time>2016-08-26T08:21:54Z</time>
      </trkpt>
      <trkpt lat="46.493192128837109" lon="11.410525348037481">
        <ele>295.728420257568416</ele>
        <time>2016-08-26T08:21:55Z</time>
      </trkpt>
      <trkpt lat="46.493206797167659" lon="11.410307502374053">
        <ele>295.480373382568416</ele>
        <time>2016-08-26T08:21:56Z</time>
      </trkpt>
      <trkpt lat="46.493233954533935" lon="11.410092925652862">
        <ele>295.906887054443416</ele>
        <time>2016-08-26T08:21:57Z</time>
      </trkpt>
      <trkpt lat="46.493296986445785" lon="11.409888155758381">
        <ele>295.614101409912109</ele>
        <time>2016-08-26T08:21:58Z</time>
      </trkpt>
      <trkpt lat="46.493342583999038" lon="11.409688917919993">
        <ele>296.411281585693416</ele>
        <time>2016-08-26T08:21:59Z</time>
      </trkpt>
      <trkpt lat="46.493369489908218" lon="11.40947668813169">
        <ele>294.511440277099609</ele>
        <time>2016-08-26T08:22:00Z</time>
      </trkpt>
      <trkpt lat="46.493391450494528" lon="11.409273678436875">
        <ele>293.670742034912109</ele>
        <time>2016-08-26T08:22:01Z</time>
      </trkpt>
      <trkpt lat="46.493442244827747" lon="11.409083912149072">
        <ele>294.114162445068416</ele>
        <time>2016-08-26T08:22:02Z</time>
      </trkpt>
      <trkpt lat="46.493441238999367" lon="11.408876711502671">
        <ele>294.953029632568416</ele>
        <time>2016-08-26T08:22:03Z</time>
      </trkpt>
      <trkpt lat="46.493451967835426" lon="11.408666158095002">
        <ele>294.914882659912109</ele>
        <time>2016-08-26T08:22:04Z</time>
      </trkpt>
      <trkpt lat="46.493480801582336" lon="11.408455017954111">
        <ele>293.274806976318416</ele>
        <time>2016-08-26T08:22:05Z</time>
      </trkpt>
      <trkpt lat="46.493489518761635" lon="11.408238764852285">
        <ele>293.784816741943416</ele>
        <time>2016-08-26T08:22:06Z</time>
      </trkpt>
      <trkpt lat="46.493506953120232" lon="11.40801371075213">
        <ele>293.011379241943416</ele>
        <time>2016-08-26T08:22:07Z</time>
      </trkpt>
      <trkpt lat="46.493529919534922" lon="11.407786393538117">
        <ele>293.493923187255916</ele>
        <time>2016-08-26T08:22:08Z</time>
      </trkpt>
      <trkpt lat="46.493538049980998" lon="11.4075558912009">
        <ele>293.324733734130916</ele>
        <time>2016-08-26T08:22:09Z</time>
      </trkpt>
      <trkpt lat="46.493553891777992" lon="11.407320275902748">
        <ele>292.578762054443416</ele>
        <time>2016-08-26T08:22:10Z</time>
      </trkpt>
      <trkpt lat="46.493555987253785" lon="11.407085414975882">
        <ele>291.887722015380916</ele>
        <time>2016-08-26T08:22:11Z</time>
      </trkpt>
      <trkpt lat="46.493547353893518" lon="11.406857846304774">
        <ele>292.370021820068416</ele>
        <time>2016-08-26T08:22:12Z</time>
      </trkpt>
      <trkpt lat="46.493547102436423" lon="11.40663480386138">
        <ele>292.034694671630916</ele>
        <time>2016-08-26T08:22:13Z</time>
      </trkpt>
      <trkpt lat="46.493535116314888" lon="11.40641494654119">
        <ele>291.988918304443416</ele>
        <time>2016-08-26T08:22:14Z</time>
      </trkpt>
      <trkpt lat="46.49352447129786" lon="11.406212104484439">
        <ele>291.778835296630916</ele>
        <time>2016-08-26T08:22:15Z</time>
      </trkpt>
      <trkpt lat="46.493502510711551" lon="11.406009513884783">
        <ele>291.795803070068416</ele>
        <time>2016-08-26T08:22:16Z</time>
      </trkpt>
      <trkpt lat="46.493457164615393" lon="11.405802145600319">
        <ele>292.672145843505916</ele>
        <time>2016-08-26T08:22:17Z</time>
      </trkpt>
      <trkpt lat="46.493434365838766" lon="11.405592849478126">
        <ele>292.960048675537109</ele>
        <time>2016-08-26T08:22:18Z</time>
      </trkpt>
      <trkpt lat="46.493400251492858" lon="11.405377266928554">
        <ele>292.986293792724609</ele>
        <time>2016-08-26T08:22:19Z</time>
      </trkpt>
      <trkpt lat="46.493361443281174" lon="11.40515967272222">
        <ele>292.279811859130916</ele>
        <time>2016-08-26T08:22:20Z</time>
      </trkpt>
      <trkpt lat="46.493274439126253" lon="11.404921878129244">
        <ele>292.191738128662109</ele>
        <time>2016-08-26T08:22:21Z</time>
      </trkpt>
      <trkpt lat="46.493270164355636" lon="11.404718952253461">
        <ele>292.463710784912109</ele>
        <time>2016-08-26T08:22:22Z</time>
      </trkpt>
      <trkpt lat="46.493250215426087" lon="11.404510326683521">
        <ele>291.966945648193416</ele>
        <time>2016-08-26T08:22:23Z</time>
      </trkpt>
      <trkpt lat="46.493235966190696" lon="11.404305640608072">
        <ele>292.002101898193416</ele>
        <time>2016-08-26T08:22:24Z</time>
      </trkpt>
      <trkpt lat="46.493229763582349" lon="11.404112856835127">
        <ele>292.759304046630916</ele>
        <time>2016-08-26T08:22:25Z</time>
      </trkpt>
      <trkpt lat="46.493200929835439" lon="11.403926275670528">
        <ele>290.442470550537109</ele>
        <time>2016-08-26T08:22:26Z</time>
      </trkpt>
      <trkpt lat="46.493164049461484" lon="11.403768276795745">
        <ele>286.133937835693416</ele>
        <time>2016-08-26T08:22:27Z</time>
      </trkpt>
      <trkpt lat="46.493133036419749" lon="11.40355696901679">
        <ele>285.129421234130916</ele>
        <time>2016-08-26T08:22:28Z</time>
      </trkpt>
      <trkpt lat="46.493097664788365" lon="11.403346750885248">
        <ele>285.168727874755916</ele>
        <time>2016-08-26T08:22:29Z</time>
      </trkpt>
      <trkpt lat="46.493079727515578" lon="11.403159834444523">
        <ele>285.297389984130916</ele>
        <time>2016-08-26T08:22:30Z</time>
      </trkpt>
      <trkpt lat="46.493037901818752" lon="11.402959758415818">
        <ele>284.658229827880916</ele>
        <time>2016-08-26T08:22:31Z</time>
      </trkpt>
      <trkpt lat="46.493006385862827" lon="11.402747528627515">
        <ele>283.765407562255916</ele>
        <time>2016-08-26T08:22:32Z</time>
      </trkpt>
      <trkpt lat="46.492975875735283" lon="11.402534544467926">
        <ele>283.813381195068416</ele>
        <time>2016-08-26T08:22:33Z</time>
      </trkpt>
      <trkpt lat="46.492925835773349" lon="11.402322314679623">
        <ele>283.951381683349609</ele>
        <time>2016-08-26T08:22:34Z</time>
      </trkpt>
      <trkpt lat="46.492889793589711" lon="11.402116538956761">
        <ele>283.787624359130916</ele>
        <time>2016-08-26T08:22:35Z</time>
      </trkpt>
      <trkpt lat="46.49287361651659" lon="11.401906572282314">
        <ele>283.546291351318416</ele>
        <time>2016-08-26T08:22:36Z</time>
      </trkpt>
      <trkpt lat="46.492853164672852" lon="11.401708927005529">
        <ele>283.857570648193416</ele>
        <time>2016-08-26T08:22:37Z</time>
      </trkpt>
      <trkpt lat="46.492792395874858" lon="11.401499714702368">
        <ele>283.746974945068416</ele>
        <time>2016-08-26T08:22:38Z</time>
      </trkpt>
      <trkpt lat="46.492760796099901" lon="11.401304081082344">
        <ele>284.156276702880916</ele>
        <time>2016-08-26T08:22:39Z</time>
      </trkpt>
      <trkpt lat="46.49270941503346" lon="11.401103250682354">
        <ele>284.033473968505916</ele>
        <time>2016-08-26T08:22:40Z</time>
      </trkpt>
      <trkpt lat="46.492688711732626" lon="11.400900660082698">
        <ele>284.246852874755916</ele>
        <time>2016-08-26T08:22:41Z</time>
      </trkpt>
      <trkpt lat="46.492682006210089" lon="11.400696225464344">
        <ele>284.403408050537109</ele>
        <time>2016-08-26T08:22:42Z</time>
      </trkpt>
      <trkpt lat="46.492680413648486" lon="11.400498999282718">
        <ele>284.491359710693416</ele>
        <time>2016-08-26T08:22:43Z</time>
      </trkpt>
      <trkpt lat="46.492663230746984" lon="11.400311915203929">
        <ele>284.060329437255916</ele>
        <time>2016-08-26T08:22:44Z</time>
      </trkpt>
      <trkpt lat="46.49265468120575" lon="11.400119299069047">
        <ele>284.124843597412109</ele>
        <time>2016-08-26T08:22:45Z</time>
      </trkpt>
      <trkpt lat="46.49262685328722" lon="11.399919809773564">
        <ele>284.186305999755916</ele>
        <time>2016-08-26T08:22:46Z</time>
      </trkpt>
      <trkpt lat="46.492608664557338" lon="11.399726774543524">
        <ele>284.552211761474609</ele>
        <time>2016-08-26T08:22:47Z</time>
      </trkpt>
      <trkpt lat="46.492595002055168" lon="11.399546312168241">
        <ele>284.159084320068416</ele>
        <time>2016-08-26T08:22:48Z</time>
      </trkpt>
      <trkpt lat="46.492576394230127" lon="11.399366855621338">
        <ele>284.639186859130916</ele>
        <time>2016-08-26T08:22:49Z</time>
      </trkpt>
      <trkpt lat="46.492562564089894" lon="11.399205001071095">
        <ele>286.111598968505916</ele>
        <time>2016-08-26T08:22:50Z</time>
      </trkpt>
      <trkpt lat="46.492559546604753" lon="11.399067789316177">
        <ele>287.666164398193416</ele>
        <time>2016-08-26T08:22:51Z</time>
      </trkpt>
      <trkpt lat="46.492542782798409" lon="11.398960752412677">
        <ele>288.002712249755916</ele>
        <time>2016-08-26T08:22:52Z</time>
      </trkpt>
      <trkpt lat="46.492527276277542" lon="11.398873161524534">
        <ele>289.036403656005916</ele>
        <time>2016-08-26T08:22:53Z</time>
      </trkpt>
      <trkpt lat="46.492489138618112" lon="11.398815996944904">
        <ele>289.184841156005916</ele>
        <time>2016-08-26T08:22:54Z</time>
      </trkpt>
      <trkpt lat="46.492455694824457" lon="11.398761179298162">
        <ele>289.341762542724609</ele>
        <time>2016-08-26T08:22:55Z</time>
      </trkpt>
      <trkpt lat="46.492427783086896" lon="11.39869068749249">
        <ele>289.953151702880916</ele>
        <time>2016-08-26T08:22:56Z</time>
      </trkpt>
      <trkpt lat="46.49240112863481" lon="11.398605778813362">
        <ele>290.147487640380916</ele>
        <time>2016-08-26T08:22:57Z</time>
      </trkpt>
      <trkpt lat="46.49237422272563" lon="11.398510141298175">
        <ele>289.793239593505916</ele>
        <time>2016-08-26T08:22:58Z</time>
      </trkpt>
      <trkpt lat="46.492356201633811" lon="11.39843076467514">
        <ele>289.776515960693416</ele>
        <time>2016-08-26T08:22:59Z</time>
      </trkpt>
      <trkpt lat="46.492329044267535" lon="11.398359267041087">
        <ele>290.480861663818416</ele>
        <time>2016-08-26T08:23:00Z</time>
      </trkpt>
      <trkpt lat="46.492284284904599" lon="11.39830419793725">
        <ele>291.086208343505916</ele>
        <time>2016-08-26T08:23:01Z</time>
      </trkpt>
      <trkpt lat="46.492243632674217" lon="11.39826413244009">
        <ele>291.878929138183594</ele>
        <time>2016-08-26T08:23:02Z</time>
      </trkpt>
      <trkpt lat="46.492159310728312" lon="11.398276453837752">
        <ele>292.532005310058594</ele>
        <time>2016-08-26T08:23:03Z</time>
      </trkpt>
      <trkpt lat="46.492108348757029" lon="11.39827536419034">
        <ele>293.532310485839787</ele>
        <time>2016-08-26T08:23:04Z</time>
      </trkpt>
      <trkpt lat="46.4920683670789" lon="11.39832372777164">
        <ele>294.129844665527287</ele>
        <time>2016-08-26T08:23:05Z</time>
      </trkpt>
      <trkpt lat="46.492017153650522" lon="11.398386508226395">
        <ele>295.180686950683594</ele>
        <time>2016-08-26T08:23:06Z</time>
      </trkpt>
      <trkpt lat="46.491970717906952" lon="11.398466639220715">
        <ele>296.000999450683594</ele>
        <time>2016-08-26T08:23:07Z</time>
      </trkpt>
      <trkpt lat="46.491948338225484" lon="11.398564288392663">
        <ele>295.746849060058594</ele>
        <time>2016-08-26T08:23:08Z</time>
      </trkpt>
      <trkpt lat="46.491927048191428" lon="11.398665625602007">
        <ele>294.680686950683594</ele>
        <time>2016-08-26T08:23:09Z</time>
      </trkpt>
      <trkpt lat="46.491917744278908" lon="11.398778529837728">
        <ele>293.533287048339787</ele>
        <time>2016-08-26T08:23:10Z</time>
      </trkpt>
      <trkpt lat="46.491896538063884" lon="11.398879196494818">
        <ele>293.616844177246094</ele>
        <time>2016-08-26T08:23:11Z</time>
      </trkpt>
      <trkpt lat="46.491879019886255" lon="11.398994363844395">
        <ele>293.161643981933594</ele>
        <time>2016-08-26T08:23:12Z</time>
      </trkpt>
      <trkpt lat="46.491850102320313" lon="11.399108609184623">
        <ele>293.605125427246094</ele>
        <time>2016-08-26T08:23:13Z</time>
      </trkpt>
      <trkpt lat="46.491797044873238" lon="11.399219250306487">
        <ele>294.185447692871094</ele>
        <time>2016-08-26T08:23:14Z</time>
      </trkpt>
      <trkpt lat="46.491759326308966" lon="11.399333914741874">
        <ele>294.661888122558594</ele>
        <time>2016-08-26T08:23:15Z</time>
      </trkpt>
      <trkpt lat="46.491694031283259" lon="11.399448746815324">
        <ele>294.520042419433594</ele>
        <time>2016-08-26T08:23:16Z</time>
      </trkpt>
      <trkpt lat="46.491601159796119" lon="11.39956827275455">
        <ele>294.779075622558594</ele>
        <time>2016-08-26T08:23:17Z</time>
      </trkpt>
      <trkpt lat="46.49153670296073" lon="11.399682518094778">
        <ele>294.256492614746094</ele>
        <time>2016-08-26T08:23:18Z</time>
      </trkpt>
      <trkpt lat="46.491471491754055" lon="11.399800535291433">
        <ele>294.291893005371094</ele>
        <time>2016-08-26T08:23:19Z</time>
      </trkpt>
      <trkpt lat="46.472686724737287" lon="11.405030423775315">
        <ele>482.806911468505916</ele>
        <time>2016-08-26T08:25:49Z</time>
      </trkpt>
      <trkpt lat="46.472553368657827" lon="11.405240725725889">
        <ele>485.675930023193416</ele>
        <time>2016-08-26T08:25:50Z</time>
      </trkpt>
      <trkpt lat="46.472465274855494" lon="11.40537902712822">
        <ele>487.312892913818416</ele>
        <time>2016-08-26T08:25:51Z</time>
      </trkpt>
      <trkpt lat="46.47228280082345" lon="11.405544821172953">
        <ele>488.351589202880916</ele>
        <time>2016-08-26T08:25:52Z</time>
      </trkpt>
      <trkpt lat="46.472321189939976" lon="11.405593184754252">
        <ele>489.214992523193416</ele>
        <time>2016-08-26T08:25:53Z</time>
      </trkpt>
      <trkpt lat="46.472391011193395" lon="11.405771048739552">
        <ele>496.362209320068416</ele>
        <time>2016-08-26T08:25:54Z</time>
      </trkpt>
      <trkpt lat="46.472407942637801" lon="11.405887305736542">
        <ele>498.954494476318416</ele>
        <time>2016-08-26T08:25:55Z</time>
      </trkpt>
      <trkpt lat="46.472367793321609" lon="11.406013201922178">
        <ele>497.410060882568416</ele>
        <time>2016-08-26T08:25:56Z</time>
      </trkpt>
      <trkpt lat="46.472352286800742" lon="11.406112024560571">
        <ele>495.641262054443416</ele>
        <time>2016-08-26T08:25:57Z</time>
      </trkpt>
      <trkpt lat="46.472321692854166" lon="11.406210511922836">
        <ele>493.309352874755916</ele>
        <time>2016-08-26T08:25:58Z</time>
      </trkpt>
      <trkpt lat="46.472293194383383" lon="11.40630891546607">
        <ele>493.699733734130916</ele>
        <time>2016-08-26T08:25:59Z</time>
      </trkpt>
      <trkpt lat="46.472248015925288" lon="11.406408492475748">
        <ele>490.878078460693416</ele>
        <time>2016-08-26T08:26:00Z</time>
      </trkpt>
      <trkpt lat="46.472207196056843" lon="11.40650874003768">
        <ele>490.714504241943416</ele>
        <time>2016-08-26T08:26:01Z</time>
      </trkpt>
      <trkpt lat="46.472126226872206" lon="11.406590463593602">
        <ele>487.875392913818416</ele>
        <time>2016-08-26T08:26:02Z</time>
      </trkpt>
      <trkpt lat="46.47198717109859" lon="11.406636983156204">
        <ele>485.715724945068416</ele>
        <time>2016-08-26T08:26:03Z</time>
      </trkpt>
      <trkpt lat="46.471874015405774" lon="11.40665047802031">
        <ele>481.940090179443416</ele>
        <time>2016-08-26T08:26:04Z</time>
      </trkpt>
      <trkpt lat="46.471780389547348" lon="11.406667325645685">
        <ele>478.087306976318416</ele>
        <time>2016-08-26T08:26:05Z</time>
      </trkpt>
      <trkpt lat="46.471636136993766" lon="11.406741673126817">
        <ele>477.500392913818416</ele>
        <time>2016-08-26T08:26:06Z</time>
      </trkpt>
      <trkpt lat="46.471534129232168" lon="11.406853403896093">
        <ele>473.988246917724609</ele>
        <time>2016-08-26T08:26:07Z</time>
      </trkpt>
      <trkpt lat="46.47134218364954" lon="11.406912328675389">
        <ele>470.968105316162109</ele>
        <time>2016-08-26T08:26:08Z</time>
      </trkpt>
      <trkpt lat="46.471206480637193" lon="11.40697443857789">
        <ele>488.715724945068416</ele>
        <time>2016-08-26T08:26:09Z</time>
      </trkpt>
      <trkpt lat="46.471141688525677" lon="11.407079128548503">
        <ele>485.116847991943416</ele>
        <time>2016-08-26T08:26:10Z</time>
      </trkpt>
      <trkpt lat="46.471020737662911" lon="11.407154314219952">
        <ele>483.581691741943416</ele>
        <time>2016-08-26T08:26:11Z</time>
      </trkpt>
      <trkpt lat="46.470882268622518" lon="11.407142663374543">
        <ele>498.665920257568416</ele>
        <time>2016-08-26T08:26:12Z</time>
      </trkpt>
      <trkpt lat="46.470753438770771" lon="11.407174346968532">
        <ele>496.400783538818416</ele>
        <time>2016-08-26T08:26:13Z</time>
      </trkpt>
      <trkpt lat="46.470649586990476" lon="11.407212316989899">
        <ele>502.263820648193416</ele>
        <time>2016-08-26T08:26:14Z</time>
      </trkpt>
      <trkpt lat="46.470557888969779" lon="11.407283814623952">
        <ele>499.080959320068416</ele>
        <time>2016-08-26T08:26:15Z</time>
      </trkpt>
      <trkpt lat="46.470479518175125" lon="11.407183315604925">
        <ele>499.841457366943416</ele>
        <time>2016-08-26T08:26:16Z</time>
      </trkpt>
      <trkpt lat="46.470344569534063" lon="11.4071742631495">
        <ele>500.360012054443416</ele>
        <time>2016-08-26T08:26:17Z</time>
      </trkpt>
      <trkpt lat="46.470237700268626" lon="11.407173592597246">
        <ele>499.291652679443416</ele>
        <time>2016-08-26T08:26:18Z</time>
      </trkpt>
      <trkpt lat="46.470108786597848" lon="11.407211646437645">
        <ele>497.943264007568416</ele>
        <time>2016-08-26T08:26:19Z</time>
      </trkpt>
      <trkpt lat="46.469977777451277" lon="11.407204857096076">
        <ele>510.240993499755916</ele>
        <time>2016-08-26T08:26:20Z</time>
      </trkpt>
      <trkpt lat="46.469870656728745" lon="11.407246850430965">
        <ele>512.530910491943359</ele>
        <time>2016-08-26T08:26:21Z</time>
      </trkpt>
      <trkpt lat="46.469731433317065" lon="11.407244503498077">
        <ele>518.065090179443359</ele>
        <time>2016-08-26T08:26:22Z</time>
      </trkpt>
      <trkpt lat="46.469508977606893" lon="11.407293621450663">
        <ele>520.913600921630859</ele>
        <time>2016-08-26T08:26:23Z</time>
      </trkpt>
      <trkpt lat="46.469343854114413" lon="11.407361347228289">
        <ele>518.696437835693359</ele>
        <time>2016-08-26T08:26:24Z</time>
      </trkpt>
      <trkpt lat="46.469250395894051" lon="11.407452709972858">
        <ele>521.435085296630859</ele>
        <time>2016-08-26T08:26:25Z</time>
      </trkpt>
      <trkpt lat="46.46911402232945" lon="11.407534182071686">
        <ele>521.178615570068359</ele>
        <time>2016-08-26T08:26:26Z</time>
      </trkpt>
      <trkpt lat="46.469016876071692" lon="11.407597633078694">
        <ele>519.567775726318359</ele>
        <time>2016-08-26T08:26:27Z</time>
      </trkpt>
      <trkpt lat="46.468910006806254" lon="11.407687403261662">
        <ele>518.205471038818359</ele>
        <time>2016-08-26T08:26:28Z</time>
      </trkpt>
      <trkpt lat="46.468760725110769" lon="11.407799804583192">
        <ele>514.756618499755859</ele>
        <time>2016-08-26T08:26:29Z</time>
      </trkpt>
      <trkpt lat="46.468629548326135" lon="11.407896280288696">
        <ele>510.480129241943416</ele>
        <time>2016-08-26T08:26:30Z</time>
      </trkpt>
      <trkpt lat="46.468557463958859" lon="11.40800298191607">
        <ele>505.706203460693416</ele>
        <time>2016-08-26T08:26:31Z</time>
      </trkpt>
      <trkpt lat="46.468412708491087" lon="11.408196939155459">
        <ele>502.737331390380916</ele>
        <time>2016-08-26T08:26:32Z</time>
      </trkpt>
      <trkpt lat="46.468337522819638" lon="11.408315123990178">
        <ele>496.553493499755916</ele>
        <time>2016-08-26T08:26:33Z</time>
      </trkpt>
      <trkpt lat="46.468221768736839" lon="11.408481001853943">
        <ele>493.392360687255916</ele>
        <time>2016-08-26T08:26:34Z</time>
      </trkpt>
      <trkpt lat="46.468148343265057" lon="11.408612346276641">
        <ele>492.644680023193416</ele>
        <time>2016-08-26T08:26:35Z</time>
      </trkpt>
      <trkpt lat="46.468053041025996" lon="11.408691136166453">
        <ele>526.400417327880859</ele>
        <time>2016-08-26T08:26:36Z</time>
      </trkpt>
      <trkpt lat="46.467984644696116" lon="11.408775625750422">
        <ele>526.100734710693359</ele>
        <time>2016-08-26T08:26:37Z</time>
      </trkpt>
      <trkpt lat="46.467887330800295" lon="11.408844944089651">
        <ele>526.320461273193359</ele>
        <time>2016-08-26T08:26:38Z</time>
      </trkpt>
      <trkpt lat="46.467834608629346" lon="11.408914513885975">
        <ele>522.106349945068359</ele>
        <time>2016-08-26T08:26:39Z</time>
      </trkpt>
      <trkpt lat="46.467723716050386" lon="11.40889959409833">
        <ele>528.929836273193359</ele>
        <time>2016-08-26T08:26:40Z</time>
      </trkpt>
      <trkpt lat="46.467612152919173" lon="11.408905042335391">
        <ele>526.106960296630859</ele>
        <time>2016-08-26T08:26:41Z</time>
      </trkpt>
      <trkpt lat="46.467450717464089" lon="11.408901773393154">
        <ele>526.598293304443359</ele>
        <time>2016-08-26T08:26:42Z</time>
      </trkpt>
      <trkpt lat="46.467299843207002" lon="11.408964302390814">
        <ele>519.434719085693359</ele>
        <time>2016-08-26T08:26:43Z</time>
      </trkpt>
      <trkpt lat="46.467132037505507" lon="11.409104866907001">
        <ele>521.054714202880859</ele>
        <time>2016-08-26T08:26:44Z</time>
      </trkpt>
      <trkpt lat="46.467002956196666" lon="11.409172005951405">
        <ele>519.057765960693359</ele>
        <time>2016-08-26T08:26:45Z</time>
      </trkpt>
      <trkpt lat="46.466833641752601" lon="11.409242916852236">
        <ele>523.314601898193359</ele>
        <time>2016-08-26T08:26:46Z</time>
      </trkpt>
      <trkpt lat="46.466737166047096" lon="11.409337716177106">
        <ele>521.095607757568359</ele>
        <time>2016-08-26T08:26:47Z</time>
      </trkpt>
      <trkpt lat="46.466703889891505" lon="11.409424804151058">
        <ele>524.007472991943359</ele>
        <time>2016-08-26T08:26:48Z</time>
      </trkpt>
      <trkpt lat="46.466576736420393" lon="11.409524381160736">
        <ele>523.781398773193359</ele>
        <time>2016-08-26T08:26:49Z</time>
      </trkpt>
      <trkpt lat="46.466506747528911" lon="11.409635525196791">
        <ele>522.239040374755859</ele>
        <time>2016-08-26T08:26:50Z</time>
      </trkpt>
      <trkpt lat="46.466488810256124" lon="11.409802241250873">
        <ele>519.630275726318359</ele>
        <time>2016-08-26T08:26:51Z</time>
      </trkpt>
      <trkpt lat="46.466384120285511" lon="11.409933669492602">
        <ele>518.671291351318359</ele>
        <time>2016-08-26T08:26:52Z</time>
      </trkpt>
      <trkpt lat="46.466288734227419" lon="11.410037605091929">
        <ele>517.551662445068359</ele>
        <time>2016-08-26T08:26:53Z</time>
      </trkpt>
      <trkpt lat="46.466178931295872" lon="11.410139696672559">
        <ele>525.249660491943359</ele>
        <time>2016-08-26T08:26:54Z</time>
      </trkpt>
      <trkpt lat="46.466107936576009" lon="11.410269616171718">
        <ele>528.029933929443359</ele>
        <time>2016-08-26T08:26:55Z</time>
      </trkpt>
      <trkpt lat="46.466026464477181" lon="11.410398948937654">
        <ele>526.974269866943359</ele>
        <time>2016-08-26T08:26:56Z</time>
      </trkpt>
      <trkpt lat="46.465936442837119" lon="11.410527192056179">
        <ele>528.422634124755859</ele>
        <time>2016-08-26T08:26:57Z</time>
      </trkpt>
      <trkpt lat="46.465873830020428" lon="11.410630038008094">
        <ele>529.049709320068359</ele>
        <time>2016-08-26T08:26:58Z</time>
      </trkpt>
      <trkpt lat="46.465777354314923" lon="11.410687705501914">
        <ele>533.760402679443359</ele>
        <time>2016-08-26T08:26:59Z</time>
      </trkpt>
      <trkpt lat="46.465704934671521" lon="11.410780157893896">
        <ele>535.508937835693359</ele>
        <time>2016-08-26T08:27:00Z</time>
      </trkpt>
      <trkpt lat="46.465652044862509" lon="11.410894067957997">
        <ele>534.212673187255859</ele>
        <time>2016-08-26T08:27:01Z</time>
      </trkpt>
      <trkpt lat="46.465581553056836" lon="11.411013258621097">
        <ele>535.388576507568359</ele>
        <time>2016-08-26T08:27:02Z</time>
      </trkpt>
      <trkpt lat="46.465535452589393" lon="11.41115072183311">
        <ele>534.506252288818359</ele>
        <time>2016-08-26T08:27:03Z</time>
      </trkpt>
      <trkpt lat="46.4654884301126" lon="11.411301176995039">
        <ele>533.376491546630859</ele>
        <time>2016-08-26T08:27:04Z</time>
      </trkpt>
      <trkpt lat="46.465388936921954" lon="11.411420786753297">
        <ele>534.884914398193359</ele>
        <time>2016-08-26T08:27:05Z</time>
      </trkpt>
      <trkpt lat="46.465267734602094" lon="11.41154458746314">
        <ele>537.991603851318359</ele>
        <time>2016-08-26T08:27:06Z</time>
      </trkpt>
      <trkpt lat="46.465147621929646" lon="11.411660760641098">
        <ele>539.756008148193359</ele>
        <time>2016-08-26T08:27:07Z</time>
      </trkpt>
      <trkpt lat="46.46506430581212" lon="11.41176737844944">
        <ele>540.772609710693359</ele>
        <time>2016-08-26T08:27:08Z</time>
      </trkpt>
      <trkpt lat="46.464973026886582" lon="11.411867458373308">
        <ele>544.126857757568359</ele>
        <time>2016-08-26T08:27:09Z</time>
      </trkpt>
      <trkpt lat="46.46489423699677" lon="11.411958821117878">
        <ele>544.527370452880859</ele>
        <time>2016-08-26T08:27:10Z</time>
      </trkpt>
      <trkpt lat="46.464824331924319" lon="11.412059655413032">
        <ele>545.585353851318359</ele>
        <time>2016-08-26T08:27:11Z</time>
      </trkpt>
      <trkpt lat="46.464755516499281" lon="11.412179348990321">
        <ele>546.110134124755859</ele>
        <time>2016-08-26T08:27:12Z</time>
      </trkpt>
      <trkpt lat="46.464714780449867" lon="11.412327289581299">
        <ele>548.252834320068359</ele>
        <time>2016-08-26T08:27:13Z</time>
      </trkpt>
      <trkpt lat="46.464668177068233" lon="11.412483444437385">
        <ele>548.385646820068359</ele>
        <time>2016-08-26T08:27:14Z</time>
      </trkpt>
      <trkpt lat="46.464599864557385" lon="11.412629960104823">
        <ele>548.074855804443359</ele>
        <time>2016-08-26T08:27:15Z</time>
      </trkpt>
      <trkpt lat="46.464525600895286" lon="11.412782510742545">
        <ele>548.486965179443359</ele>
        <time>2016-08-26T08:27:16Z</time>
      </trkpt>
      <trkpt lat="46.464466005563736" lon="11.41295475885272">
        <ele>547.903347015380859</ele>
        <time>2016-08-26T08:27:17Z</time>
      </trkpt>
      <trkpt lat="46.464398698881269" lon="11.413137232884765">
        <ele>548.209133148193359</ele>
        <time>2016-08-26T08:27:18Z</time>
      </trkpt>
      <trkpt lat="46.464343965053558" lon="11.41331484541297">
        <ele>548.179958343505859</ele>
        <time>2016-08-26T08:27:19Z</time>
      </trkpt>
      <trkpt lat="46.464294595643878" lon="11.413502180948853">
        <ele>547.870021820068359</ele>
        <time>2016-08-26T08:27:20Z</time>
      </trkpt>
      <trkpt lat="46.464230054989457" lon="11.41365934163332">
        <ele>549.476467132568359</ele>
        <time>2016-08-26T08:27:21Z</time>
      </trkpt>
      <trkpt lat="46.464094771072268" lon="11.413799654692411">
        <ele>551.863918304443359</ele>
        <time>2016-08-26T08:27:22Z</time>
      </trkpt>
      <trkpt lat="46.464010952040553" lon="11.413958156481385">
        <ele>552.163967132568359</ele>
        <time>2016-08-26T08:27:23Z</time>
      </trkpt>
      <trkpt lat="46.463899053633213" lon="11.414069719612598">
        <ele>552.783840179443359</ele>
        <time>2016-08-26T08:27:24Z</time>
      </trkpt>
      <trkpt lat="46.4637684635818" lon="11.414107019081712">
        <ele>553.444728851318359</ele>
        <time>2016-08-26T08:27:25Z</time>
      </trkpt>
      <trkpt lat="46.463621025905013" lon="11.414156388491392">
        <ele>555.372219085693359</ele>
        <time>2016-08-26T08:27:26Z</time>
      </trkpt>
      <trkpt lat="46.463495884090662" lon="11.414134847000241">
        <ele>556.276638031005859</ele>
        <time>2016-08-26T08:27:27Z</time>
      </trkpt>
      <trkpt lat="46.463365964591503" lon="11.414115987718105">
        <ele>557.098171234130859</ele>
        <time>2016-08-26T08:27:28Z</time>
      </trkpt>
      <trkpt lat="46.463210312649608" lon="11.414102073758841">
        <ele>557.751125335693359</ele>
        <time>2016-08-26T08:27:29Z</time>
      </trkpt>
      <trkpt lat="46.463102521374822" lon="11.414071228355169">
        <ele>557.706203460693359</ele>
        <time>2016-08-26T08:27:30Z</time>
      </trkpt>
      <trkpt lat="46.462951228022575" lon="11.414204584434628">
        <ele>557.738918304443359</ele>
        <time>2016-08-26T08:27:31Z</time>
      </trkpt>
      <trkpt lat="46.462883166968822" lon="11.414317237213254">
        <ele>555.568019866943359</ele>
        <time>2016-08-26T08:27:32Z</time>
      </trkpt>
      <trkpt lat="46.462877048179507" lon="11.414515804499388">
        <ele>553.640773773193359</ele>
        <time>2016-08-26T08:27:33Z</time>
      </trkpt>
      <trkpt lat="46.462809909135103" lon="11.414684113115072">
        <ele>554.208644866943359</ele>
        <time>2016-08-26T08:27:34Z</time>
      </trkpt>
      <trkpt lat="46.462764982134104" lon="11.414868850260973">
        <ele>553.829738616943359</ele>
        <time>2016-08-26T08:27:35Z</time>
      </trkpt>
      <trkpt lat="46.462702872231603" lon="11.415039924904704">
        <ele>554.525783538818359</ele>
        <time>2016-08-26T08:27:36Z</time>
      </trkpt>
      <trkpt lat="46.462650820612907" lon="11.41521024517715">
        <ele>555.045558929443359</ele>
        <time>2016-08-26T08:27:37Z</time>
      </trkpt>
      <trkpt lat="46.462600193917751" lon="11.415374949574471">
        <ele>555.507472991943359</ele>
        <time>2016-08-26T08:27:38Z</time>
      </trkpt>
      <trkpt lat="46.462509417906404" lon="11.415476957336068">
        <ele>556.123683929443359</ele>
        <time>2016-08-26T08:27:39Z</time>
      </trkpt>
      <trkpt lat="46.462376564741135" lon="11.415514424443245">
        <ele>558.225246429443359</ele>
        <time>2016-08-26T08:27:40Z</time>
      </trkpt>
      <trkpt lat="46.462269527837634" lon="11.415604865178466">
        <ele>557.945217132568359</ele>
        <time>2016-08-26T08:27:41Z</time>
      </trkpt>
      <trkpt lat="46.462145475670695" lon="11.415642667561769">
        <ele>560.657375335693359</ele>
        <time>2016-08-26T08:27:42Z</time>
      </trkpt>
      <trkpt lat="46.461950680240989" lon="11.415758840739727">
        <ele>560.404689788818359</ele>
        <time>2016-08-26T08:27:43Z</time>
      </trkpt>
      <trkpt lat="46.461809612810612" lon="11.415858585387468">
        <ele>561.102443695068359</ele>
        <time>2016-08-26T08:27:44Z</time>
      </trkpt>
      <trkpt lat="46.461663683876395" lon="11.415966209024191">
        <ele>563.067775726318359</ele>
        <time>2016-08-26T08:27:45Z</time>
      </trkpt>
      <trkpt lat="46.461508199572563" lon="11.416090847924352">
        <ele>563.715236663818359</ele>
        <time>2016-08-26T08:27:46Z</time>
      </trkpt>
      <trkpt lat="46.461340980604291" lon="11.416156394407153">
        <ele>563.836330413818359</ele>
        <time>2016-08-26T08:27:47Z</time>
      </trkpt>
      <trkpt lat="46.461174851283431" lon="11.416231747716665">
        <ele>563.934352874755859</ele>
        <time>2016-08-26T08:27:48Z</time>
      </trkpt>
      <trkpt lat="46.46103898063302" lon="11.416324954479933">
        <ele>565.038722991943359</ele>
        <time>2016-08-26T08:27:49Z</time>
      </trkpt>
      <trkpt lat="46.460908809676766" lon="11.416418580338359">
        <ele>565.027736663818359</ele>
        <time>2016-08-26T08:27:50Z</time>
      </trkpt>
      <trkpt lat="46.460769167169929" lon="11.416486138477921">
        <ele>565.984401702880859</ele>
        <time>2016-08-26T08:27:51Z</time>
      </trkpt>
      <trkpt lat="46.460616448894143" lon="11.4165442250669">
        <ele>567.839382171630859</ele>
        <time>2016-08-26T08:27:52Z</time>
      </trkpt>
      <trkpt lat="46.460486110299826" lon="11.416548835113645">
        <ele>568.972560882568359</ele>
        <time>2016-08-26T08:27:53Z</time>
      </trkpt>
      <trkpt lat="46.460375301539898" lon="11.416543303057551">
        <ele>568.597072601318359</ele>
        <time>2016-08-26T08:27:54Z</time>
      </trkpt>
      <trkpt lat="46.46023565903306" lon="11.416559731587768">
        <ele>568.236843109130859</ele>
        <time>2016-08-26T08:27:55Z</time>
      </trkpt>
      <trkpt lat="46.460099536925554" lon="11.41661211848259">
        <ele>567.618068695068359</ele>
        <time>2016-08-26T08:27:56Z</time>
      </trkpt>
      <trkpt lat="46.459985291585326" lon="11.416699793189764">
        <ele>567.007472991943359</ele>
        <time>2016-08-26T08:27:57Z</time>
      </trkpt>
      <trkpt lat="46.459958972409368" lon="11.416863910853863">
        <ele>566.987575531005859</ele>
        <time>2016-08-26T08:27:58Z</time>
      </trkpt>
      <trkpt lat="46.459999708458781" lon="11.41703138127923">
        <ele>567.001491546630859</ele>
        <time>2016-08-26T08:27:59Z</time>
      </trkpt>
      <trkpt lat="46.460006078705192" lon="11.417214944958687">
        <ele>566.359157562255859</ele>
        <time>2016-08-26T08:28:00Z</time>
      </trkpt>
      <trkpt lat="46.460012281313539" lon="11.417402951046824">
        <ele>564.829494476318359</ele>
        <time>2016-08-26T08:28:01Z</time>
      </trkpt>
      <trkpt lat="46.459999540820718" lon="11.417585089802742">
        <ele>566.531642913818359</ele>
        <time>2016-08-26T08:28:02Z</time>
      </trkpt>
      <trkpt lat="46.459969114512205" lon="11.417773263528943">
        <ele>566.238918304443359</ele>
        <time>2016-08-26T08:28:03Z</time>
      </trkpt>
      <trkpt lat="46.459948746487498" lon="11.417972752824426">
        <ele>566.894802093505859</ele>
        <time>2016-08-26T08:28:04Z</time>
      </trkpt>
      <trkpt lat="46.459947740659118" lon="11.418193951249123">
        <ele>567.938625335693359</ele>
        <time>2016-08-26T08:28:05Z</time>
      </trkpt>
      <trkpt lat="46.459990823641419" lon="11.418430488556623">
        <ele>569.475978851318359</ele>
        <time>2016-08-26T08:28:06Z</time>
      </trkpt>
      <trkpt lat="46.460013790056109" lon="11.418643053621054">
        <ele>570.422512054443359</ele>
        <time>2016-08-26T08:28:07Z</time>
      </trkpt>
      <trkpt lat="46.460017310455441" lon="11.418857462704182">
        <ele>569.865871429443359</ele>
        <time>2016-08-26T08:28:08Z</time>
      </trkpt>
      <trkpt lat="46.46001135930419" lon="11.419069692492485">
        <ele>572.362453460693359</ele>
        <time>2016-08-26T08:28:09Z</time>
      </trkpt>
      <trkpt lat="46.459969868883491" lon="11.419270690530539">
        <ele>573.833644866943359</ele>
        <time>2016-08-26T08:28:10Z</time>
      </trkpt>
      <trkpt lat="46.459919158369303" lon="11.419479064643383">
        <ele>573.836818695068359</ele>
        <time>2016-08-26T08:28:11Z</time>
      </trkpt>
      <trkpt lat="46.459830310195684" lon="11.419680900871754">
        <ele>576.530055999755859</ele>
        <time>2016-08-26T08:28:12Z</time>
      </trkpt>
      <trkpt lat="46.459742467850447" lon="11.419883323833346">
        <ele>578.202541351318359</ele>
        <time>2016-08-26T08:28:13Z</time>
      </trkpt>
      <trkpt lat="46.459676586091518" lon="11.420105276629329">
        <ele>579.939723968505859</ele>
        <time>2016-08-26T08:28:14Z</time>
      </trkpt>
      <trkpt lat="46.459597544744611" lon="11.420317171141505">
        <ele>580.223049163818359</ele>
        <time>2016-08-26T08:28:15Z</time>
      </trkpt>
      <trkpt lat="46.459518168121576" lon="11.420521186664701">
        <ele>581.564601898193359</ele>
        <time>2016-08-26T08:28:16Z</time>
      </trkpt>
      <trkpt lat="46.459454884752631" lon="11.420714138075709">
        <ele>583.546413421630859</ele>
        <time>2016-08-26T08:28:17Z</time>
      </trkpt>
      <trkpt lat="46.459381794556975" lon="11.4209252782166">
        <ele>583.215969085693359</ele>
        <time>2016-08-26T08:28:18Z</time>
      </trkpt>
      <trkpt lat="46.459312308579683" lon="11.421139603480697">
        <ele>583.652736663818359</ele>
        <time>2016-08-26T08:28:19Z</time>
      </trkpt>
      <trkpt lat="46.459243325516582" lon="11.421348480507731">
        <ele>586.452785491943359</ele>
        <time>2016-08-26T08:28:20Z</time>
      </trkpt>
      <trkpt lat="46.459190016612411" lon="11.421577138826251">
        <ele>586.335353851318359</ele>
        <time>2016-08-26T08:28:21Z</time>
      </trkpt>
      <trkpt lat="46.45912254229188" lon="11.4218042884022">
        <ele>588.118923187255859</ele>
        <time>2016-08-26T08:28:22Z</time>
      </trkpt>
      <trkpt lat="46.45905464887619" lon="11.422020373865962">
        <ele>592.652126312255859</ele>
        <time>2016-08-26T08:28:23Z</time>
      </trkpt>
      <trkpt lat="46.458992958068848" lon="11.422232603654265">
        <ele>594.498439788818359</ele>
        <time>2016-08-26T08:28:24Z</time>
      </trkpt>
      <trkpt lat="46.458940822631121" lon="11.422436786815524">
        <ele>596.025295257568359</ele>
        <time>2016-08-26T08:28:25Z</time>
      </trkpt>
      <trkpt lat="46.458896063268185" lon="11.42262420617044">
        <ele>596.645656585693359</ele>
        <time>2016-08-26T08:28:26Z</time>
      </trkpt>
      <trkpt lat="46.458848873153329" lon="11.422816151753068">
        <ele>596.834133148193359</ele>
        <time>2016-08-26T08:28:27Z</time>
      </trkpt>
      <trkpt lat="46.458792630583048" lon="11.422999212518334">
        <ele>598.518215179443359</ele>
        <time>2016-08-26T08:28:28Z</time>
      </trkpt>
      <trkpt lat="46.458732448518276" lon="11.42318076454103">
        <ele>600.497707366943359</ele>
        <time>2016-08-26T08:28:29Z</time>
      </trkpt>
      <trkpt lat="46.458689114078879" lon="11.423370279371738">
        <ele>601.669826507568359</ele>
        <time>2016-08-26T08:28:30Z</time>
      </trkpt>
      <trkpt lat="46.458658268675208" lon="11.423559710383415">
        <ele>601.284816741943359</ele>
        <time>2016-08-26T08:28:31Z</time>
      </trkpt>
      <trkpt lat="46.458629937842488" lon="11.423765486106277">
        <ele>601.099391937255859</ele>
        <time>2016-08-26T08:28:32Z</time>
      </trkpt>
      <trkpt lat="46.458615018054843" lon="11.423975620418787">
        <ele>602.350978851318359</ele>
        <time>2016-08-26T08:28:33Z</time>
      </trkpt>
      <trkpt lat="46.458601858466864" lon="11.424190197139978">
        <ele>602.309474945068359</ele>
        <time>2016-08-26T08:28:34Z</time>
      </trkpt>
      <trkpt lat="46.458585178479552" lon="11.424408378079534">
        <ele>603.282863616943359</ele>
        <time>2016-08-26T08:28:35Z</time>
      </trkpt>
      <trkpt lat="46.458565816283226" lon="11.424629408866167">
        <ele>603.434719085693359</ele>
        <time>2016-08-26T08:28:36Z</time>
      </trkpt>
      <trkpt lat="46.458550980314612" lon="11.424844153225422">
        <ele>604.581691741943359</ele>
        <time>2016-08-26T08:28:37Z</time>
      </trkpt>
      <trkpt lat="46.458535054698586" lon="11.425050348043442">
        <ele>604.034084320068359</ele>
        <time>2016-08-26T08:28:38Z</time>
      </trkpt>
      <trkpt lat="46.458511669188738" lon="11.425241455435753">
        <ele>605.880886077880859</ele>
        <time>2016-08-26T08:28:39Z</time>
      </trkpt>
      <trkpt lat="46.458496246486902" lon="11.425445638597012">
        <ele>606.225978851318359</ele>
        <time>2016-08-26T08:28:40Z</time>
      </trkpt>
      <trkpt lat="46.458479315042496" lon="11.425649570301175">
        <ele>606.768581390380859</ele>
        <time>2016-08-26T08:28:41Z</time>
      </trkpt>
      <trkpt lat="46.458452409133315" lon="11.425853837281466">
        <ele>608.124172210693359</ele>
        <time>2016-08-26T08:28:42Z</time>
      </trkpt>
      <trkpt lat="46.458433130756021" lon="11.426055254414678">
        <ele>610.765041351318359</ele>
        <time>2016-08-26T08:28:43Z</time>
      </trkpt>
      <trkpt lat="46.45838376134634" lon="11.426243595778942">
        <ele>613.707424163818359</ele>
        <time>2016-08-26T08:28:44Z</time>
      </trkpt>
      <trkpt lat="46.458345791324973" lon="11.426438055932522">
        <ele>619.740139007568359</ele>
        <time>2016-08-26T08:28:45Z</time>
      </trkpt>
      <trkpt lat="46.458304133266211" lon="11.426631761714816">
        <ele>623.551662445068359</ele>
        <time>2016-08-26T08:28:46Z</time>
      </trkpt>
      <trkpt lat="46.45825669169426" lon="11.426824545487761">
        <ele>626.649196624755859</ele>
        <time>2016-08-26T08:28:47Z</time>
      </trkpt>
      <trkpt lat="46.458200449123979" lon="11.427014982327819">
        <ele>629.313381195068359</ele>
        <time>2016-08-26T08:28:48Z</time>
      </trkpt>
      <trkpt lat="46.457471391186118" lon="11.427038786932826">
        <ele>625.548244476318359</ele>
        <time>2016-08-26T08:28:52Z</time>
      </trkpt>
      <trkpt lat="46.457337029278278" lon="11.427110452204943">
        <ele>630.063259124755859</ele>
        <time>2016-08-26T08:28:53Z</time>
      </trkpt>
      <trkpt lat="46.457224795594811" lon="11.427200306206942">
        <ele>631.289333343505859</ele>
        <time>2016-08-26T08:28:54Z</time>
      </trkpt>
      <trkpt lat="46.457111220806837" lon="11.427300302311778">
        <ele>633.370998382568359</ele>
        <time>2016-08-26T08:28:55Z</time>
      </trkpt>
      <trkpt lat="46.45697602070868" lon="11.427454864606261">
        <ele>635.018703460693359</ele>
        <time>2016-08-26T08:28:56Z</time>
      </trkpt>
      <trkpt lat="46.456855572760105" lon="11.427629878744483">
        <ele>635.839992523193359</ele>
        <time>2016-08-26T08:28:57Z</time>
      </trkpt>
      <trkpt lat="46.456726239994168" lon="11.427804809063673">
        <ele>637.408473968505859</ele>
        <time>2016-08-26T08:28:58Z</time>
      </trkpt>
      <trkpt lat="46.456594979390502" lon="11.427984181791544">
        <ele>638.489528656005859</ele>
        <time>2016-08-26T08:28:59Z</time>
      </trkpt>
      <trkpt lat="46.456466987729073" lon="11.428166655823588">
        <ele>638.943508148193359</ele>
        <time>2016-08-26T08:29:00Z</time>
      </trkpt>
      <trkpt lat="46.456340001896024" lon="11.428342675790191">
        <ele>639.853908538818359</ele>
        <time>2016-08-26T08:29:01Z</time>
      </trkpt>
      <trkpt lat="46.456223577260971" lon="11.428510649129748">
        <ele>642.353176116943359</ele>
        <time>2016-08-26T08:29:02Z</time>
      </trkpt>
      <trkpt lat="46.456114361062646" lon="11.428688680753112">
        <ele>642.694240570068359</ele>
        <time>2016-08-26T08:29:03Z</time>
      </trkpt>
      <trkpt lat="46.45599726587534" lon="11.428841818124056">
        <ele>643.626857757568359</ele>
        <time>2016-08-26T08:29:04Z</time>
      </trkpt>
      <trkpt lat="46.455894336104393" lon="11.429025046527386">
        <ele>643.981594085693359</ele>
        <time>2016-08-26T08:29:05Z</time>
      </trkpt>
      <trkpt lat="46.455809343606234" lon="11.429217243567109">
        <ele>644.700832366943359</ele>
        <time>2016-08-26T08:29:06Z</time>
      </trkpt>
      <trkpt lat="46.455717729404569" lon="11.429407009854913">
        <ele>646.061061859130859</ele>
        <time>2016-08-26T08:29:07Z</time>
      </trkpt>
      <trkpt lat="46.455682273954153" lon="11.429642792791128">
        <ele>646.592433929443359</ele>
        <time>2016-08-26T08:29:08Z</time>
      </trkpt>
      <trkpt lat="46.455649416893721" lon="11.429869187995791">
        <ele>645.729152679443359</ele>
        <time>2016-08-26T08:29:09Z</time>
      </trkpt>
      <trkpt lat="46.455657966434956" lon="11.430113185197115">
        <ele>646.138332366943359</ele>
        <time>2016-08-26T08:29:10Z</time>
      </trkpt>
      <trkpt lat="46.455698367208242" lon="11.430379478260875">
        <ele>646.068019866943359</ele>
        <time>2016-08-26T08:29:11Z</time>
      </trkpt>
      <trkpt lat="46.455692416056991" lon="11.430624732747674">
        <ele>645.862941741943359</ele>
        <time>2016-08-26T08:29:12Z</time>
      </trkpt>
      <trkpt lat="46.455681771039963" lon="11.430865796282887">
        <ele>645.434230804443359</ele>
        <time>2016-08-26T08:29:13Z</time>
      </trkpt>
      <trkpt lat="46.455767014995217" lon="11.432600263506174">
        <ele>645.599269866943359</ele>
        <time>2016-08-26T08:29:20Z</time>
      </trkpt>
      <trkpt lat="46.455749245360494" lon="11.432949537411332">
        <ele>653.247463226318359</ele>
        <time>2016-08-26T08:29:21Z</time>
      </trkpt>
      <trkpt lat="46.455696355551481" lon="11.433203173801303">
        <ele>656.137599945068359</ele>
        <time>2016-08-26T08:29:22Z</time>
      </trkpt>
      <trkpt lat="46.455660900101066" lon="11.433476256206632">
        <ele>658.553371429443359</ele>
        <time>2016-08-26T08:29:23Z</time>
      </trkpt>
      <trkpt lat="46.455603903159499" lon="11.433712542057037">
        <ele>660.107570648193359</ele>
        <time>2016-08-26T08:29:24Z</time>
      </trkpt>
      <trkpt lat="46.455552186816931" lon="11.43393843434751">
        <ele>662.217678070068359</ele>
        <time>2016-08-26T08:29:25Z</time>
      </trkpt>
      <trkpt lat="46.455510025843978" lon="11.43414119258523">
        <ele>657.901760101318359</ele>
        <time>2016-08-26T08:29:26Z</time>
      </trkpt>
      <trkpt lat="46.455436935648322" lon="11.43431662581861">
        <ele>659.322170257568359</ele>
        <time>2016-08-26T08:29:27Z</time>
      </trkpt>
      <trkpt lat="46.455368623137474" lon="11.43448032438755">
        <ele>658.989406585693359</ele>
        <time>2016-08-26T08:29:28Z</time>
      </trkpt>
      <trkpt lat="46.455283211544156" lon="11.434627929702401">
        <ele>659.627101898193359</ele>
        <time>2016-08-26T08:29:29Z</time>
      </trkpt>
      <trkpt lat="46.455204505473375" lon="11.434783833101392">
        <ele>662.273342132568359</ele>
        <time>2016-08-26T08:29:30Z</time>
      </trkpt>
      <trkpt lat="46.45512948743999" lon="11.434937389567494">
        <ele>662.337795257568359</ele>
        <time>2016-08-26T08:29:31Z</time>
      </trkpt>
      <trkpt lat="46.455053631216288" lon="11.435092035681009">
        <ele>662.547023773193359</ele>
        <time>2016-08-26T08:29:32Z</time>
      </trkpt>
      <trkpt lat="46.453754939138889" lon="11.438285876065493">
        <ele>661.327907562255859</ele>
        <time>2016-08-26T08:29:52Z</time>
      </trkpt>
      <trkpt lat="46.453762818127871" lon="11.438536159694195">
        <ele>661.958766937255859</ele>
        <time>2016-08-26T08:29:53Z</time>
      </trkpt>
      <trkpt lat="46.453781174495816" lon="11.43870840780437">
        <ele>662.608791351318359</ele>
        <time>2016-08-26T08:29:54Z</time>
      </trkpt>
      <trkpt lat="46.453808164224029" lon="11.438879230991006">
        <ele>664.303249359130859</ele>
        <time>2016-08-26T08:29:55Z</time>
      </trkpt>
      <trkpt lat="46.453808667138219" lon="11.439028345048428">
        <ele>667.185573577880859</ele>
        <time>2016-08-26T08:29:56Z</time>
      </trkpt>
      <trkpt lat="46.453839093446732" lon="11.439211741089821">
        <ele>669.837306976318359</ele>
        <time>2016-08-26T08:29:57Z</time>
      </trkpt>
      <trkpt lat="46.453862143680453" lon="11.439414164051414">
        <ele>677.215236663818359</ele>
        <time>2016-08-26T08:29:58Z</time>
      </trkpt>
      <trkpt lat="46.453875219449401" lon="11.439609713852406">
        <ele>680.736965179443359</ele>
        <time>2016-08-26T08:29:59Z</time>
      </trkpt>
      <trkpt lat="46.453899443149567" lon="11.439802329987288">
        <ele>681.193508148193359</ele>
        <time>2016-08-26T08:30:00Z</time>
      </trkpt>
      <trkpt lat="46.453778073191643" lon="11.441465215757489">
        <ele>678.793239593505859</ele>
        <time>2016-08-26T08:30:09Z</time>
      </trkpt>
      <trkpt lat="46.453613033518195" lon="11.441669231280684">
        <ele>685.292873382568359</ele>
        <time>2016-08-26T08:30:10Z</time>
      </trkpt>
      <trkpt lat="46.453463332727551" lon="11.441903673112392">
        <ele>683.550441741943359</ele>
        <time>2016-08-26T08:30:11Z</time>
      </trkpt>
      <trkpt lat="46.453351937234402" lon="11.442028731107712">
        <ele>681.824123382568359</ele>
        <time>2016-08-26T08:30:12Z</time>
      </trkpt>
      <trkpt lat="46.453200979158282" lon="11.441914569586515">
        <ele>683.046047210693359</ele>
        <time>2016-08-26T08:30:13Z</time>
      </trkpt>
      <trkpt lat="46.453134091570973" lon="11.441971901804209">
        <ele>684.855495452880859</ele>
        <time>2016-08-26T08:30:14Z</time>
      </trkpt>
      <trkpt lat="46.45301322452724" lon="11.442034179344773">
        <ele>689.580226898193359</ele>
        <time>2016-08-26T08:30:15Z</time>
      </trkpt>
      <trkpt lat="46.452919095754623" lon="11.442126883193851">
        <ele>691.298732757568359</ele>
        <time>2016-08-26T08:30:16Z</time>
      </trkpt>
      <trkpt lat="46.452837707474828" lon="11.442239284515381">
        <ele>689.527492523193359</ele>
        <time>2016-08-26T08:30:17Z</time>
      </trkpt>
      <trkpt lat="46.452771993353963" lon="11.442374987527728">
        <ele>691.080226898193359</ele>
        <time>2016-08-26T08:30:18Z</time>
      </trkpt>
      <trkpt lat="46.452707117423415" lon="11.442493088543415">
        <ele>693.069118499755859</ele>
        <time>2016-08-26T08:30:19Z</time>
      </trkpt>
      <trkpt lat="46.452663028612733" lon="11.442638514563441">
        <ele>693.319240570068359</ele>
        <time>2016-08-26T08:30:20Z</time>
      </trkpt>
      <trkpt lat="46.452615838497877" lon="11.442788215354085">
        <ele>693.970363616943359</ele>
        <time>2016-08-26T08:30:21Z</time>
      </trkpt>
      <trkpt lat="46.452571833506227" lon="11.442940263077617">
        <ele>693.240871429443359</ele>
        <time>2016-08-26T08:30:22Z</time>
      </trkpt>
      <trkpt lat="46.452518943697214" lon="11.443106979131699">
        <ele>694.475002288818359</ele>
        <time>2016-08-26T08:30:23Z</time>
      </trkpt>
      <trkpt lat="46.452457420527935" lon="11.443258775398135">
        <ele>697.000148773193359</ele>
        <time>2016-08-26T08:30:24Z</time>
      </trkpt>
      <trkpt lat="46.452401177957654" lon="11.443444434553385">
        <ele>697.636623382568359</ele>
        <time>2016-08-26T08:30:25Z</time>
      </trkpt>
      <trkpt lat="46.452335547655821" lon="11.44361718557775">
        <ele>697.785549163818359</ele>
        <time>2016-08-26T08:30:26Z</time>
      </trkpt>
      <trkpt lat="46.452276622876525" lon="11.443792367354035">
        <ele>697.603664398193359</ele>
        <time>2016-08-26T08:30:27Z</time>
      </trkpt>
      <trkpt lat="46.451891306787729" lon="11.445565642789006">
        <ele>699.492092132568359</ele>
        <time>2016-08-26T08:30:36Z</time>
      </trkpt>
      <trkpt lat="46.451781587675214" lon="11.44569480791688">
        <ele>697.412990570068359</ele>
        <time>2016-08-26T08:30:37Z</time>
      </trkpt>
      <trkpt lat="46.451713945716619" lon="11.445890022441745">
        <ele>705.087551116943359</ele>
        <time>2016-08-26T08:30:38Z</time>
      </trkpt>
      <trkpt lat="46.451639262959361" lon="11.446033185347915">
        <ele>710.895900726318359</ele>
        <time>2016-08-26T08:30:39Z</time>
      </trkpt>
      <trkpt lat="46.451563406735659" lon="11.446178862825036">
        <ele>709.786281585693359</ele>
        <time>2016-08-26T08:30:40Z</time>
      </trkpt>
      <trkpt lat="46.451510433107615" lon="11.446328898891807">
        <ele>710.268825531005859</ele>
        <time>2016-08-26T08:30:41Z</time>
      </trkpt>
      <trkpt lat="46.451412281021476" lon="11.446479437872767">
        <ele>712.746242523193359</ele>
        <time>2016-08-26T08:30:42Z</time>
      </trkpt>
      <trkpt lat="46.451353691518307" lon="11.446608770638704">
        <ele>714.165554046630859</ele>
        <time>2016-08-26T08:30:43Z</time>
      </trkpt>
      <trkpt lat="46.451285295188427" lon="11.446770122274756">
        <ele>713.318752288818359</ele>
        <time>2016-08-26T08:30:44Z</time>
      </trkpt>
      <trkpt lat="46.451214719563723" lon="11.446911608800292">
        <ele>711.952541351318359</ele>
        <time>2016-08-26T08:30:45Z</time>
      </trkpt>
      <trkpt lat="46.451106844469905" lon="11.447054771706462">
        <ele>715.874416351318359</ele>
        <time>2016-08-26T08:30:46Z</time>
      </trkpt>
      <trkpt lat="46.4510259591043" lon="11.447210172191262">
        <ele>715.442775726318359</ele>
        <time>2016-08-26T08:30:47Z</time>
      </trkpt>
      <trkpt lat="46.450957311317325" lon="11.447358699515462">
        <ele>714.631008148193359</ele>
        <time>2016-08-26T08:30:48Z</time>
      </trkpt>
      <trkpt lat="46.450858488678932" lon="11.447466826066375">
        <ele>715.962795257568359</ele>
        <time>2016-08-26T08:30:49Z</time>
      </trkpt>
      <trkpt lat="46.450761342421174" lon="11.447601104155183">
        <ele>717.525783538818359</ele>
        <time>2016-08-26T08:30:50Z</time>
      </trkpt>
      <trkpt lat="46.450648354366422" lon="11.4477021060884">
        <ele>717.693264007568359</ele>
        <time>2016-08-26T08:30:51Z</time>
      </trkpt>
      <trkpt lat="46.450529415160418" lon="11.447798581793904">
        <ele>716.892848968505859</ele>
        <time>2016-08-26T08:30:52Z</time>
      </trkpt>
      <trkpt lat="46.450429754331708" lon="11.44789807498455">
        <ele>717.757106781005859</ele>
        <time>2016-08-26T08:30:53Z</time>
      </trkpt>
      <trkpt lat="46.450326824560761" lon="11.447994466871023">
        <ele>717.431423187255859</ele>
        <time>2016-08-26T08:30:54Z</time>
      </trkpt>
      <trkpt lat="46.450223978608847" lon="11.448102509602904">
        <ele>717.838405609130859</ele>
        <time>2016-08-26T08:30:55Z</time>
      </trkpt>
      <trkpt lat="46.450118701905012" lon="11.448211306706071">
        <ele>718.407619476318359</ele>
        <time>2016-08-26T08:30:56Z</time>
      </trkpt>
      <trkpt lat="46.450026836246252" lon="11.448325049132109">
        <ele>719.646144866943359</ele>
        <time>2016-08-26T08:30:57Z</time>
      </trkpt>
      <trkpt lat="46.44993782043457" lon="11.448440803214908">
        <ele>719.104885101318359</ele>
        <time>2016-08-26T08:30:58Z</time>
      </trkpt>
      <trkpt lat="46.44983472302556" lon="11.448573740199208">
        <ele>719.828395843505859</ele>
        <time>2016-08-26T08:30:59Z</time>
      </trkpt>
      <trkpt lat="46.449729865416884" lon="11.448700474575162">
        <ele>720.775051116943359</ele>
        <time>2016-08-26T08:31:00Z</time>
      </trkpt>
      <trkpt lat="46.449598437175155" lon="11.448815809562802">
        <ele>723.356105804443359</ele>
        <time>2016-08-26T08:31:01Z</time>
      </trkpt>
      <trkpt lat="46.449499279260635" lon="11.448944890871644">
        <ele>723.746242523193359</ele>
        <time>2016-08-26T08:31:02Z</time>
      </trkpt>
      <trkpt lat="46.449387548491359" lon="11.449069362133741">
        <ele>725.353176116943359</ele>
        <time>2016-08-26T08:31:03Z</time>
      </trkpt>
      <trkpt lat="46.449268022552133" lon="11.449180841445923">
        <ele>725.094631195068359</ele>
        <time>2016-08-26T08:31:04Z</time>
      </trkpt>
      <trkpt lat="46.449174648150802" lon="11.449312353506684">
        <ele>725.848171234130859</ele>
        <time>2016-08-26T08:31:05Z</time>
      </trkpt>
      <trkpt lat="46.449080687016249" lon="11.449436154216528">
        <ele>725.936183929443359</ele>
        <time>2016-08-26T08:31:06Z</time>
      </trkpt>
      <trkpt lat="46.448980607092381" lon="11.449561128392816">
        <ele>727.190456390380859</ele>
        <time>2016-08-26T08:31:07Z</time>
      </trkpt>
      <trkpt lat="46.448886478319764" lon="11.449691215530038">
        <ele>728.233791351318359</ele>
        <time>2016-08-26T08:31:08Z</time>
      </trkpt>
      <trkpt lat="46.448815399780869" lon="11.449877629056573">
        <ele>728.319850921630859</ele>
        <time>2016-08-26T08:31:09Z</time>
      </trkpt>
      <trkpt lat="46.448774244636297" lon="11.450060270726681">
        <ele>728.475734710693359</ele>
        <time>2016-08-26T08:31:10Z</time>
      </trkpt>
      <trkpt lat="46.448710542172194" lon="11.450250456109643">
        <ele>728.953151702880859</ele>
        <time>2016-08-26T08:31:11Z</time>
      </trkpt>
      <trkpt lat="46.448653042316437" lon="11.450444832444191">
        <ele>728.408473968505859</ele>
        <time>2016-08-26T08:31:12Z</time>
      </trkpt>
      <trkpt lat="46.448586825281382" lon="11.450642142444849">
        <ele>729.159328460693359</ele>
        <time>2016-08-26T08:31:13Z</time>
      </trkpt>
      <trkpt lat="46.44851440563798" lon="11.450831238180399">
        <ele>730.877590179443359</ele>
        <time>2016-08-26T08:31:14Z</time>
      </trkpt>
      <trkpt lat="46.44842891022563" lon="11.451029302552342">
        <ele>730.582424163818359</ele>
        <time>2016-08-26T08:31:15Z</time>
      </trkpt>
      <trkpt lat="46.448354227468371" lon="11.451227283105254">
        <ele>730.495754241943359</ele>
        <time>2016-08-26T08:31:16Z</time>
      </trkpt>
      <trkpt lat="46.448281388729811" lon="11.451422916725278">
        <ele>730.769802093505859</ele>
        <time>2016-08-26T08:31:17Z</time>
      </trkpt>
      <trkpt lat="46.448212238028646" lon="11.451610419899225">
        <ele>731.976222991943359</ele>
        <time>2016-08-26T08:31:18Z</time>
      </trkpt>
      <trkpt lat="46.448138980194926" lon="11.451793983578682">
        <ele>732.451930999755859</ele>
        <time>2016-08-26T08:31:19Z</time>
      </trkpt>
      <trkpt lat="46.448082150891423" lon="11.451971093192697">
        <ele>730.694606781005859</ele>
        <time>2016-08-26T08:31:20Z</time>
      </trkpt>
      <trkpt lat="46.448007468134165" lon="11.452155327424407">
        <ele>731.818508148193359</ele>
        <time>2016-08-26T08:31:21Z</time>
      </trkpt>
      <trkpt lat="46.447934042662382" lon="11.452336795628071">
        <ele>732.804470062255859</ele>
        <time>2016-08-26T08:31:22Z</time>
      </trkpt>
      <trkpt lat="46.447866903617978" lon="11.45252387970686">
        <ele>732.732326507568359</ele>
        <time>2016-08-26T08:31:23Z</time>
      </trkpt>
      <trkpt lat="46.447801189497113" lon="11.452701240777969">
        <ele>733.839748382568359</ele>
        <time>2016-08-26T08:31:24Z</time>
      </trkpt>
      <trkpt lat="46.447728937491775" lon="11.452873991802335">
        <ele>734.814357757568359</ele>
        <time>2016-08-26T08:31:25Z</time>
      </trkpt>
      <trkpt lat="46.447667665779591" lon="11.453039199113846">
        <ele>735.713283538818359</ele>
        <time>2016-08-26T08:31:26Z</time>
      </trkpt>
      <trkpt lat="46.447601448744535" lon="11.453204238787293">
        <ele>736.455471038818359</ele>
        <time>2016-08-26T08:31:27Z</time>
      </trkpt>
      <trkpt lat="46.447533471509814" lon="11.453372715041041">
        <ele>737.140773773193359</ele>
        <time>2016-08-26T08:31:28Z</time>
      </trkpt>
      <trkpt lat="46.447473876178265" lon="11.45354219712317">
        <ele>738.566310882568359</ele>
        <time>2016-08-26T08:31:29Z</time>
      </trkpt>
      <trkpt lat="46.447407575324178" lon="11.453714864328504">
        <ele>739.397365570068359</ele>
        <time>2016-08-26T08:31:30Z</time>
      </trkpt>
      <trkpt lat="46.447340352460742" lon="11.453879149630666">
        <ele>740.898342132568359</ele>
        <time>2016-08-26T08:31:31Z</time>
      </trkpt>
      <trkpt lat="46.447272039949894" lon="11.454044440761209">
        <ele>741.546535491943359</ele>
        <time>2016-08-26T08:31:32Z</time>
      </trkpt>
      <trkpt lat="46.44720540381968" lon="11.454201182350516">
        <ele>743.283596038818359</ele>
        <time>2016-08-26T08:31:33Z</time>
      </trkpt>
      <trkpt lat="46.447143964469433" lon="11.454357421025634">
        <ele>743.768459320068359</ele>
        <time>2016-08-26T08:31:34Z</time>
      </trkpt>
      <trkpt lat="46.447079591453075" lon="11.454516761004925">
        <ele>744.577297210693359</ele>
        <time>2016-08-26T08:31:35Z</time>
      </trkpt>
      <trkpt lat="46.447015637531877" lon="11.454680459573865">
        <ele>745.149562835693359</ele>
        <time>2016-08-26T08:31:36Z</time>
      </trkpt>
      <trkpt lat="46.446948666125536" lon="11.454851282760501">
        <ele>744.675441741943359</ele>
        <time>2016-08-26T08:31:37Z</time>
      </trkpt>
      <trkpt lat="46.446888064965606" lon="11.455024871975183">
        <ele>744.534572601318359</ele>
        <time>2016-08-26T08:31:38Z</time>
      </trkpt>
      <trkpt lat="46.446819920092821" lon="11.455195443704724">
        <ele>745.243312835693359</ele>
        <time>2016-08-26T08:31:39Z</time>
      </trkpt>
      <trkpt lat="46.446751607581973" lon="11.455370541661978">
        <ele>744.936794281005859</ele>
        <time>2016-08-26T08:31:40Z</time>
      </trkpt>
      <trkpt lat="46.446687402203679" lon="11.455545723438263">
        <ele>745.088649749755859</ele>
        <time>2016-08-26T08:31:41Z</time>
      </trkpt>
      <trkpt lat="46.446615653112531" lon="11.455716378986835">
        <ele>746.308010101318359</ele>
        <time>2016-08-26T08:31:42Z</time>
      </trkpt>
      <trkpt lat="46.446542982012033" lon="11.455894410610199">
        <ele>746.598537445068359</ele>
        <time>2016-08-26T08:31:43Z</time>
      </trkpt>
      <trkpt lat="46.44646855071187" lon="11.456088367849588">
        <ele>746.713039398193359</ele>
        <time>2016-08-26T08:31:44Z</time>
      </trkpt>
      <trkpt lat="46.446390431374311" lon="11.456282576546073">
        <ele>748.661647796630859</ele>
        <time>2016-08-26T08:31:45Z</time>
      </trkpt>
      <trkpt lat="46.44630828872323" lon="11.456486927345395">
        <ele>749.811672210693359</ele>
        <time>2016-08-26T08:31:46Z</time>
      </trkpt>
      <trkpt lat="46.446231594309211" lon="11.456684321165085">
        <ele>751.508693695068359</ele>
        <time>2016-08-26T08:31:47Z</time>
      </trkpt>
      <trkpt lat="46.446149284020066" lon="11.456888588145375">
        <ele>752.199611663818359</ele>
        <time>2016-08-26T08:31:48Z</time>
      </trkpt>
      <trkpt lat="46.446065800264478" lon="11.457087323069572">
        <ele>751.956203460693359</ele>
        <time>2016-08-26T08:31:49Z</time>
      </trkpt>
      <trkpt lat="46.445976030081511" lon="11.457280274480581">
        <ele>752.495265960693359</ele>
        <time>2016-08-26T08:31:50Z</time>
      </trkpt>
      <trkpt lat="46.445877123624086" lon="11.457454953342676">
        <ele>754.356838226318359</ele>
        <time>2016-08-26T08:31:51Z</time>
      </trkpt>
      <trkpt lat="46.445780396461487" lon="11.457622172310948">
        <ele>756.688137054443359</ele>
        <time>2016-08-26T08:31:52Z</time>
      </trkpt>
      <trkpt lat="46.445687357336283" lon="11.457778997719288">
        <ele>757.198635101318359</ele>
        <time>2016-08-26T08:31:53Z</time>
      </trkpt>
      <trkpt lat="46.445587864145637" lon="11.457933811470866">
        <ele>758.200099945068359</ele>
        <time>2016-08-26T08:31:54Z</time>
      </trkpt>
      <trkpt lat="46.445490214973688" lon="11.458086110651493">
        <ele>760.187892913818359</ele>
        <time>2016-08-26T08:31:55Z</time>
      </trkpt>
      <trkpt lat="46.445399941876531" lon="11.458233213052154">
        <ele>760.222316741943359</ele>
        <time>2016-08-26T08:31:56Z</time>
      </trkpt>
      <trkpt lat="46.445310926064849" lon="11.458376459777355">
        <ele>760.145900726318359</ele>
        <time>2016-08-26T08:31:57Z</time>
      </trkpt>
      <trkpt lat="46.445221155881882" lon="11.458517862483859">
        <ele>762.326686859130859</ele>
        <time>2016-08-26T08:31:58Z</time>
      </trkpt>
      <trkpt lat="46.445149071514606" lon="11.458665719255805">
        <ele>763.081935882568359</ele>
        <time>2016-08-26T08:31:59Z</time>
      </trkpt>
      <trkpt lat="46.445089979097247" lon="11.458831513300538">
        <ele>764.405666351318359</ele>
        <time>2016-08-26T08:32:00Z</time>
      </trkpt>
      <trkpt lat="46.445029461756349" lon="11.459006778895855">
        <ele>766.514797210693359</ele>
        <time>2016-08-26T08:32:01Z</time>
      </trkpt>
      <trkpt lat="46.444977158680558" lon="11.4591926895082">
        <ele>767.779201507568359</ele>
        <time>2016-08-26T08:32:02Z</time>
      </trkpt>
      <trkpt lat="46.444933321326971" lon="11.459390250965953">
        <ele>767.635402679443359</ele>
        <time>2016-08-26T08:32:03Z</time>
      </trkpt>
      <trkpt lat="46.444878503680229" lon="11.45957381464541">
        <ele>768.884181976318359</ele>
        <time>2016-08-26T08:32:04Z</time>
      </trkpt>
      <trkpt lat="46.444828547537327" lon="11.459748074412346">
        <ele>770.075344085693359</ele>
        <time>2016-08-26T08:32:05Z</time>
      </trkpt>
      <trkpt lat="46.444782447069883" lon="11.459922334179282">
        <ele>770.238552093505859</ele>
        <time>2016-08-26T08:32:06Z</time>
      </trkpt>
      <trkpt lat="46.444715727120638" lon="11.460081674158573">
        <ele>770.702663421630859</ele>
        <time>2016-08-26T08:32:07Z</time>
      </trkpt>
      <trkpt lat="46.444654455408454" lon="11.460234140977263">
        <ele>771.495632171630859</ele>
        <time>2016-08-26T08:32:08Z</time>
      </trkpt>
      <trkpt lat="46.444587735459208" lon="11.460377220064402">
        <ele>771.293605804443359</ele>
        <time>2016-08-26T08:32:09Z</time>
      </trkpt>
      <trkpt lat="46.444514729082584" lon="11.460507977753878">
        <ele>772.487697601318359</ele>
        <time>2016-08-26T08:32:10Z</time>
      </trkpt>
      <trkpt lat="46.444449936971068" lon="11.460646530613303">
        <ele>773.497951507568359</ele>
        <time>2016-08-26T08:32:11Z</time>
      </trkpt>
      <trkpt lat="46.444393023848534" lon="11.460796985775232">
        <ele>775.033840179443359</ele>
        <time>2016-08-26T08:32:12Z</time>
      </trkpt>
      <trkpt lat="46.444330997765064" lon="11.46093369461596">
        <ele>775.641872406005859</ele>
        <time>2016-08-26T08:32:13Z</time>
      </trkpt>
      <trkpt lat="46.444259835407138" lon="11.461055483669043">
        <ele>776.304103851318359</ele>
        <time>2016-08-26T08:32:14Z</time>
      </trkpt>
      <trkpt lat="46.44417978823185" lon="11.461166627705097">
        <ele>776.832546234130859</ele>
        <time>2016-08-26T08:32:15Z</time>
      </trkpt>
      <trkpt lat="46.444099824875593" lon="11.461275424808264">
        <ele>777.065822601318359</ele>
        <time>2016-08-26T08:32:16Z</time>
      </trkpt>
      <trkpt lat="46.444011479616165" lon="11.461383802816272">
        <ele>777.848049163818359</ele>
        <time>2016-08-26T08:32:17Z</time>
      </trkpt>
      <trkpt lat="46.443914417177439" lon="11.461489666253328">
        <ele>778.400295257568359</ele>
        <time>2016-08-26T08:32:18Z</time>
      </trkpt>
      <trkpt lat="46.443803608417511" lon="11.461599301546812">
        <ele>780.453517913818359</ele>
        <time>2016-08-26T08:32:19Z</time>
      </trkpt>
      <trkpt lat="46.443720627576113" lon="11.461729975417256">
        <ele>779.935573577880859</ele>
        <time>2016-08-26T08:32:20Z</time>
      </trkpt>
      <trkpt lat="46.443660696968436" lon="11.46187137812376">
        <ele>780.416164398193359</ele>
        <time>2016-08-26T08:32:21Z</time>
      </trkpt>
      <trkpt lat="46.443589786067605" lon="11.462005153298378">
        <ele>781.745632171630859</ele>
        <time>2016-08-26T08:32:22Z</time>
      </trkpt>
      <trkpt lat="46.443516025319695" lon="11.462140856310725">
        <ele>783.387355804443359</ele>
        <time>2016-08-26T08:32:23Z</time>
      </trkpt>
      <trkpt lat="46.44344880245626" lon="11.462291898205876">
        <ele>783.575344085693359</ele>
        <time>2016-08-26T08:32:24Z</time>
      </trkpt>
      <trkpt lat="46.4433897100389" lon="11.462447550147772">
        <ele>783.092800140380859</ele>
        <time>2016-08-26T08:32:25Z</time>
      </trkpt>
      <trkpt lat="46.443325253203511" lon="11.462609739974141">
        <ele>786.053981781005859</ele>
        <time>2016-08-26T08:32:26Z</time>
      </trkpt>
      <trkpt lat="46.443260377272964" lon="11.462774528190494">
        <ele>786.002590179443359</ele>
        <time>2016-08-26T08:32:27Z</time>
      </trkpt>
      <trkpt lat="46.443192651495337" lon="11.462939484044909">
        <ele>787.107204437255859</ele>
        <time>2016-08-26T08:32:28Z</time>
      </trkpt>
      <trkpt lat="46.443133559077978" lon="11.463097734376788">
        <ele>787.184352874755859</ele>
        <time>2016-08-26T08:32:29Z</time>
      </trkpt>
      <trkpt lat="46.443065330386162" lon="11.463260678574443">
        <ele>787.566066741943359</ele>
        <time>2016-08-26T08:32:30Z</time>
      </trkpt>
      <trkpt lat="46.442991318181157" lon="11.463408283889294">
        <ele>789.230617523193359</ele>
        <time>2016-08-26T08:32:31Z</time>
      </trkpt>
      <trkpt lat="46.442901464179158" lon="11.463546836748719">
        <ele>791.728420257568359</ele>
        <time>2016-08-26T08:32:32Z</time>
      </trkpt>
      <trkpt lat="46.44281261600554" lon="11.463677929714322">
        <ele>791.783351898193359</ele>
        <time>2016-08-26T08:32:33Z</time>
      </trkpt>
      <trkpt lat="46.442732149735093" lon="11.463797371834517">
        <ele>792.980495452880859</ele>
        <time>2016-08-26T08:32:34Z</time>
      </trkpt>
      <trkpt lat="46.442652940750122" lon="11.463913377374411">
        <ele>793.889919281005859</ele>
        <time>2016-08-26T08:32:35Z</time>
      </trkpt>
      <trkpt lat="46.442580688744783" lon="11.464029885828495">
        <ele>794.571926116943359</ele>
        <time>2016-08-26T08:32:36Z</time>
      </trkpt>
      <trkpt lat="46.442511957138777" lon="11.464131893590093">
        <ele>795.286647796630859</ele>
        <time>2016-08-26T08:32:37Z</time>
      </trkpt>
      <trkpt lat="46.442434675991535" lon="11.464233146980405">
        <ele>796.823390960693359</ele>
        <time>2016-08-26T08:32:38Z</time>
      </trkpt>
      <trkpt lat="46.442333674058318" lon="11.464315289631486">
        <ele>798.233547210693359</ele>
        <time>2016-08-26T08:32:39Z</time>
      </trkpt>
      <trkpt lat="46.442224122583866" lon="11.46438485942781">
        <ele>798.699977874755859</ele>
        <time>2016-08-26T08:32:40Z</time>
      </trkpt>
      <trkpt lat="46.442126054316759" lon="11.464440934360027">
        <ele>800.862575531005859</ele>
        <time>2016-08-26T08:32:41Z</time>
      </trkpt>
      <trkpt lat="46.4419961348176" lon="11.464486448094249">
        <ele>801.235500335693359</ele>
        <time>2016-08-26T08:32:42Z</time>
      </trkpt>
      <trkpt lat="46.441887337714434" lon="11.464511593803763">
        <ele>800.591335296630859</ele>
        <time>2016-08-26T08:32:43Z</time>
      </trkpt>
      <trkpt lat="46.441750628873706" lon="11.464513773098588">
        <ele>802.233791351318359</ele>
        <time>2016-08-26T08:32:44Z</time>
      </trkpt>
      <trkpt lat="46.441624481230974" lon="11.464498182758689">
        <ele>803.451076507568359</ele>
        <time>2016-08-26T08:32:45Z</time>
      </trkpt>
      <trkpt lat="46.441476624459028" lon="11.464484268799424">
        <ele>804.045314788818359</ele>
        <time>2016-08-26T08:32:46Z</time>
      </trkpt>
      <trkpt lat="46.441348046064377" lon="11.464441269636154">
        <ele>804.674098968505859</ele>
        <time>2016-08-26T08:32:47Z</time>
      </trkpt>
      <trkpt lat="46.441226927563548" lon="11.464413274079561">
        <ele>805.305690765380859</ele>
        <time>2016-08-26T08:32:48Z</time>
      </trkpt>
      <trkpt lat="46.441107904538512" lon="11.464384775608778">
        <ele>805.228176116943359</ele>
        <time>2016-08-26T08:32:49Z</time>
      </trkpt>
      <trkpt lat="46.440999694168568" lon="11.464364072307944">
        <ele>805.068752288818359</ele>
        <time>2016-08-26T08:32:50Z</time>
      </trkpt>
      <trkpt lat="46.440886873751879" lon="11.464336579665542">
        <ele>805.201320648193359</ele>
        <time>2016-08-26T08:32:51Z</time>
      </trkpt>
      <trkpt lat="46.440783524885774" lon="11.464306404814124">
        <ele>805.779567718505859</ele>
        <time>2016-08-26T08:32:52Z</time>
      </trkpt>
      <trkpt lat="46.440669363364577" lon="11.464305063709617">
        <ele>805.670070648193359</ele>
        <time>2016-08-26T08:32:53Z</time>
      </trkpt>
      <trkpt lat="46.440566852688789" lon="11.464304309338331">
        <ele>805.736965179443359</ele>
        <time>2016-08-26T08:32:54Z</time>
      </trkpt>
      <trkpt lat="46.440448667854071" lon="11.464318810030818">
        <ele>806.115383148193359</ele>
        <time>2016-08-26T08:32:55Z</time>
      </trkpt>
      <trkpt lat="46.440323190763593" lon="11.464355690404773">
        <ele>807.057033538818359</ele>
        <time>2016-08-26T08:32:56Z</time>
      </trkpt>
      <trkpt lat="46.440181452780962" lon="11.464458703994751">
        <ele>808.114650726318359</ele>
        <time>2016-08-26T08:32:57Z</time>
      </trkpt>
      <trkpt lat="46.440107021480799" lon="11.464579571038485">
        <ele>808.645412445068359</ele>
        <time>2016-08-26T08:32:58Z</time>
      </trkpt>
      <trkpt lat="46.440002247691154" lon="11.46473815664649">
        <ele>808.603908538818359</ele>
        <time>2016-08-26T08:32:59Z</time>
      </trkpt>
      <trkpt lat="46.439913148060441" lon="11.464839745312929">
        <ele>810.456203460693359</ele>
        <time>2016-08-26T08:33:00Z</time>
      </trkpt>
      <trkpt lat="46.439807452261448" lon="11.464971508830786">
        <ele>811.440578460693359</ele>
        <time>2016-08-26T08:33:01Z</time>
      </trkpt>
      <trkpt lat="46.439703600481153" lon="11.465100757777691">
        <ele>812.705837249755859</ele>
        <time>2016-08-26T08:33:02Z</time>
      </trkpt>
      <trkpt lat="46.439602011814713" lon="11.465250290930271">
        <ele>814.497707366943359</ele>
        <time>2016-08-26T08:33:03Z</time>
      </trkpt>
      <trkpt lat="46.439512660726905" lon="11.465386915951967">
        <ele>814.557765960693359</ele>
        <time>2016-08-26T08:33:04Z</time>
      </trkpt>
      <trkpt lat="46.439414341002703" lon="11.465520104393363">
        <ele>815.305568695068359</ele>
        <time>2016-08-26T08:33:05Z</time>
      </trkpt>
      <trkpt lat="46.439336808398366" lon="11.465654298663139">
        <ele>815.114162445068359</ele>
        <time>2016-08-26T08:33:06Z</time>
      </trkpt>
      <trkpt lat="46.439248966053128" lon="11.465792348608375">
        <ele>814.790676116943359</ele>
        <time>2016-08-26T08:33:07Z</time>
      </trkpt>
      <trkpt lat="46.439178893342614" lon="11.465937523171306">
        <ele>814.959865570068359</ele>
        <time>2016-08-26T08:33:08Z</time>
      </trkpt>
      <trkpt lat="46.439130110666156" lon="11.466088565066457">
        <ele>814.281887054443359</ele>
        <time>2016-08-26T08:33:09Z</time>
      </trkpt>
      <trkpt lat="46.439060959964991" lon="11.466229716315866">
        <ele>813.759426116943359</ele>
        <time>2016-08-26T08:33:10Z</time>
      </trkpt>
      <trkpt lat="46.438986528664827" lon="11.466366508975625">
        <ele>813.403957366943359</ele>
        <time>2016-08-26T08:33:11Z</time>
      </trkpt>
      <trkpt lat="46.438881922513247" lon="11.466511432081461">
        <ele>812.928371429443359</ele>
        <time>2016-08-26T08:33:12Z</time>
      </trkpt>
      <trkpt lat="46.438821321353316" lon="11.466636825352907">
        <ele>813.531154632568359</ele>
        <time>2016-08-26T08:33:13Z</time>
      </trkpt>
      <trkpt lat="46.438732892274857" lon="11.466741934418678">
        <ele>813.525783538818359</ele>
        <time>2016-08-26T08:33:14Z</time>
      </trkpt>
      <trkpt lat="46.438615461811423" lon="11.466854168102145">
        <ele>813.406642913818359</ele>
        <time>2016-08-26T08:33:15Z</time>
      </trkpt>
      <trkpt lat="46.438496522605419" lon="11.466955840587616">
        <ele>813.763210296630859</ele>
        <time>2016-08-26T08:33:16Z</time>
      </trkpt>
      <trkpt lat="46.438381019979715" lon="11.467052735388279">
        <ele>814.174465179443359</ele>
        <time>2016-08-26T08:33:17Z</time>
      </trkpt>
      <trkpt lat="46.43827423453331" lon="11.467138230800629">
        <ele>814.732692718505859</ele>
        <time>2016-08-26T08:33:18Z</time>
      </trkpt>
      <trkpt lat="46.438141968101263" lon="11.467241747304797">
        <ele>814.747463226318359</ele>
        <time>2016-08-26T08:33:19Z</time>
      </trkpt>
      <trkpt lat="46.438056640326977" lon="11.467334032058716">
        <ele>814.412136077880859</ele>
        <time>2016-08-26T08:33:20Z</time>
      </trkpt>
      <trkpt lat="46.437945747748017" lon="11.467407876625657">
        <ele>814.090602874755859</ele>
        <time>2016-08-26T08:33:21Z</time>
      </trkpt>
      <trkpt lat="46.437873495742679" lon="11.467515667900443">
        <ele>813.568264007568359</ele>
        <time>2016-08-26T08:33:22Z</time>
      </trkpt>
      <trkpt lat="46.437812140211463" lon="11.467545507475734">
        <ele>814.457180023193359</ele>
        <time>2016-08-26T08:33:23Z</time>
      </trkpt>
      <trkpt lat="46.43772454932332" lon="11.467540394514799">
        <ele>815.260036468505859</ele>
        <time>2016-08-26T08:33:24Z</time>
      </trkpt>
      <trkpt lat="46.43765514716506" lon="11.467582304030657">
        <ele>815.708766937255859</ele>
        <time>2016-08-26T08:33:25Z</time>
      </trkpt>
      <trkpt lat="46.437577698379755" lon="11.467630919069052">
        <ele>815.157741546630859</ele>
        <time>2016-08-26T08:33:26Z</time>
      </trkpt>
      <trkpt lat="46.437518773600459" lon="11.467626811936498">
        <ele>815.090236663818359</ele>
        <time>2016-08-26T08:33:27Z</time>
      </trkpt>
      <trkpt lat="46.43747141584754" lon="11.467641144990921">
        <ele>814.802883148193359</ele>
        <time>2016-08-26T08:33:28Z</time>
      </trkpt>
      <trkpt lat="46.437373850494623" lon="11.467624045908451">
        <ele>815.097316741943359</ele>
        <time>2016-08-26T08:33:29Z</time>
      </trkpt>
      <trkpt lat="46.437292713671923" lon="11.467586075887084">
        <ele>815.005519866943359</ele>
        <time>2016-08-26T08:33:31Z</time>
      </trkpt>
      <trkpt lat="46.437251474708319" lon="11.467530336230993">
        <ele>815.624660491943359</ele>
        <time>2016-08-26T08:33:33Z</time>
      </trkpt>
      <trkpt lat="46.437208391726017" lon="11.467494545504451">
        <ele>813.836452484130859</ele>
        <time>2016-08-26T08:33:35Z</time>
      </trkpt>
      <trkpt lat="46.437149299308658" lon="11.467501251026988">
        <ele>812.797512054443359</ele>
        <time>2016-08-26T08:33:37Z</time>
      </trkpt>
      <trkpt lat="46.437039664015174" lon="11.46749060600996">
        <ele>811.945217132568359</ele>
        <time>2016-08-26T08:33:39Z</time>
      </trkpt>
      <trkpt lat="46.436958275735378" lon="11.467487420886755">
        <ele>811.136135101318359</ele>
        <time>2016-08-26T08:33:40Z</time>
      </trkpt>
      <trkpt lat="46.436903038993478" lon="11.467467723414302">
        <ele>811.276882171630859</ele>
        <time>2016-08-26T08:33:41Z</time>
      </trkpt>
      <trkpt lat="46.43685718998313" lon="11.467458084225655">
        <ele>811.357082366943359</ele>
        <time>2016-08-26T08:33:42Z</time>
      </trkpt>
      <trkpt lat="46.4368068985641" lon="11.467444337904453">
        <ele>812.182888031005859</ele>
        <time>2016-08-26T08:33:43Z</time>
      </trkpt>
      <trkpt lat="46.436645295470953" lon="11.467385916039348">
        <ele>813.444728851318359</ele>
        <time>2016-08-26T08:33:45Z</time>
      </trkpt>
      <trkpt lat="46.436535073444247" lon="11.467341659590602">
        <ele>814.263820648193359</ele>
        <time>2016-08-26T08:33:46Z</time>
      </trkpt>
      <trkpt lat="46.436447985470295" lon="11.467292876914144">
        <ele>815.411891937255859</ele>
        <time>2016-08-26T08:33:47Z</time>
      </trkpt>
      <trkpt lat="46.436356203630567" lon="11.467281058430672">
        <ele>815.670314788818359</ele>
        <time>2016-08-26T08:33:48Z</time>
      </trkpt>
      <trkpt lat="46.436409428715706" lon="11.467309389263391">
        <ele>816.450832366943359</ele>
        <time>2016-08-26T08:33:49Z</time>
      </trkpt>
      <trkpt lat="46.436219243332744" lon="11.467338474467397">
        <ele>815.838283538818359</ele>
        <time>2016-08-26T08:33:50Z</time>
      </trkpt>
      <trkpt lat="46.436142548918724" lon="11.467415923252702">
        <ele>816.950099945068359</ele>
        <time>2016-08-26T08:33:51Z</time>
      </trkpt>
      <trkpt lat="46.436052694916725" lon="11.46742757409811">
        <ele>816.825344085693359</ele>
        <time>2016-08-26T08:33:52Z</time>
      </trkpt>
      <trkpt lat="46.435938617214561" lon="11.467488091439009">
        <ele>817.242092132568359</ele>
        <time>2016-08-26T08:33:53Z</time>
      </trkpt>
      <trkpt lat="46.43584524281323" lon="11.46758783608675">
        <ele>818.831203460693359</ele>
        <time>2016-08-26T08:33:54Z</time>
      </trkpt>
      <trkpt lat="46.435746671631932" lon="11.467662518844008">
        <ele>819.045803070068359</ele>
        <time>2016-08-26T08:33:55Z</time>
      </trkpt>
      <trkpt lat="46.435695122927427" lon="11.467761592939496">
        <ele>820.143581390380859</ele>
        <time>2016-08-26T08:33:56Z</time>
      </trkpt>
      <trkpt lat="46.435624547302723" lon="11.467863265424967">
        <ele>821.029201507568359</ele>
        <time>2016-08-26T08:33:57Z</time>
      </trkpt>
      <trkpt lat="46.435558749362826" lon="11.467940211296082">
        <ele>821.809963226318359</ele>
        <time>2016-08-26T08:33:58Z</time>
      </trkpt>
      <trkpt lat="46.435511475428939" lon="11.46802612580359">
        <ele>822.591213226318359</ele>
        <time>2016-08-26T08:33:59Z</time>
      </trkpt>
      <trkpt lat="46.435460681095719" lon="11.468113800510764">
        <ele>823.620754241943359</ele>
        <time>2016-08-26T08:34:00Z</time>
      </trkpt>
      <trkpt lat="46.435405109077692" lon="11.468186052516103">
        <ele>823.717433929443359</ele>
        <time>2016-08-26T08:34:01Z</time>
      </trkpt>
      <trkpt lat="46.435324726626277" lon="11.468244139105082">
        <ele>824.197658538818359</ele>
        <time>2016-08-26T08:34:02Z</time>
      </trkpt>
      <trkpt lat="46.435242583975196" lon="11.468306500464678">
        <ele>824.286769866943359</ele>
        <time>2016-08-26T08:34:03Z</time>
      </trkpt>
      <trkpt lat="46.435156334191561" lon="11.468371627852321">
        <ele>824.756374359130859</ele>
        <time>2016-08-26T08:34:04Z</time>
      </trkpt>
      <trkpt lat="46.43508056178689" lon="11.468434073030949">
        <ele>825.266628265380859</ele>
        <time>2016-08-26T08:34:05Z</time>
      </trkpt>
      <trkpt lat="46.435021469369531" lon="11.468503307551146">
        <ele>825.817043304443359</ele>
        <time>2016-08-26T08:34:06Z</time>
      </trkpt>
      <trkpt lat="46.434961874037981" lon="11.468585869297385">
        <ele>826.336574554443359</ele>
        <time>2016-08-26T08:34:07Z</time>
      </trkpt>
      <trkpt lat="46.434898674488068" lon="11.46867211908102">
        <ele>826.453395843505859</ele>
        <time>2016-08-26T08:34:08Z</time>
      </trkpt>
      <trkpt lat="46.434846539050341" lon="11.468749484047294">
        <ele>826.795070648193359</ele>
        <time>2016-08-26T08:34:09Z</time>
      </trkpt>
      <trkpt lat="46.434807982295752" lon="11.468813186511397">
        <ele>826.907863616943359</ele>
        <time>2016-08-26T08:34:10Z</time>
      </trkpt>
      <trkpt lat="46.434775376692414" lon="11.468871189281344">
        <ele>827.616603851318359</ele>
        <time>2016-08-26T08:34:11Z</time>
      </trkpt>
      <trkpt lat="46.434763222932816" lon="11.468936987221241">
        <ele>826.682765960693359</ele>
        <time>2016-08-26T08:34:12Z</time>
      </trkpt>
      <trkpt lat="46.434700945392251" lon="11.469057602807879">
        <ele>825.984279632568359</ele>
        <time>2016-08-26T08:34:14Z</time>
      </trkpt>
      <trkpt lat="46.43466230481863" lon="11.469161538407207">
        <ele>825.894924163818359</ele>
        <time>2016-08-26T08:34:15Z</time>
      </trkpt>
      <trkpt lat="46.434597680345178" lon="11.46927310153842">
        <ele>826.562404632568359</ele>
        <time>2016-08-26T08:34:16Z</time>
      </trkpt>
      <trkpt lat="46.434517633169889" lon="11.469420706853271">
        <ele>825.009426116943359</ele>
        <time>2016-08-26T08:34:17Z</time>
      </trkpt>
      <trkpt lat="46.434433395043015" lon="11.46958926692605">
        <ele>824.767482757568359</ele>
        <time>2016-08-26T08:34:18Z</time>
      </trkpt>
      <trkpt lat="46.434354605153203" lon="11.469771238043904">
        <ele>824.965358734130859</ele>
        <time>2016-08-26T08:34:19Z</time>
      </trkpt>
      <trkpt lat="46.434274893254042" lon="11.469957064837217">
        <ele>825.742336273193359</ele>
        <time>2016-08-26T08:34:20Z</time>
      </trkpt>
      <trkpt lat="46.434211609885097" lon="11.470155799761415">
        <ele>826.353664398193359</ele>
        <time>2016-08-26T08:34:21Z</time>
      </trkpt>
      <trkpt lat="46.434117816388607" lon="11.470339111983776">
        <ele>827.738430023193359</ele>
        <time>2016-08-26T08:34:22Z</time>
      </trkpt>
      <trkpt lat="46.434032572433352" lon="11.470522172749043">
        <ele>828.549587249755859</ele>
        <time>2016-08-26T08:34:23Z</time>
      </trkpt>
      <trkpt lat="46.43395084887743" lon="11.470693834125996">
        <ele>829.554103851318359</ele>
        <time>2016-08-26T08:34:24Z</time>
      </trkpt>
      <trkpt lat="46.433859737589955" lon="11.470863064751029">
        <ele>828.438137054443359</ele>
        <time>2016-08-26T08:34:25Z</time>
      </trkpt>
      <trkpt lat="46.43371632322669" lon="11.471029948443174">
        <ele>831.010402679443359</ele>
        <time>2016-08-26T08:34:26Z</time>
      </trkpt>
      <trkpt lat="46.433607442304492" lon="11.471202448010445">
        <ele>832.266017913818359</ele>
        <time>2016-08-26T08:34:27Z</time>
      </trkpt>
      <trkpt lat="46.433480540290475" lon="11.471363632008433">
        <ele>833.800441741943359</ele>
        <time>2016-08-26T08:34:28Z</time>
      </trkpt>
      <trkpt lat="46.433367636054754" lon="11.471528923138976">
        <ele>833.858303070068359</ele>
        <time>2016-08-26T08:34:29Z</time>
      </trkpt>
      <trkpt lat="46.433253390714526" lon="11.471692370250821">
        <ele>833.748928070068359</ele>
        <time>2016-08-26T08:34:30Z</time>
      </trkpt>
      <trkpt lat="46.433137888088822" lon="11.471846345812082">
        <ele>834.496486663818359</ele>
        <time>2016-08-26T08:34:31Z</time>
      </trkpt>
      <trkpt lat="46.43303663469851" lon="11.472010966390371">
        <ele>834.429470062255859</ele>
        <time>2016-08-26T08:34:32Z</time>
      </trkpt>
      <trkpt lat="46.432943930849433" lon="11.472190925851464">
        <ele>834.432399749755859</ele>
        <time>2016-08-26T08:34:33Z</time>
      </trkpt>
      <trkpt lat="46.432869080454111" lon="11.472389660775661">
        <ele>834.120632171630859</ele>
        <time>2016-08-26T08:34:34Z</time>
      </trkpt>
      <trkpt lat="46.432807305827737" lon="11.472601555287838">
        <ele>835.204860687255859</ele>
        <time>2016-08-26T08:34:35Z</time>
      </trkpt>
      <trkpt lat="46.432762211188674" lon="11.472827531397343">
        <ele>836.559963226318359</ele>
        <time>2016-08-26T08:34:36Z</time>
      </trkpt>
      <trkpt lat="46.432720553129911" lon="11.473068343475461">
        <ele>836.687648773193359</ele>
        <time>2016-08-26T08:34:37Z</time>
      </trkpt>
      <trkpt lat="46.432680655270815" lon="11.473312675952911">
        <ele>836.938503265380859</ele>
        <time>2016-08-26T08:34:38Z</time>
      </trkpt>
      <trkpt lat="46.432624999433756" lon="11.47353689186275">
        <ele>837.077175140380859</ele>
        <time>2016-08-26T08:34:39Z</time>
      </trkpt>
      <trkpt lat="46.432589963078499" lon="11.473759263753891">
        <ele>838.019557952880859</ele>
        <time>2016-08-26T08:34:40Z</time>
      </trkpt>
      <trkpt lat="46.432566242292523" lon="11.473957663401961">
        <ele>837.414821624755859</ele>
        <time>2016-08-26T08:34:41Z</time>
      </trkpt>
      <trkpt lat="46.432543946430087" lon="11.474131671711802">
        <ele>836.903469085693359</ele>
        <time>2016-08-26T08:34:42Z</time>
      </trkpt>
      <trkpt lat="46.432519135996699" lon="11.474292101338506">
        <ele>837.048122406005859</ele>
        <time>2016-08-26T08:34:43Z</time>
      </trkpt>
      <trkpt lat="46.432493906468153" lon="11.474445573985577">
        <ele>837.070217132568359</ele>
        <time>2016-08-26T08:34:44Z</time>
      </trkpt>
      <trkpt lat="46.432442190125585" lon="11.474586892873049">
        <ele>838.685451507568359</ele>
        <time>2016-08-26T08:34:45Z</time>
      </trkpt>
      <trkpt lat="46.432419558987021" lon="11.474754363298416">
        <ele>839.154445648193359</ele>
        <time>2016-08-26T08:34:46Z</time>
      </trkpt>
      <trkpt lat="46.432378906756639" lon="11.474901214241982">
        <ele>840.269435882568359</ele>
        <time>2016-08-26T08:34:47Z</time>
      </trkpt>
      <trkpt lat="46.432335823774338" lon="11.475043622776866">
        <ele>840.586330413818359</ele>
        <time>2016-08-26T08:34:48Z</time>
      </trkpt>
      <trkpt lat="46.432290561497211" lon="11.475186450406909">
        <ele>840.557643890380859</ele>
        <time>2016-08-26T08:34:49Z</time>
      </trkpt>
      <trkpt lat="46.432238593697548" lon="11.475317208096385">
        <ele>840.633815765380859</ele>
        <time>2016-08-26T08:34:50Z</time>
      </trkpt>
      <trkpt lat="46.43218687735498" lon="11.475437739863992">
        <ele>840.522243499755859</ele>
        <time>2016-08-26T08:34:51Z</time>
      </trkpt>
      <trkpt lat="46.432107081636786" lon="11.475546369329095">
        <ele>840.645656585693359</ele>
        <time>2016-08-26T08:34:52Z</time>
      </trkpt>
      <trkpt lat="46.4320148807019" lon="11.475655836984515">
        <ele>841.109767913818359</ele>
        <time>2016-08-26T08:34:53Z</time>
      </trkpt>
      <trkpt lat="46.431932151317596" lon="11.475767651572824">
        <ele>840.581691741943359</ele>
        <time>2016-08-26T08:34:54Z</time>
      </trkpt>
      <trkpt lat="46.431824024766684" lon="11.475874688476324">
        <ele>842.806056976318359</ele>
        <time>2016-08-26T08:34:55Z</time>
      </trkpt>
      <trkpt lat="46.431747833266854" lon="11.475989855825901">
        <ele>842.649562835693359</ele>
        <time>2016-08-26T08:34:56Z</time>
      </trkpt>
      <trkpt lat="46.431654961779714" lon="11.47610267624259">
        <ele>843.439601898193359</ele>
        <time>2016-08-26T08:34:57Z</time>
      </trkpt>
      <trkpt lat="46.431545410305262" lon="11.476215245202184">
        <ele>844.027492523193359</ele>
        <time>2016-08-26T08:34:58Z</time>
      </trkpt>
      <trkpt lat="46.431464189663529" lon="11.476327143609524">
        <ele>844.211330413818359</ele>
        <time>2016-08-26T08:34:59Z</time>
      </trkpt>
      <trkpt lat="46.431378275156021" lon="11.476432671770453">
        <ele>843.485012054443359</ele>
        <time>2016-08-26T08:35:00Z</time>
      </trkpt>
      <trkpt lat="46.431287247687578" lon="11.476531913504004">
        <ele>843.952419281005859</ele>
        <time>2016-08-26T08:35:01Z</time>
      </trkpt>
      <trkpt lat="46.431188257411122" lon="11.476626461371779">
        <ele>844.297267913818359</ele>
        <time>2016-08-26T08:35:02Z</time>
      </trkpt>
      <trkpt lat="46.431081388145685" lon="11.476718997582793">
        <ele>844.132717132568359</ele>
        <time>2016-08-26T08:35:03Z</time>
      </trkpt>
      <trkpt lat="46.430971585214138" lon="11.476808683946729">
        <ele>845.044338226318359</ele>
        <time>2016-08-26T08:35:04Z</time>
      </trkpt>
      <trkpt lat="46.430870583280921" lon="11.476892502978444">
        <ele>845.211818695068359</ele>
        <time>2016-08-26T08:35:05Z</time>
      </trkpt>
      <trkpt lat="46.430741501972079" lon="11.476960312575102">
        <ele>846.156642913818359</ele>
        <time>2016-08-26T08:35:06Z</time>
      </trkpt>
      <trkpt lat="46.43061694689095" lon="11.477025272324681">
        <ele>846.387844085693359</ele>
        <time>2016-08-26T08:35:07Z</time>
      </trkpt>
      <trkpt lat="46.430500103160739" lon="11.477089142426848">
        <ele>846.734279632568359</ele>
        <time>2016-08-26T08:35:08Z</time>
      </trkpt>
      <trkpt lat="46.43038778565824" lon="11.477144798263907">
        <ele>848.387844085693359</ele>
        <time>2016-08-26T08:35:09Z</time>
      </trkpt>
      <trkpt lat="46.430290471762419" lon="11.477208752185106">
        <ele>849.656764984130859</ele>
        <time>2016-08-26T08:35:10Z</time>
      </trkpt>
      <trkpt lat="46.430192152038217" lon="11.477260384708643">
        <ele>852.729640960693359</ele>
        <time>2016-08-26T08:35:11Z</time>
      </trkpt>
      <trkpt lat="46.43008922226727" lon="11.47728611715138">
        <ele>852.980739593505859</ele>
        <time>2016-08-26T08:35:12Z</time>
      </trkpt>
      <trkpt lat="46.429977910593152" lon="11.477327859029174">
        <ele>852.664455413818359</ele>
        <time>2016-08-26T08:35:13Z</time>
      </trkpt>
      <trkpt lat="46.429862910881639" lon="11.477324925363064">
        <ele>853.440822601318359</ele>
        <time>2016-08-26T08:35:14Z</time>
      </trkpt>
      <trkpt lat="46.429744809865952" lon="11.477355100214481">
        <ele>853.477809906005859</ele>
        <time>2016-08-26T08:35:15Z</time>
      </trkpt>
      <trkpt lat="46.429628301411867" lon="11.477386951446533">
        <ele>853.530666351318359</ele>
        <time>2016-08-26T08:35:16Z</time>
      </trkpt>
      <trkpt lat="46.429517576470971" lon="11.477406397461891">
        <ele>854.145168304443359</ele>
        <time>2016-08-26T08:35:17Z</time>
      </trkpt>
      <trkpt lat="46.429410791024566" lon="11.477463478222489">
        <ele>854.333889007568359</ele>
        <time>2016-08-26T08:35:18Z</time>
      </trkpt>
      <trkpt lat="46.429295456036925" lon="11.477508069947362">
        <ele>854.601711273193359</ele>
        <time>2016-08-26T08:35:19Z</time>
      </trkpt>
      <trkpt lat="46.429192693904042" lon="11.477551823481917">
        <ele>855.980129241943359</ele>
        <time>2016-08-26T08:35:20Z</time>
      </trkpt>
      <trkpt lat="46.429070150479674" lon="11.477623991668224">
        <ele>856.023464202880859</ele>
        <time>2016-08-26T08:35:21Z</time>
      </trkpt>
      <trkpt lat="46.428949283435941" lon="11.477661207318306">
        <ele>857.340969085693359</ele>
        <time>2016-08-26T08:35:22Z</time>
      </trkpt>
      <trkpt lat="46.428830260410905" lon="11.477733040228486">
        <ele>857.267971038818359</ele>
        <time>2016-08-26T08:35:23Z</time>
      </trkpt>
      <trkpt lat="46.428708136081696" lon="11.477780397981405">
        <ele>859.008327484130859</ele>
        <time>2016-08-26T08:35:24Z</time>
      </trkpt>
      <trkpt lat="46.428601434454322" lon="11.477847620844841">
        <ele>858.292385101318359</ele>
        <time>2016-08-26T08:35:25Z</time>
      </trkpt>
      <trkpt lat="46.428464222699404" lon="11.477898331359029">
        <ele>859.296779632568359</ele>
        <time>2016-08-26T08:35:26Z</time>
      </trkpt>
      <trkpt lat="46.428331704810262" lon="11.477955244481564">
        <ele>859.400539398193359</ele>
        <time>2016-08-26T08:35:27Z</time>
      </trkpt>
      <trkpt lat="46.428193151950836" lon="11.478022299706936">
        <ele>859.569484710693359</ele>
        <time>2016-08-26T08:35:28Z</time>
      </trkpt>
      <trkpt lat="46.428076308220625" lon="11.478070830926299">
        <ele>860.967922210693359</ele>
        <time>2016-08-26T08:35:29Z</time>
      </trkpt>
      <trkpt lat="46.427964577451348" lon="11.478176778182387">
        <ele>859.951564788818359</ele>
        <time>2016-08-26T08:35:30Z</time>
      </trkpt>
      <trkpt lat="46.427851002663374" lon="11.478287167847157">
        <ele>858.662258148193359</ele>
        <time>2016-08-26T08:35:31Z</time>
      </trkpt>
      <trkpt lat="46.427739774808288" lon="11.47838557139039">
        <ele>860.429347991943359</ele>
        <time>2016-08-26T08:35:32Z</time>
      </trkpt>
      <trkpt lat="46.427632654085755" lon="11.478484561666846">
        <ele>860.934474945068359</ele>
        <time>2016-08-26T08:35:33Z</time>
      </trkpt>
      <trkpt lat="46.427530813962221" lon="11.47856879979372">
        <ele>861.882472991943359</ele>
        <time>2016-08-26T08:35:34Z</time>
      </trkpt>
      <trkpt lat="46.42745059914887" lon="11.478650439530611">
        <ele>862.008449554443359</ele>
        <time>2016-08-26T08:35:35Z</time>
      </trkpt>
      <trkpt lat="46.427361583337188" lon="11.478738617151976">
        <ele>861.928615570068359</ele>
        <time>2016-08-26T08:35:36Z</time>
      </trkpt>
      <trkpt lat="46.427274663001299" lon="11.478823022916913">
        <ele>862.464260101318359</ele>
        <time>2016-08-26T08:35:37Z</time>
      </trkpt>
      <trkpt lat="46.427192939445376" lon="11.478884629905224">
        <ele>862.009548187255859</ele>
        <time>2016-08-26T08:35:38Z</time>
      </trkpt>
      <trkpt lat="46.427116328850389" lon="11.478957384824753">
        <ele>862.049465179443359</ele>
        <time>2016-08-26T08:35:39Z</time>
      </trkpt>
      <trkpt lat="46.427049357444048" lon="11.479017985984683">
        <ele>861.740627288818359</ele>
        <time>2016-08-26T08:35:40Z</time>
      </trkpt>
      <trkpt lat="46.427008956670761" lon="11.479069869965315">
        <ele>860.890041351318359</ele>
        <time>2016-08-26T08:35:41Z</time>
      </trkpt>
      <trkpt lat="46.426963694393635" lon="11.479109181091189">
        <ele>861.979885101318359</ele>
        <time>2016-08-26T08:35:42Z</time>
      </trkpt>
      <trkpt lat="46.426919521763921" lon="11.479152264073491">
        <ele>862.634181976318359</ele>
        <time>2016-08-26T08:35:43Z</time>
      </trkpt>
      <trkpt lat="46.426875600591302" lon="11.479197526350617">
        <ele>861.963771820068359</ele>
        <time>2016-08-26T08:35:44Z</time>
      </trkpt>
      <trkpt lat="46.426831847056746" lon="11.479251002892852">
        <ele>864.393581390380859</ele>
        <time>2016-08-26T08:35:45Z</time>
      </trkpt>
      <trkpt lat="46.426769569516182" lon="11.479301797226071">
        <ele>864.830593109130859</ele>
        <time>2016-08-26T08:35:46Z</time>
      </trkpt>
      <trkpt lat="46.426701927557588" lon="11.479361727833748">
        <ele>864.815578460693359</ele>
        <time>2016-08-26T08:35:47Z</time>
      </trkpt>
      <trkpt lat="46.426622299477458" lon="11.4794194791466">
        <ele>865.264064788818359</ele>
        <time>2016-08-26T08:35:48Z</time>
      </trkpt>
      <trkpt lat="46.4265476167202" lon="11.479480750858784">
        <ele>865.565334320068359</ele>
        <time>2016-08-26T08:35:49Z</time>
      </trkpt>
      <trkpt lat="46.426472179591656" lon="11.479543698951602">
        <ele>865.531887054443359</ele>
        <time>2016-08-26T08:35:50Z</time>
      </trkpt>
      <trkpt lat="46.426404789090157" lon="11.479612598195672">
        <ele>865.806545257568359</ele>
        <time>2016-08-26T08:35:51Z</time>
      </trkpt>
      <trkpt lat="46.426350139081478" lon="11.479683592915535">
        <ele>866.074977874755859</ele>
        <time>2016-08-26T08:35:52Z</time>
      </trkpt>
      <trkpt lat="46.426264978945255" lon="11.479760706424713">
        <ele>866.889308929443359</ele>
        <time>2016-08-26T08:35:53Z</time>
      </trkpt>
      <trkpt lat="46.426180908456445" lon="11.479844860732555">
        <ele>867.814723968505859</ele>
        <time>2016-08-26T08:35:54Z</time>
      </trkpt>
      <trkpt lat="46.426086779683828" lon="11.479934798553586">
        <ele>868.814113616943359</ele>
        <time>2016-08-26T08:35:55Z</time>
      </trkpt>
      <trkpt lat="46.425984771922231" lon="11.480030687525868">
        <ele>869.407131195068359</ele>
        <time>2016-08-26T08:35:56Z</time>
      </trkpt>
      <trkpt lat="46.425862396135926" lon="11.480084918439388">
        <ele>869.810695648193359</ele>
        <time>2016-08-26T08:35:57Z</time>
      </trkpt>
      <trkpt lat="46.425758209079504" lon="11.480174604803324">
        <ele>870.237941741943359</ele>
        <time>2016-08-26T08:35:58Z</time>
      </trkpt>
      <trkpt lat="46.425658045336604" lon="11.480255490168929">
        <ele>870.517360687255859</ele>
        <time>2016-08-26T08:35:59Z</time>
      </trkpt>
      <trkpt lat="46.425560228526592" lon="11.480334028601646">
        <ele>870.986110687255859</ele>
        <time>2016-08-26T08:36:00Z</time>
      </trkpt>
      <trkpt lat="46.42546383664012" lon="11.480418099090457">
        <ele>871.272853851318359</ele>
        <time>2016-08-26T08:36:01Z</time>
      </trkpt>
      <trkpt lat="46.425359649583697" lon="11.480512730777264">
        <ele>872.461330413818359</ele>
        <time>2016-08-26T08:36:02Z</time>
      </trkpt>
      <trkpt lat="46.425280021503568" lon="11.480604512616992">
        <ele>872.711086273193359</ele>
        <time>2016-08-26T08:36:03Z</time>
      </trkpt>
      <trkpt lat="46.425194023177028" lon="11.480678860098124">
        <ele>873.289699554443359</ele>
        <time>2016-08-26T08:36:04Z</time>
      </trkpt>
      <trkpt lat="46.425109785050154" lon="11.480762846767902">
        <ele>873.678371429443359</ele>
        <time>2016-08-26T08:36:05Z</time>
      </trkpt>
      <trkpt lat="46.425027307122946" lon="11.48085555061698">
        <ele>874.996242523193359</ele>
        <time>2016-08-26T08:36:06Z</time>
      </trkpt>
      <trkpt lat="46.424971567466855" lon="11.480970634147525">
        <ele>875.422756195068359</ele>
        <time>2016-08-26T08:36:07Z</time>
      </trkpt>
      <trkpt lat="46.424931585788727" lon="11.481086052954197">
        <ele>875.811672210693359</ele>
        <time>2016-08-26T08:36:08Z</time>
      </trkpt>
      <trkpt lat="46.424895795062184" lon="11.481203148141503">
        <ele>876.633937835693359</ele>
        <time>2016-08-26T08:36:09Z</time>
      </trkpt>
      <trkpt lat="46.424865452572703" lon="11.481328876689076">
        <ele>876.612697601318359</ele>
        <time>2016-08-26T08:36:10Z</time>
      </trkpt>
      <trkpt lat="46.42483645118773" lon="11.481464076787233">
        <ele>876.619045257568359</ele>
        <time>2016-08-26T08:36:11Z</time>
      </trkpt>
      <trkpt lat="46.42480468377471" lon="11.481604306027293">
        <ele>876.942409515380859</ele>
        <time>2016-08-26T08:36:12Z</time>
      </trkpt>
      <trkpt lat="46.42477392219007" lon="11.481748223304749">
        <ele>877.018215179443359</ele>
        <time>2016-08-26T08:36:13Z</time>
      </trkpt>
      <trkpt lat="46.424750871956348" lon="11.481879651546478">
        <ele>877.238307952880859</ele>
        <time>2016-08-26T08:36:14Z</time>
      </trkpt>
      <trkpt lat="46.424740478396416" lon="11.482008984312415">
        <ele>877.174343109130859</ele>
        <time>2016-08-26T08:36:15Z</time>
      </trkpt>
      <trkpt lat="46.424736538901925" lon="11.482130941003561">
        <ele>877.380641937255859</ele>
        <time>2016-08-26T08:36:16Z</time>
      </trkpt>
      <trkpt lat="46.424743914976716" lon="11.482238648459315">
        <ele>877.995265960693359</ele>
        <time>2016-08-26T08:36:17Z</time>
      </trkpt>
      <trkpt lat="46.424799989908934" lon="11.482332944869995">
        <ele>878.472316741943359</ele>
        <time>2016-08-26T08:36:18Z</time>
      </trkpt>
      <trkpt lat="46.424875343218446" lon="11.482468312606215">
        <ele>878.456691741943359</ele>
        <time>2016-08-26T08:36:19Z</time>
      </trkpt>
      <trkpt lat="46.424959162250161" lon="11.482565877959132">
        <ele>878.745632171630859</ele>
        <time>2016-08-26T08:36:20Z</time>
      </trkpt>
      <trkpt lat="46.425037952139974" lon="11.482683811336756">
        <ele>879.267726898193359</ele>
        <time>2016-08-26T08:36:21Z</time>
      </trkpt>
      <trkpt lat="46.425121687352657" lon="11.482785986736417">
        <ele>879.210353851318359</ele>
        <time>2016-08-26T08:36:22Z</time>
      </trkpt>
      <trkpt lat="46.425187736749649" lon="11.482902998104692">
        <ele>880.393947601318359</ele>
        <time>2016-08-26T08:36:23Z</time>
      </trkpt>
      <trkpt lat="46.425267281010747" lon="11.483040293678641">
        <ele>881.201320648193359</ele>
        <time>2016-08-26T08:36:24Z</time>
      </trkpt>
      <trkpt lat="46.425307346507907" lon="11.483181109651923">
        <ele>881.925319671630859</ele>
        <time>2016-08-26T08:36:25Z</time>
      </trkpt>
      <trkpt lat="46.425350429490209" lon="11.483326032757759">
        <ele>882.096828460693359</ele>
        <time>2016-08-26T08:36:26Z</time>
      </trkpt>
      <trkpt lat="46.425375491380692" lon="11.483462490141392">
        <ele>882.638576507568359</ele>
        <time>2016-08-26T08:36:27Z</time>
      </trkpt>
      <trkpt lat="46.425402229651809" lon="11.483621327206492">
        <ele>883.161281585693359</ele>
        <time>2016-08-26T08:36:28Z</time>
      </trkpt>
      <trkpt lat="46.425386806949973" lon="11.483770441263914">
        <ele>883.836574554443359</ele>
        <time>2016-08-26T08:36:29Z</time>
      </trkpt>
      <trkpt lat="46.425238195806742" lon="11.483814530074596">
        <ele>883.224758148193359</ele>
        <time>2016-08-26T08:36:30Z</time>
      </trkpt>
      <trkpt lat="46.425151191651821" lon="11.483900863677263">
        <ele>883.860012054443359</ele>
        <time>2016-08-26T08:36:31Z</time>
      </trkpt>
      <trkpt lat="46.425076592713594" lon="11.483975211158395">
        <ele>884.315822601318359</ele>
        <time>2016-08-26T08:36:32Z</time>
      </trkpt>
      <trkpt lat="46.425045998767018" lon="11.484069926664233">
        <ele>884.514919281005859</ele>
        <time>2016-08-26T08:36:33Z</time>
      </trkpt>
      <trkpt lat="46.425017416477203" lon="11.484189033508301">
        <ele>884.545070648193359</ele>
        <time>2016-08-26T08:36:34Z</time>
      </trkpt>
      <trkpt lat="46.424961257725954" lon="11.484275199472904">
        <ele>884.758815765380859</ele>
        <time>2016-08-26T08:36:35Z</time>
      </trkpt>
      <trkpt lat="46.424939213320613" lon="11.484391540288925">
        <ele>886.130275726318359</ele>
        <time>2016-08-26T08:36:36Z</time>
      </trkpt>
      <trkpt lat="46.424939716234803" lon="11.484556579962373">
        <ele>887.687526702880859</ele>
        <time>2016-08-26T08:36:37Z</time>
      </trkpt>
      <trkpt lat="46.424964275211096" lon="11.484717847779393">
        <ele>889.018337249755859</ele>
        <time>2016-08-26T08:36:38Z</time>
      </trkpt>
      <trkpt lat="46.424957821145654" lon="11.484890347346663">
        <ele>889.662746429443359</ele>
        <time>2016-08-26T08:36:39Z</time>
      </trkpt>
      <trkpt lat="46.424970394000411" lon="11.48506217636168">
        <ele>889.972682952880859</ele>
        <time>2016-08-26T08:36:40Z</time>
      </trkpt>
      <trkpt lat="46.425005095079541" lon="11.485230987891555">
        <ele>891.357570648193359</ele>
        <time>2016-08-26T08:36:41Z</time>
      </trkpt>
      <trkpt lat="46.425053123384714" lon="11.485436595976353">
        <ele>892.528957366943359</ele>
        <time>2016-08-26T08:36:42Z</time>
      </trkpt>
      <trkpt lat="46.425091093406081" lon="11.485644802451134">
        <ele>892.348293304443359</ele>
        <time>2016-08-26T08:36:43Z</time>
      </trkpt>
      <trkpt lat="46.425075083971024" lon="11.4858312997967">
        <ele>892.692043304443359</ele>
        <time>2016-08-26T08:36:44Z</time>
      </trkpt>
      <trkpt lat="46.425044741481543" lon="11.486026849597692">
        <ele>893.140285491943359</ele>
        <time>2016-08-26T08:36:45Z</time>
      </trkpt>
      <trkpt lat="46.424947679042816" lon="11.48624561727047">
        <ele>893.580837249755859</ele>
        <time>2016-08-26T08:36:46Z</time>
      </trkpt>
      <trkpt lat="46.424901327118278" lon="11.486452231183648">
        <ele>892.197902679443359</ele>
        <time>2016-08-26T08:36:47Z</time>
      </trkpt>
      <trkpt lat="46.424840139225125" lon="11.486653564497828">
        <ele>892.097194671630859</ele>
        <time>2016-08-26T08:36:48Z</time>
      </trkpt>
      <trkpt lat="46.424799235537648" lon="11.486856490373611">
        <ele>892.449611663818359</ele>
        <time>2016-08-26T08:36:49Z</time>
      </trkpt>
      <trkpt lat="46.424757409840822" lon="11.487058829516172">
        <ele>894.717922210693359</ele>
        <time>2016-08-26T08:36:50Z</time>
      </trkpt>
      <trkpt lat="46.424711728468537" lon="11.487249601632357">
        <ele>894.455715179443359</ele>
        <time>2016-08-26T08:36:51Z</time>
      </trkpt>
      <trkpt lat="46.424690941348672" lon="11.487464010715485">
        <ele>896.401515960693359</ele>
        <time>2016-08-26T08:36:52Z</time>
      </trkpt>
      <trkpt lat="46.424654396250844" lon="11.487652268260717">
        <ele>897.651027679443359</ele>
        <time>2016-08-26T08:36:53Z</time>
      </trkpt>
      <trkpt lat="46.424617180600762" lon="11.48783465847373">
        <ele>898.141506195068359</ele>
        <time>2016-08-26T08:36:54Z</time>
      </trkpt>
      <trkpt lat="46.424581473693252" lon="11.488023418933153">
        <ele>898.505153656005859</ele>
        <time>2016-08-26T08:36:55Z</time>
      </trkpt>
      <trkpt lat="46.424630843102932" lon="11.488273702561855">
        <ele>896.476222991943359</ele>
        <time>2016-08-26T08:36:56Z</time>
      </trkpt>
      <trkpt lat="46.424625562503934" lon="11.488503953441978">
        <ele>896.474147796630859</ele>
        <time>2016-08-26T08:36:57Z</time>
      </trkpt>
      <trkpt lat="46.424723295494914" lon="11.488710986450315">
        <ele>898.040798187255859</ele>
        <time>2016-08-26T08:36:58Z</time>
      </trkpt>
      <trkpt lat="46.424754979088902" lon="11.488911397755146">
        <ele>900.518947601318359</ele>
        <time>2016-08-26T08:36:59Z</time>
      </trkpt>
      <trkpt lat="46.424683900550008" lon="11.489140307530761">
        <ele>900.878078460693359</ele>
        <time>2016-08-26T08:37:00Z</time>
      </trkpt>
      <trkpt lat="46.424831338226795" lon="11.48936502635479">
        <ele>901.819484710693359</ele>
        <time>2016-08-26T08:37:01Z</time>
      </trkpt>
      <trkpt lat="46.424843994900584" lon="11.489586224779487">
        <ele>902.688381195068359</ele>
        <time>2016-08-26T08:37:02Z</time>
      </trkpt>
      <trkpt lat="46.424933178350329" lon="11.489785127341747">
        <ele>903.430080413818359</ele>
        <time>2016-08-26T08:37:03Z</time>
      </trkpt>
      <trkpt lat="46.424877857789397" lon="11.490042200312018">
        <ele>904.234035491943359</ele>
        <time>2016-08-26T08:37:04Z</time>
      </trkpt>
      <trkpt lat="46.424904596060514" lon="11.490277228876948">
        <ele>904.807033538818359</ele>
        <time>2016-08-26T08:37:05Z</time>
      </trkpt>
      <trkpt lat="46.424949606880546" lon="11.490519214421511">
        <ele>904.391506195068359</ele>
        <time>2016-08-26T08:37:06Z</time>
      </trkpt>
      <trkpt lat="46.42497668042779" lon="11.49073806591332">
        <ele>904.284816741943359</ele>
        <time>2016-08-26T08:37:07Z</time>
      </trkpt>
      <trkpt lat="46.425032587721944" lon="11.490957839414477">
        <ele>904.786281585693359</ele>
        <time>2016-08-26T08:37:08Z</time>
      </trkpt>
      <trkpt lat="46.425054632127285" lon="11.491178618744016">
        <ele>906.667140960693359</ele>
        <time>2016-08-26T08:37:09Z</time>
      </trkpt>
      <trkpt lat="46.425080196931958" lon="11.491419849917293">
        <ele>905.305690765380859</ele>
        <time>2016-08-26T08:37:10Z</time>
      </trkpt>
      <trkpt lat="46.425120430067182" lon="11.491683628410101">
        <ele>906.187038421630859</ele>
        <time>2016-08-26T08:37:11Z</time>
      </trkpt>
      <trkpt lat="46.425143564119935" lon="11.491914382204413">
        <ele>907.887233734130859</ele>
        <time>2016-08-26T08:37:12Z</time>
      </trkpt>
      <trkpt lat="46.425131997093558" lon="11.492163576185703">
        <ele>909.119167327880859</ele>
        <time>2016-08-26T08:37:13Z</time>
      </trkpt>
      <trkpt lat="46.425158651545644" lon="11.492415871471167">
        <ele>910.302639007568359</ele>
        <time>2016-08-26T08:37:14Z</time>
      </trkpt>
      <trkpt lat="46.425198297947645" lon="11.492646457627416">
        <ele>912.477931976318359</ele>
        <time>2016-08-26T08:37:15Z</time>
      </trkpt>
      <trkpt lat="46.425232160836458" lon="11.492872685194016">
        <ele>913.115139007568359</ele>
        <time>2016-08-26T08:37:16Z</time>
      </trkpt>
      <trkpt lat="46.425217743963003" lon="11.493106205016375">
        <ele>913.564113616943359</ele>
        <time>2016-08-26T08:37:17Z</time>
      </trkpt>
      <trkpt lat="46.425212295725942" lon="11.493353554978967">
        <ele>915.039821624755859</ele>
        <time>2016-08-26T08:37:18Z</time>
      </trkpt>
      <trkpt lat="46.425247164443135" lon="11.493595791980624">
        <ele>916.378078460693359</ele>
        <time>2016-08-26T08:37:19Z</time>
      </trkpt>
      <trkpt lat="46.425274321809411" lon="11.493843896314502">
        <ele>916.416164398193359</ele>
        <time>2016-08-26T08:37:20Z</time>
      </trkpt>
      <trkpt lat="46.425267532467842" lon="11.494061574339867">
        <ele>922.221828460693359</ele>
        <time>2016-08-26T08:37:21Z</time>
      </trkpt>
      <trkpt lat="46.425273064523935" lon="11.494319904595613">
        <ele>925.495754241943359</ele>
        <time>2016-08-26T08:37:22Z</time>
      </trkpt>
      <trkpt lat="46.425344226881862" lon="11.494553340598941">
        <ele>926.777736663818359</ele>
        <time>2016-08-26T08:37:23Z</time>
      </trkpt>
      <trkpt lat="46.42532947473228" lon="11.494781244546175">
        <ele>927.645412445068359</ele>
        <time>2016-08-26T08:37:24Z</time>
      </trkpt>
      <trkpt lat="46.425403654575348" lon="11.49500822648406">
        <ele>926.184963226318359</ele>
        <time>2016-08-26T08:37:25Z</time>
      </trkpt>
      <trkpt lat="46.425451431423426" lon="11.495233112946153">
        <ele>925.240139007568359</ele>
        <time>2016-08-26T08:37:26Z</time>
      </trkpt>
      <trkpt lat="46.425484037026763" lon="11.495448863133788">
        <ele>925.896389007568359</ele>
        <time>2016-08-26T08:37:27Z</time>
      </trkpt>
      <trkpt lat="46.425530975684524" lon="11.495648436248302">
        <ele>924.617336273193359</ele>
        <time>2016-08-26T08:37:28Z</time>
      </trkpt>
      <trkpt lat="46.425564419478178" lon="11.495859995484352">
        <ele>923.685207366943359</ele>
        <time>2016-08-26T08:37:29Z</time>
      </trkpt>
      <trkpt lat="46.425597192719579" lon="11.496072141453624">
        <ele>923.404689788818359</ele>
        <time>2016-08-26T08:37:30Z</time>
      </trkpt>
      <trkpt lat="46.425703223794699" lon="11.501302784308791">
        <ele>954.741359710693359</ele>
        <time>2016-08-26T08:37:52Z</time>
      </trkpt>
      <trkpt lat="46.425760304555297" lon="11.501503614708781">
        <ele>952.513446807861328</ele>
        <time>2016-08-26T08:37:53Z</time>
      </trkpt>
      <trkpt lat="46.425856864079833" lon="11.50179379619658">
        <ele>953.774311065673828</ele>
        <time>2016-08-26T08:37:54Z</time>
      </trkpt>
      <trkpt lat="46.425886368378997" lon="11.50206008926034">
        <ele>958.109638214111328</ele>
        <time>2016-08-26T08:37:55Z</time>
      </trkpt>
      <trkpt lat="46.425869520753622" lon="11.502312468364835">
        <ele>958.083759307861328</ele>
        <time>2016-08-26T08:37:56Z</time>
      </trkpt>
      <trkpt lat="46.425985861569643" lon="11.502601811662316">
        <ele>956.354999542236328</ele>
        <time>2016-08-26T08:37:57Z</time>
      </trkpt>
      <trkpt lat="46.425981754437089" lon="11.502893501892686">
        <ele>955.595966339111328</ele>
        <time>2016-08-26T08:37:58Z</time>
      </trkpt>
      <trkpt lat="46.426026513800025" lon="11.503144539892673">
        <ele>956.268085479736328</ele>
        <time>2016-08-26T08:37:59Z</time>
      </trkpt>
      <trkpt lat="46.426027854904532" lon="11.503388285636902">
        <ele>956.217304229736328</ele>
        <time>2016-08-26T08:38:00Z</time>
      </trkpt>
      <trkpt lat="46.42609323374927" lon="11.50366086512804">
        <ele>955.419818878173828</ele>
        <time>2016-08-26T08:38:01Z</time>
      </trkpt>
      <trkpt lat="46.426105052232742" lon="11.5039271581918">
        <ele>959.266132354736328</ele>
        <time>2016-08-26T08:38:02Z</time>
      </trkpt>
      <trkpt lat="46.426141010597348" lon="11.504198145121336">
        <ele>958.324726104736328</ele>
        <time>2016-08-26T08:38:03Z</time>
      </trkpt>
      <trkpt lat="46.426167078316212" lon="11.504447003826499">
        <ele>960.104755401611328</ele>
        <time>2016-08-26T08:38:04Z</time>
      </trkpt>
      <trkpt lat="46.426224661991" lon="11.504686307162046">
        <ele>961.823261260986328</ele>
        <time>2016-08-26T08:38:05Z</time>
      </trkpt>
      <trkpt lat="46.426241174340248" lon="11.504905996844172">
        <ele>961.642353057861328</ele>
        <time>2016-08-26T08:38:06Z</time>
      </trkpt>
      <trkpt lat="46.426281742751598" lon="11.505141276866198">
        <ele>963.899433135986328</ele>
        <time>2016-08-26T08:38:07Z</time>
      </trkpt>
      <trkpt lat="46.426328094676137" lon="11.505365828052163">
        <ele>962.964130401611328</ele>
        <time>2016-08-26T08:38:08Z</time>
      </trkpt>
      <trkpt lat="46.426309905946255" lon="11.505590295419097">
        <ele>962.247821807861328</ele>
        <time>2016-08-26T08:38:09Z</time>
      </trkpt>
      <trkpt lat="46.42632239498198" lon="11.505801267921925">
        <ele>960.962421417236328</ele>
        <time>2016-08-26T08:38:10Z</time>
      </trkpt>
      <trkpt lat="46.426401184871793" lon="11.506026824936271">
        <ele>960.496601104736328</ele>
        <time>2016-08-26T08:38:11Z</time>
      </trkpt>
      <trkpt lat="46.426347959786654" lon="11.506230337545276">
        <ele>966.018573760986328</ele>
        <time>2016-08-26T08:38:12Z</time>
      </trkpt>
      <trkpt lat="46.426345193758607" lon="11.506461845710874">
        <ele>964.035907745361328</ele>
        <time>2016-08-26T08:38:13Z</time>
      </trkpt>
      <trkpt lat="46.426413506269455" lon="11.506679188460112">
        <ele>965.165058135986328</ele>
        <time>2016-08-26T08:38:14Z</time>
      </trkpt>
      <trkpt lat="46.426431778818369" lon="11.506906086578965">
        <ele>969.649555206298828</ele>
        <time>2016-08-26T08:38:15Z</time>
      </trkpt>
      <trkpt lat="46.426375536248088" lon="11.507083112373948">
        <ele>970.318500518798828</ele>
        <time>2016-08-26T08:38:16Z</time>
      </trkpt>
      <trkpt lat="46.426286520436406" lon="11.507233818992972">
        <ele>970.297626495361328</ele>
        <time>2016-08-26T08:38:17Z</time>
      </trkpt>
      <trkpt lat="46.426136316731572" lon="11.507356278598309">
        <ele>969.467426300048828</ele>
        <time>2016-08-26T08:38:18Z</time>
      </trkpt>
      <trkpt lat="46.426004217937589" lon="11.507492903620005">
        <ele>969.240497589111328</ele>
        <time>2016-08-26T08:38:19Z</time>
      </trkpt>
      <trkpt lat="46.425987370312214" lon="11.507688788697124">
        <ele>969.259662628173828</ele>
        <time>2016-08-26T08:38:20Z</time>
      </trkpt>
      <trkpt lat="46.42594269476831" lon="11.507881237193942">
        <ele>969.715595245361328</ele>
        <time>2016-08-26T08:38:21Z</time>
      </trkpt>
      <trkpt lat="46.426004888489842" lon="11.508101848885417">
        <ele>972.019550323486328</ele>
        <time>2016-08-26T08:38:22Z</time>
      </trkpt>
      <trkpt lat="46.425978820770979" lon="11.508300835266709">
        <ele>973.337909698486328</ele>
        <time>2016-08-26T08:38:23Z</time>
      </trkpt>
      <trkpt lat="46.425955351442099" lon="11.508493032306433">
        <ele>975.578998565673828</ele>
        <time>2016-08-26T08:38:24Z</time>
      </trkpt>
      <trkpt lat="46.425889888778329" lon="11.508654803037643">
        <ele>976.513080596923828</ele>
        <time>2016-08-26T08:38:25Z</time>
      </trkpt>
      <trkpt lat="46.425967756658792" lon="11.508864602074027">
        <ele>976.279315948486328</ele>
        <time>2016-08-26T08:38:26Z</time>
      </trkpt>
      <trkpt lat="46.425914280116558" lon="11.509014386683702">
        <ele>976.620014190673828</ele>
        <time>2016-08-26T08:38:27Z</time>
      </trkpt>
      <trkpt lat="46.426017126068473" lon="11.509133242070675">
        <ele>978.845722198486328</ele>
        <time>2016-08-26T08:38:28Z</time>
      </trkpt>
      <trkpt lat="46.426037745550275" lon="11.509246816858649">
        <ele>979.039569854736328</ele>
        <time>2016-08-26T08:38:29Z</time>
      </trkpt>
      <trkpt lat="46.4260726980865" lon="11.509408168494701">
        <ele>978.190082550048828</ele>
        <time>2016-08-26T08:38:30Z</time>
      </trkpt>
      <trkpt lat="46.426025507971644" lon="11.509540937840939">
        <ele>980.553119659423828</ele>
        <time>2016-08-26T08:38:31Z</time>
      </trkpt>
      <trkpt lat="46.425931127741933" lon="11.509686531499028">
        <ele>981.389667510986328</ele>
        <time>2016-08-26T08:38:32Z</time>
      </trkpt>
      <trkpt lat="46.42584890127182" lon="11.509799603372812">
        <ele>979.779682159423828</ele>
        <time>2016-08-26T08:38:33Z</time>
      </trkpt>
      <trkpt lat="46.425796011462808" lon="11.509903706610203">
        <ele>979.123920440673828</ele>
        <time>2016-08-26T08:38:34Z</time>
      </trkpt>
      <trkpt lat="46.425717892125249" lon="11.510010408237576">
        <ele>977.834613800048828</ele>
        <time>2016-08-26T08:38:35Z</time>
      </trkpt>
      <trkpt lat="46.425691908225417" lon="11.510141668841243">
        <ele>980.631977081298828</ele>
        <time>2016-08-26T08:38:36Z</time>
      </trkpt>
      <trkpt lat="46.425697859376669" lon="11.510274019092321">
        <ele>985.589984893798828</ele>
        <time>2016-08-26T08:38:37Z</time>
      </trkpt>
      <trkpt lat="46.425671875476837" lon="11.5104063693434">
        <ele>985.721576690673828</ele>
        <time>2016-08-26T08:38:38Z</time>
      </trkpt>
      <trkpt lat="46.425640778616071" lon="11.51055296882987">
        <ele>986.548847198486328</ele>
        <time>2016-08-26T08:38:39Z</time>
      </trkpt>
      <trkpt lat="46.42564027570188" lon="11.510745082050562">
        <ele>987.281391143798828</ele>
        <time>2016-08-26T08:38:40Z</time>
      </trkpt>
      <trkpt lat="46.425705319270492" lon="11.510957144200802">
        <ele>986.548725128173828</ele>
        <time>2016-08-26T08:38:41Z</time>
      </trkpt>
      <trkpt lat="46.425680425018072" lon="11.511141797527671">
        <ele>988.316547393798828</ele>
        <time>2016-08-26T08:38:42Z</time>
      </trkpt>
      <trkpt lat="46.425751252099872" lon="11.51134698651731">
        <ele>991.303363800048828</ele>
        <time>2016-08-26T08:38:43Z</time>
      </trkpt>
      <trkpt lat="46.425856109708548" lon="11.511563574895263">
        <ele>992.529926300048828</ele>
        <time>2016-08-26T08:38:44Z</time>
      </trkpt>
      <trkpt lat="46.42591679468751" lon="11.511758537963033">
        <ele>1001.498920440674055</ele>
        <time>2016-08-26T08:38:45Z</time>
      </trkpt>
      <trkpt lat="46.425990974530578" lon="11.511966492980719">
        <ele>1002.813617706299055</ele>
        <time>2016-08-26T08:38:46Z</time>
      </trkpt>
      <trkpt lat="46.42596616409719" lon="11.512144524604082">
        <ele>1004.020282745360987</ele>
        <time>2016-08-26T08:38:47Z</time>
      </trkpt>
      <trkpt lat="46.425999524071813" lon="11.512363292276859">
        <ele>1004.870136260985987</ele>
        <time>2016-08-26T08:38:48Z</time>
      </trkpt>
      <trkpt lat="46.425938168540597" lon="11.512516345828772">
        <ele>1007.118061065674055</ele>
        <time>2016-08-26T08:38:49Z</time>
      </trkpt>
      <trkpt lat="46.426039086654782" lon="11.512744249776006">
        <ele>1007.976337432860987</ele>
        <time>2016-08-26T08:38:50Z</time>
      </trkpt>
      <trkpt lat="46.425978485494852" lon="11.512922951951623">
        <ele>1009.060443878174055</ele>
        <time>2016-08-26T08:38:51Z</time>
      </trkpt>
      <trkpt lat="46.425919141620398" lon="11.513132080435753">
        <ele>1009.466205596924055</ele>
        <time>2016-08-26T08:38:52Z</time>
      </trkpt>
      <trkpt lat="46.425873711705208" lon="11.513307513669133">
        <ele>1010.113788604735987</ele>
        <time>2016-08-26T08:38:53Z</time>
      </trkpt>
      <trkpt lat="46.425746558234096" lon="11.513489903882146">
        <ele>1010.429584503174055</ele>
        <time>2016-08-26T08:38:54Z</time>
      </trkpt>
      <trkpt lat="46.42564220353961" lon="11.51366407983005">
        <ele>1010.953876495360987</ele>
        <time>2016-08-26T08:38:55Z</time>
      </trkpt>
      <trkpt lat="46.425622506067157" lon="11.513848314061761">
        <ele>1010.721820831299055</ele>
        <time>2016-08-26T08:38:56Z</time>
      </trkpt>
      <trkpt lat="46.425578584894538" lon="11.514038750901818">
        <ele>1010.021137237549055</ele>
        <time>2016-08-26T08:38:57Z</time>
      </trkpt>
      <trkpt lat="46.425521420314908" lon="11.514233546331525">
        <ele>1008.139911651610987</ele>
        <time>2016-08-26T08:38:58Z</time>
      </trkpt>
      <trkpt lat="46.425593504682183" lon="11.514473268762231">
        <ele>1006.398334503174055</ele>
        <time>2016-08-26T08:38:59Z</time>
      </trkpt>
      <trkpt lat="46.425556791946292" lon="11.514688851311803">
        <ele>1009.636127471924055</ele>
        <time>2016-08-26T08:39:00Z</time>
      </trkpt>
      <trkpt lat="46.425456879660487" lon="11.514894794672728">
        <ele>1008.323261260985987</ele>
        <time>2016-08-26T08:39:01Z</time>
      </trkpt>
      <trkpt lat="46.425483282655478" lon="11.515148179605603">
        <ele>1010.388935089110987</ele>
        <time>2016-08-26T08:39:02Z</time>
      </trkpt>
      <trkpt lat="46.425471128895879" lon="11.515413047745824">
        <ele>1012.453632354735987</ele>
        <time>2016-08-26T08:39:03Z</time>
      </trkpt>
      <trkpt lat="46.425375826656818" lon="11.515632653608918">
        <ele>1010.776508331299055</ele>
        <time>2016-08-26T08:39:04Z</time>
      </trkpt>
      <trkpt lat="46.425337186083198" lon="11.51587120257318">
        <ele>1009.782489776610987</ele>
        <time>2016-08-26T08:39:05Z</time>
      </trkpt>
      <trkpt lat="46.425442043691874" lon="11.516107907518744">
        <ele>1009.881610870360987</ele>
        <time>2016-08-26T08:39:06Z</time>
      </trkpt>
      <trkpt lat="46.42540080472827" lon="11.516314940527081">
        <ele>1010.991840362549055</ele>
        <time>2016-08-26T08:39:07Z</time>
      </trkpt>
      <trkpt lat="46.425394769757986" lon="11.516495821997523">
        <ele>1011.174091339110987</ele>
        <time>2016-08-26T08:39:08Z</time>
      </trkpt>
      <trkpt lat="46.425343304872513" lon="11.51667301543057">
        <ele>1010.146381378174055</ele>
        <time>2016-08-26T08:39:09Z</time>
      </trkpt>
      <trkpt lat="46.425371468067169" lon="11.516892537474632">
        <ele>1011.249530792235987</ele>
        <time>2016-08-26T08:39:10Z</time>
      </trkpt>
      <trkpt lat="46.425353782251477" lon="11.517083896324039">
        <ele>1011.987934112549055</ele>
        <time>2016-08-26T08:39:11Z</time>
      </trkpt>
      <trkpt lat="46.425352357327938" lon="11.517282379791141">
        <ele>1015.876972198485987</ele>
        <time>2016-08-26T08:39:12Z</time>
      </trkpt>
      <trkpt lat="46.425348166376352" lon="11.517480025067925">
        <ele>1017.578754425049055</ele>
        <time>2016-08-26T08:39:13Z</time>
      </trkpt>
      <trkpt lat="46.425385046750307" lon="11.517664007842541">
        <ele>1017.077777862549055</ele>
        <time>2016-08-26T08:39:14Z</time>
      </trkpt>
      <trkpt lat="46.425465010106564" lon="11.517941281199455">
        <ele>1016.944721221924055</ele>
        <time>2016-08-26T08:39:15Z</time>
      </trkpt>
      <trkpt lat="46.425497196614742" lon="11.518180249258876">
        <ele>1016.661762237549055</ele>
        <time>2016-08-26T08:39:16Z</time>
      </trkpt>
      <trkpt lat="46.4255356695503" lon="11.518379403278232">
        <ele>1017.611469268799055</ele>
        <time>2016-08-26T08:39:17Z</time>
      </trkpt>
      <trkpt lat="46.425627702847123" lon="11.518603703007102">
        <ele>1034.922992706299055</ele>
        <time>2016-08-26T08:39:18Z</time>
      </trkpt>
      <trkpt lat="46.425914196297526" lon="11.518824733793736">
        <ele>1031.982196807861101</ele>
        <time>2016-08-26T08:39:19Z</time>
      </trkpt>
      <trkpt lat="46.426042271777987" lon="11.51901550590992">
        <ele>1036.018451690674055</ele>
        <time>2016-08-26T08:39:20Z</time>
      </trkpt>
      <trkpt lat="46.426101112738252" lon="11.519104605540633">
        <ele>1038.016742706299055</ele>
        <time>2016-08-26T08:39:21Z</time>
      </trkpt>
      <trkpt lat="46.426191469654441" lon="11.519290180876851">
        <ele>1037.808979034424055</ele>
        <time>2016-08-26T08:39:22Z</time>
      </trkpt>
      <trkpt lat="46.426254333928227" lon="11.519447173923254">
        <ele>1037.633808135986101</ele>
        <time>2016-08-26T08:39:23Z</time>
      </trkpt>
      <trkpt lat="46.426271265372634" lon="11.519677760079503">
        <ele>1034.819721221924055</ele>
        <time>2016-08-26T08:39:24Z</time>
      </trkpt>
      <trkpt lat="46.426322059705853" lon="11.519852438941598">
        <ele>1032.880268096924055</ele>
        <time>2016-08-26T08:39:25Z</time>
      </trkpt>
      <trkpt lat="46.426403615623713" lon="11.520010940730572">
        <ele>1034.050800323486101</ele>
        <time>2016-08-26T08:39:26Z</time>
      </trkpt>
      <trkpt lat="46.426491122692823" lon="11.52012811973691">
        <ele>1040.428607940674055</ele>
        <time>2016-08-26T08:39:27Z</time>
      </trkpt>
      <trkpt lat="46.426550298929214" lon="11.520289639011025">
        <ele>1040.454975128174055</ele>
        <time>2016-08-26T08:39:28Z</time>
      </trkpt>
      <trkpt lat="46.42653345130384" lon="11.520437244325876">
        <ele>1040.297016143799055</ele>
        <time>2016-08-26T08:39:29Z</time>
      </trkpt>
      <trkpt lat="46.426564129069448" lon="11.520599517971277">
        <ele>1040.659687042236101</ele>
        <time>2016-08-26T08:39:30Z</time>
      </trkpt>
      <trkpt lat="46.426475783810019" lon="11.520757433027029">
        <ele>1040.774311065674055</ele>
        <time>2016-08-26T08:39:31Z</time>
      </trkpt>
      <trkpt lat="46.426448542624712" lon="11.520925406366587">
        <ele>1040.787860870361101</ele>
        <time>2016-08-26T08:39:32Z</time>
      </trkpt>
      <trkpt lat="46.426433874294162" lon="11.521092541515827">
        <ele>1041.901996612549055</ele>
        <time>2016-08-26T08:39:33Z</time>
      </trkpt>
      <trkpt lat="46.426443597301841" lon="11.521327821537852">
        <ele>1041.987812042236101</ele>
        <time>2016-08-26T08:39:34Z</time>
      </trkpt>
      <trkpt lat="46.426425408571959" lon="11.521501997485757">
        <ele>1041.315692901611101</ele>
        <time>2016-08-26T08:39:35Z</time>
      </trkpt>
      <trkpt lat="46.426382409408689" lon="11.521694445982575">
        <ele>1041.213520050049055</ele>
        <time>2016-08-26T08:39:36Z</time>
      </trkpt>
      <trkpt lat="46.426425660029054" lon="11.521900808438659">
        <ele>1040.465229034424055</ele>
        <time>2016-08-26T08:39:37Z</time>
      </trkpt>
      <trkpt lat="46.426431192085147" lon="11.522114044055343">
        <ele>1043.677387237549055</ele>
        <time>2016-08-26T08:39:38Z</time>
      </trkpt>
      <trkpt lat="46.426434880122542" lon="11.522289980202913">
        <ele>1046.091815948486101</ele>
        <time>2016-08-26T08:39:39Z</time>
      </trkpt>
      <trkpt lat="46.426453990861773" lon="11.522491984069347">
        <ele>1047.156513214111101</ele>
        <time>2016-08-26T08:39:40Z</time>
      </trkpt>
      <trkpt lat="46.42643965780735" lon="11.522688623517752">
        <ele>1046.421894073486101</ele>
        <time>2016-08-26T08:39:41Z</time>
      </trkpt>
      <trkpt lat="46.426474945619702" lon="11.522859949618578">
        <ele>1049.976581573486101</ele>
        <time>2016-08-26T08:39:42Z</time>
      </trkpt>
      <trkpt lat="46.42658332362771" lon="11.523009063676">
        <ele>1052.218769073486101</ele>
        <time>2016-08-26T08:39:43Z</time>
      </trkpt>
      <trkpt lat="46.426686085760593" lon="11.523115346208215">
        <ele>1053.623920440674055</ele>
        <time>2016-08-26T08:39:44Z</time>
      </trkpt>
      <trkpt lat="46.426860764622688" lon="11.523299999535084">
        <ele>1055.872577667236101</ele>
        <time>2016-08-26T08:39:45Z</time>
      </trkpt>
      <trkpt lat="46.426899740472436" lon="11.523441653698683">
        <ele>1055.883930206299055</ele>
        <time>2016-08-26T08:39:46Z</time>
      </trkpt>
      <trkpt lat="46.426933435723186" lon="11.523638712242246">
        <ele>1055.998188018799055</ele>
        <time>2016-08-26T08:39:47Z</time>
      </trkpt>
      <trkpt lat="46.426923628896475" lon="11.523808110505342">
        <ele>1056.381488800049055</ele>
        <time>2016-08-26T08:39:48Z</time>
      </trkpt>
      <trkpt lat="46.426817765459418" lon="11.523977341130376">
        <ele>1056.261615753174055</ele>
        <time>2016-08-26T08:39:49Z</time>
      </trkpt>
      <trkpt lat="46.426834613084793" lon="11.524134417995811">
        <ele>1056.193866729736101</ele>
        <time>2016-08-26T08:39:50Z</time>
      </trkpt>
      <trkpt lat="46.426798067986965" lon="11.524263918399811">
        <ele>1056.182270050049055</ele>
        <time>2016-08-26T08:39:51Z</time>
      </trkpt>
      <trkpt lat="46.426750458776951" lon="11.52438604272902">
        <ele>1056.279804229736101</ele>
        <time>2016-08-26T08:39:52Z</time>
      </trkpt>
      <trkpt lat="46.426693294197321" lon="11.524519398808479">
        <ele>1056.491474151611101</ele>
        <time>2016-08-26T08:39:53Z</time>
      </trkpt>
      <trkpt lat="46.426776275038719" lon="11.524665160104632">
        <ele>1057.041400909424055</ele>
        <time>2016-08-26T08:39:54Z</time>
      </trkpt>
      <trkpt lat="46.426796140149236" lon="11.524802455678582">
        <ele>1058.018329620361101</ele>
        <time>2016-08-26T08:39:55Z</time>
      </trkpt>
      <trkpt lat="46.426841989159584" lon="11.524946456775069">
        <ele>1059.164203643799055</ele>
        <time>2016-08-26T08:39:56Z</time>
      </trkpt>
      <trkpt lat="46.426880965009332" lon="11.525056008249521">
        <ele>1057.581928253174055</ele>
        <time>2016-08-26T08:39:57Z</time>
      </trkpt>
      <trkpt lat="46.426908625289798" lon="11.525187101215124">
        <ele>1056.944355010986101</ele>
        <time>2016-08-26T08:39:58Z</time>
      </trkpt>
      <trkpt lat="46.426930166780949" lon="11.525321546941996">
        <ele>1060.204975128174055</ele>
        <time>2016-08-26T08:39:59Z</time>
      </trkpt>
      <trkpt lat="46.426936369389296" lon="11.525457501411438">
        <ele>1061.001483917236101</ele>
        <time>2016-08-26T08:40:00Z</time>
      </trkpt>
      <trkpt lat="46.426953049376607" lon="11.525603430345654">
        <ele>1060.898578643799055</ele>
        <time>2016-08-26T08:40:01Z</time>
      </trkpt>
      <trkpt lat="46.426951624453068" lon="11.525740055367351">
        <ele>1060.941303253174055</ele>
        <time>2016-08-26T08:40:02Z</time>
      </trkpt>
      <trkpt lat="46.426973165944219" lon="11.525860587134957">
        <ele>1061.525409698486101</ele>
        <time>2016-08-26T08:40:03Z</time>
      </trkpt>
      <trkpt lat="46.426988840103149" lon="11.525997631251812">
        <ele>1061.787006378174055</ele>
        <time>2016-08-26T08:40:04Z</time>
      </trkpt>
      <trkpt lat="46.426984397694468" lon="11.526112882420421">
        <ele>1062.359027862549055</ele>
        <time>2016-08-26T08:40:05Z</time>
      </trkpt>
      <trkpt lat="46.427022870630026" lon="11.526197791099548">
        <ele>1062.324604034424055</ele>
        <time>2016-08-26T08:40:06Z</time>
      </trkpt>
      <trkpt lat="46.427037119865417" lon="11.526302564889193">
        <ele>1062.692157745361101</ele>
        <time>2016-08-26T08:40:07Z</time>
      </trkpt>
      <trkpt lat="46.427069390192628" lon="11.526461485773325">
        <ele>1063.280048370361101</ele>
        <time>2016-08-26T08:40:08Z</time>
      </trkpt>
      <trkpt lat="46.427124459296465" lon="11.526621161028743">
        <ele>1064.683734893799055</ele>
        <time>2016-08-26T08:40:09Z</time>
      </trkpt>
      <trkpt lat="46.427167626097798" lon="11.526784356683493">
        <ele>1065.172260284424055</ele>
        <time>2016-08-26T08:40:10Z</time>
      </trkpt>
      <trkpt lat="46.42719998024404" lon="11.526966243982315">
        <ele>1065.247211456299055</ele>
        <time>2016-08-26T08:40:11Z</time>
      </trkpt>
      <trkpt lat="46.427224203944206" lon="11.527160536497831">
        <ele>1065.077411651611101</ele>
        <time>2016-08-26T08:40:12Z</time>
      </trkpt>
      <trkpt lat="46.427202578634024" lon="11.527328006923199">
        <ele>1064.437274932861101</ele>
        <time>2016-08-26T08:40:13Z</time>
      </trkpt>
      <trkpt lat="46.427276423200965" lon="11.527504110708833">
        <ele>1064.757343292236101</ele>
        <time>2016-08-26T08:40:14Z</time>
      </trkpt>
      <trkpt lat="46.427297713235021" lon="11.527676777914166">
        <ele>1067.029926300049055</ele>
        <time>2016-08-26T08:40:15Z</time>
      </trkpt>
      <trkpt lat="46.427337024360895" lon="11.527853971347213">
        <ele>1067.813495635986101</ele>
        <time>2016-08-26T08:40:16Z</time>
      </trkpt>
      <trkpt lat="46.427381867542863" lon="11.528038624674082">
        <ele>1069.079242706299055</ele>
        <time>2016-08-26T08:40:17Z</time>
      </trkpt>
      <trkpt lat="46.427422855049372" lon="11.528215650469065">
        <ele>1070.115985870361101</ele>
        <time>2016-08-26T08:40:18Z</time>
      </trkpt>
      <trkpt lat="46.427474236115813" lon="11.528399381786585">
        <ele>1072.417499542236101</ele>
        <time>2016-08-26T08:40:19Z</time>
      </trkpt>
      <trkpt lat="46.427516397088766" lon="11.528588142246008">
        <ele>1072.282611846924055</ele>
        <time>2016-08-26T08:40:20Z</time>
      </trkpt>
      <trkpt lat="46.427552187815309" lon="11.528772125020623">
        <ele>1074.092060089111101</ele>
        <time>2016-08-26T08:40:21Z</time>
      </trkpt>
      <trkpt lat="46.42760256305337" lon="11.528938421979547">
        <ele>1074.577533721924055</ele>
        <time>2016-08-26T08:40:22Z</time>
      </trkpt>
      <trkpt lat="46.427653692662716" lon="11.529109915718436">
        <ele>1075.126117706299055</ele>
        <time>2016-08-26T08:40:23Z</time>
      </trkpt>
      <trkpt lat="46.427696440368891" lon="11.529264813289046">
        <ele>1075.598529815674055</ele>
        <time>2016-08-26T08:40:24Z</time>
      </trkpt>
      <trkpt lat="46.427741032093763" lon="11.529418956488371">
        <ele>1076.105609893799055</ele>
        <time>2016-08-26T08:40:25Z</time>
      </trkpt>
      <trkpt lat="46.427768860012293" lon="11.529570752754807">
        <ele>1076.590106964111101</ele>
        <time>2016-08-26T08:40:26Z</time>
      </trkpt>
      <trkpt lat="46.427803812548518" lon="11.529728416353464">
        <ele>1075.747577667236101</ele>
        <time>2016-08-26T08:40:27Z</time>
      </trkpt>
      <trkpt lat="46.427847146987915" lon="11.529919691383839">
        <ele>1075.210346221924055</ele>
        <time>2016-08-26T08:40:28Z</time>
      </trkpt>
      <trkpt lat="46.427794173359871" lon="11.530074588954449">
        <ele>1078.561054229736101</ele>
        <time>2016-08-26T08:40:29Z</time>
      </trkpt>
      <trkpt lat="46.427682358771563" lon="11.530130747705698">
        <ele>1079.059833526611101</ele>
        <time>2016-08-26T08:40:30Z</time>
      </trkpt>
      <trkpt lat="46.427672803401947" lon="11.530264019966125">
        <ele>1082.315937042236101</ele>
        <time>2016-08-26T08:40:31Z</time>
      </trkpt>
      <trkpt lat="46.427654279395938" lon="11.530410619452596">
        <ele>1078.396991729736101</ele>
        <time>2016-08-26T08:40:32Z</time>
      </trkpt>
      <trkpt lat="46.427626786753535" lon="11.53052662499249">
        <ele>1078.526264190674055</ele>
        <time>2016-08-26T08:40:33Z</time>
      </trkpt>
      <trkpt lat="46.4276372641325" lon="11.530670206993818">
        <ele>1079.531147003174055</ele>
        <time>2016-08-26T08:40:34Z</time>
      </trkpt>
      <trkpt lat="46.427706414833665" lon="11.53083449229598">
        <ele>1079.423236846924055</ele>
        <time>2016-08-26T08:40:35Z</time>
      </trkpt>
      <trkpt lat="46.427770955488086" lon="11.531012523919344">
        <ele>1079.982318878174055</ele>
        <time>2016-08-26T08:40:36Z</time>
      </trkpt>
      <trkpt lat="46.427791658788919" lon="11.531191729009151">
        <ele>1078.596820831299055</ele>
        <time>2016-08-26T08:40:37Z</time>
      </trkpt>
      <trkpt lat="46.427800208330154" lon="11.531357858330011">
        <ele>1077.230609893799055</ele>
        <time>2016-08-26T08:40:38Z</time>
      </trkpt>
      <trkpt lat="46.427805824205279" lon="11.531534967944026">
        <ele>1079.650775909424055</ele>
        <time>2016-08-26T08:40:39Z</time>
      </trkpt>
      <trkpt lat="46.427827533334494" lon="11.531730936840177">
        <ele>1079.935810089111101</ele>
        <time>2016-08-26T08:40:40Z</time>
      </trkpt>
      <trkpt lat="46.427851170301437" lon="11.531936461105943">
        <ele>1080.365253448486101</ele>
        <time>2016-08-26T08:40:41Z</time>
      </trkpt>
      <trkpt lat="46.427837423980236" lon="11.532133100554347">
        <ele>1081.763080596924055</ele>
        <time>2016-08-26T08:40:42Z</time>
      </trkpt>
      <trkpt lat="46.427814206108451" lon="11.532340804114938">
        <ele>1083.729999542236101</ele>
        <time>2016-08-26T08:40:43Z</time>
      </trkpt>
      <trkpt lat="46.42780926078558" lon="11.532552279531956">
        <ele>1084.898578643799055</ele>
        <time>2016-08-26T08:40:44Z</time>
      </trkpt>
      <trkpt lat="46.42778042703867" lon="11.532762330025434">
        <ele>1085.539691925049055</ele>
        <time>2016-08-26T08:40:45Z</time>
      </trkpt>
      <trkpt lat="46.427784198895097" lon="11.532973637804389">
        <ele>1085.314960479736101</ele>
        <time>2016-08-26T08:40:46Z</time>
      </trkpt>
      <trkpt lat="46.42775310203433" lon="11.533165499567986">
        <ele>1083.689594268799055</ele>
        <time>2016-08-26T08:40:47Z</time>
      </trkpt>
      <trkpt lat="46.427792496979237" lon="11.533355433493853">
        <ele>1082.578998565674055</ele>
        <time>2016-08-26T08:40:48Z</time>
      </trkpt>
      <trkpt lat="46.427773889154196" lon="11.533550312742591">
        <ele>1084.919086456299055</ele>
        <time>2016-08-26T08:40:49Z</time>
      </trkpt>
      <trkpt lat="46.427742373198271" lon="11.533733708783984">
        <ele>1084.844013214111101</ele>
        <time>2016-08-26T08:40:50Z</time>
      </trkpt>
      <trkpt lat="46.427697446197271" lon="11.533921798691154">
        <ele>1086.165302276611101</ele>
        <time>2016-08-26T08:40:51Z</time>
      </trkpt>
      <trkpt lat="46.427655536681414" lon="11.534098153933883">
        <ele>1086.475116729736101</ele>
        <time>2016-08-26T08:40:52Z</time>
      </trkpt>
      <trkpt lat="46.427616644650698" lon="11.53426612727344">
        <ele>1086.091815948486101</ele>
        <time>2016-08-26T08:40:53Z</time>
      </trkpt>
      <trkpt lat="46.427628630772233" lon="11.534440470859408">
        <ele>1086.959735870361101</ele>
        <time>2016-08-26T08:40:54Z</time>
      </trkpt>
      <trkpt lat="46.427629049867392" lon="11.534612970426679">
        <ele>1087.681171417236101</ele>
        <time>2016-08-26T08:40:55Z</time>
      </trkpt>
      <trkpt lat="46.427640784531832" lon="11.534792175516486">
        <ele>1088.601215362549055</ele>
        <time>2016-08-26T08:40:56Z</time>
      </trkpt>
      <trkpt lat="46.427674228325486" lon="11.534978756681085">
        <ele>1089.100238800049055</ele>
        <time>2016-08-26T08:40:57Z</time>
      </trkpt>
      <trkpt lat="46.427693925797939" lon="11.535143796354532">
        <ele>1090.021137237549055</ele>
        <time>2016-08-26T08:40:58Z</time>
      </trkpt>
      <trkpt lat="46.427735919132829" lon="11.535313781350851">
        <ele>1090.221210479736101</ele>
        <time>2016-08-26T08:40:59Z</time>
      </trkpt>
      <trkpt lat="46.427750252187252" lon="11.535438001155853">
        <ele>1091.493549346924055</ele>
        <time>2016-08-26T08:41:00Z</time>
      </trkpt>
      <trkpt lat="46.427743881940842" lon="11.535529363900423">
        <ele>1091.769672393799055</ele>
        <time>2016-08-26T08:41:01Z</time>
      </trkpt>
      <trkpt lat="46.427758047357202" lon="11.535627348348498">
        <ele>1092.157733917236101</ele>
        <time>2016-08-26T08:41:02Z</time>
      </trkpt>
      <trkpt lat="46.427765758708119" lon="11.535713598132133">
        <ele>1093.206439971924055</ele>
        <time>2016-08-26T08:41:03Z</time>
      </trkpt>
      <trkpt lat="46.427760813385248" lon="11.535809822380543">
        <ele>1093.075458526611101</ele>
        <time>2016-08-26T08:41:05Z</time>
      </trkpt>
      <trkpt lat="46.427763411775231" lon="11.535698091611266">
        <ele>1094.157611846924055</ele>
        <time>2016-08-26T08:41:08Z</time>
      </trkpt>
      <trkpt lat="46.427726866677403" lon="11.535642184317112">
        <ele>1093.828754425049055</ele>
        <time>2016-08-26T08:41:11Z</time>
      </trkpt>
      <trkpt lat="46.427754694595933" lon="11.535737235099077">
        <ele>1094.139545440674055</ele>
        <time>2016-08-26T08:41:15Z</time>
      </trkpt>
      <trkpt lat="46.427747150883079" lon="11.535886935889721">
        <ele>1095.337909698486101</ele>
        <time>2016-08-26T08:41:17Z</time>
      </trkpt>
      <trkpt lat="46.427757292985916" lon="11.536017274484038">
        <ele>1093.785175323486101</ele>
        <time>2016-08-26T08:41:18Z</time>
      </trkpt>
      <trkpt lat="46.427744468674064" lon="11.536153899505734">
        <ele>1094.686786651611101</ele>
        <time>2016-08-26T08:41:19Z</time>
      </trkpt>
      <trkpt lat="46.427730387076735" lon="11.536305025219917">
        <ele>1094.733661651611101</ele>
        <time>2016-08-26T08:41:20Z</time>
      </trkpt>
      <trkpt lat="46.42771789804101" lon="11.536475596949458">
        <ele>1095.638813018799055</ele>
        <time>2016-08-26T08:41:21Z</time>
      </trkpt>
      <trkpt lat="46.427684454247355" lon="11.536632254719734">
        <ele>1096.397113800049055</ele>
        <time>2016-08-26T08:41:22Z</time>
      </trkpt>
      <trkpt lat="46.42762603238225" lon="11.536795198917389">
        <ele>1096.580341339111101</ele>
        <time>2016-08-26T08:41:23Z</time>
      </trkpt>
      <trkpt lat="46.42760943621397" lon="11.537003489211202">
        <ele>1096.995868682861101</ele>
        <time>2016-08-26T08:41:24Z</time>
      </trkpt>
      <trkpt lat="46.427570795640349" lon="11.537186549976468">
        <ele>1098.414569854736101</ele>
        <time>2016-08-26T08:41:25Z</time>
      </trkpt>
      <trkpt lat="46.427517402917147" lon="11.537377489730716">
        <ele>1097.556171417236101</ele>
        <time>2016-08-26T08:41:26Z</time>
      </trkpt>
      <trkpt lat="46.427489994093776" lon="11.537529705092311">
        <ele>1098.623065948486101</ele>
        <time>2016-08-26T08:41:27Z</time>
      </trkpt>
      <trkpt lat="46.427455795928836" lon="11.537682004272938">
        <ele>1098.473773956299055</ele>
        <time>2016-08-26T08:41:28Z</time>
      </trkpt>
      <trkpt lat="46.427363930270076" lon="11.537864897400141">
        <ele>1100.202899932861101</ele>
        <time>2016-08-26T08:41:29Z</time>
      </trkpt>
      <trkpt lat="46.427309028804302" lon="11.53803831897676">
        <ele>1099.919330596924055</ele>
        <time>2016-08-26T08:41:30Z</time>
      </trkpt>
      <trkpt lat="46.42739494331181" lon="11.538184583187103">
        <ele>1101.066425323486101</ele>
        <time>2016-08-26T08:41:31Z</time>
      </trkpt>
      <trkpt lat="46.42742277123034" lon="11.538323303684592">
        <ele>1101.751728057861101</ele>
        <time>2016-08-26T08:41:32Z</time>
      </trkpt>
      <trkpt lat="46.427482198923826" lon="11.538426904007792">
        <ele>1104.299823760986101</ele>
        <time>2016-08-26T08:41:33Z</time>
      </trkpt>
      <trkpt lat="46.427553528919816" lon="11.538532515987754">
        <ele>1105.831317901611101</ele>
        <time>2016-08-26T08:41:34Z</time>
      </trkpt>
      <trkpt lat="46.42763826996088" lon="11.538633350282907">
        <ele>1108.485980987549055</ele>
        <time>2016-08-26T08:41:35Z</time>
      </trkpt>
      <trkpt lat="46.427720244973898" lon="11.538737704977393">
        <ele>1109.582660675049055</ele>
        <time>2016-08-26T08:41:36Z</time>
      </trkpt>
      <trkpt lat="46.427819319069386" lon="11.538834851235151">
        <ele>1109.781269073486101</ele>
        <time>2016-08-26T08:41:37Z</time>
      </trkpt>
      <trkpt lat="46.427929876372218" lon="11.538932416588068">
        <ele>1108.456928253174055</ele>
        <time>2016-08-26T08:41:38Z</time>
      </trkpt>
      <trkpt lat="46.428028447553515" lon="11.539025707170367">
        <ele>1107.889301300049055</ele>
        <time>2016-08-26T08:41:39Z</time>
      </trkpt>
      <trkpt lat="46.428119894117117" lon="11.539127714931965">
        <ele>1110.157611846924055</ele>
        <time>2016-08-26T08:41:40Z</time>
      </trkpt>
      <trkpt lat="46.42821729183197" lon="11.539235925301909">
        <ele>1111.608539581299055</ele>
        <time>2016-08-26T08:41:41Z</time>
      </trkpt>
      <trkpt lat="46.428327597677708" lon="11.539350254461169">
        <ele>1113.988788604736101</ele>
        <time>2016-08-26T08:41:42Z</time>
      </trkpt>
      <trkpt lat="46.42842935398221" lon="11.539462823420763">
        <ele>1115.729999542236101</ele>
        <time>2016-08-26T08:41:43Z</time>
      </trkpt>
      <trkpt lat="46.428525578230619" lon="11.539584947749972">
        <ele>1118.136371612549055</ele>
        <time>2016-08-26T08:41:44Z</time>
      </trkpt>
      <trkpt lat="46.428625322878361" lon="11.539699612185359">
        <ele>1118.067401885986101</ele>
        <time>2016-08-26T08:41:45Z</time>
      </trkpt>
      <trkpt lat="46.428712578490376" lon="11.539818132296205">
        <ele>1122.213031768799055</ele>
        <time>2016-08-26T08:41:46Z</time>
      </trkpt>
      <trkpt lat="46.428806120529771" lon="11.539937490597367">
        <ele>1123.885761260986101</ele>
        <time>2016-08-26T08:41:47Z</time>
      </trkpt>
      <trkpt lat="46.428899997845292" lon="11.54004268348217">
        <ele>1124.321918487549055</ele>
        <time>2016-08-26T08:41:48Z</time>
      </trkpt>
      <trkpt lat="46.428988091647625" lon="11.540149133652449">
        <ele>1125.451679229736101</ele>
        <time>2016-08-26T08:41:49Z</time>
      </trkpt>
      <trkpt lat="46.429070066660643" lon="11.540247956290841">
        <ele>1126.557392120361101</ele>
        <time>2016-08-26T08:41:50Z</time>
      </trkpt>
      <trkpt lat="46.429154807701707" lon="11.540361698716879">
        <ele>1128.645282745361101</ele>
        <time>2016-08-26T08:41:51Z</time>
      </trkpt>
      <trkpt lat="46.429229909554124" lon="11.540490696206689">
        <ele>1126.636981964111101</ele>
        <time>2016-08-26T08:41:52Z</time>
      </trkpt>
      <trkpt lat="46.429290091618896" lon="11.540635116398335">
        <ele>1129.639545440674055</ele>
        <time>2016-08-26T08:41:53Z</time>
      </trkpt>
      <trkpt lat="46.429341807961464" lon="11.54077903367579">
        <ele>1129.990741729736101</ele>
        <time>2016-08-26T08:41:54Z</time>
      </trkpt>
      <trkpt lat="46.429388076066971" lon="11.540919682011008">
        <ele>1130.308612823486101</ele>
        <time>2016-08-26T08:41:55Z</time>
      </trkpt>
      <trkpt lat="46.42942906357348" lon="11.541047170758247">
        <ele>1131.039691925049055</ele>
        <time>2016-08-26T08:41:56Z</time>
      </trkpt>
      <trkpt lat="46.429474661126733" lon="11.541157141327858">
        <ele>1131.992084503174055</ele>
        <time>2016-08-26T08:41:57Z</time>
      </trkpt>
      <trkpt lat="46.429535178467631" lon="11.541255712509155">
        <ele>1132.986225128174055</ele>
        <time>2016-08-26T08:41:58Z</time>
      </trkpt>
      <trkpt lat="46.429614555090666" lon="11.541336430236697">
        <ele>1133.926410675049055</ele>
        <time>2016-08-26T08:41:59Z</time>
      </trkpt>
      <trkpt lat="46.429709941148758" lon="11.541401222348213">
        <ele>1134.296161651611101</ele>
        <time>2016-08-26T08:42:00Z</time>
      </trkpt>
      <trkpt lat="46.429803734645247" lon="11.541455620899796">
        <ele>1135.754047393799055</ele>
        <time>2016-08-26T08:42:01Z</time>
      </trkpt>
      <trkpt lat="46.429894007742405" lon="11.541501134634018">
        <ele>1137.107196807861101</ele>
        <time>2016-08-26T08:42:02Z</time>
      </trkpt>
      <trkpt lat="46.42997682094574" lon="11.541539188474417">
        <ele>1140.436176300049055</ele>
        <time>2016-08-26T08:42:03Z</time>
      </trkpt>
      <trkpt lat="46.430056616663933" lon="11.541590401902795">
        <ele>1142.199359893799055</ele>
        <time>2016-08-26T08:42:04Z</time>
      </trkpt>
      <trkpt lat="46.430147308856249" lon="11.54163658618927">
        <ele>1142.680561065674055</ele>
        <time>2016-08-26T08:42:05Z</time>
      </trkpt>
      <trkpt lat="46.430219728499651" lon="11.541677825152874">
        <ele>1143.645771026611101</ele>
        <time>2016-08-26T08:42:06Z</time>
      </trkpt>
      <trkpt lat="46.430277731269598" lon="11.541699785739183">
        <ele>1144.451557159424055</ele>
        <time>2016-08-26T08:42:07Z</time>
      </trkpt>
      <trkpt lat="46.430316036567092" lon="11.541740857064724">
        <ele>1144.747577667236101</ele>
        <time>2016-08-26T08:42:08Z</time>
      </trkpt>
      <trkpt lat="46.430368507280946" lon="11.541742701083422">
        <ele>1145.357563018799055</ele>
        <time>2016-08-26T08:42:10Z</time>
      </trkpt>
      <trkpt lat="46.430436400696635" lon="11.541771115735173">
        <ele>1146.003559112549055</ele>
        <time>2016-08-26T08:42:12Z</time>
      </trkpt>
      <trkpt lat="46.430485602468252" lon="11.541803469881415">
        <ele>1146.254657745361101</ele>
        <time>2016-08-26T08:42:13Z</time>
      </trkpt>
      <trkpt lat="46.430536061525345" lon="11.541847055777907">
        <ele>1146.495502471924055</ele>
        <time>2016-08-26T08:42:14Z</time>
      </trkpt>
      <trkpt lat="46.430591130629182" lon="11.541897766292095">
        <ele>1147.721210479736101</ele>
        <time>2016-08-26T08:42:15Z</time>
      </trkpt>
      <trkpt lat="46.430669920518994" lon="11.54193221591413">
        <ele>1147.750263214111101</ele>
        <time>2016-08-26T08:42:16Z</time>
      </trkpt>
      <trkpt lat="46.430724319070578" lon="11.541966581717134">
        <ele>1148.201557159424055</ele>
        <time>2016-08-26T08:42:17Z</time>
      </trkpt>
      <trkpt lat="46.430790117010474" lon="11.541990218684077">
        <ele>1148.225116729736101</ele>
        <time>2016-08-26T08:42:18Z</time>
      </trkpt>
      <trkpt lat="46.430840324610472" lon="11.542049394920468">
        <ele>1147.845111846924055</ele>
        <time>2016-08-26T08:42:19Z</time>
      </trkpt>
      <trkpt lat="46.430873600766063" lon="11.542100608348846">
        <ele>1148.379535675049055</ele>
        <time>2016-08-26T08:42:20Z</time>
      </trkpt>
      <trkpt lat="46.430916683748364" lon="11.542129274457693">
        <ele>1149.962177276611101</ele>
        <time>2016-08-26T08:42:21Z</time>
      </trkpt>
      <trkpt lat="46.430891202762723" lon="11.542184427380562">
        <ele>1151.882709503174055</ele>
        <time>2016-08-26T08:42:27Z</time>
      </trkpt>
      <trkpt lat="46.430917521938682" lon="11.54223907738924">
        <ele>1152.536518096924055</ele>
        <time>2016-08-26T08:42:32Z</time>
      </trkpt>
      <trkpt lat="46.430946355685592" lon="11.542330691590905">
        <ele>1155.438861846924055</ele>
        <time>2016-08-26T08:42:39Z</time>
      </trkpt>
      <trkpt lat="46.43097510561347" lon="11.542414175346494">
        <ele>1156.830097198486101</ele>
        <time>2016-08-26T08:42:41Z</time>
      </trkpt>
      <trkpt lat="46.431012656539679" lon="11.54251417145133">
        <ele>1156.703388214111101</ele>
        <time>2016-08-26T08:42:43Z</time>
      </trkpt>
      <trkpt lat="46.431045429781079" lon="11.542657250538468">
        <ele>1157.201190948486101</ele>
        <time>2016-08-26T08:42:45Z</time>
      </trkpt>
      <trkpt lat="46.431068480014801" lon="11.542738052085042">
        <ele>1156.693256378174055</ele>
        <time>2016-08-26T08:42:46Z</time>
      </trkpt>
      <trkpt lat="46.431078286841512" lon="11.542816925793886">
        <ele>1157.054218292236101</ele>
        <time>2016-08-26T08:42:47Z</time>
      </trkpt>
      <trkpt lat="46.431094715371728" lon="11.542888171970844">
        <ele>1157.516986846924055</ele>
        <time>2016-08-26T08:42:48Z</time>
      </trkpt>
      <trkpt lat="46.431071413680911" lon="11.542976601049304">
        <ele>1158.437519073486101</ele>
        <time>2016-08-26T08:42:49Z</time>
      </trkpt>
      <trkpt lat="46.431058757007122" lon="11.543065868318081">
        <ele>1158.340717315674055</ele>
        <time>2016-08-26T08:42:50Z</time>
      </trkpt>
      <trkpt lat="46.431052722036839" lon="11.543154884129763">
        <ele>1158.689594268799055</ele>
        <time>2016-08-26T08:42:51Z</time>
      </trkpt>
      <trkpt lat="46.431028498336673" lon="11.543255802243948">
        <ele>1158.703144073486101</ele>
        <time>2016-08-26T08:42:52Z</time>
      </trkpt>
      <trkpt lat="46.430961191654205" lon="11.543335933238268">
        <ele>1158.655658721924055</ele>
        <time>2016-08-26T08:42:53Z</time>
      </trkpt>
      <trkpt lat="46.430963538587093" lon="11.543401731178164">
        <ele>1158.542011260986101</ele>
        <time>2016-08-26T08:42:54Z</time>
      </trkpt>
      <trkpt lat="46.430977452546358" lon="11.543512623757124">
        <ele>1158.224872589111101</ele>
        <time>2016-08-26T08:42:55Z</time>
      </trkpt>
      <trkpt lat="46.430947864428163" lon="11.543604824692011">
        <ele>1158.274799346924055</ele>
        <time>2016-08-26T08:42:56Z</time>
      </trkpt>
      <trkpt lat="46.430861447006464" lon="11.543658636510372">
        <ele>1157.768573760986101</ele>
        <time>2016-08-26T08:42:58Z</time>
      </trkpt>
      <trkpt lat="46.430791290476918" lon="11.543675987049937">
        <ele>1157.378925323486101</ele>
        <time>2016-08-26T08:42:59Z</time>
      </trkpt>
      <trkpt lat="46.430731192231178" lon="11.543682776391506">
        <ele>1158.380634307861101</ele>
        <time>2016-08-26T08:43:00Z</time>
      </trkpt>
      <trkpt lat="46.430666567757726" lon="11.543658468872309">
        <ele>1159.643207550049055</ele>
        <time>2016-08-26T08:43:01Z</time>
      </trkpt>
      <trkpt lat="46.430587442591786" lon="11.543612871319056">
        <ele>1160.072162628174055</ele>
        <time>2016-08-26T08:43:02Z</time>
      </trkpt>
      <trkpt lat="46.430506808683276" lon="11.543503319844604">
        <ele>1161.024433135986101</ele>
        <time>2016-08-26T08:43:03Z</time>
      </trkpt>
      <trkpt lat="46.430439418181777" lon="11.543404664844275">
        <ele>1163.504047393799055</ele>
        <time>2016-08-26T08:43:04Z</time>
      </trkpt>
      <trkpt lat="46.430360293015838" lon="11.543302908539772">
        <ele>1164.601703643799055</ele>
        <time>2016-08-26T08:43:05Z</time>
      </trkpt>
      <trkpt lat="46.430268594995141" lon="11.543202074244618">
        <ele>1165.404926300049055</ele>
        <time>2016-08-26T08:43:06Z</time>
      </trkpt>
      <trkpt lat="46.430191649124026" lon="11.543091349303722">
        <ele>1166.731220245361101</ele>
        <time>2016-08-26T08:43:07Z</time>
      </trkpt>
      <trkpt lat="46.430116547271609" lon="11.543023120611906">
        <ele>1167.645648956299055</ele>
        <time>2016-08-26T08:43:08Z</time>
      </trkpt>
      <trkpt lat="46.430025352165103" lon="11.542897056788206">
        <ele>1168.445209503174055</ele>
        <time>2016-08-26T08:43:09Z</time>
      </trkpt>
      <trkpt lat="46.429935246706009" lon="11.5427868347615">
        <ele>1169.397602081299055</ele>
        <time>2016-08-26T08:43:10Z</time>
      </trkpt>
      <trkpt lat="46.429873807355762" lon="11.542680049315095">
        <ele>1169.740863800049055</ele>
        <time>2016-08-26T08:43:11Z</time>
      </trkpt>
      <trkpt lat="46.429797532036901" lon="11.542543424293399">
        <ele>1169.917255401611101</ele>
        <time>2016-08-26T08:43:12Z</time>
      </trkpt>
      <trkpt lat="46.429746653884649" lon="11.542453486472368">
        <ele>1168.886371612549055</ele>
        <time>2016-08-26T08:43:13Z</time>
      </trkpt>
      <trkpt lat="46.429670630022883" lon="11.542526325210929">
        <ele>1168.739398956299055</ele>
        <time>2016-08-26T08:43:14Z</time>
      </trkpt>
      <trkpt lat="46.429569125175476" lon="11.542505957186222">
        <ele>1167.731708526611101</ele>
        <time>2016-08-26T08:43:15Z</time>
      </trkpt>
      <trkpt lat="46.429515648633242" lon="11.542556835338473">
        <ele>1167.707538604736101</ele>
        <time>2016-08-26T08:43:16Z</time>
      </trkpt>
      <trkpt lat="46.429442055523396" lon="11.542662447318435">
        <ele>1168.377948760986101</ele>
        <time>2016-08-26T08:43:17Z</time>
      </trkpt>
      <trkpt lat="46.429358068853617" lon="11.542712571099401">
        <ele>1169.119403839111101</ele>
        <time>2016-08-26T08:43:18Z</time>
      </trkpt>
      <trkpt lat="46.42934113740921" lon="11.542812818661332">
        <ele>1170.948993682861101</ele>
        <time>2016-08-26T08:43:19Z</time>
      </trkpt>
      <trkpt lat="46.429298724979162" lon="11.542915077880025">
        <ele>1171.391742706299055</ele>
        <time>2016-08-26T08:43:20Z</time>
      </trkpt>
      <trkpt lat="46.429243488237262" lon="11.543005518615246">
        <ele>1172.592914581299055</ele>
        <time>2016-08-26T08:43:21Z</time>
      </trkpt>
      <trkpt lat="46.429187748581171" lon="11.543094785884023">
        <ele>1175.229022979736101</ele>
        <time>2016-08-26T08:43:22Z</time>
      </trkpt>
      <trkpt lat="46.429143659770489" lon="11.543197380378842">
        <ele>1175.936176300049055</ele>
        <time>2016-08-26T08:43:23Z</time>
      </trkpt>
      <trkpt lat="46.429083645343781" lon="11.543307099491358">
        <ele>1176.376239776611101</ele>
        <time>2016-08-26T08:43:24Z</time>
      </trkpt>
      <trkpt lat="46.429028157144785" lon="11.543407430872321">
        <ele>1176.216449737549055</ele>
        <time>2016-08-26T08:43:25Z</time>
      </trkpt>
      <trkpt lat="46.428961772471666" lon="11.543544307351112">
        <ele>1177.057758331299055</ele>
        <time>2016-08-26T08:43:26Z</time>
      </trkpt>
      <trkpt lat="46.428911648690701" lon="11.543678333982825">
        <ele>1176.653827667236101</ele>
        <time>2016-08-26T08:43:27Z</time>
      </trkpt>
      <trkpt lat="46.428877953439951" lon="11.543773636221886">
        <ele>1177.782367706299055</ele>
        <time>2016-08-26T08:43:28Z</time>
      </trkpt>
      <trkpt lat="46.428850796073675" lon="11.543939430266619">
        <ele>1178.194965362549055</ele>
        <time>2016-08-26T08:43:29Z</time>
      </trkpt>
      <trkpt lat="46.428797906264663" lon="11.5441027097404">
        <ele>1178.988178253174055</ele>
        <time>2016-08-26T08:43:30Z</time>
      </trkpt>
      <trkpt lat="46.428745267912745" lon="11.544175548478961">
        <ele>1179.845722198486101</ele>
        <time>2016-08-26T08:43:31Z</time>
      </trkpt>
      <trkpt lat="46.428709728643298" lon="11.544295325875282">
        <ele>1180.711688995361101</ele>
        <time>2016-08-26T08:43:32Z</time>
      </trkpt>
      <trkpt lat="46.428651977330446" lon="11.544373109936714">
        <ele>1180.948993682861101</ele>
        <time>2016-08-26T08:43:33Z</time>
      </trkpt>
      <trkpt lat="46.428587939590216" lon="11.544438321143389">
        <ele>1182.626117706299055</ele>
        <time>2016-08-26T08:43:34Z</time>
      </trkpt>
      <trkpt lat="46.42854661680758" lon="11.5445258282125">
        <ele>1182.765766143799055</ele>
        <time>2016-08-26T08:43:35Z</time>
      </trkpt>
      <trkpt lat="46.428503450006247" lon="11.544598499312997">
        <ele>1182.826435089111101</ele>
        <time>2016-08-26T08:43:36Z</time>
      </trkpt>
      <trkpt lat="46.428464893251657" lon="11.544692376628518">
        <ele>1182.599628448486101</ele>
        <time>2016-08-26T08:43:37Z</time>
      </trkpt>
      <trkpt lat="46.428437316790223" lon="11.54478725977242">
        <ele>1183.549335479736101</ele>
        <time>2016-08-26T08:43:38Z</time>
      </trkpt>
      <trkpt lat="46.42840001732111" lon="11.544897314161062">
        <ele>1183.416522979736101</ele>
        <time>2016-08-26T08:43:39Z</time>
      </trkpt>
      <trkpt lat="46.428350480273366" lon="11.54499345459044">
        <ele>1183.799091339111101</ele>
        <time>2016-08-26T08:43:40Z</time>
      </trkpt>
      <trkpt lat="46.428314354270697" lon="11.545116752386093">
        <ele>1184.401142120361101</ele>
        <time>2016-08-26T08:43:41Z</time>
      </trkpt>
      <trkpt lat="46.428253501653671" lon="11.545218927785754">
        <ele>1185.380512237549055</ele>
        <time>2016-08-26T08:43:42Z</time>
      </trkpt>
      <trkpt lat="46.4281967561692" lon="11.545318588614464">
        <ele>1184.347309112549055</ele>
        <time>2016-08-26T08:43:43Z</time>
      </trkpt>
      <trkpt lat="46.428141184151173" lon="11.545425038784742">
        <ele>1185.148334503174055</ele>
        <time>2016-08-26T08:43:44Z</time>
      </trkpt>
      <trkpt lat="46.428093742579222" lon="11.545548336580396">
        <ele>1185.586933135986101</ele>
        <time>2016-08-26T08:43:45Z</time>
      </trkpt>
      <trkpt lat="46.428030962124467" lon="11.545638525858521">
        <ele>1186.106952667236101</ele>
        <time>2016-08-26T08:43:46Z</time>
      </trkpt>
      <trkpt lat="46.427965499460697" lon="11.545739192515612">
        <ele>1186.425556182861101</ele>
        <time>2016-08-26T08:43:47Z</time>
      </trkpt>
      <trkpt lat="46.427905652672052" lon="11.545835668221116">
        <ele>1187.172626495361101</ele>
        <time>2016-08-26T08:43:48Z</time>
      </trkpt>
      <trkpt lat="46.427850499749184" lon="11.545940022915602">
        <ele>1188.168964385986101</ele>
        <time>2016-08-26T08:43:49Z</time>
      </trkpt>
      <trkpt lat="46.427794760093093" lon="11.546044880524278">
        <ele>1188.878437042236101</ele>
        <time>2016-08-26T08:43:50Z</time>
      </trkpt>
      <trkpt lat="46.427738098427653" lon="11.546159209683537">
        <ele>1189.613178253174055</ele>
        <time>2016-08-26T08:43:51Z</time>
      </trkpt>
      <trkpt lat="46.427679341286421" lon="11.546278232708573">
        <ele>1191.058979034424055</ele>
        <time>2016-08-26T08:43:52Z</time>
      </trkpt>
      <trkpt lat="46.427645646035671" lon="11.546413265168667">
        <ele>1191.072650909424055</ele>
        <time>2016-08-26T08:43:53Z</time>
      </trkpt>
      <trkpt lat="46.427596360445023" lon="11.546549303457141">
        <ele>1192.211078643799055</ele>
        <time>2016-08-26T08:43:54Z</time>
      </trkpt>
      <trkpt lat="46.427559228613973" lon="11.546680480241776">
        <ele>1191.988056182861101</ele>
        <time>2016-08-26T08:43:55Z</time>
      </trkpt>
      <trkpt lat="46.427523521706462" lon="11.546821547672153">
        <ele>1193.614032745361101</ele>
        <time>2016-08-26T08:43:56Z</time>
      </trkpt>
      <trkpt lat="46.427446072921157" lon="11.546940570697188">
        <ele>1195.818256378174055</ele>
        <time>2016-08-26T08:43:57Z</time>
      </trkpt>
      <trkpt lat="46.427387651056051" lon="11.54706328175962">
        <ele>1197.621234893799055</ele>
        <time>2016-08-26T08:43:58Z</time>
      </trkpt>
      <trkpt lat="46.427315566688776" lon="11.547177191823721">
        <ele>1198.730243682861101</ele>
        <time>2016-08-26T08:43:59Z</time>
      </trkpt>
      <trkpt lat="46.427251612767577" lon="11.547305770218372">
        <ele>1199.904071807861101</ele>
        <time>2016-08-26T08:44:00Z</time>
      </trkpt>
      <trkpt lat="46.427181959152222" lon="11.547421189025044">
        <ele>1200.670185089111101</ele>
        <time>2016-08-26T08:44:01Z</time>
      </trkpt>
      <trkpt lat="46.42714180983603" lon="11.547589246183634">
        <ele>1202.551898956299055</ele>
        <time>2016-08-26T08:44:02Z</time>
      </trkpt>
      <trkpt lat="46.42706704325974" lon="11.547685638070107">
        <ele>1202.959003448486101</ele>
        <time>2016-08-26T08:44:03Z</time>
      </trkpt>
      <trkpt lat="46.426999736577272" lon="11.547801392152905">
        <ele>1203.660541534424055</ele>
        <time>2016-08-26T08:44:04Z</time>
      </trkpt>
      <trkpt lat="46.426924131810665" lon="11.547891413792968">
        <ele>1205.089618682861101</ele>
        <time>2016-08-26T08:44:05Z</time>
      </trkpt>
      <trkpt lat="46.426855232566595" lon="11.547978250309825">
        <ele>1206.545307159424055</ele>
        <time>2016-08-26T08:44:06Z</time>
      </trkpt>
      <trkpt lat="46.426794212311506" lon="11.548063829541206">
        <ele>1206.688617706299055</ele>
        <time>2016-08-26T08:44:07Z</time>
      </trkpt>
      <trkpt lat="46.426732186228037" lon="11.54816223308444">
        <ele>1206.937519073486101</ele>
        <time>2016-08-26T08:44:08Z</time>
      </trkpt>
      <trkpt lat="46.426675692200661" lon="11.548264157027006">
        <ele>1207.090106964111101</ele>
        <time>2016-08-26T08:44:09Z</time>
      </trkpt>
      <trkpt lat="46.426638392731547" lon="11.548364069312811">
        <ele>1207.798480987549055</ele>
        <time>2016-08-26T08:44:10Z</time>
      </trkpt>
      <trkpt lat="46.426595728844404" lon="11.548455432057381">
        <ele>1208.290546417236101</ele>
        <time>2016-08-26T08:44:11Z</time>
      </trkpt>
      <trkpt lat="46.426547868177295" lon="11.548555344343185">
        <ele>1209.070819854736101</ele>
        <time>2016-08-26T08:44:12Z</time>
      </trkpt>
      <trkpt lat="46.426501516252756" lon="11.548640504479408">
        <ele>1209.468769073486101</ele>
        <time>2016-08-26T08:44:13Z</time>
      </trkpt>
      <trkpt lat="46.426447369158268" lon="11.548708146438003">
        <ele>1209.486103057861101</ele>
        <time>2016-08-26T08:44:14Z</time>
      </trkpt>
      <trkpt lat="46.426413925364614" lon="11.548809232190251">
        <ele>1209.603778839111101</ele>
        <time>2016-08-26T08:44:15Z</time>
      </trkpt>
      <trkpt lat="46.426370926201344" lon="11.548927081748843">
        <ele>1209.923603057861101</ele>
        <time>2016-08-26T08:44:16Z</time>
      </trkpt>
      <trkpt lat="46.426340499892831" lon="11.549051972106099">
        <ele>1210.321918487549055</ele>
        <time>2016-08-26T08:44:17Z</time>
      </trkpt>
      <trkpt lat="46.426287526264787" lon="11.549161775037646">
        <ele>1210.669574737549055</ele>
        <time>2016-08-26T08:44:18Z</time>
      </trkpt>
      <trkpt lat="46.426271433010697" lon="11.549297729507089">
        <ele>1210.404071807861101</ele>
        <time>2016-08-26T08:44:19Z</time>
      </trkpt>
      <trkpt lat="46.426171520724893" lon="11.549376184120774">
        <ele>1210.710102081299055</ele>
        <time>2016-08-26T08:44:20Z</time>
      </trkpt>
      <trkpt lat="46.426117289811373" lon="11.549507780000567">
        <ele>1212.461322784424055</ele>
        <time>2016-08-26T08:44:21Z</time>
      </trkpt>
      <trkpt lat="46.426039841026068" lon="11.549607524648309">
        <ele>1213.025287628174055</ele>
        <time>2016-08-26T08:44:22Z</time>
      </trkpt>
      <trkpt lat="46.425984352827072" lon="11.549749514088035">
        <ele>1213.190448760986101</ele>
        <time>2016-08-26T08:44:23Z</time>
      </trkpt>
      <trkpt lat="46.425908748060465" lon="11.549864932894707">
        <ele>1213.561054229736101</ele>
        <time>2016-08-26T08:44:24Z</time>
      </trkpt>
      <trkpt lat="46.425846219062805" lon="11.549971885979176">
        <ele>1213.610370635986101</ele>
        <time>2016-08-26T08:44:25Z</time>
      </trkpt>
      <trkpt lat="46.425757622346282" lon="11.550058806315064">
        <ele>1214.040302276611101</ele>
        <time>2016-08-26T08:44:26Z</time>
      </trkpt>
      <trkpt lat="46.425711270421743" lon="11.55020515434444">
        <ele>1213.522724151611101</ele>
        <time>2016-08-26T08:44:27Z</time>
      </trkpt>
      <trkpt lat="46.425619991496205" lon="11.550293080508709">
        <ele>1214.333637237549055</ele>
        <time>2016-08-26T08:44:28Z</time>
      </trkpt>
      <trkpt lat="46.425556959584355" lon="11.550435405224562">
        <ele>1214.176654815674055</ele>
        <time>2016-08-26T08:44:29Z</time>
      </trkpt>
      <trkpt lat="46.425495017319918" lon="11.550552835687995">
        <ele>1214.262592315674055</ele>
        <time>2016-08-26T08:44:30Z</time>
      </trkpt>
      <trkpt lat="46.425435673445463" lon="11.55067378655076">
        <ele>1213.788837432861101</ele>
        <time>2016-08-26T08:44:31Z</time>
      </trkpt>
      <trkpt lat="46.425382867455482" lon="11.550826337188482">
        <ele>1214.358539581299055</ele>
        <time>2016-08-26T08:44:32Z</time>
      </trkpt>
      <trkpt lat="46.425340371206403" lon="11.550966231152415">
        <ele>1214.732196807861101</ele>
        <time>2016-08-26T08:44:33Z</time>
      </trkpt>
      <trkpt lat="46.42529234290123" lon="11.551111657172441">
        <ele>1215.403217315674055</ele>
        <time>2016-08-26T08:44:34Z</time>
      </trkpt>
      <trkpt lat="46.42524691298604" lon="11.551276696845889">
        <ele>1217.160907745361101</ele>
        <time>2016-08-26T08:44:35Z</time>
      </trkpt>
      <trkpt lat="46.425205003470182" lon="11.551417512819171">
        <ele>1218.361957550049055</ele>
        <time>2016-08-26T08:44:36Z</time>
      </trkpt>
      <trkpt lat="46.42517164349556" lon="11.551535530015826">
        <ele>1220.365497589111101</ele>
        <time>2016-08-26T08:44:37Z</time>
      </trkpt>
      <trkpt lat="46.42513258382678" lon="11.551661007106304">
        <ele>1221.928852081299055</ele>
        <time>2016-08-26T08:44:38Z</time>
      </trkpt>
      <trkpt lat="46.425083046779037" lon="11.551797883585095">
        <ele>1222.464374542236101</ele>
        <time>2016-08-26T08:44:39Z</time>
      </trkpt>
      <trkpt lat="46.425014231353998" lon="11.551922773942351">
        <ele>1222.895648956299055</ele>
        <time>2016-08-26T08:44:40Z</time>
      </trkpt>
      <trkpt lat="46.424942817538977" lon="11.552037103101611">
        <ele>1224.073627471924055</ele>
        <time>2016-08-26T08:44:41Z</time>
      </trkpt>
      <trkpt lat="46.424870146438479" lon="11.552144391462207">
        <ele>1224.975971221924055</ele>
        <time>2016-08-26T08:44:42Z</time>
      </trkpt>
      <trkpt lat="46.424786578863859" lon="11.552245980128646">
        <ele>1225.518207550049055</ele>
        <time>2016-08-26T08:44:43Z</time>
      </trkpt>
      <trkpt lat="46.42471868544817" lon="11.552352597936988">
        <ele>1226.899921417236101</ele>
        <time>2016-08-26T08:44:44Z</time>
      </trkpt>
      <trkpt lat="46.424661772325635" lon="11.552451504394412">
        <ele>1227.110004425049055</ele>
        <time>2016-08-26T08:44:45Z</time>
      </trkpt>
      <trkpt lat="46.424612822011113" lon="11.552552590146661">
        <ele>1228.773944854736101</ele>
        <time>2016-08-26T08:44:46Z</time>
      </trkpt>
      <trkpt lat="46.424560267478228" lon="11.552665075287223">
        <ele>1230.235614776611101</ele>
        <time>2016-08-26T08:44:47Z</time>
      </trkpt>
      <trkpt lat="46.424509305506945" lon="11.55278267338872">
        <ele>1229.995014190674055</ele>
        <time>2016-08-26T08:44:48Z</time>
      </trkpt>
      <trkpt lat="46.424470162019134" lon="11.55288870446384">
        <ele>1230.469989776611101</ele>
        <time>2016-08-26T08:44:49Z</time>
      </trkpt>
      <trkpt lat="46.42443772405386" lon="11.553008733317256">
        <ele>1231.330341339111101</ele>
        <time>2016-08-26T08:44:50Z</time>
      </trkpt>
      <trkpt lat="46.424391623586416" lon="11.553110824897885">
        <ele>1232.651386260986101</ele>
        <time>2016-08-26T08:44:51Z</time>
      </trkpt>
      <trkpt lat="46.424341415986419" lon="11.55319070443511">
        <ele>1234.284442901611101</ele>
        <time>2016-08-26T08:44:52Z</time>
      </trkpt>
      <trkpt lat="46.424288526177406" lon="11.553267734125257">
        <ele>1236.155048370361101</ele>
        <time>2016-08-26T08:44:53Z</time>
      </trkpt>
      <trkpt lat="46.424236223101616" lon="11.553356079384685">
        <ele>1236.421405792236101</ele>
        <time>2016-08-26T08:44:54Z</time>
      </trkpt>
      <trkpt lat="46.42420956864953" lon="11.55345456674695">
        <ele>1238.308856964111101</ele>
        <time>2016-08-26T08:44:55Z</time>
      </trkpt>
      <trkpt lat="46.424174532294273" lon="11.553549785166979">
        <ele>1239.073627471924055</ele>
        <time>2016-08-26T08:44:56Z</time>
      </trkpt>
      <trkpt lat="46.424156511202455" lon="11.553696217015386">
        <ele>1240.152973175049055</ele>
        <time>2016-08-26T08:44:57Z</time>
      </trkpt>
      <trkpt lat="46.424117870628834" lon="11.553816916421056">
        <ele>1240.880756378174055</ele>
        <time>2016-08-26T08:44:58Z</time>
      </trkpt>
      <trkpt lat="46.42407177016139" lon="11.55394708737731">
        <ele>1241.727313995361101</ele>
        <time>2016-08-26T08:44:59Z</time>
      </trkpt>
      <trkpt lat="46.424029106274247" lon="11.55408144928515">
        <ele>1242.042987823486101</ele>
        <time>2016-08-26T08:45:00Z</time>
      </trkpt>
      <trkpt lat="46.423987112939358" lon="11.554223522543907">
        <ele>1242.598651885986101</ele>
        <time>2016-08-26T08:45:01Z</time>
      </trkpt>
      <trkpt lat="46.423914860934019" lon="11.554342797026038">
        <ele>1242.891132354736101</ele>
        <time>2016-08-26T08:45:02Z</time>
      </trkpt>
      <trkpt lat="46.42386213876307" lon="11.554467687383294">
        <ele>1244.498065948486101</ele>
        <time>2016-08-26T08:45:03Z</time>
      </trkpt>
      <trkpt lat="46.423814194276929" lon="11.554599283263087">
        <ele>1245.219013214111101</ele>
        <time>2016-08-26T08:45:04Z</time>
      </trkpt>
      <trkpt lat="46.423762310296297" lon="11.554724341258407">
        <ele>1246.448383331299055</ele>
        <time>2016-08-26T08:45:05Z</time>
      </trkpt>
      <trkpt lat="46.423706235364079" lon="11.554845459759235">
        <ele>1247.160785675049055</ele>
        <time>2016-08-26T08:45:06Z</time>
      </trkpt>
      <trkpt lat="46.423625852912664" lon="11.55494780279696">
        <ele>1248.050189971924055</ele>
        <time>2016-08-26T08:45:07Z</time>
      </trkpt>
      <trkpt lat="46.423540022224188" lon="11.555034471675754">
        <ele>1248.371112823486101</ele>
        <time>2016-08-26T08:45:08Z</time>
      </trkpt>
      <trkpt lat="46.423439607024193" lon="11.555103622376919">
        <ele>1249.886615753174055</ele>
        <time>2016-08-26T08:45:09Z</time>
      </trkpt>
      <trkpt lat="46.42334371805191" lon="11.555175790563226">
        <ele>1251.608661651611101</ele>
        <time>2016-08-26T08:45:10Z</time>
      </trkpt>
      <trkpt lat="46.423243470489979" lon="11.555259441956878">
        <ele>1253.201557159424055</ele>
        <time>2016-08-26T08:45:11Z</time>
      </trkpt>
      <trkpt lat="46.423140959814191" lon="11.555344434455037">
        <ele>1254.070209503174055</ele>
        <time>2016-08-26T08:45:12Z</time>
      </trkpt>
      <trkpt lat="46.423037108033895" lon="11.555436467751861">
        <ele>1255.233661651611101</ele>
        <time>2016-08-26T08:45:13Z</time>
      </trkpt>
      <trkpt lat="46.422933423891664" lon="11.555521795526147">
        <ele>1256.978412628174055</ele>
        <time>2016-08-26T08:45:14Z</time>
      </trkpt>
      <trkpt lat="46.422824962064624" lon="11.555604860186577">
        <ele>1257.757343292236101</ele>
        <time>2016-08-26T08:45:15Z</time>
      </trkpt>
      <trkpt lat="46.422719014808536" lon="11.555700162425637">
        <ele>1257.743305206299055</ele>
        <time>2016-08-26T08:45:16Z</time>
      </trkpt>
      <trkpt lat="46.422602841630578" lon="11.555781466886401">
        <ele>1259.420185089111101</ele>
        <time>2016-08-26T08:45:17Z</time>
      </trkpt>
      <trkpt lat="46.422507539391518" lon="11.555873164907098">
        <ele>1260.541767120361101</ele>
        <time>2016-08-26T08:45:18Z</time>
      </trkpt>
      <trkpt lat="46.422413997352123" lon="11.555959498509765">
        <ele>1261.277240753174055</ele>
        <time>2016-08-26T08:45:19Z</time>
      </trkpt>
      <trkpt lat="46.422317856922746" lon="11.556035690009594">
        <ele>1262.283832550049055</ele>
        <time>2016-08-26T08:45:20Z</time>
      </trkpt>
      <trkpt lat="46.422238228842616" lon="11.556124957278371">
        <ele>1262.849018096924055</ele>
        <time>2016-08-26T08:45:21Z</time>
      </trkpt>
      <trkpt lat="46.422166479751468" lon="11.556209027767181">
        <ele>1265.096210479736101</ele>
        <time>2016-08-26T08:45:22Z</time>
      </trkpt>
      <trkpt lat="46.422104621306062" lon="11.556314891204238">
        <ele>1266.170551300049055</ele>
        <time>2016-08-26T08:45:23Z</time>
      </trkpt>
      <trkpt lat="46.422052904963493" lon="11.556449336931109">
        <ele>1266.203022003174055</ele>
        <time>2016-08-26T08:45:24Z</time>
      </trkpt>
      <trkpt lat="46.422009319067001" lon="11.556591410189867">
        <ele>1265.758930206299055</ele>
        <time>2016-08-26T08:45:25Z</time>
      </trkpt>
      <trkpt lat="46.421967661008239" lon="11.556737339124084">
        <ele>1266.298236846924055</ele>
        <time>2016-08-26T08:45:26Z</time>
      </trkpt>
      <trkpt lat="46.421935306861997" lon="11.556899361312389">
        <ele>1267.772235870361101</ele>
        <time>2016-08-26T08:45:27Z</time>
      </trkpt>
      <trkpt lat="46.421896582469344" lon="11.557055935263634">
        <ele>1267.709613800049055</ele>
        <time>2016-08-26T08:45:28Z</time>
      </trkpt>
      <trkpt lat="46.421858696267009" lon="11.557192644104362">
        <ele>1269.061420440674055</ele>
        <time>2016-08-26T08:45:29Z</time>
      </trkpt>
      <trkpt lat="46.421808488667011" lon="11.557374866679311">
        <ele>1270.277729034424055</ele>
        <time>2016-08-26T08:45:30Z</time>
      </trkpt>
      <trkpt lat="46.421770937740803" lon="11.55753462575376">
        <ele>1270.855487823486101</ele>
        <time>2016-08-26T08:45:31Z</time>
      </trkpt>
      <trkpt lat="46.421738248318434" lon="11.557695474475622">
        <ele>1271.456684112549055</ele>
        <time>2016-08-26T08:45:32Z</time>
      </trkpt>
      <trkpt lat="46.421693991869688" lon="11.557855987921357">
        <ele>1272.657123565674055</ele>
        <time>2016-08-26T08:45:33Z</time>
      </trkpt>
      <trkpt lat="46.421661805361509" lon="11.558019686490297">
        <ele>1273.352436065674055</ele>
        <time>2016-08-26T08:45:34Z</time>
      </trkpt>
      <trkpt lat="46.421625260263681" lon="11.55817030929029">
        <ele>1274.737689971924055</ele>
        <time>2016-08-26T08:45:35Z</time>
      </trkpt>
      <trkpt lat="46.421592487022281" lon="11.558297798037529">
        <ele>1275.895160675049055</ele>
        <time>2016-08-26T08:45:36Z</time>
      </trkpt>
      <trkpt lat="46.421538759022951" lon="11.558416150510311">
        <ele>1277.933979034424055</ele>
        <time>2016-08-26T08:45:37Z</time>
      </trkpt>
      <trkpt lat="46.421468686312437" lon="11.55850893817842">
        <ele>1279.773700714111101</ele>
        <time>2016-08-26T08:45:38Z</time>
      </trkpt>
      <trkpt lat="46.42139551229775" lon="11.55857976526022">
        <ele>1280.927143096924055</ele>
        <time>2016-08-26T08:45:39Z</time>
      </trkpt>
      <trkpt lat="46.421307921409607" lon="11.558630056679249">
        <ele>1281.746845245361101</ele>
        <time>2016-08-26T08:45:40Z</time>
      </trkpt>
      <trkpt lat="46.421218402683735" lon="11.558615975081921">
        <ele>1283.750751495361101</ele>
        <time>2016-08-26T08:45:41Z</time>
      </trkpt>
      <trkpt lat="46.421110695227981" lon="11.558607006445527">
        <ele>1285.597309112549055</ele>
        <time>2016-08-26T08:45:42Z</time>
      </trkpt>
      <trkpt lat="46.421042215079069" lon="11.558489492163062">
        <ele>1287.027606964111101</ele>
        <time>2016-08-26T08:45:43Z</time>
      </trkpt>
      <trkpt lat="46.420959150418639" lon="11.558385640382767">
        <ele>1288.530170440674055</ele>
        <time>2016-08-26T08:45:44Z</time>
      </trkpt>
      <trkpt lat="46.420858567580581" lon="11.558226132765412">
        <ele>1289.453632354736101</ele>
        <time>2016-08-26T08:45:45Z</time>
      </trkpt>
      <trkpt lat="46.420790338888764" lon="11.558096213266253">
        <ele>1290.205585479736101</ele>
        <time>2016-08-26T08:45:46Z</time>
      </trkpt>
      <trkpt lat="46.420735018327832" lon="11.558000491932034">
        <ele>1290.671405792236101</ele>
        <time>2016-08-26T08:45:47Z</time>
      </trkpt>
      <trkpt lat="46.420673914253712" lon="11.55788297764957">
        <ele>1292.288471221924055</ele>
        <time>2016-08-26T08:45:48Z</time>
      </trkpt>
      <trkpt lat="46.420613564550877" lon="11.557833943516016">
        <ele>1292.331073760986101</ele>
        <time>2016-08-26T08:45:49Z</time>
      </trkpt>
      <trkpt lat="46.420556651428342" lon="11.557856993749738">
        <ele>1291.993549346924055</ele>
        <time>2016-08-26T08:45:50Z</time>
      </trkpt>
      <trkpt lat="46.420486830174923" lon="11.557938046753407">
        <ele>1292.671649932861101</ele>
        <time>2016-08-26T08:45:51Z</time>
      </trkpt>
      <trkpt lat="46.420433353632689" lon="11.558010885491967">
        <ele>1293.123432159424055</ele>
        <time>2016-08-26T08:45:52Z</time>
      </trkpt>
      <trkpt lat="46.420383146032691" lon="11.558111468330026">
        <ele>1293.436054229736101</ele>
        <time>2016-08-26T08:45:53Z</time>
      </trkpt>
      <trkpt lat="46.420372501015663" lon="11.558226384222507">
        <ele>1295.486225128174055</ele>
        <time>2016-08-26T08:45:54Z</time>
      </trkpt>
      <trkpt lat="46.420376775786281" lon="11.558341551572084">
        <ele>1296.045795440674055</ele>
        <time>2016-08-26T08:45:55Z</time>
      </trkpt>
      <trkpt lat="46.420398904010653" lon="11.558444062247872">
        <ele>1298.193134307861101</ele>
        <time>2016-08-26T08:45:56Z</time>
      </trkpt>
      <trkpt lat="46.420435449108481" lon="11.558562414720654">
        <ele>1299.264789581299055</ele>
        <time>2016-08-26T08:45:57Z</time>
      </trkpt>
      <trkpt lat="46.420483645051718" lon="11.558690071105957">
        <ele>1300.280292510986101</ele>
        <time>2016-08-26T08:45:58Z</time>
      </trkpt>
      <trkpt lat="46.420530835166574" lon="11.558824265375733">
        <ele>1301.100727081299055</ele>
        <time>2016-08-26T08:45:59Z</time>
      </trkpt>
      <trkpt lat="46.420575426891446" lon="11.558960555121303">
        <ele>1301.531269073486101</ele>
        <time>2016-08-26T08:46:00Z</time>
      </trkpt>
      <trkpt lat="46.420621275901794" lon="11.559101119637489">
        <ele>1302.342548370361101</ele>
        <time>2016-08-26T08:46:01Z</time>
      </trkpt>
      <trkpt lat="46.420669136568904" lon="11.559237828478217">
        <ele>1303.741352081299055</ele>
        <time>2016-08-26T08:46:02Z</time>
      </trkpt>
      <trkpt lat="46.420720014721155" lon="11.55937671661377">
        <ele>1304.430927276611101</ele>
        <time>2016-08-26T08:46:03Z</time>
      </trkpt>
      <trkpt lat="46.420770725235343" lon="11.559519963338971">
        <ele>1304.614032745361101</ele>
        <time>2016-08-26T08:46:04Z</time>
      </trkpt>
      <trkpt lat="46.420813221484423" lon="11.559651475399733">
        <ele>1306.010150909424055</ele>
        <time>2016-08-26T08:46:05Z</time>
      </trkpt>
      <trkpt lat="46.420852364972234" lon="11.559779467061162">
        <ele>1307.302265167236101</ele>
        <time>2016-08-26T08:46:06Z</time>
      </trkpt>
      <trkpt lat="46.420897375792265" lon="11.559886336326599">
        <ele>1308.926166534424055</ele>
        <time>2016-08-26T08:46:07Z</time>
      </trkpt>
      <trkpt lat="46.42093819566071" lon="11.560005191713572">
        <ele>1308.924457550049055</ele>
        <time>2016-08-26T08:46:08Z</time>
      </trkpt>
      <trkpt lat="46.420975998044014" lon="11.560109630227089">
        <ele>1310.487934112549055</ele>
        <time>2016-08-26T08:46:09Z</time>
      </trkpt>
      <trkpt lat="46.421002987772226" lon="11.560214571654797">
        <ele>1311.531269073486101</ele>
        <time>2016-08-26T08:46:10Z</time>
      </trkpt>
      <trkpt lat="46.421013968065381" lon="11.560330493375659">
        <ele>1312.719013214111101</ele>
        <time>2016-08-26T08:46:11Z</time>
      </trkpt>
      <trkpt lat="46.421013465151191" lon="11.56042629852891">
        <ele>1313.711078643799055</ele>
        <time>2016-08-26T08:46:12Z</time>
      </trkpt>
      <trkpt lat="46.420966358855367" lon="11.560557056218386">
        <ele>1314.766986846924055</ele>
        <time>2016-08-26T08:46:13Z</time>
      </trkpt>
      <trkpt lat="46.420904416590929" lon="11.560671888291836">
        <ele>1315.640888214111101</ele>
        <time>2016-08-26T08:46:14Z</time>
      </trkpt>
      <trkpt lat="46.420839373022318" lon="11.560768699273467">
        <ele>1316.868427276611101</ele>
        <time>2016-08-26T08:46:15Z</time>
      </trkpt>
      <trkpt lat="46.420785058289766" lon="11.560861906036735">
        <ele>1316.882709503174055</ele>
        <time>2016-08-26T08:46:16Z</time>
      </trkpt>
      <trkpt lat="46.420709369704127" lon="11.561011020094156">
        <ele>1317.644550323486101</ele>
        <time>2016-08-26T08:46:17Z</time>
      </trkpt>
      <trkpt lat="46.420640051364899" lon="11.561122750863433">
        <ele>1319.377094268799055</ele>
        <time>2016-08-26T08:46:18Z</time>
      </trkpt>
      <trkpt lat="46.420560674741864" lon="11.561253173276782">
        <ele>1321.083271026611101</ele>
        <time>2016-08-26T08:46:19Z</time>
      </trkpt>
      <trkpt lat="46.420501414686441" lon="11.561369262635708">
        <ele>1320.349384307861101</ele>
        <time>2016-08-26T08:46:20Z</time>
      </trkpt>
      <trkpt lat="46.420423714444041" lon="11.56147395260632">
        <ele>1320.715473175049055</ele>
        <time>2016-08-26T08:46:21Z</time>
      </trkpt>
      <trkpt lat="46.420384319499135" lon="11.561577217653394">
        <ele>1319.849872589111101</ele>
        <time>2016-08-26T08:46:22Z</time>
      </trkpt>
      <trkpt lat="46.420353809371591" lon="11.56166011467576">
        <ele>1321.196186065674055</ele>
        <time>2016-08-26T08:46:23Z</time>
      </trkpt>
      <trkpt lat="46.420337464660406" lon="11.56174510717392">
        <ele>1322.454853057861101</ele>
        <time>2016-08-26T08:46:24Z</time>
      </trkpt>
      <trkpt lat="46.420293459668756" lon="11.561838816851377">
        <ele>1322.833148956299055</ele>
        <time>2016-08-26T08:46:25Z</time>
      </trkpt>
      <trkpt lat="46.420217771083117" lon="11.561924815177917">
        <ele>1323.204120635986101</ele>
        <time>2016-08-26T08:46:26Z</time>
      </trkpt>
      <trkpt lat="46.420169323682785" lon="11.56204174272716">
        <ele>1324.283588409424055</ele>
        <time>2016-08-26T08:46:27Z</time>
      </trkpt>
      <trkpt lat="46.42008014023304" lon="11.562136793509126">
        <ele>1324.103778839111101</ele>
        <time>2016-08-26T08:46:28Z</time>
      </trkpt>
      <trkpt lat="46.420040158554912" lon="11.562330247834325">
        <ele>1323.994281768799055</ele>
        <time>2016-08-26T08:46:29Z</time>
      </trkpt>
      <trkpt lat="46.42000243999064" lon="11.562530407682061">
        <ele>1325.325946807861101</ele>
        <time>2016-08-26T08:46:30Z</time>
      </trkpt>
      <trkpt lat="46.419973187148571" lon="11.562672145664692">
        <ele>1325.464008331299055</ele>
        <time>2016-08-26T08:46:31Z</time>
      </trkpt>
      <trkpt lat="46.419938150793314" lon="11.562830395996571">
        <ele>1326.373310089111101</ele>
        <time>2016-08-26T08:46:32Z</time>
      </trkpt>
      <trkpt lat="46.419858857989311" lon="11.562968445941806">
        <ele>1326.056903839111101</ele>
        <time>2016-08-26T08:46:33Z</time>
      </trkpt>
      <trkpt lat="46.419801106676459" lon="11.563073638826609">
        <ele>1329.701557159424055</ele>
        <time>2016-08-26T08:46:34Z</time>
      </trkpt>
      <trkpt lat="46.419727262109518" lon="11.563187297433615">
        <ele>1329.876850128174055</ele>
        <time>2016-08-26T08:46:35Z</time>
      </trkpt>
      <trkpt lat="46.419654758647084" lon="11.563297184184194">
        <ele>1329.814105987549055</ele>
        <time>2016-08-26T08:46:36Z</time>
      </trkpt>
      <trkpt lat="46.419588206335902" lon="11.563375806435943">
        <ele>1331.169452667236101</ele>
        <time>2016-08-26T08:46:37Z</time>
      </trkpt>
      <trkpt lat="46.419531628489494" lon="11.563505390658975">
        <ele>1331.226703643799055</ele>
        <time>2016-08-26T08:46:38Z</time>
      </trkpt>
      <trkpt lat="46.419477900490165" lon="11.563641764223576">
        <ele>1331.210224151611101</ele>
        <time>2016-08-26T08:46:39Z</time>
      </trkpt>
      <trkpt lat="46.419411599636078" lon="11.563741844147444">
        <ele>1331.492328643799055</ele>
        <time>2016-08-26T08:46:40Z</time>
      </trkpt>
      <trkpt lat="46.419424172490835" lon="11.563924234360456">
        <ele>1332.701068878174055</ele>
        <time>2016-08-26T08:46:41Z</time>
      </trkpt>
      <trkpt lat="46.419381257146597" lon="11.564008723944426">
        <ele>1332.928974151611101</ele>
        <time>2016-08-26T08:46:42Z</time>
      </trkpt>
      <trkpt lat="46.419393997639418" lon="11.564100505784154">
        <ele>1334.225482940674055</ele>
        <time>2016-08-26T08:46:43Z</time>
      </trkpt>
      <trkpt lat="46.419391063973308" lon="11.564210811629891">
        <ele>1334.971210479736101</ele>
        <time>2016-08-26T08:46:44Z</time>
      </trkpt>
      <trkpt lat="46.419337168335915" lon="11.564370738342404">
        <ele>1335.827167510986101</ele>
        <time>2016-08-26T08:46:45Z</time>
      </trkpt>
      <trkpt lat="46.419269610196352" lon="11.564489090815187">
        <ele>1337.490985870361101</ele>
        <time>2016-08-26T08:46:46Z</time>
      </trkpt>
      <trkpt lat="46.419231723994017" lon="11.564587326720357">
        <ele>1339.216083526611101</ele>
        <time>2016-08-26T08:46:47Z</time>
      </trkpt>
      <trkpt lat="46.419150503352284" lon="11.564614232629538">
        <ele>1340.344135284424055</ele>
        <time>2016-08-26T08:46:48Z</time>
      </trkpt>
      <trkpt lat="46.419101972132921" lon="11.564701069146395">
        <ele>1341.866962432861101</ele>
        <time>2016-08-26T08:46:49Z</time>
      </trkpt>
      <trkpt lat="46.419030977413058" lon="11.564748762175441">
        <ele>1342.066913604736101</ele>
        <time>2016-08-26T08:46:50Z</time>
      </trkpt>
      <trkpt lat="46.418961239978671" lon="11.564796790480614">
        <ele>1344.371723175049055</ele>
        <time>2016-08-26T08:46:51Z</time>
      </trkpt>
      <trkpt lat="46.418902231380343" lon="11.564867701381445">
        <ele>1345.171894073486101</ele>
        <time>2016-08-26T08:46:52Z</time>
      </trkpt>
      <trkpt lat="46.418878762051463" lon="11.56498764641583">
        <ele>1346.297748565674055</ele>
        <time>2016-08-26T08:46:53Z</time>
      </trkpt>
      <trkpt lat="46.418830398470163" lon="11.565077751874924">
        <ele>1346.916645050049055</ele>
        <time>2016-08-26T08:46:54Z</time>
      </trkpt>
      <trkpt lat="46.418783878907561" lon="11.565168192610145">
        <ele>1348.412250518799055</ele>
        <time>2016-08-26T08:46:55Z</time>
      </trkpt>
      <trkpt lat="46.418748255819082" lon="11.565273553133011">
        <ele>1350.338764190674055</ele>
        <time>2016-08-26T08:46:56Z</time>
      </trkpt>
      <trkpt lat="46.41869192942977" lon="11.565360138192773">
        <ele>1350.991596221924055</ele>
        <time>2016-08-26T08:46:57Z</time>
      </trkpt>
      <trkpt lat="46.418626047670841" lon="11.565437419340014">
        <ele>1351.237445831299055</ele>
        <time>2016-08-26T08:46:58Z</time>
      </trkpt>
      <trkpt lat="46.418572152033448" lon="11.565514113754034">
        <ele>1351.480365753174055</ele>
        <time>2016-08-26T08:46:59Z</time>
      </trkpt>
      <trkpt lat="46.4185297396034" lon="11.565574714913964">
        <ele>1353.179706573486101</ele>
        <time>2016-08-26T08:47:00Z</time>
      </trkpt>
      <trkpt lat="46.418490344658494" lon="11.565631795674562">
        <ele>1354.583881378174055</ele>
        <time>2016-08-26T08:47:01Z</time>
      </trkpt>
      <trkpt lat="46.418449692428112" lon="11.56567663885653">
        <ele>1355.558856964111101</ele>
        <time>2016-08-26T08:47:02Z</time>
      </trkpt>
      <trkpt lat="46.418401328846812" lon="11.565723493695259">
        <ele>1356.625507354736101</ele>
        <time>2016-08-26T08:47:03Z</time>
      </trkpt>
      <trkpt lat="46.418369393795729" lon="11.565793063491583">
        <ele>1359.177753448486101</ele>
        <time>2016-08-26T08:47:04Z</time>
      </trkpt>
      <trkpt lat="46.418311726301908" lon="11.56581049785018">
        <ele>1358.427509307861101</ele>
        <time>2016-08-26T08:47:05Z</time>
      </trkpt>
      <trkpt lat="46.418261686339974" lon="11.565845115110278">
        <ele>1358.318134307861101</ele>
        <time>2016-08-26T08:47:06Z</time>
      </trkpt>
      <trkpt lat="46.418226482346654" lon="11.565908649936318">
        <ele>1357.966693878174055</ele>
        <time>2016-08-26T08:47:07Z</time>
      </trkpt>
      <trkpt lat="46.418178454041481" lon="11.565923653542995">
        <ele>1357.060443878174055</ele>
        <time>2016-08-26T08:47:08Z</time>
      </trkpt>
      <trkpt lat="46.418135371059179" lon="11.565967155620456">
        <ele>1356.591205596924055</ele>
        <time>2016-08-26T08:47:09Z</time>
      </trkpt>
      <trkpt lat="46.41809438355267" lon="11.566017782315612">
        <ele>1357.138568878174055</ele>
        <time>2016-08-26T08:47:10Z</time>
      </trkpt>
      <trkpt lat="46.418045349419117" lon="11.566045107319951">
        <ele>1358.106708526611101</ele>
        <time>2016-08-26T08:47:11Z</time>
      </trkpt>
      <trkpt lat="46.41800838522613" lon="11.566123561933637">
        <ele>1358.689594268799055</ele>
        <time>2016-08-26T08:47:12Z</time>
      </trkpt>
      <trkpt lat="46.417968822643161" lon="11.566218445077538">
        <ele>1357.988666534424055</ele>
        <time>2016-08-26T08:47:13Z</time>
      </trkpt>
      <trkpt lat="46.417920375242829" lon="11.566289775073528">
        <ele>1358.302631378174055</ele>
        <time>2016-08-26T08:47:14Z</time>
      </trkpt>
      <trkpt lat="46.417873771861196" lon="11.566371498629451">
        <ele>1358.509052276611101</ele>
        <time>2016-08-26T08:47:15Z</time>
      </trkpt>
      <trkpt lat="46.417813589796424" lon="11.566435620188713">
        <ele>1359.819110870361101</ele>
        <time>2016-08-26T08:47:16Z</time>
      </trkpt>
      <trkpt lat="46.417764471843839" lon="11.566533269360662">
        <ele>1360.069843292236101</ele>
        <time>2016-08-26T08:47:17Z</time>
      </trkpt>
      <trkpt lat="46.417727172374725" lon="11.566615831106901">
        <ele>1361.403095245361101</ele>
        <time>2016-08-26T08:47:18Z</time>
      </trkpt>
      <trkpt lat="46.417734129354358" lon="11.566725550219417">
        <ele>1363.528339385986101</ele>
        <time>2016-08-26T08:47:19Z</time>
      </trkpt>
      <trkpt lat="46.417669840157032" lon="11.566816242411733">
        <ele>1363.975116729736101</ele>
        <time>2016-08-26T08:47:20Z</time>
      </trkpt>
      <trkpt lat="46.41764871776104" lon="11.566917160525918">
        <ele>1366.005756378174055</ele>
        <time>2016-08-26T08:47:21Z</time>
      </trkpt>
      <trkpt lat="46.41760622151196" lon="11.567017491906881">
        <ele>1366.110492706299055</ele>
        <time>2016-08-26T08:47:22Z</time>
      </trkpt>
      <trkpt lat="46.417538495734334" lon="11.567082954570651">
        <ele>1365.223896026611101</ele>
        <time>2016-08-26T08:47:23Z</time>
      </trkpt>
      <trkpt lat="46.417483426630497" lon="11.567182280123234">
        <ele>1364.498065948486101</ele>
        <time>2016-08-26T08:47:24Z</time>
      </trkpt>
      <trkpt lat="46.417454592883587" lon="11.567259393632412">
        <ele>1366.870502471924055</ele>
        <time>2016-08-26T08:47:25Z</time>
      </trkpt>
      <trkpt lat="46.417403882369399" lon="11.567344134673476">
        <ele>1365.927265167236101</ele>
        <time>2016-08-26T08:47:26Z</time>
      </trkpt>
      <trkpt lat="46.417370019480586" lon="11.56744496896863">
        <ele>1366.667499542236101</ele>
        <time>2016-08-26T08:47:27Z</time>
      </trkpt>
      <trkpt lat="46.417334312573075" lon="11.567541360855103">
        <ele>1366.560321807861101</ele>
        <time>2016-08-26T08:47:28Z</time>
      </trkpt>
      <trkpt lat="46.417301455512643" lon="11.567658204585314">
        <ele>1368.622211456299055</ele>
        <time>2016-08-26T08:47:29Z</time>
      </trkpt>
      <trkpt lat="46.417275471612811" lon="11.567771611735225">
        <ele>1371.177265167236101</ele>
        <time>2016-08-26T08:47:30Z</time>
      </trkpt>
      <trkpt lat="46.41725686378777" lon="11.567870434373617">
        <ele>1374.494281768799055</ele>
        <time>2016-08-26T08:47:31Z</time>
      </trkpt>
      <trkpt lat="46.417234148830175" lon="11.567978393286467">
        <ele>1376.220478057861101</ele>
        <time>2016-08-26T08:47:32Z</time>
      </trkpt>
      <trkpt lat="46.41718402504921" lon="11.56803036108613">
        <ele>1377.564472198486101</ele>
        <time>2016-08-26T08:47:33Z</time>
      </trkpt>
      <trkpt lat="46.417234148830175" lon="11.567978393286467">
        <ele>1376.220478057861101</ele>
        <time>2016-08-26T08:47:33Z</time>
      </trkpt>
      <trkpt lat="46.417138762772083" lon="11.56811292283237">
        <ele>1376.919818878174055</ele>
        <time>2016-08-26T08:47:34Z</time>
      </trkpt>
      <trkpt lat="46.417097272351384" lon="11.568199591711164">
        <ele>1378.330951690674055</ele>
        <time>2016-08-26T08:47:35Z</time>
      </trkpt>
      <trkpt lat="46.417076820507646" lon="11.56833479180932">
        <ele>1379.128437042236101</ele>
        <time>2016-08-26T08:47:36Z</time>
      </trkpt>
      <trkpt lat="46.41703013330698" lon="11.568426406010985">
        <ele>1379.485614776611101</ele>
        <time>2016-08-26T08:47:37Z</time>
      </trkpt>
      <trkpt lat="46.416992247104645" lon="11.568479128181934">
        <ele>1380.767108917236101</ele>
        <time>2016-08-26T08:47:38Z</time>
      </trkpt>
      <trkpt lat="46.41694463789463" lon="11.568531766533852">
        <ele>1381.272235870361101</ele>
        <time>2016-08-26T08:47:39Z</time>
      </trkpt>
      <trkpt lat="46.416903818026185" lon="11.56859521754086">
        <ele>1381.544208526611101</ele>
        <time>2016-08-26T08:47:40Z</time>
      </trkpt>
      <trkpt lat="46.41694463789463" lon="11.568531766533852">
        <ele>1381.272235870361101</ele>
        <time>2016-08-26T08:47:40Z</time>
      </trkpt>
      <trkpt lat="46.416883785277605" lon="11.568677192553878">
        <ele>1381.670673370361101</ele>
        <time>2016-08-26T08:47:41Z</time>
      </trkpt>
      <trkpt lat="46.41686643473804" lon="11.568776434287429">
        <ele>1383.248432159424055</ele>
        <time>2016-08-26T08:47:42Z</time>
      </trkpt>
      <trkpt lat="46.416853945702314" lon="11.568874334916472">
        <ele>1382.356342315674055</ele>
        <time>2016-08-26T08:47:43Z</time>
      </trkpt>
      <trkpt lat="46.416825531050563" lon="11.568951196968555">
        <ele>1383.515522003174055</ele>
        <time>2016-08-26T08:47:44Z</time>
      </trkpt>
      <trkpt lat="46.41678337007761" lon="11.569017414003611">
        <ele>1382.275165557861101</ele>
        <time>2016-08-26T08:47:45Z</time>
      </trkpt>
      <trkpt lat="46.41675746999681" lon="11.569129563868046">
        <ele>1381.756122589111101</ele>
        <time>2016-08-26T08:47:46Z</time>
      </trkpt>
      <trkpt lat="46.416721511632204" lon="11.569230817258358">
        <ele>1381.430927276611101</ele>
        <time>2016-08-26T08:47:47Z</time>
      </trkpt>
      <trkpt lat="46.416672896593809" lon="11.569294100627303">
        <ele>1382.742694854736101</ele>
        <time>2016-08-26T08:47:48Z</time>
      </trkpt>
      <trkpt lat="46.416648421436548" lon="11.569408010691404">
        <ele>1382.623065948486101</ele>
        <time>2016-08-26T08:47:49Z</time>
      </trkpt>
      <trkpt lat="46.41657424159348" lon="11.569463079795241">
        <ele>1381.353900909424055</ele>
        <time>2016-08-26T08:47:50Z</time>
      </trkpt>
      <trkpt lat="46.416497798636556" lon="11.56950943171978">
        <ele>1381.756977081299055</ele>
        <time>2016-08-26T08:47:51Z</time>
      </trkpt>
      <trkpt lat="46.416430659592152" lon="11.569552766159177">
        <ele>1382.278949737549055</ele>
        <time>2016-08-26T08:47:52Z</time>
      </trkpt>
      <trkpt lat="46.416336111724377" lon="11.569502642378211">
        <ele>1383.181781768799055</ele>
        <time>2016-08-26T08:47:53Z</time>
      </trkpt>
      <trkpt lat="46.416250364854932" lon="11.569446567445993">
        <ele>1384.800556182861101</ele>
        <time>2016-08-26T08:47:54Z</time>
      </trkpt>
      <trkpt lat="46.416158750653267" lon="11.569379847496748">
        <ele>1385.741596221924055</ele>
        <time>2016-08-26T08:47:55Z</time>
      </trkpt>
      <trkpt lat="46.416077362373471" lon="11.569299716502428">
        <ele>1387.209491729736101</ele>
        <time>2016-08-26T08:47:56Z</time>
      </trkpt>
      <trkpt lat="46.416042745113373" lon="11.569123445078731">
        <ele>1385.782001495361101</ele>
        <time>2016-08-26T08:47:57Z</time>
      </trkpt>
      <trkpt lat="46.415996644645929" lon="11.568977348506451">
        <ele>1386.261493682861101</ele>
        <time>2016-08-26T08:47:58Z</time>
      </trkpt>
      <trkpt lat="46.41595121473074" lon="11.568805519491434">
        <ele>1386.338275909424055</ele>
        <time>2016-08-26T08:47:59Z</time>
      </trkpt>
      <trkpt lat="46.415931936353445" lon="11.568640479817986">
        <ele>1387.759296417236101</ele>
        <time>2016-08-26T08:48:00Z</time>
      </trkpt>
      <trkpt lat="46.415995554998517" lon="11.568499160930514">
        <ele>1388.597187042236101</ele>
        <time>2016-08-26T08:48:01Z</time>
      </trkpt>
      <trkpt lat="46.415997985750437" lon="11.568334037438035">
        <ele>1388.506732940674055</ele>
        <time>2016-08-26T08:48:02Z</time>
      </trkpt>
      <trkpt lat="46.416031010448933" lon="11.568128345534205">
        <ele>1389.518085479736101</ele>
        <time>2016-08-26T08:48:03Z</time>
      </trkpt>
      <trkpt lat="46.416053893044591" lon="11.568015441298485">
        <ele>1390.291156768799055</ele>
        <time>2016-08-26T08:48:04Z</time>
      </trkpt>
      <trkpt lat="46.416208287701011" lon="11.567934807389975">
        <ele>1390.673114776611101</ele>
        <time>2016-08-26T08:48:05Z</time>
      </trkpt>
      <trkpt lat="46.416223961859941" lon="11.567815113812685">
        <ele>1390.516376495361101</ele>
        <time>2016-08-26T08:48:06Z</time>
      </trkpt>
      <trkpt lat="46.416241228580475" lon="11.567716039717197">
        <ele>1390.898212432861101</ele>
        <time>2016-08-26T08:48:07Z</time>
      </trkpt>
      <trkpt lat="46.416258160024881" lon="11.567598441615701">
        <ele>1391.497943878174055</ele>
        <time>2016-08-26T08:48:08Z</time>
      </trkpt>
      <trkpt lat="46.416277689859271" lon="11.567496852949262">
        <ele>1392.432514190674055</ele>
        <time>2016-08-26T08:48:09Z</time>
      </trkpt>
      <trkpt lat="46.416332256048918" lon="11.5673912409693">
        <ele>1392.882465362549055</ele>
        <time>2016-08-26T08:48:10Z</time>
      </trkpt>
      <trkpt lat="46.416343571618199" lon="11.567304572090507">
        <ele>1393.640888214111101</ele>
        <time>2016-08-26T08:48:11Z</time>
      </trkpt>
      <trkpt lat="46.416402999311686" lon="11.567199965938926">
        <ele>1394.198749542236101</ele>
        <time>2016-08-26T08:48:12Z</time>
      </trkpt>
      <trkpt lat="46.41647701151669" lon="11.567104747518897">
        <ele>1394.616352081299055</ele>
        <time>2016-08-26T08:48:13Z</time>
      </trkpt>
      <trkpt lat="46.416513808071613" lon="11.5669837128371">
        <ele>1394.494281768799055</ele>
        <time>2016-08-26T08:48:14Z</time>
      </trkpt>
      <trkpt lat="46.416542055085301" lon="11.566867455840111">
        <ele>1391.891620635986101</ele>
        <time>2016-08-26T08:48:15Z</time>
      </trkpt>
      <trkpt lat="46.416526632383466" lon="11.566759580746293">
        <ele>1393.028827667236101</ele>
        <time>2016-08-26T08:48:16Z</time>
      </trkpt>
      <trkpt lat="46.416568038985133" lon="11.566672576591372">
        <ele>1392.182147979736101</ele>
        <time>2016-08-26T08:48:17Z</time>
      </trkpt>
      <trkpt lat="46.41657474450767" lon="11.566576519981027">
        <ele>1392.723407745361101</ele>
        <time>2016-08-26T08:48:18Z</time>
      </trkpt>
      <trkpt lat="46.416607433930039" lon="11.566493287682533">
        <ele>1393.164569854736101</ele>
        <time>2016-08-26T08:48:19Z</time>
      </trkpt>
      <trkpt lat="46.41662210226059" lon="11.566401673480868">
        <ele>1393.998188018799055</ele>
        <time>2016-08-26T08:48:20Z</time>
      </trkpt>
      <trkpt lat="46.416641548275948" lon="11.566303437575698">
        <ele>1395.084735870361101</ele>
        <time>2016-08-26T08:48:21Z</time>
      </trkpt>
      <trkpt lat="46.416534008458257" lon="11.566205704584718">
        <ele>1397.189472198486101</ele>
        <time>2016-08-26T08:48:22Z</time>
      </trkpt>
      <trkpt lat="46.416492098942399" lon="11.56610663048923">
        <ele>1398.873554229736101</ele>
        <time>2016-08-26T08:48:23Z</time>
      </trkpt>
      <trkpt lat="46.416426552459598" lon="11.566052986308932">
        <ele>1399.615741729736101</ele>
        <time>2016-08-26T08:48:24Z</time>
      </trkpt>
      <trkpt lat="46.416363436728716" lon="11.566033121198416">
        <ele>1399.800556182861101</ele>
        <time>2016-08-26T08:48:25Z</time>
      </trkpt>
      <trkpt lat="46.416285401210189" lon="11.566166477277875">
        <ele>1399.538959503174055</ele>
        <time>2016-08-26T08:48:26Z</time>
      </trkpt>
      <trkpt lat="46.416203593835235" lon="11.566247949376702">
        <ele>1400.287006378174055</ele>
        <time>2016-08-26T08:48:27Z</time>
      </trkpt>
      <trkpt lat="46.416133269667625" lon="11.566346352919936">
        <ele>1401.839862823486101</ele>
        <time>2016-08-26T08:48:28Z</time>
      </trkpt>
      <trkpt lat="46.416064705699682" lon="11.566455820575356">
        <ele>1402.323871612549055</ele>
        <time>2016-08-26T08:48:29Z</time>
      </trkpt>
      <trkpt lat="46.415974264964461" lon="11.566521115601063">
        <ele>1404.292865753174055</ele>
        <time>2016-08-26T08:48:30Z</time>
      </trkpt>
      <trkpt lat="46.41588089056313" lon="11.56657325103879">
        <ele>1405.972919464111101</ele>
        <time>2016-08-26T08:48:31Z</time>
      </trkpt>
      <trkpt lat="46.415787013247609" lon="11.566606191918254">
        <ele>1407.965351104736101</ele>
        <time>2016-08-26T08:48:32Z</time>
      </trkpt>
      <trkpt lat="46.415698165073991" lon="11.566640557721257">
        <ele>1408.545673370361101</ele>
        <time>2016-08-26T08:48:33Z</time>
      </trkpt>
      <trkpt lat="46.41560428775847" lon="11.56667198985815">
        <ele>1407.791522979736101</ele>
        <time>2016-08-26T08:48:34Z</time>
      </trkpt>
      <trkpt lat="46.415507309138775" lon="11.566734435036778">
        <ele>1407.843647003174055</ele>
        <time>2016-08-26T08:48:35Z</time>
      </trkpt>
      <trkpt lat="46.415428100153804" lon="11.566792437806726">
        <ele>1407.490619659424055</ele>
        <time>2016-08-26T08:48:36Z</time>
      </trkpt>
      <trkpt lat="46.415340844541788" lon="11.566824875771999">
        <ele>1408.050312042236101</ele>
        <time>2016-08-26T08:48:38Z</time>
      </trkpt>
      <trkpt lat="46.41528963111341" lon="11.566881872713566">
        <ele>1406.951679229736101</ele>
        <time>2016-08-26T08:48:39Z</time>
      </trkpt>
      <trkpt lat="46.415245458483696" lon="11.566948760300875">
        <ele>1408.430683135986101</ele>
        <time>2016-08-26T08:48:40Z</time>
      </trkpt>
      <trkpt lat="46.415214193984866" lon="11.567020593211055">
        <ele>1408.801776885986101</ele>
        <time>2016-08-26T08:48:41Z</time>
      </trkpt>
      <trkpt lat="46.415202543139458" lon="11.567096197977662">
        <ele>1408.150287628174055</ele>
        <time>2016-08-26T08:48:42Z</time>
      </trkpt>
      <trkpt lat="46.415163734927773" lon="11.567173982039094">
        <ele>1408.225482940674055</ele>
        <time>2016-08-26T08:48:43Z</time>
      </trkpt>
      <trkpt lat="46.415146887302399" lon="11.567242462188005">
        <ele>1408.682270050049055</ele>
        <time>2016-08-26T08:48:44Z</time>
      </trkpt>
      <trkpt lat="46.415135823190212" lon="11.567340530455112">
        <ele>1408.839740753174055</ele>
        <time>2016-08-26T08:48:45Z</time>
      </trkpt>
      <trkpt lat="46.415103552863002" lon="11.567419236525893">
        <ele>1409.823993682861101</ele>
        <time>2016-08-26T08:48:46Z</time>
      </trkpt>
      <trkpt lat="46.41501403413713" lon="11.567367687821388">
        <ele>1409.980976104736101</ele>
        <time>2016-08-26T08:48:47Z</time>
      </trkpt>
      <trkpt lat="46.414948822930455" lon="11.56735603697598">
        <ele>1410.423603057861101</ele>
        <time>2016-08-26T08:48:48Z</time>
      </trkpt>
      <trkpt lat="46.414878079667687" lon="11.567314462736249">
        <ele>1410.697284698486101</ele>
        <time>2016-08-26T08:48:49Z</time>
      </trkpt>
      <trkpt lat="46.414856370538473" lon="11.567172221839428">
        <ele>1411.349018096924055</ele>
        <time>2016-08-26T08:48:50Z</time>
      </trkpt>
      <trkpt lat="46.414841702207923" lon="11.567048924043775">
        <ele>1413.083759307861101</ele>
        <time>2016-08-26T08:48:51Z</time>
      </trkpt>
      <trkpt lat="46.414824603125453" lon="11.566935265436769">
        <ele>1413.979755401611101</ele>
        <time>2016-08-26T08:48:52Z</time>
      </trkpt>
      <trkpt lat="46.414797948673368" lon="11.566832000389695">
        <ele>1413.813739776611101</ele>
        <time>2016-08-26T08:48:53Z</time>
      </trkpt>
      <trkpt lat="46.414774646982551" lon="11.566722868010402">
        <ele>1413.968280792236101</ele>
        <time>2016-08-26T08:48:54Z</time>
      </trkpt>
      <trkpt lat="46.414761235937476" lon="11.566633936017752">
        <ele>1414.672382354736101</ele>
        <time>2016-08-26T08:48:55Z</time>
      </trkpt>
      <trkpt lat="46.414725445210934" lon="11.566480547189713">
        <ele>1414.822772979736101</ele>
        <time>2016-08-26T08:48:56Z</time>
      </trkpt>
      <trkpt lat="46.414725864306092" lon="11.566345766186714">
        <ele>1415.087665557861101</ele>
        <time>2016-08-26T08:48:57Z</time>
      </trkpt>
      <trkpt lat="46.414697533473372" lon="11.566262701526284">
        <ele>1415.525897979736101</ele>
        <time>2016-08-26T08:48:58Z</time>
      </trkpt>
      <trkpt lat="46.414660820737481" lon="11.5661237295717">
        <ele>1414.887714385986101</ele>
        <time>2016-08-26T08:48:59Z</time>
      </trkpt>
      <trkpt lat="46.414621593430638" lon="11.566015603020787">
        <ele>1414.479755401611101</ele>
        <time>2016-08-26T08:49:00Z</time>
      </trkpt>
      <trkpt lat="46.41459284350276" lon="11.565890796482563">
        <ele>1415.479389190674055</ele>
        <time>2016-08-26T08:49:01Z</time>
      </trkpt>
      <trkpt lat="46.414546323940158" lon="11.565779903903604">
        <ele>1413.820941925049055</ele>
        <time>2016-08-26T08:49:02Z</time>
      </trkpt>
      <trkpt lat="46.41451514326036" lon="11.56567856669426">
        <ele>1415.340351104736101</ele>
        <time>2016-08-26T08:49:03Z</time>
      </trkpt>
      <trkpt lat="46.41450047492981" lon="11.565551999956369">
        <ele>1417.357318878174055</ele>
        <time>2016-08-26T08:49:04Z</time>
      </trkpt>
      <trkpt lat="46.41447608359158" lon="11.565442197024822">
        <ele>1417.722187042236101</ele>
        <time>2016-08-26T08:49:05Z</time>
      </trkpt>
      <trkpt lat="46.414457643404603" lon="11.565329041332006">
        <ele>1419.228534698486101</ele>
        <time>2016-08-26T08:49:06Z</time>
      </trkpt>
      <trkpt lat="46.414491925388575" lon="11.565215634182096">
        <ele>1421.479755401611101</ele>
        <time>2016-08-26T08:49:07Z</time>
      </trkpt>
      <trkpt lat="46.414530230686069" lon="11.565167270600796">
        <ele>1422.797992706299055</ele>
        <time>2016-08-26T08:49:08Z</time>
      </trkpt>
      <trkpt lat="46.414537020027637" lon="11.565091665834188">
        <ele>1423.728900909424055</ele>
        <time>2016-08-26T08:49:09Z</time>
      </trkpt>
      <trkpt lat="46.414529979228973" lon="11.565001644194126">
        <ele>1423.928607940674055</ele>
        <time>2016-08-26T08:49:10Z</time>
      </trkpt>
      <trkpt lat="46.41461388207972" lon="11.564933666959405">
        <ele>1425.033954620361101</ele>
        <time>2016-08-26T08:49:11Z</time>
      </trkpt>
      <trkpt lat="46.41465101391077" lon="11.564852949231863">
        <ele>1425.473896026611101</ele>
        <time>2016-08-26T08:49:12Z</time>
      </trkpt>
      <trkpt lat="46.414649421349168" lon="11.564752785488963">
        <ele>1426.075092315674055</ele>
        <time>2016-08-26T08:49:13Z</time>
      </trkpt>
      <trkpt lat="46.414641039445996" lon="11.564641976729035">
        <ele>1427.284076690674055</ele>
        <time>2016-08-26T08:49:14Z</time>
      </trkpt>
      <trkpt lat="46.414587227627635" lon="11.564580872654915">
        <ele>1428.106708526611101</ele>
        <time>2016-08-26T08:49:15Z</time>
      </trkpt>
      <trkpt lat="46.414606170728803" lon="11.56451222486794">
        <ele>1428.906269073486101</ele>
        <time>2016-08-26T08:49:16Z</time>
      </trkpt>
      <trkpt lat="46.414577923715115" lon="11.564452378079295">
        <ele>1429.362934112549055</ele>
        <time>2016-08-26T08:49:17Z</time>
      </trkpt>
      <trkpt lat="46.414532661437988" lon="11.564378449693322">
        <ele>1429.233295440674055</ele>
        <time>2016-08-26T08:49:18Z</time>
      </trkpt>
      <trkpt lat="46.414480358362198" lon="11.564292954280972">
        <ele>1429.905536651611101</ele>
        <time>2016-08-26T08:49:19Z</time>
      </trkpt>
      <trkpt lat="46.414410872384906" lon="11.564181139692664">
        <ele>1430.803607940674055</ele>
        <time>2016-08-26T08:49:20Z</time>
      </trkpt>
      <trkpt lat="46.414361167699099" lon="11.564109725877643">
        <ele>1431.743671417236101</ele>
        <time>2016-08-26T08:49:21Z</time>
      </trkpt>
      <trkpt lat="46.414290759712458" lon="11.564025487750769">
        <ele>1431.342792510986101</ele>
        <time>2016-08-26T08:49:23Z</time>
      </trkpt>
      <trkpt lat="46.414244491606951" lon="11.563982740044594">
        <ele>1433.585102081299055</ele>
        <time>2016-08-26T08:49:24Z</time>
      </trkpt>
      <trkpt lat="46.414192859083414" lon="11.563932532444596">
        <ele>1433.470478057861101</ele>
        <time>2016-08-26T08:49:25Z</time>
      </trkpt>
      <trkpt lat="46.414148602634668" lon="11.563878888264298">
        <ele>1433.565937042236101</ele>
        <time>2016-08-26T08:49:26Z</time>
      </trkpt>
      <trkpt lat="46.414090935140848" lon="11.563868829980493">
        <ele>1436.026142120361101</ele>
        <time>2016-08-26T08:49:27Z</time>
      </trkpt>
      <trkpt lat="46.414036368951201" lon="11.563855335116386">
        <ele>1436.048114776611101</ele>
        <time>2016-08-26T08:49:28Z</time>
      </trkpt>
      <trkpt lat="46.413972666487098" lon="11.563859693706036">
        <ele>1437.175312042236101</ele>
        <time>2016-08-26T08:49:29Z</time>
      </trkpt>
      <trkpt lat="46.413918770849705" lon="11.563884671777487">
        <ele>1437.296894073486101</ele>
        <time>2016-08-26T08:49:30Z</time>
      </trkpt>
      <trkpt lat="46.413865461945534" lon="11.563935466110706">
        <ele>1436.900043487549055</ele>
        <time>2016-08-26T08:49:31Z</time>
      </trkpt>
      <trkpt lat="46.413817433640361" lon="11.56398206949234">
        <ele>1438.193378448486101</ele>
        <time>2016-08-26T08:49:32Z</time>
      </trkpt>
      <trkpt lat="46.413768986240029" lon="11.56403386965394">
        <ele>1438.195697784424055</ele>
        <time>2016-08-26T08:49:33Z</time>
      </trkpt>
      <trkpt lat="46.413712659850717" lon="11.564092878252268">
        <ele>1439.389545440674055</ele>
        <time>2016-08-26T08:49:34Z</time>
      </trkpt>
      <trkpt lat="46.41367519274354" lon="11.56413403339684">
        <ele>1435.229267120361101</ele>
        <time>2016-08-26T08:49:35Z</time>
      </trkpt>
      <trkpt lat="46.413632864132524" lon="11.564204525202513">
        <ele>1434.687641143799055</ele>
        <time>2016-08-26T08:49:36Z</time>
      </trkpt>
      <trkpt lat="46.413584919646382" lon="11.564263114705682">
        <ele>1435.840595245361101</ele>
        <time>2016-08-26T08:49:37Z</time>
      </trkpt>
      <trkpt lat="46.413545608520508" lon="11.564315501600504">
        <ele>1437.310321807861101</ele>
        <time>2016-08-26T08:49:38Z</time>
      </trkpt>
      <trkpt lat="46.413497999310493" lon="11.564373001456261">
        <ele>1437.283710479736101</ele>
        <time>2016-08-26T08:49:39Z</time>
      </trkpt>
      <trkpt lat="46.413444355130196" lon="11.564433267340064">
        <ele>1438.299335479736101</ele>
        <time>2016-08-26T08:49:40Z</time>
      </trkpt>
      <trkpt lat="46.413387693464756" lon="11.56449805945158">
        <ele>1439.902729034424055</ele>
        <time>2016-08-26T08:49:41Z</time>
      </trkpt>
      <trkpt lat="46.413328852504492" lon="11.564563186839223">
        <ele>1441.056537628174055</ele>
        <time>2016-08-26T08:49:42Z</time>
      </trkpt>
      <trkpt lat="46.413264311850071" lon="11.564624877646565">
        <ele>1442.896137237549055</ele>
        <time>2016-08-26T08:49:43Z</time>
      </trkpt>
      <trkpt lat="46.41321150586009" lon="11.564692687243223">
        <ele>1444.652729034424055</ele>
        <time>2016-08-26T08:49:44Z</time>
      </trkpt>
      <trkpt lat="46.413144618272781" lon="11.564758066087961">
        <ele>1445.899799346924055</ele>
        <time>2016-08-26T08:49:45Z</time>
      </trkpt>
      <trkpt lat="46.413088543340564" lon="11.564821768552065">
        <ele>1444.289325714111101</ele>
        <time>2016-08-26T08:49:46Z</time>
      </trkpt>
      <trkpt lat="46.413029199466109" lon="11.564893601462245">
        <ele>1444.381122589111101</ele>
        <time>2016-08-26T08:49:47Z</time>
      </trkpt>
      <trkpt lat="46.41298670321703" lon="11.564956046640873">
        <ele>1443.956317901611101</ele>
        <time>2016-08-26T08:49:48Z</time>
      </trkpt>
      <trkpt lat="46.412932807579637" lon="11.565020754933357">
        <ele>1443.605609893799055</ele>
        <time>2016-08-26T08:49:49Z</time>
      </trkpt>
      <trkpt lat="46.412885701283813" lon="11.565096359699965">
        <ele>1442.623310089111101</ele>
        <time>2016-08-26T08:49:50Z</time>
      </trkpt>
      <trkpt lat="46.412840019911528" lon="11.56512594781816">
        <ele>1444.839008331299055</ele>
        <time>2016-08-26T08:49:51Z</time>
      </trkpt>
      <trkpt lat="46.412785118445754" lon="11.565154530107975">
        <ele>1445.759906768799055</ele>
        <time>2016-08-26T08:49:52Z</time>
      </trkpt>
      <trkpt lat="46.412731809541583" lon="11.565219908952713">
        <ele>1445.595722198486101</ele>
        <time>2016-08-26T08:49:53Z</time>
      </trkpt>
      <trkpt lat="46.412670118734241" lon="11.565287802368402">
        <ele>1446.079242706299055</ele>
        <time>2016-08-26T08:49:54Z</time>
      </trkpt>
      <trkpt lat="46.412610020488501" lon="11.56534924171865">
        <ele>1447.644794464111101</ele>
        <time>2016-08-26T08:49:55Z</time>
      </trkpt>
      <trkpt lat="46.412559729069471" lon="11.565400706604123">
        <ele>1448.679096221924055</ele>
        <time>2016-08-26T08:49:56Z</time>
      </trkpt>
      <trkpt lat="46.4125323202461" lon="11.565476395189762">
        <ele>1447.801410675049055</ele>
        <time>2016-08-26T08:49:57Z</time>
      </trkpt>
      <trkpt lat="46.412487979978323" lon="11.565553257241845">
        <ele>1448.354877471924055</ele>
        <time>2016-08-26T08:49:58Z</time>
      </trkpt>
      <trkpt lat="46.412448501214385" lon="11.565613942220807">
        <ele>1449.132099151611101</ele>
        <time>2016-08-26T08:49:59Z</time>
      </trkpt>
      <trkpt lat="46.412390330806375" lon="11.565646715462208">
        <ele>1449.367084503174055</ele>
        <time>2016-08-26T08:50:00Z</time>
      </trkpt>
      <trkpt lat="46.412333250045776" lon="11.56568443402648">
        <ele>1447.974872589111101</ele>
        <time>2016-08-26T08:50:01Z</time>
      </trkpt>
      <trkpt lat="46.412276085466146" lon="11.565713435411453">
        <ele>1448.765155792236101</ele>
        <time>2016-08-26T08:50:02Z</time>
      </trkpt>
      <trkpt lat="46.412214143201709" lon="11.565725756809115">
        <ele>1448.662372589111101</ele>
        <time>2016-08-26T08:50:03Z</time>
      </trkpt>
      <trkpt lat="46.412154380232096" lon="11.565778478980064">
        <ele>1448.679462432861101</ele>
        <time>2016-08-26T08:50:04Z</time>
      </trkpt>
      <trkpt lat="46.412101993337274" lon="11.565854083746672">
        <ele>1448.857074737549055</ele>
        <time>2016-08-26T08:50:05Z</time>
      </trkpt>
      <trkpt lat="46.412018090486526" lon="11.565833883360028">
        <ele>1449.369770050049055</ele>
        <time>2016-08-26T08:50:06Z</time>
      </trkpt>
      <trkpt lat="46.411938965320587" lon="11.56587109901011">
        <ele>1450.873432159424055</ele>
        <time>2016-08-26T08:50:08Z</time>
      </trkpt>
      <trkpt lat="46.411903342232108" lon="11.565935304388404">
        <ele>1450.789203643799055</ele>
        <time>2016-08-26T08:50:09Z</time>
      </trkpt>
      <trkpt lat="46.411872580647469" lon="11.566064720973372">
        <ele>1450.548725128174055</ele>
        <time>2016-08-26T08:50:10Z</time>
      </trkpt>
      <trkpt lat="46.411834107711911" lon="11.566122053191066">
        <ele>1448.373676300049055</ele>
        <time>2016-08-26T08:50:11Z</time>
      </trkpt>
      <trkpt lat="46.411758754402399" lon="11.566193718463182">
        <ele>1450.135150909424055</ele>
        <time>2016-08-26T08:50:12Z</time>
      </trkpt>
      <trkpt lat="46.411698823794723" lon="11.566257337108254">
        <ele>1451.778705596924055</ele>
        <time>2016-08-26T08:50:13Z</time>
      </trkpt>
      <trkpt lat="46.411669654771686" lon="11.56635532155633">
        <ele>1452.409564971924055</ele>
        <time>2016-08-26T08:50:14Z</time>
      </trkpt>
      <trkpt lat="46.411592289805412" lon="11.566406283527613">
        <ele>1451.647602081299055</ele>
        <time>2016-08-26T08:50:15Z</time>
      </trkpt>
      <trkpt lat="46.411542752757668" lon="11.566464705392718">
        <ele>1452.590351104736101</ele>
        <time>2016-08-26T08:50:16Z</time>
      </trkpt>
      <trkpt lat="46.411463962867856" lon="11.566488677635789">
        <ele>1453.525409698486101</ele>
        <time>2016-08-26T08:50:17Z</time>
      </trkpt>
      <trkpt lat="46.411394644528627" lon="11.566536286845803">
        <ele>1454.923969268799055</ele>
        <time>2016-08-26T08:50:18Z</time>
      </trkpt>
      <trkpt lat="46.411319877952337" lon="11.566590014845133">
        <ele>1455.155048370361101</ele>
        <time>2016-08-26T08:50:19Z</time>
      </trkpt>
      <trkpt lat="46.411273023113608" lon="11.566622033715248">
        <ele>1456.514545440674055</ele>
        <time>2016-08-26T08:50:20Z</time>
      </trkpt>
      <trkpt lat="46.411222396418452" lon="11.566666038706899">
        <ele>1457.432758331299055</ele>
        <time>2016-08-26T08:50:21Z</time>
      </trkpt>
      <trkpt lat="46.411139164119959" lon="11.566727142781019">
        <ele>1455.583515167236101</ele>
        <time>2016-08-26T08:50:23Z</time>
      </trkpt>
      <trkpt lat="46.411065654829144" lon="11.566762011498213">
        <ele>1456.702411651611101</ele>
        <time>2016-08-26T08:50:24Z</time>
      </trkpt>
      <trkpt lat="46.411009328439832" lon="11.566833509132266">
        <ele>1457.885028839111101</ele>
        <time>2016-08-26T08:50:25Z</time>
      </trkpt>
      <trkpt lat="46.410961635410786" lon="11.566909700632095">
        <ele>1461.452167510986101</ele>
        <time>2016-08-26T08:50:26Z</time>
      </trkpt>
      <trkpt lat="46.41093690879643" lon="11.567004919052124">
        <ele>1464.480854034424055</ele>
        <time>2016-08-26T08:50:28Z</time>
      </trkpt>
      <trkpt lat="46.410987703129649" lon="11.566990334540606">
        <ele>1466.566547393799055</ele>
        <time>2016-08-26T08:50:31Z</time>
      </trkpt>
      <trkpt lat="46.411094991490245" lon="11.566916741430759">
        <ele>1468.008197784424055</ele>
        <time>2016-08-26T08:50:32Z</time>
      </trkpt>
      <trkpt lat="46.411244021728635" lon="11.566800232976675">
        <ele>1467.796527862549055</ele>
        <time>2016-08-26T08:50:33Z</time>
      </trkpt>
      <trkpt lat="46.411400092765689" lon="11.566761508584023">
        <ele>1468.990131378174055</ele>
        <time>2016-08-26T08:50:34Z</time>
      </trkpt>
      <trkpt lat="46.411504447460175" lon="11.566696213558316">
        <ele>1468.588642120361101</ele>
        <time>2016-08-26T08:50:35Z</time>
      </trkpt>
      <trkpt lat="46.411591619253159" lon="11.566632259637117">
        <ele>1469.370624542236101</ele>
        <time>2016-08-26T08:50:36Z</time>
      </trkpt>
      <trkpt lat="46.411683904007077" lon="11.566615076735616">
        <ele>1470.685077667236101</ele>
        <time>2016-08-26T08:50:37Z</time>
      </trkpt>
      <trkpt lat="46.411775266751647" lon="11.56660258769989">
        <ele>1470.625995635986101</ele>
        <time>2016-08-26T08:50:38Z</time>
      </trkpt>
      <trkpt lat="46.411881549283862" lon="11.566597474738955">
        <ele>1472.174945831299055</ele>
        <time>2016-08-26T08:50:39Z</time>
      </trkpt>
      <trkpt lat="46.411975426599383" lon="11.566595798358321">
        <ele>1474.455585479736101</ele>
        <time>2016-08-26T08:50:40Z</time>
      </trkpt>
      <trkpt lat="46.412098221480846" lon="11.566566377878189">
        <ele>1474.875263214111101</ele>
        <time>2016-08-26T08:50:41Z</time>
      </trkpt>
      <trkpt lat="46.412165025249124" lon="11.566603425890207">
        <ele>1475.563617706299055</ele>
        <time>2016-08-26T08:50:42Z</time>
      </trkpt>
      <trkpt lat="46.412232583388686" lon="11.566653968766332">
        <ele>1476.150775909424055</ele>
        <time>2016-08-26T08:50:43Z</time>
      </trkpt>
      <trkpt lat="46.412262674421072" lon="11.566832503303885">
        <ele>1477.938617706299055</ele>
        <time>2016-08-26T08:50:44Z</time>
      </trkpt>
      <trkpt lat="46.412273570895195" lon="11.566939540207386">
        <ele>1478.555561065674055</ele>
        <time>2016-08-26T08:50:45Z</time>
      </trkpt>
      <trkpt lat="46.412285221740603" lon="11.567009445279837">
        <ele>1480.215839385986101</ele>
        <time>2016-08-26T08:50:46Z</time>
      </trkpt>
      <trkpt lat="46.412224788218737" lon="11.567150428891182">
        <ele>1480.751728057861101</ele>
        <time>2016-08-26T08:50:47Z</time>
      </trkpt>
      <trkpt lat="46.412183297798038" lon="11.567293927073479">
        <ele>1480.600849151611101</ele>
        <time>2016-08-26T08:50:48Z</time>
      </trkpt>
      <trkpt lat="46.412132000550628" lon="11.567414542660117">
        <ele>1480.826679229736101</ele>
        <time>2016-08-26T08:50:49Z</time>
      </trkpt>
      <trkpt lat="46.412106184288859" lon="11.567526524886489">
        <ele>1481.790424346924055</ele>
        <time>2016-08-26T08:50:50Z</time>
      </trkpt>
      <trkpt lat="46.412082714959979" lon="11.567697431892157">
        <ele>1481.730731964111101</ele>
        <time>2016-08-26T08:50:51Z</time>
      </trkpt>
      <trkpt lat="46.412024293094873" lon="11.567848222330213">
        <ele>1481.539081573486101</ele>
        <time>2016-08-26T08:50:52Z</time>
      </trkpt>
      <trkpt lat="46.411986742168665" lon="11.567964982241392">
        <ele>1482.106830596924055</ele>
        <time>2016-08-26T08:50:53Z</time>
      </trkpt>
      <trkpt lat="46.411956148222089" lon="11.56808115541935">
        <ele>1482.925434112549055</ele>
        <time>2016-08-26T08:50:54Z</time>
      </trkpt>
      <trkpt lat="46.411942569538951" lon="11.568207805976272">
        <ele>1483.590595245361101</ele>
        <time>2016-08-26T08:50:55Z</time>
      </trkpt>
      <trkpt lat="46.41194935888052" lon="11.568278465420008">
        <ele>1485.257465362549055</ele>
        <time>2016-08-26T08:50:56Z</time>
      </trkpt>
      <trkpt lat="46.41195329837501" lon="11.568371504545212">
        <ele>1486.307758331299055</ele>
        <time>2016-08-26T08:50:57Z</time>
      </trkpt>
      <trkpt lat="46.411956399679184" lon="11.568454569205642">
        <ele>1486.744403839111101</ele>
        <time>2016-08-26T08:50:58Z</time>
      </trkpt>
      <trkpt lat="46.411971487104893" lon="11.568522211164236">
        <ele>1487.537494659424055</ele>
        <time>2016-08-26T08:50:59Z</time>
      </trkpt>
      <trkpt lat="46.4120177552104" lon="11.568562276661396">
        <ele>1488.786029815674055</ele>
        <time>2016-08-26T08:51:00Z</time>
      </trkpt>
      <trkpt lat="46.412046924233437" lon="11.568613070994616">
        <ele>1490.021869659424055</ele>
        <time>2016-08-26T08:51:01Z</time>
      </trkpt>
      <trkpt lat="46.412123283371329" lon="11.568654393777251">
        <ele>1491.244892120361101</ele>
        <time>2016-08-26T08:51:02Z</time>
      </trkpt>
      <trkpt lat="46.412160499021411" lon="11.568713737651706">
        <ele>1492.371234893799055</ele>
        <time>2016-08-26T08:51:03Z</time>
      </trkpt>
      <trkpt lat="46.412183130159974" lon="11.568799652159214">
        <ele>1495.066913604736101</ele>
        <time>2016-08-26T08:51:04Z</time>
      </trkpt>
      <trkpt lat="46.412146668881178" lon="11.568883722648025">
        <ele>1495.490497589111101</ele>
        <time>2016-08-26T08:51:05Z</time>
      </trkpt>
      <trkpt lat="46.412093946710229" lon="11.568930074572563">
        <ele>1495.934467315674055</ele>
        <time>2016-08-26T08:51:06Z</time>
      </trkpt>
      <trkpt lat="46.412030076608062" lon="11.568987993523479">
        <ele>1497.048480987549055</ele>
        <time>2016-08-26T08:51:07Z</time>
      </trkpt>
      <trkpt lat="46.411955980584025" lon="11.569058485329151">
        <ele>1497.469501495361101</ele>
        <time>2016-08-26T08:51:08Z</time>
      </trkpt>
      <trkpt lat="46.411879537627101" lon="11.56914297491312">
        <ele>1497.613910675049055</ele>
        <time>2016-08-26T08:51:09Z</time>
      </trkpt>
      <trkpt lat="46.411821031942964" lon="11.569224027916789">
        <ele>1496.654071807861101</ele>
        <time>2016-08-26T08:51:10Z</time>
      </trkpt>
      <trkpt lat="46.41175246797502" lon="11.569290244951844">
        <ele>1496.695697784424055</ele>
        <time>2016-08-26T08:51:11Z</time>
      </trkpt>
      <trkpt lat="46.411681305617094" lon="11.569351181387901">
        <ele>1497.948505401611101</ele>
        <time>2016-08-26T08:51:12Z</time>
      </trkpt>
      <trkpt lat="46.411668062210083" lon="11.569471713155508">
        <ele>1497.610126495361101</ele>
        <time>2016-08-26T08:51:13Z</time>
      </trkpt>
      <trkpt lat="46.411596145480871" lon="11.569538852199912">
        <ele>1497.285663604736101</ele>
        <time>2016-08-26T08:51:14Z</time>
      </trkpt>
      <trkpt lat="46.411543674767017" lon="11.569577241316438">
        <ele>1496.552631378174055</ele>
        <time>2016-08-26T08:51:15Z</time>
      </trkpt>
      <trkpt lat="46.411416437476873" lon="11.569645386189222">
        <ele>1496.583026885986101</ele>
        <time>2016-08-26T08:51:16Z</time>
      </trkpt>
      <trkpt lat="46.411348627880216" lon="11.569724176079035">
        <ele>1496.339374542236101</ele>
        <time>2016-08-26T08:51:17Z</time>
      </trkpt>
      <trkpt lat="46.41131610609591" lon="11.569790728390217">
        <ele>1496.963031768799055</ele>
        <time>2016-08-26T08:51:18Z</time>
      </trkpt>
      <trkpt lat="46.411265814676881" lon="11.569868177175522">
        <ele>1496.573871612549055</ele>
        <time>2016-08-26T08:51:19Z</time>
      </trkpt>
      <trkpt lat="46.41121057793498" lon="11.569958114996552">
        <ele>1496.818256378174055</ele>
        <time>2016-08-26T08:51:20Z</time>
      </trkpt>
      <trkpt lat="46.411178056150675" lon="11.570029444992542">
        <ele>1496.869525909424055</ele>
        <time>2016-08-26T08:51:21Z</time>
      </trkpt>
      <trkpt lat="46.411119801923633" lon="11.570115443319082">
        <ele>1497.704120635986101</ele>
        <time>2016-08-26T08:51:22Z</time>
      </trkpt>
      <trkpt lat="46.411053333431482" lon="11.570236645638943">
        <ele>1497.578022003174055</ele>
        <time>2016-08-26T08:51:23Z</time>
      </trkpt>
      <trkpt lat="46.41099457629025" lon="11.570312837138772">
        <ele>1498.963153839111101</ele>
        <time>2016-08-26T08:51:24Z</time>
      </trkpt>
      <trkpt lat="46.410945625975728" lon="11.570419203490019">
        <ele>1498.996356964111101</ele>
        <time>2016-08-26T08:51:25Z</time>
      </trkpt>
      <trkpt lat="46.410897262394428" lon="11.570519031956792">
        <ele>1500.258563995361101</ele>
        <time>2016-08-26T08:51:26Z</time>
      </trkpt>
      <trkpt lat="46.410867590457201" lon="11.570600336417556">
        <ele>1503.568134307861101</ele>
        <time>2016-08-26T08:51:27Z</time>
      </trkpt>
      <trkpt lat="46.410828614607453" lon="11.570675857365131">
        <ele>1506.065448760986101</ele>
        <time>2016-08-26T08:51:28Z</time>
      </trkpt>
      <trkpt lat="46.410776562988758" lon="11.570758922025561">
        <ele>1507.835956573486101</ele>
        <time>2016-08-26T08:51:29Z</time>
      </trkpt>
      <trkpt lat="46.410712692886591" lon="11.570829078555107">
        <ele>1508.825946807861101</ele>
        <time>2016-08-26T08:51:30Z</time>
      </trkpt>
      <trkpt lat="46.410665921866894" lon="11.570873837918043">
        <ele>1510.466815948486101</ele>
        <time>2016-08-26T08:51:31Z</time>
      </trkpt>
      <trkpt lat="46.41061395406723" lon="11.570940306410193">
        <ele>1510.691669464111101</ele>
        <time>2016-08-26T08:51:32Z</time>
      </trkpt>
      <trkpt lat="46.410552263259888" lon="11.57099386677146">
        <ele>1512.025897979736101</ele>
        <time>2016-08-26T08:51:33Z</time>
      </trkpt>
      <trkpt lat="46.410513203591108" lon="11.571054132655263">
        <ele>1512.068378448486101</ele>
        <time>2016-08-26T08:51:34Z</time>
      </trkpt>
      <trkpt lat="46.410414716228843" lon="11.571135772392154">
        <ele>1511.942157745361101</ele>
        <time>2016-08-26T08:51:35Z</time>
      </trkpt>
      <trkpt lat="46.410382362082601" lon="11.571210203692317">
        <ele>1511.665546417236101</ele>
        <time>2016-08-26T08:51:36Z</time>
      </trkpt>
      <trkpt lat="46.410349253565073" lon="11.571301566436887">
        <ele>1512.047382354736101</ele>
        <time>2016-08-26T08:51:37Z</time>
      </trkpt>
      <trkpt lat="46.410286808386445" lon="11.571371722966433">
        <ele>1512.139911651611101</ele>
        <time>2016-08-26T08:51:38Z</time>
      </trkpt>
      <trkpt lat="46.410239282995462" lon="11.571417236700654">
        <ele>1513.046161651611101</ele>
        <time>2016-08-26T08:51:39Z</time>
      </trkpt>
      <trkpt lat="46.410207012668252" lon="11.571491081267595">
        <ele>1514.634052276611101</ele>
        <time>2016-08-26T08:51:40Z</time>
      </trkpt>
      <trkpt lat="46.410141047090292" lon="11.571573307737708">
        <ele>1515.544696807861101</ele>
        <time>2016-08-26T08:51:41Z</time>
      </trkpt>
      <trkpt lat="46.410067621618509" lon="11.571673471480608">
        <ele>1516.296161651611101</ele>
        <time>2016-08-26T08:51:42Z</time>
      </trkpt>
      <trkpt lat="46.410007104277611" lon="11.571749914437532">
        <ele>1516.780536651611101</ele>
        <time>2016-08-26T08:51:43Z</time>
      </trkpt>
      <trkpt lat="46.409946335479617" lon="11.571833482012153">
        <ele>1516.461200714111101</ele>
        <time>2016-08-26T08:51:44Z</time>
      </trkpt>
      <trkpt lat="46.409887997433543" lon="11.571921408176422">
        <ele>1517.023700714111101</ele>
        <time>2016-08-26T08:51:45Z</time>
      </trkpt>
      <trkpt lat="46.40983359888196" lon="11.571965329349041">
        <ele>1518.390644073486101</ele>
        <time>2016-08-26T08:51:46Z</time>
      </trkpt>
      <trkpt lat="46.409774757921696" lon="11.572045292705297">
        <ele>1518.369892120361101</ele>
        <time>2016-08-26T08:51:47Z</time>
      </trkpt>
      <trkpt lat="46.409722790122032" lon="11.572111677378416">
        <ele>1519.592548370361101</ele>
        <time>2016-08-26T08:51:48Z</time>
      </trkpt>
      <trkpt lat="46.409664116799831" lon="11.572178481146693">
        <ele>1519.624286651611101</ele>
        <time>2016-08-26T08:51:49Z</time>
      </trkpt>
      <trkpt lat="46.409621872007847" lon="11.572247967123985">
        <ele>1521.565692901611101</ele>
        <time>2016-08-26T08:51:50Z</time>
      </trkpt>
      <trkpt lat="46.409541573375463" lon="11.572320470586419">
        <ele>1523.036396026611101</ele>
        <time>2016-08-26T08:51:51Z</time>
      </trkpt>
      <trkpt lat="46.409493628889322" lon="11.572384592145681">
        <ele>1525.365497589111101</ele>
        <time>2016-08-26T08:51:52Z</time>
      </trkpt>
      <trkpt lat="46.409437721595168" lon="11.572428429499269">
        <ele>1527.135028839111101</ele>
        <time>2016-08-26T08:51:53Z</time>
      </trkpt>
      <trkpt lat="46.409398326650262" lon="11.572509566321969">
        <ele>1526.758075714111101</ele>
        <time>2016-08-26T08:51:54Z</time>
      </trkpt>
      <trkpt lat="46.409344179555774" lon="11.572560276836157">
        <ele>1528.849140167236101</ele>
        <time>2016-08-26T08:51:55Z</time>
      </trkpt>
      <trkpt lat="46.409305455163121" lon="11.572657926008105">
        <ele>1531.154315948486101</ele>
        <time>2016-08-26T08:51:56Z</time>
      </trkpt>
      <trkpt lat="46.409273352473974" lon="11.572769992053509">
        <ele>1533.846454620361101</ele>
        <time>2016-08-26T08:51:57Z</time>
      </trkpt>
      <trkpt lat="46.409255834296346" lon="11.572876274585724">
        <ele>1532.425556182861101</ele>
        <time>2016-08-26T08:51:58Z</time>
      </trkpt>
      <trkpt lat="46.409230437129736" lon="11.572986915707588">
        <ele>1536.488544464111101</ele>
        <time>2016-08-26T08:51:59Z</time>
      </trkpt>
      <trkpt lat="46.409208728000522" lon="11.573126893490553">
        <ele>1536.596454620361101</ele>
        <time>2016-08-26T08:52:00Z</time>
      </trkpt>
      <trkpt lat="46.409229012206197" lon="11.573250023648143">
        <ele>1536.928974151611101</ele>
        <time>2016-08-26T08:52:01Z</time>
      </trkpt>
      <trkpt lat="46.409225910902023" lon="11.573374662548304">
        <ele>1537.309101104736101</ele>
        <time>2016-08-26T08:52:02Z</time>
      </trkpt>
      <trkpt lat="46.409274023026228" lon="11.573482370004058">
        <ele>1538.767841339111101</ele>
        <time>2016-08-26T08:52:03Z</time>
      </trkpt>
      <trkpt lat="46.40932833775878" lon="11.573593178763986">
        <ele>1539.879657745361101</ele>
        <time>2016-08-26T08:52:04Z</time>
      </trkpt>
      <trkpt lat="46.409407462924719" lon="11.573689905926585">
        <ele>1538.588642120361101</ele>
        <time>2016-08-26T08:52:05Z</time>
      </trkpt>
      <trkpt lat="46.409461190924048" lon="11.573771880939603">
        <ele>1538.288837432861101</ele>
        <time>2016-08-26T08:52:06Z</time>
      </trkpt>
      <trkpt lat="46.409525899216533" lon="11.573841702193022">
        <ele>1540.305683135986101</ele>
        <time>2016-08-26T08:52:07Z</time>
      </trkpt>
      <trkpt lat="46.409590523689985" lon="11.57390221953392">
        <ele>1540.580829620361101</ele>
        <time>2016-08-26T08:52:08Z</time>
      </trkpt>
      <trkpt lat="46.409653220325708" lon="11.573958462104201">
        <ele>1542.515155792236101</ele>
        <time>2016-08-26T08:52:09Z</time>
      </trkpt>
      <trkpt lat="46.409698063507676" lon="11.574020404368639">
        <ele>1543.134540557861101</ele>
        <time>2016-08-26T08:52:10Z</time>
      </trkpt>
      <trkpt lat="46.409726478159428" lon="11.574083603918552">
        <ele>1542.583759307861101</ele>
        <time>2016-08-26T08:52:11Z</time>
      </trkpt>
      <trkpt lat="46.409773919731379" lon="11.574134733527899">
        <ele>1544.778583526611101</ele>
        <time>2016-08-26T08:52:12Z</time>
      </trkpt>
      <trkpt lat="46.409807950258255" lon="11.574203297495842">
        <ele>1546.814716339111101</ele>
        <time>2016-08-26T08:52:13Z</time>
      </trkpt>
      <trkpt lat="46.409844914451241" lon="11.574275633320212">
        <ele>1548.294696807861101</ele>
        <time>2016-08-26T08:52:14Z</time>
      </trkpt>
      <trkpt lat="46.409884225577116" lon="11.574340090155602">
        <ele>1549.030780792236101</ele>
        <time>2016-08-26T08:52:15Z</time>
      </trkpt>
      <trkpt lat="46.409924626350403" lon="11.574418125674129">
        <ele>1549.819599151611101</ele>
        <time>2016-08-26T08:52:16Z</time>
      </trkpt>
      <trkpt lat="46.40997969545424" lon="11.574474703520536">
        <ele>1550.013690948486101</ele>
        <time>2016-08-26T08:52:17Z</time>
      </trkpt>
      <trkpt lat="46.410026298835874" lon="11.574528934434056">
        <ele>1549.407489776611101</ele>
        <time>2016-08-26T08:52:18Z</time>
      </trkpt>
      <trkpt lat="46.410064352676272" lon="11.574591463431716">
        <ele>1549.390888214111101</ele>
        <time>2016-08-26T08:52:19Z</time>
      </trkpt>
      <trkpt lat="46.41008866019547" lon="11.574660865589976">
        <ele>1550.990741729736101</ele>
        <time>2016-08-26T08:52:20Z</time>
      </trkpt>
      <trkpt lat="46.410130988806486" lon="11.574713755398989">
        <ele>1551.393817901611101</ele>
        <time>2016-08-26T08:52:21Z</time>
      </trkpt>
      <trkpt lat="46.410160409286618" lon="11.574782151728868">
        <ele>1551.693134307861101</ele>
        <time>2016-08-26T08:52:22Z</time>
      </trkpt>
      <trkpt lat="46.410193350166082" lon="11.57486429437995">
        <ele>1551.987079620361101</ele>
        <time>2016-08-26T08:52:23Z</time>
      </trkpt>
      <trkpt lat="46.410224279388785" lon="11.574931936338544">
        <ele>1552.225849151611101</ele>
        <time>2016-08-26T08:52:24Z</time>
      </trkpt>
      <trkpt lat="46.410263674333692" lon="11.575029334053397">
        <ele>1553.188739776611101</ele>
        <time>2016-08-26T08:52:25Z</time>
      </trkpt>
      <trkpt lat="46.41030658967793" lon="11.575130084529519">
        <ele>1553.507099151611101</ele>
        <time>2016-08-26T08:52:26Z</time>
      </trkpt>
      <trkpt lat="46.410346990451217" lon="11.575223626568913">
        <ele>1553.707782745361101</ele>
        <time>2016-08-26T08:52:27Z</time>
      </trkpt>
      <trkpt lat="46.410394012928009" lon="11.575320856645703">
        <ele>1555.339862823486101</ele>
        <time>2016-08-26T08:52:28Z</time>
      </trkpt>
      <trkpt lat="46.410427708178759" lon="11.575416242703795">
        <ele>1555.770771026611101</ele>
        <time>2016-08-26T08:52:28Z</time>
      </trkpt>
      <trkpt lat="46.410455787554383" lon="11.575500229373574">
        <ele>1557.833759307861101</ele>
        <time>2016-08-26T08:52:30Z</time>
      </trkpt>
      <trkpt lat="46.410500211641192" lon="11.575671387836337">
        <ele>1555.809345245361101</ele>
        <time>2016-08-26T08:52:32Z</time>
      </trkpt>
      <trkpt lat="46.4105015527457" lon="11.575805079191923">
        <ele>1557.384540557861101</ele>
        <time>2016-08-26T08:52:33Z</time>
      </trkpt>
      <trkpt lat="46.410507336258888" lon="11.57592804171145">
        <ele>1556.517597198486101</ele>
        <time>2016-08-26T08:52:34Z</time>
      </trkpt>
      <trkpt lat="46.410505827516317" lon="11.576056536287069">
        <ele>1557.937763214111101</ele>
        <time>2016-08-26T08:52:35Z</time>
      </trkpt>
      <trkpt lat="46.410491745918989" lon="11.576170362532139">
        <ele>1558.500507354736101</ele>
        <time>2016-08-26T08:52:36Z</time>
      </trkpt>
      <trkpt lat="46.410493925213814" lon="11.576304472982883">
        <ele>1557.853534698486101</ele>
        <time>2016-08-26T08:52:37Z</time>
      </trkpt>
      <trkpt lat="46.410506414249539" lon="11.576446462422609">
        <ele>1558.204120635986101</ele>
        <time>2016-08-26T08:52:38Z</time>
      </trkpt>
      <trkpt lat="46.410522507503629" lon="11.576587278395891">
        <ele>1558.846454620361101</ele>
        <time>2016-08-26T08:52:39Z</time>
      </trkpt>
      <trkpt lat="46.410540612414479" lon="11.576715102419257">
        <ele>1557.646259307861101</ele>
        <time>2016-08-26T08:52:40Z</time>
      </trkpt>
      <trkpt lat="46.410524100065231" lon="11.576810320839286">
        <ele>1558.127216339111101</ele>
        <time>2016-08-26T08:52:41Z</time>
      </trkpt>
      <trkpt lat="46.410511275753379" lon="11.576938228681684">
        <ele>1557.510028839111101</ele>
        <time>2016-08-26T08:52:42Z</time>
      </trkpt>
      <trkpt lat="46.410457547754049" lon="11.577060772106051">
        <ele>1557.972187042236101</ele>
        <time>2016-08-26T08:52:43Z</time>
      </trkpt>
      <trkpt lat="46.410405412316322" lon="11.577176190912724">
        <ele>1558.790790557861101</ele>
        <time>2016-08-26T08:52:44Z</time>
      </trkpt>
      <trkpt lat="46.410327795892954" lon="11.577294459566474">
        <ele>1559.826923370361101</ele>
        <time>2016-08-26T08:52:45Z</time>
      </trkpt>
      <trkpt lat="46.410294938832521" lon="11.577419014647603">
        <ele>1559.084980010986101</ele>
        <time>2016-08-26T08:52:46Z</time>
      </trkpt>
      <trkpt lat="46.410241713747382" lon="11.577529655769467">
        <ele>1559.866474151611101</ele>
        <time>2016-08-26T08:52:47Z</time>
      </trkpt>
      <trkpt lat="46.410187315195799" lon="11.577628729864955">
        <ele>1561.203388214111101</ele>
        <time>2016-08-26T08:52:48Z</time>
      </trkpt>
      <trkpt lat="46.410136017948389" lon="11.577741047367454">
        <ele>1563.258319854736101</ele>
        <time>2016-08-26T08:52:49Z</time>
      </trkpt>
      <trkpt lat="46.410094946622849" lon="11.577867865562439">
        <ele>1563.089374542236101</ele>
        <time>2016-08-26T08:52:50Z</time>
      </trkpt>
      <trkpt lat="46.410047924146056" lon="11.57794707454741">
        <ele>1564.415790557861101</ele>
        <time>2016-08-26T08:52:51Z</time>
      </trkpt>
      <trkpt lat="46.409991681575775" lon="11.578027624636889">
        <ele>1565.943622589111101</ele>
        <time>2016-08-26T08:52:52Z</time>
      </trkpt>
      <trkpt lat="46.409951532259583" lon="11.578115383163095">
        <ele>1566.608173370361101</ele>
        <time>2016-08-26T08:52:53Z</time>
      </trkpt>
      <trkpt lat="46.409883471205831" lon="11.578178750351071">
        <ele>1566.223407745361101</ele>
        <time>2016-08-26T08:52:54Z</time>
      </trkpt>
      <trkpt lat="46.409818343818188" lon="11.578181767836213">
        <ele>1566.770771026611101</ele>
        <time>2016-08-26T08:52:55Z</time>
      </trkpt>
      <trkpt lat="46.409749612212181" lon="11.578190568834543">
        <ele>1568.326435089111101</ele>
        <time>2016-08-26T08:52:56Z</time>
      </trkpt>
      <trkpt lat="46.40967970713973" lon="11.578206997364759">
        <ele>1568.276874542236101</ele>
        <time>2016-08-26T08:52:57Z</time>
      </trkpt>
      <trkpt lat="46.40962103381753" lon="11.578237172216177">
        <ele>1568.700946807861101</ele>
        <time>2016-08-26T08:52:58Z</time>
      </trkpt>
      <trkpt lat="46.40956629998982" lon="11.578255696222186">
        <ele>1568.496356964111101</ele>
        <time>2016-08-26T08:52:59Z</time>
      </trkpt>
      <trkpt lat="46.409524222835898" lon="11.578299114480615">
        <ele>1567.907001495361101</ele>
        <time>2016-08-26T08:53:00Z</time>
      </trkpt>
      <trkpt lat="46.409557079896331" lon="11.578417969867587">
        <ele>1568.727313995361101</ele>
        <time>2016-08-26T08:53:01Z</time>
      </trkpt>
      <trkpt lat="46.409568646922708" lon="11.578512266278267">
        <ele>1569.317157745361101</ele>
        <time>2016-08-26T08:53:02Z</time>
      </trkpt>
      <trkpt lat="46.409571329131722" lon="11.578597845509648">
        <ele>1569.314716339111101</ele>
        <time>2016-08-26T08:53:03Z</time>
      </trkpt>
      <trkpt lat="46.409574765712023" lon="11.578691890463233">
        <ele>1569.504169464111101</ele>
        <time>2016-08-26T08:53:04Z</time>
      </trkpt>
      <trkpt lat="46.409628661349416" lon="11.578711587935686">
        <ele>1568.503437042236101</ele>
        <time>2016-08-26T08:53:05Z</time>
      </trkpt>
      <trkpt lat="46.409682892262936" lon="11.578750815242529">
        <ele>1568.787860870361101</ele>
        <time>2016-08-26T08:53:06Z</time>
      </trkpt>
      <trkpt lat="46.409770147874951" lon="11.578706223517656">
        <ele>1568.342548370361101</ele>
        <time>2016-08-26T08:53:07Z</time>
      </trkpt>
      <trkpt lat="46.410029903054237" lon="11.578523498028517">
        <ele>1568.469745635986101</ele>
        <time>2016-08-26T08:53:08Z</time>
      </trkpt>
      <trkpt lat="46.410209946334362" lon="11.578511847183108">
        <ele>1569.495624542236101</ele>
        <time>2016-08-26T08:53:09Z</time>
      </trkpt>
      <trkpt lat="46.41033592633903" lon="11.578477565199137">
        <ele>1569.373310089111101</ele>
        <time>2016-08-26T08:53:10Z</time>
      </trkpt>
      <trkpt lat="46.410436928272247" lon="11.578443450853229">
        <ele>1571.070331573486101</ele>
        <time>2016-08-26T08:53:11Z</time>
      </trkpt>
      <trkpt lat="46.410564417019486" lon="11.57851243391633">
        <ele>1571.848407745361101</ele>
        <time>2016-08-26T08:53:12Z</time>
      </trkpt>
      <trkpt lat="46.410653349012136" lon="11.578474882990122">
        <ele>1572.293231964111101</ele>
        <time>2016-08-26T08:53:13Z</time>
      </trkpt>
      <trkpt lat="46.410709423944354" lon="11.578433979302645">
        <ele>1573.447040557861101</ele>
        <time>2016-08-26T08:53:14Z</time>
      </trkpt>
      <trkpt lat="46.410796847194433" lon="11.578431045636535">
        <ele>1575.477313995361101</ele>
        <time>2016-08-26T08:53:15Z</time>
      </trkpt>
      <trkpt lat="46.41086507588625" lon="11.578377820551395">
        <ele>1575.484638214111101</ele>
        <time>2016-08-26T08:53:16Z</time>
      </trkpt>
      <trkpt lat="46.410924419760704" lon="11.578350076451898">
        <ele>1575.387470245361101</ele>
        <time>2016-08-26T08:53:17Z</time>
      </trkpt>
      <trkpt lat="46.410999437794089" lon="11.578314704820514">
        <ele>1575.642353057861101</ele>
        <time>2016-08-26T08:53:18Z</time>
      </trkpt>
      <trkpt lat="46.411062553524971" lon="11.578239938244224">
        <ele>1576.003192901611101</ele>
        <time>2016-08-26T08:53:19Z</time>
      </trkpt>
      <trkpt lat="46.411107983440161" lon="11.578184701502323">
        <ele>1575.753681182861101</ele>
        <time>2016-08-26T08:53:20Z</time>
      </trkpt>
      <trkpt lat="46.411207392811775" lon="11.578139942139387">
        <ele>1576.267841339111101</ele>
        <time>2016-08-26T08:53:21Z</time>
      </trkpt>
      <trkpt lat="46.411269502714276" lon="11.578058889135718">
        <ele>1576.709980010986101</ele>
        <time>2016-08-26T08:53:22Z</time>
      </trkpt>
      <trkpt lat="46.411353154107928" lon="11.578026786446571">
        <ele>1577.420185089111101</ele>
        <time>2016-08-26T08:53:23Z</time>
      </trkpt>
      <trkpt lat="46.411415347829461" lon="11.57805947586894">
        <ele>1578.017841339111101</ele>
        <time>2016-08-26T08:53:24Z</time>
      </trkpt>
      <trkpt lat="46.411495646461844" lon="11.578018572181463">
        <ele>1578.409931182861101</ele>
        <time>2016-08-26T08:53:25Z</time>
      </trkpt>
      <trkpt lat="46.411142349243164" lon="11.578924655914307">
        <time>2017-04-26T14:37:42Z</time>
      </trkpt>
      <trkpt lat="46.410927772521973" lon="11.57933235168457"/>
      <trkpt lat="46.410391330718994" lon="11.580255031585693"/>
      <trkpt lat="46.410090923309326" lon="11.580770015716553"/>
      <trkpt lat="46.409854888916016" lon="11.581070423126221"/>
      <trkpt lat="46.408481597900391" lon="11.581950187683105"/>
      <trkpt lat="46.407966613769531" lon="11.582551002502441"/>
      <trkpt lat="46.40775203704834" lon="11.582722663879395"/>
      <trkpt lat="46.407537460327148" lon="11.582872867584229"/>
      <trkpt lat="46.406850814819336" lon="11.583366394042969"/>
      <trkpt lat="46.406528949737549" lon="11.5840744972229"/>
      <trkpt lat="46.406292915344238" lon="11.584610939025879"/>
      <trkpt lat="46.406207084655762" lon="11.584975719451904"/>
      <trkpt lat="46.406121253967285" lon="11.586220264434814"/>
      <trkpt lat="46.406121253967285" lon="11.586692333221436"/>
      <trkpt lat="46.406207084655762" lon="11.586971282958984"/>
      <trkpt lat="46.406700611114502" lon="11.588022708892822"/>
      <trkpt lat="46.406893730163574" lon="11.589181423187256"/>
      <trkpt lat="46.40700101852417" lon="11.58982515335083"/>
      <trkpt lat="46.407043933868408" lon="11.590125560760498"/>
      <trkpt lat="46.407151222229004" lon="11.591091156005859"/>
      <trkpt lat="46.407151222229004" lon="11.592164039611816"/>
      <trkpt lat="46.407151222229004" lon="11.592485904693604"/>
      <trkpt lat="46.407151222229004" lon="11.592786312103271"/>
      <trkpt lat="46.407151222229004" lon="11.593172550201416"/>
      <trkpt lat="46.407580375671387" lon="11.596090793609619"/>
      <trkpt lat="46.407730579376221" lon="11.597292423248291"/>
      <trkpt lat="46.407580375671387" lon="11.598365306854248"/>
      <trkpt lat="46.407387256622314" lon="11.599695682525635"/>
      <trkpt lat="46.407430171966553" lon="11.601154804229736"/>
      <trkpt lat="46.40749454498291" lon="11.602013111114502"/>
      <trkpt lat="46.407516002655029" lon="11.602935791015625"/>
      <trkpt lat="46.407387256622314" lon="11.603107452392578"/>
      <trkpt lat="46.407065391540527" lon="11.603343486785889"/>
      <trkpt lat="46.406400203704834" lon="11.603837013244629"/>
      <trkpt lat="46.406292915344238" lon="11.604030132293701"/>
      <trkpt lat="46.406314373016357" lon="11.60430908203125"/>
      <trkpt lat="46.406400203704834" lon="11.604459285736084"/>
      <trkpt lat="46.406915187835693" lon="11.604931354522705"/>
      <trkpt lat="46.406958103179932" lon="11.605038642883301"/>
      <trkpt lat="46.406936645507812" lon="11.60531759262085"/>
      <trkpt lat="46.406850814819336" lon="11.605489253997803"/>
      <trkpt lat="46.406078338623047" lon="11.606090068817139"/>
      <trkpt lat="46.405949592590332" lon="11.606347560882568"/>
      <trkpt lat="46.405842304229736" lon="11.606583595275879"/>
      <trkpt lat="46.405692100524902" lon="11.606884002685547"/>
      <trkpt lat="46.405348777770996" lon="11.607162952423096"/>
      <trkpt lat="46.405177116394043" lon="11.607270240783691"/>
      <trkpt lat="46.404640674591064" lon="11.608107089996338"/>
      <trkpt lat="46.404318809509277" lon="11.608879566192627"/>
      <trkpt lat="46.404232978820801" lon="11.60930871963501"/>
      <trkpt lat="46.404147148132324" lon="11.610510349273682"/>
      <trkpt lat="46.404039859771729" lon="11.61205530166626"/>
      <trkpt lat="46.404061317443848" lon="11.612656116485596"/>
      <trkpt lat="46.404275894165039" lon="11.613321304321289"/>
      <trkpt lat="46.404640674591064" lon="11.614630222320557"/>
      <trkpt lat="46.404576301574707" lon="11.615080833435059"/>
      <trkpt lat="46.404297351837158" lon="11.615574359893799"/>
      <trkpt lat="46.402924060821533" lon="11.616668701171875"/>
      <trkpt lat="46.402838230133057" lon="11.616775989532471"/>
      <trkpt lat="46.402730941772461" lon="11.617097854614258"/>
      <trkpt lat="46.402688026428223" lon="11.617763042449951"/>
      <trkpt lat="46.402537822723389" lon="11.619994640350342"/>
      <trkpt lat="46.402559280395508" lon="11.620337963104248"/>
      <trkpt lat="46.402709484100342" lon="11.620509624481201"/>
      <trkpt lat="46.403331756591797" lon="11.620573997497559"/>
      <trkpt lat="46.403546333312988" lon="11.620702743530273"/>
      <trkpt lat="46.403825283050537" lon="11.62104606628418"/>
      <trkpt lat="46.403954029083252" lon="11.621432304382324"/>
      <trkpt lat="46.40399694442749" lon="11.621711254119873"/>
      <trkpt lat="46.40399694442749" lon="11.622183322906494"/>
      <trkpt lat="46.403889656066895" lon="11.622462272644043"/>
      <trkpt lat="46.403632164001465" lon="11.622698307037354"/>
      <trkpt lat="46.403117179870605" lon="11.623020172119141"/>
      <trkpt lat="46.402838230133057" lon="11.623427867889404"/>
      <trkpt lat="46.402366161346436" lon="11.623771190643311"/>
      <trkpt lat="46.402280330657959" lon="11.624007225036621"/>
      <trkpt lat="46.402151584625244" lon="11.624801158905029"/>
      <trkpt lat="46.401958465576172" lon="11.625938415527344"/>
      <trkpt lat="46.401937007904053" lon="11.626195907592773"/>
      <trkpt lat="46.40200138092041" lon="11.626389026641846"/>
      <trkpt lat="46.402087211608887" lon="11.62653923034668"/>
      <trkpt lat="46.40225887298584" lon="11.626646518707275"/>
      <trkpt lat="46.402966976165771" lon="11.626625061035156"/>
      <trkpt lat="46.403074264526367" lon="11.626818180084229"/>
      <trkpt lat="46.403074264526367" lon="11.626946926116943"/>
      <trkpt lat="46.403031349182129" lon="11.62804126739502"/>
      <trkpt lat="46.402988433837891" lon="11.62827730178833"/>
      <trkpt lat="46.402709484100342" lon="11.628599166870117"/>
      <trkpt lat="46.402451992034912" lon="11.629049777984619"/>
      <trkpt lat="46.402108669281006" lon="11.63001537322998"/>
      <trkpt lat="46.402044296264648" lon="11.630294322967529"/>
      <trkpt lat="46.402130126953125" lon="11.631066799163818"/>
      <trkpt lat="46.402237415313721" lon="11.63128137588501"/>
      <trkpt lat="46.402623653411865" lon="11.631860733032227"/>
      <trkpt lat="46.403267383575439" lon="11.632804870605469"/>
      <trkpt lat="46.403439044952393" lon="11.633191108703613"/>
      <trkpt lat="46.403460502624512" lon="11.633641719818115"/>
      <trkpt lat="46.403331756591797" lon="11.634585857391357"/>
      <trkpt lat="46.403396129608154" lon="11.635100841522217"/>
      <trkpt lat="46.403567790985107" lon="11.635422706604004"/>
      <trkpt lat="46.403696537017822" lon="11.635551452636719"/>
      <trkpt lat="46.404232978820801" lon="11.635851860046387"/>
      <trkpt lat="46.404340267181396" lon="11.635916233062744"/>
      <trkpt lat="46.404705047607422" lon="11.636109352111816"/>
      <trkpt lat="46.405026912689209" lon="11.636238098144531"/>
      <trkpt lat="46.405649185180664" lon="11.635916233062744"/>
      <trkpt lat="46.405928134918213" lon="11.635851860046387"/>
      <trkpt lat="46.406421661376953" lon="11.635937690734863"/>
      <trkpt lat="46.40674352645874" lon="11.636066436767578"/>
      <trkpt lat="46.406807899475098" lon="11.636195182800293"/>
      <trkpt lat="46.406829357147217" lon="11.636366844177246"/>
      <trkpt lat="46.406593322753906" lon="11.637160778045654"/>
      <trkpt lat="46.406722068786621" lon="11.637482643127441"/>
      <trkpt lat="46.406936645507812" lon="11.637568473815918"/>
      <trkpt lat="46.407387256622314" lon="11.637632846832275"/>
      <trkpt lat="46.407687664031982" lon="11.637718677520752"/>
      <trkpt lat="46.40775203704834" lon="11.637804508209229"/>
      <trkpt lat="46.407837867736816" lon="11.638448238372803"/>
      <trkpt lat="46.407794952392578" lon="11.638641357421875"/>
      <trkpt lat="46.407172679901123" lon="11.639950275421143"/>
      <trkpt lat="46.407215595245361" lon="11.640443801879883"/>
      <trkpt lat="46.407322883605957" lon="11.641066074371338"/>
      <trkpt lat="46.407322883605957" lon="11.641366481781006"/>
      <trkpt lat="46.407215595245361" lon="11.641538143157959"/>
      <trkpt lat="46.40700101852417" lon="11.641538143157959"/>
      <trkpt lat="46.406335830688477" lon="11.64125919342041"/>
      <trkpt lat="46.40599250793457" lon="11.641173362731934"/>
      <trkpt lat="46.405520439147949" lon="11.641151905059814"/>
      <trkpt lat="46.40526294708252" lon="11.640915870666504"/>
      <trkpt lat="46.405069828033447" lon="11.640830039978027"/>
      <trkpt lat="46.404790878295898" lon="11.640894412994385"/>
      <trkpt lat="46.404447555541992" lon="11.6410231590271"/>
      <trkpt lat="46.404297351837158" lon="11.641151905059814"/>
      <trkpt lat="46.403911113739014" lon="11.641709804534912"/>
      <trkpt lat="46.403696537017822" lon="11.642374992370605"/>
      <trkpt lat="46.403653621673584" lon="11.642675399780273"/>
      <trkpt lat="46.403696537017822" lon="11.642782688140869"/>
      <trkpt lat="46.404125690460205" lon="11.643233299255371"/>
      <trkpt lat="46.404469013214111" lon="11.643426418304443"/>
      <trkpt lat="46.405155658721924" lon="11.64351224899292"/>
      <trkpt lat="46.405906677246094" lon="11.642546653747559"/>
      <trkpt lat="46.406142711639404" lon="11.642460823059082"/>
      <trkpt lat="46.406357288360596" lon="11.642525196075439"/>
      <trkpt lat="46.406464576721191" lon="11.642718315124512"/>
      <trkpt lat="46.40650749206543" lon="11.642975807189941"/>
      <trkpt lat="46.406292915344238" lon="11.643705368041992"/>
      <trkpt lat="46.406421661376953" lon="11.644177436828613"/>
      <trkpt lat="46.406421661376953" lon="11.644306182861328"/>
      <trkpt lat="46.406207084655762" lon="11.644906997680664"/>
      <trkpt lat="46.406121253967285" lon="11.646966934204102"/>
      <trkpt lat="46.40575647354126" lon="11.64750337600708"/>
      <trkpt lat="46.405670642852783" lon="11.647868156433105"/>
      <trkpt lat="46.405729399994016" lon="11.648396886885166"/>
      <trkpt lat="46.405885219573975" lon="11.649799346923828"/>
      <trkpt lat="46.405971050262451" lon="11.649949550628662"/>
      <trkpt lat="46.406314373016357" lon="11.65024995803833"/>
      <trkpt lat="46.406614780426025" lon="11.650443077087402"/>
      <trkpt lat="46.406850814819336" lon="11.650357246398926"/>
      <trkpt lat="46.406936645507812" lon="11.65024995803833"/>
      <trkpt lat="46.407279968261719" lon="11.649692058563232"/>
      <trkpt lat="46.407344341278076" lon="11.649649143218994"/>
      <trkpt lat="46.407451629638672" lon="11.649649143218994"/>
      <trkpt lat="46.408224105834961" lon="11.650078296661377"/>
      <trkpt lat="46.408288478851318" lon="11.650185585021973"/>
      <trkpt lat="46.408288478851318" lon="11.650335788726807"/>
      <trkpt lat="46.408095359802246" lon="11.6510009765625"/>
      <trkpt lat="46.408095359802246" lon="11.651172637939453"/>
      <trkpt lat="46.408138275146484" lon="11.651344299316406"/>
      <trkpt lat="46.408545970916748" lon="11.652138233184814"/>
      <trkpt lat="46.408953666687012" lon="11.652889251708984"/>
      <trkpt lat="46.409082412719727" lon="11.653039455413818"/>
      <trkpt lat="46.409404277801514" lon="11.65325403213501"/>
      <trkpt lat="46.409962177276611" lon="11.653597354888916"/>
      <trkpt lat="46.410219669342041" lon="11.65349006652832"/>
      <trkpt lat="46.41049861907959" lon="11.653232574462891"/>
      <trkpt lat="46.411056518554688" lon="11.652674674987793"/>
      <trkpt lat="46.4117431640625" lon="11.651687622070312"/>
      <trkpt lat="46.411850452423096" lon="11.651666164398193"/>
      <trkpt lat="46.41200065612793" lon="11.651816368103027"/>
      <trkpt lat="46.412043571472168" lon="11.652030944824219"/>
      <trkpt lat="46.411893367767334" lon="11.652846336364746"/>
      <trkpt lat="46.411914825439453" lon="11.65299654006958"/>
      <trkpt lat="46.411979198455811" lon="11.653125286102295"/>
      <trkpt lat="46.412215232849121" lon="11.653275489807129"/>
      <trkpt lat="46.412708759307861" lon="11.65349006652832"/>
      <trkpt lat="46.412837505340576" lon="11.653618812561035"/>
      <trkpt lat="46.412837505340576" lon="11.653897762298584"/>
      <trkpt lat="46.412537097930908" lon="11.654176712036133"/>
      <trkpt lat="46.412472724914551" lon="11.654369831085205"/>
      <trkpt lat="46.412708759307861" lon="11.655120849609375"/>
      <trkpt lat="46.412687301635742" lon="11.65550708770752"/>
      <trkpt lat="46.412322521209717" lon="11.656129360198975"/>
      <trkpt lat="46.412258148193359" lon="11.656730175018311"/>
      <trkpt lat="46.412193775177002" lon="11.657030582427979"/>
      <trkpt lat="46.412043571472168" lon="11.657395362854004"/>
      <trkpt lat="46.411893367767334" lon="11.657588481903076"/>
      <trkpt lat="46.4117431640625" lon="11.657803058624268"/>
      <trkpt lat="46.411592960357666" lon="11.658060550689697"/>
      <trkpt lat="46.411571502685547" lon="11.65825366973877"/>
      <trkpt lat="46.411786079406738" lon="11.658639907836914"/>
      <trkpt lat="46.411828994750977" lon="11.658854484558105"/>
      <trkpt lat="46.411528587341309" lon="11.659326553344727"/>
      <trkpt lat="46.411442756652832" lon="11.659541130065918"/>
      <trkpt lat="46.411464214324951" lon="11.659691333770752"/>
      <trkpt lat="46.411678791046143" lon="11.660013198852539"/>
      <trkpt lat="46.411957740783691" lon="11.660313606262207"/>
      <trkpt lat="46.412065029144287" lon="11.660420894622803"/>
      <trkpt lat="46.412279605865479" lon="11.660678386688232"/>
      <trkpt lat="46.41249418258667" lon="11.661128997802734"/>
      <trkpt lat="46.412708759307861" lon="11.662330627441406"/>
      <trkpt lat="46.412687301635742" lon="11.662867069244385"/>
      <trkpt lat="46.412301063537598" lon="11.663639545440674"/>
      <trkpt lat="46.411957740783691" lon="11.664261817932129"/>
      <trkpt lat="46.411957740783691" lon="11.664626598358154"/>
      <trkpt lat="46.412043571472168" lon="11.664862632751465"/>
      <trkpt lat="46.412966251373291" lon="11.6664719581604"/>
      <trkpt lat="46.413910388946533" lon="11.667459011077881"/>
      <trkpt lat="46.41448974609375" lon="11.668059825897217"/>
      <trkpt lat="46.415197849273682" lon="11.66872501373291"/>
      <trkpt lat="46.415283679962158" lon="11.668810844421387"/>
      <trkpt lat="46.41547679901123" lon="11.668961048126221"/>
      <trkpt lat="46.415863037109375" lon="11.669261455535889"/>
      <trkpt lat="46.415970325469971" lon="11.669368743896484"/>
      <trkpt lat="46.416399478912354" lon="11.669669151306152"/>
      <trkpt lat="46.416721343994141" lon="11.669776439666748"/>
      <trkpt lat="46.417300701141357" lon="11.669883728027344"/>
      <trkpt lat="46.417450904846191" lon="11.669840812683105"/>
      <trkpt lat="46.417901515960693" lon="11.669304370880127"/>
      <trkpt lat="46.418352127075195" lon="11.668789386749268"/>
      <trkpt lat="46.41848087310791" lon="11.66872501373291"/>
      <trkpt lat="46.418802738189697" lon="11.668703556060791"/>
      <trkpt lat="46.419060230255127" lon="11.668832302093506"/>
      <trkpt lat="46.419382095336914" lon="11.669068336486816"/>
      <trkpt lat="46.419425010681152" lon="11.669111251831055"/>
      <trkpt lat="46.419510841369629" lon="11.669325828552246"/>
      <trkpt lat="46.419467926025391" lon="11.669626235961914"/>
      <trkpt lat="46.419360637664795" lon="11.669905185699463"/>
      <trkpt lat="46.419360637664795" lon="11.66996955871582"/>
      <trkpt lat="46.419253349304199" lon="11.670269966125488"/>
      <trkpt lat="46.419060230255127" lon="11.670784950256348"/>
      <trkpt lat="46.418867111206055" lon="11.671042442321777"/>
      <trkpt lat="46.418631076812744" lon="11.671106815338135"/>
      <trkpt lat="46.418266296386719" lon="11.670999526977539"/>
      <trkpt lat="46.417944431304932" lon="11.670892238616943"/>
      <trkpt lat="46.417751312255859" lon="11.670913696289062"/>
      <trkpt lat="46.417601108551025" lon="11.671042442321777"/>
      <trkpt lat="46.41749382019043" lon="11.671257019042969"/>
      <trkpt lat="46.417429447174072" lon="11.671600341796875"/>
      <trkpt lat="46.417450904846191" lon="11.671814918518066"/>
      <trkpt lat="46.417751312255859" lon="11.672544479370117"/>
      <trkpt lat="46.417837142944336" lon="11.672694683074951"/>
      <trkpt lat="46.418159008026123" lon="11.67346715927124"/>
      <trkpt lat="46.418159008026123" lon="11.673767566680908"/>
      <trkpt lat="46.418116092681885" lon="11.67396068572998"/>
      <trkpt lat="46.417965888977051" lon="11.674411296844482"/>
      <trkpt lat="46.417901515960693" lon="11.674432754516602"/>
      <trkpt lat="46.417858600616455" lon="11.674540042877197"/>
      <trkpt lat="46.417901515960693" lon="11.67473316192627"/>
      <trkpt lat="46.417880058288574" lon="11.674861907958984"/>
      <trkpt lat="46.417858600616455" lon="11.67522668838501"/>
      <trkpt lat="46.417880058288574" lon="11.675505638122559"/>
      <trkpt lat="46.418180465698242" lon="11.676621437072754"/>
      <trkpt lat="46.41822338104248" lon="11.676793098449707"/>
      <trkpt lat="46.418502330780029" lon="11.677844524383545"/>
      <trkpt lat="46.418781280517578" lon="11.678831577301025"/>
      <trkpt lat="46.420068740844727" lon="11.679174900054932"/>
      <trkpt lat="46.420133113861084" lon="11.679174900054932"/>
      <trkpt lat="46.420176029205322" lon="11.679110527038574"/>
      <trkpt lat="46.420454978942871" lon="11.67921781539917"/>
      <trkpt lat="46.420905590057373" lon="11.679561138153076"/>
      <trkpt lat="46.42096996307373" lon="11.679389476776123"/>
      <trkpt lat="46.421248912811279" lon="11.679003238677979"/>
      <trkpt lat="46.421420574188232" lon="11.679067611694336"/>
      <trkpt lat="46.421420574188232" lon="11.67945384979248"/>
      <trkpt lat="46.421334743499756" lon="11.679754257202148"/>
      <trkpt lat="46.421270370483398" lon="11.680140495300293"/>
      <trkpt lat="46.421291828155518" lon="11.680440902709961"/>
      <trkpt lat="46.421420574188232" lon="11.680634021759033"/>
      <trkpt lat="46.421999931335449" lon="11.681191921234131"/>
      <trkpt lat="46.422858238220215" lon="11.682028770446777"/>
      <trkpt lat="46.423630714416504" lon="11.682651042938232"/>
      <trkpt lat="46.423244476318359" lon="11.682608127593994"/>
      <trkpt lat="46.423308849334717" lon="11.683144569396973"/>
      <trkpt lat="46.423459053039551" lon="11.68370246887207"/>
      <trkpt lat="46.423673629760742" lon="11.684260368347168"/>
      <trkpt lat="46.423995494842529" lon="11.684818267822266"/>
      <trkpt lat="46.425025463104248" lon="11.684582233428955"/>
      <trkpt lat="46.426119804382324" lon="11.684625148773193"/>
      <trkpt lat="46.426699161529541" lon="11.684796810150146"/>
      <trkpt lat="46.427450180053711" lon="11.685118675231934"/>
      <trkpt lat="46.427814960479736" lon="11.685183048248291"/>
      <trkpt lat="46.428351402282715" lon="11.685440540313721"/>
      <trkpt lat="46.428780555725098" lon="11.685612201690674"/>
      <trkpt lat="46.429445743560791" lon="11.685848236083984"/>
      <trkpt lat="46.429572980850935" lon="11.685817977413535"/>
      <trkpt lat="46.429595947265625" lon="11.686019897460938"/>
    </trkseg>
  </trk>
</gpx>
